<?xml version="1.0" encoding="UTF-8" standalone="no" ?><gpx xmlns="http://www.topografix.com/GPX/1/1" xmlns:gpxx="http://www.garmin.com/xmlschemas/GpxExtensions/v3" xmlns:wptx1="http://www.garmin.com/xmlschemas/WaypointExtension/v1" xmlns:gpxtpx="http://www.garmin.com/xmlschemas/TrackPointExtension/v1" creator="eTrex 30" version="1.1" xmlns:xsi="http://www.w3.org/2001/XMLSchema-instance" xsi:schemaLocation="http://www.topografix.com/GPX/1/1 http://www.topografix.com/GPX/1/1/gpx.xsd http://www.garmin.com/xmlschemas/GpxExtensions/v3 http://www8.garmin.com/xmlschemas/GpxExtensionsv3.xsd http://www.garmin.com/xmlschemas/WaypointExtension/v1 http://www8.garmin.com/xmlschemas/WaypointExtensionv1.xsd http://www.garmin.com/xmlschemas/TrackPointExtension/v1 http://www.garmin.com/xmlschemas/TrackPointExtensionv1.xsd"><metadata><link href="http://www.garmin.com"><text>Garmin International</text></link><time>2015-11-24T14:03:54Z</time></metadata><trk><name>24-NOV-15 16:03:50</name><extensions><gpxx:TrackExtension><gpxx:DisplayColor>Cyan</gpxx:DisplayColor></gpxx:TrackExtension></extensions><trkseg><trkpt lat="30.5261477921" lon="35.5651186500"><ele>1276.29</ele><time>2015-11-24T06:19:59Z</time></trkpt><trkpt lat="30.5261553358" lon="35.5651188176"><ele>1281.09</ele><time>2015-11-24T06:20:16Z</time></trkpt><trkpt lat="30.5261552520" lon="35.5651170574"><ele>1284.94</ele><time>2015-11-24T06:20:18Z</time></trkpt><trkpt lat="30.5261563417" lon="35.5651189014"><ele>1287.82</ele><time>2015-11-24T06:20:20Z</time></trkpt><trkpt lat="30.5261558387" lon="35.5651237629"><ele>1291.19</ele><time>2015-11-24T06:20:22Z</time></trkpt><trkpt lat="30.5261528213" lon="35.5651279539"><ele>1294.07</ele><time>2015-11-24T06:20:24Z</time></trkpt><trkpt lat="30.5261526536" lon="35.5651304685"><ele>1297.92</ele><time>2015-11-24T06:20:27Z</time></trkpt><trkpt lat="30.5261529889" lon="35.5651340727"><ele>1301.76</ele><time>2015-11-24T06:20:30Z</time></trkpt><trkpt lat="30.5261500552" lon="35.5651294626"><ele>1304.17</ele><time>2015-11-24T06:20:32Z</time></trkpt><trkpt lat="30.5261469539" lon="35.5651242658"><ele>1308.01</ele><time>2015-11-24T06:20:35Z</time></trkpt><trkpt lat="30.5261434335" lon="35.5651184823"><ele>1310.90</ele><time>2015-11-24T06:20:38Z</time></trkpt><trkpt lat="30.5261387397" lon="35.5651149619"><ele>1312.82</ele><time>2015-11-24T06:20:40Z</time></trkpt><trkpt lat="30.5261421762" lon="35.5651081726"><ele>1316.66</ele><time>2015-11-24T06:20:46Z</time></trkpt><trkpt lat="30.5261442717" lon="35.5651051551"><ele>1320.03</ele><time>2015-11-24T06:20:50Z</time></trkpt><trkpt lat="30.5261381529" lon="35.5651055742"><ele>1323.39</ele><time>2015-11-24T06:20:55Z</time></trkpt><trkpt lat="30.5261366442" lon="35.5651063286"><ele>1324.83</ele><time>2015-11-24T06:20:57Z</time></trkpt><trkpt lat="30.5261359736" lon="35.5651071668"><ele>1326.28</ele><time>2015-11-24T06:20:59Z</time></trkpt><trkpt lat="30.5261348002" lon="35.5651075859"><ele>1329.16</ele><time>2015-11-24T06:21:11Z</time></trkpt><trkpt lat="30.5261297710" lon="35.5651032273"><ele>1332.52</ele><time>2015-11-24T06:21:19Z</time></trkpt><trkpt lat="30.5261295196" lon="35.5651046522"><ele>1332.52</ele><time>2015-11-24T06:21:20Z</time></trkpt><trkpt lat="30.5261467863" lon="35.5651009642"><ele>1335.89</ele><time>2015-11-24T06:21:32Z</time></trkpt><trkpt lat="30.5261502229" lon="35.5651007965"><ele>1336.37</ele><time>2015-11-24T06:21:33Z</time></trkpt><trkpt lat="30.5261589400" lon="35.5651064962"><ele>1337.81</ele><time>2015-11-24T06:21:41Z</time></trkpt><trkpt lat="30.5261609517" lon="35.5651108548"><ele>1341.18</ele><time>2015-11-24T06:21:56Z</time></trkpt><trkpt lat="30.5261510611" lon="35.5650850385"><ele>1340.22</ele><time>2015-11-24T06:22:26Z</time></trkpt><trkpt lat="30.5261960719" lon="35.5651515909"><ele>1339.73</ele><time>2015-11-24T06:22:41Z</time></trkpt><trkpt lat="30.5261923838" lon="35.5651722103"><ele>1339.73</ele><time>2015-11-24T06:22:49Z</time></trkpt><trkpt lat="30.5261915457" lon="35.5652235914"><ele>1339.73</ele><time>2015-11-24T06:22:53Z</time></trkpt><trkpt lat="30.5262171105" lon="35.5652643275"><ele>1339.73</ele><time>2015-11-24T06:23:04Z</time></trkpt><trkpt lat="30.5262210499" lon="35.5652996153"><ele>1339.25</ele><time>2015-11-24T06:23:20Z</time></trkpt><trkpt lat="30.5262579303" lon="35.5652761459"><ele>1339.25</ele><time>2015-11-24T06:23:24Z</time></trkpt><trkpt lat="30.5262771249" lon="35.5652359966"><ele>1339.25</ele><time>2015-11-24T06:23:37Z</time></trkpt><trkpt lat="30.5262347963" lon="35.5651714560"><ele>1339.25</ele><time>2015-11-24T06:23:50Z</time></trkpt><trkpt lat="30.5262275040" lon="35.5651684385"><ele>1339.25</ele><time>2015-11-24T06:23:51Z</time></trkpt><trkpt lat="30.5262022745" lon="35.5651580449"><ele>1339.25</ele><time>2015-11-24T06:23:54Z</time></trkpt><trkpt lat="30.5261715967" lon="35.5651684385"><ele>1339.73</ele><time>2015-11-24T06:23:58Z</time></trkpt><trkpt lat="30.5261693336" lon="35.5651871301"><ele>1339.73</ele><time>2015-11-24T06:24:00Z</time></trkpt><trkpt lat="30.5262112431" lon="35.5651428737"><ele>1339.25</ele><time>2015-11-24T06:24:11Z</time></trkpt><trkpt lat="30.5262069684" lon="35.5651143752"><ele>1339.73</ele><time>2015-11-24T06:24:25Z</time></trkpt><trkpt lat="30.5262063816" lon="35.5651000421"><ele>1339.73</ele><time>2015-11-24T06:24:37Z</time></trkpt><trkpt lat="30.5261431821" lon="35.5655602925"><ele>1338.29</ele><time>2015-11-24T06:52:24Z</time></trkpt><trkpt lat="30.5261835828" lon="35.5655846838"><ele>1336.85</ele><time>2015-11-24T06:52:26Z</time></trkpt><trkpt lat="30.5262288451" lon="35.5659306049"><ele>1335.89</ele><time>2015-11-24T06:52:38Z</time></trkpt><trkpt lat="30.5259165354" lon="35.5661316030"><ele>1335.89</ele><time>2015-11-24T06:52:51Z</time></trkpt><trkpt lat="30.5258726981" lon="35.5661307648"><ele>1337.33</ele><time>2015-11-24T06:53:00Z</time></trkpt><trkpt lat="30.5258711893" lon="35.5661129951"><ele>1338.29</ele><time>2015-11-24T06:53:02Z</time></trkpt><trkpt lat="30.5258778948" lon="35.5660699122"><ele>1338.77</ele><time>2015-11-24T06:53:16Z</time></trkpt><trkpt lat="30.5258899648" lon="35.5660891067"><ele>1339.25</ele><time>2015-11-24T06:53:57Z</time></trkpt><trkpt lat="30.5258951616" lon="35.5661026016"><ele>1339.73</ele><time>2015-11-24T06:54:37Z</time></trkpt><trkpt lat="30.5258930661" lon="35.5660971534"><ele>1339.25</ele><time>2015-11-24T06:55:19Z</time></trkpt><trkpt lat="30.5258610472" lon="35.5661050323"><ele>1339.25</ele><time>2015-11-24T06:56:07Z</time></trkpt><trkpt lat="30.5258822534" lon="35.5661336146"><ele>1339.25</ele><time>2015-11-24T06:56:39Z</time></trkpt><trkpt lat="30.5259297788" lon="35.5661350396"><ele>1339.25</ele><time>2015-11-24T06:56:56Z</time></trkpt><trkpt lat="30.5259198882" lon="35.5661236402"><ele>1338.77</ele><time>2015-11-24T06:57:20Z</time></trkpt><trkpt lat="30.5259281863" lon="35.5661222991"><ele>1338.77</ele><time>2015-11-24T06:57:46Z</time></trkpt><trkpt lat="30.5259625521" lon="35.5661095586"><ele>1338.77</ele><time>2015-11-24T06:58:04Z</time></trkpt><trkpt lat="30.5260373186" lon="35.5660209619"><ele>1338.77</ele><time>2015-11-24T06:58:11Z</time></trkpt><trkpt lat="30.5262307730" lon="35.5658210535"><ele>1339.73</ele><time>2015-11-24T06:58:25Z</time></trkpt><trkpt lat="30.5265141651" lon="35.5654913094"><ele>1337.81</ele><time>2015-11-24T06:58:37Z</time></trkpt><trkpt lat="30.5266294163" lon="35.5653505772"><ele>1336.37</ele><time>2015-11-24T06:58:41Z</time></trkpt><trkpt lat="30.5266995728" lon="35.5651142914"><ele>1334.45</ele><time>2015-11-24T06:58:45Z</time></trkpt><trkpt lat="30.5267958809" lon="35.5648312345"><ele>1332.04</ele><time>2015-11-24T06:58:55Z</time></trkpt><trkpt lat="30.5268995650" lon="35.5646490958"><ele>1327.72</ele><time>2015-11-24T06:59:00Z</time></trkpt><trkpt lat="30.5270196777" lon="35.5644839723"><ele>1322.91</ele><time>2015-11-24T06:59:03Z</time></trkpt><trkpt lat="30.5271192547" lon="35.5643773545"><ele>1319.55</ele><time>2015-11-24T06:59:05Z</time></trkpt><trkpt lat="30.5272338353" lon="35.5642584153"><ele>1315.22</ele><time>2015-11-24T06:59:08Z</time></trkpt><trkpt lat="30.5272604898" lon="35.5640080478"><ele>1310.90</ele><time>2015-11-24T06:59:13Z</time></trkpt><trkpt lat="30.5273074284" lon="35.5639489554"><ele>1309.45</ele><time>2015-11-24T06:59:19Z</time></trkpt><trkpt lat="30.5273055844" lon="35.5639506318"><ele>1310.41</ele><time>2015-11-24T06:59:25Z</time></trkpt><trkpt lat="30.5273099430" lon="35.5639525596"><ele>1310.41</ele><time>2015-11-24T06:59:29Z</time></trkpt><trkpt lat="30.5273975339" lon="35.5640300922"><ele>1308.97</ele><time>2015-11-24T06:59:43Z</time></trkpt><trkpt lat="30.5274683610" lon="35.5640834011"><ele>1307.05</ele><time>2015-11-24T06:59:46Z</time></trkpt><trkpt lat="30.5276772380" lon="35.5641198624"><ele>1302.24</ele><time>2015-11-24T06:59:51Z</time></trkpt><trkpt lat="30.5278135277" lon="35.5641253944"><ele>1298.40</ele><time>2015-11-24T06:59:55Z</time></trkpt><trkpt lat="30.5279060639" lon="35.5640454311"><ele>1295.51</ele><time>2015-11-24T06:59:59Z</time></trkpt><trkpt lat="30.5279527511" lon="35.5639813095"><ele>1292.15</ele><time>2015-11-24T07:00:07Z</time></trkpt><trkpt lat="30.5279600434" lon="35.5639848299"><ele>1293.59</ele><time>2015-11-24T07:00:22Z</time></trkpt><trkpt lat="30.5281348061" lon="35.5640885141"><ele>1292.15</ele><time>2015-11-24T07:00:30Z</time></trkpt><trkpt lat="30.5281793140" lon="35.5640977342"><ele>1292.15</ele><time>2015-11-24T07:00:31Z</time></trkpt><trkpt lat="30.5282788910" lon="35.5641102232"><ele>1291.19</ele><time>2015-11-24T07:00:33Z</time></trkpt><trkpt lat="30.5283297691" lon="35.5641262326"><ele>1290.71</ele><time>2015-11-24T07:00:34Z</time></trkpt><trkpt lat="30.5284342915" lon="35.5641691480"><ele>1289.27</ele><time>2015-11-24T07:00:36Z</time></trkpt><trkpt lat="30.5284848344" lon="35.5642051063"><ele>1288.78</ele><time>2015-11-24T07:00:37Z</time></trkpt><trkpt lat="30.5285321921" lon="35.5642600916"><ele>1288.30</ele><time>2015-11-24T07:00:38Z</time></trkpt><trkpt lat="30.5285716709" lon="35.5643275660"><ele>1287.82</ele><time>2015-11-24T07:00:39Z</time></trkpt><trkpt lat="30.5286000017" lon="35.5644019134"><ele>1287.34</ele><time>2015-11-24T07:00:40Z</time></trkpt><trkpt lat="30.5286237225" lon="35.5644784402"><ele>1287.34</ele><time>2015-11-24T07:00:41Z</time></trkpt><trkpt lat="30.5286788754" lon="35.5646247882"><ele>1286.38</ele><time>2015-11-24T07:00:43Z</time></trkpt><trkpt lat="30.5287145823" lon="35.5646917596"><ele>1285.90</ele><time>2015-11-24T07:00:44Z</time></trkpt><trkpt lat="30.5287593417" lon="35.5647547077"><ele>1284.94</ele><time>2015-11-24T07:00:45Z</time></trkpt><trkpt lat="30.5288104713" lon="35.5648116209"><ele>1284.46</ele><time>2015-11-24T07:00:46Z</time></trkpt><trkpt lat="30.5288705695" lon="35.5648631696"><ele>1283.02</ele><time>2015-11-24T07:00:47Z</time></trkpt><trkpt lat="30.5289341882" lon="35.5649125390"><ele>1282.06</ele><time>2015-11-24T07:00:48Z</time></trkpt><trkpt lat="30.5291495193" lon="35.5650721304"><ele>1278.69</ele><time>2015-11-24T07:00:52Z</time></trkpt><trkpt lat="30.5292094499" lon="35.5651076697"><ele>1277.25</ele><time>2015-11-24T07:00:55Z</time></trkpt><trkpt lat="30.5292190053" lon="35.5650871340"><ele>1277.25</ele><time>2015-11-24T07:01:07Z</time></trkpt><trkpt lat="30.5291289836" lon="35.5650634132"><ele>1278.21</ele><time>2015-11-24T07:01:26Z</time></trkpt><trkpt lat="30.5290983897" lon="35.5650625750"><ele>1278.21</ele><time>2015-11-24T07:01:45Z</time></trkpt><trkpt lat="30.5290906783" lon="35.5650694482"><ele>1278.69</ele><time>2015-11-24T07:02:11Z</time></trkpt><trkpt lat="30.5291133933" lon="35.5650541093"><ele>1278.21</ele><time>2015-11-24T07:02:36Z</time></trkpt><trkpt lat="30.5291237030" lon="35.5650480743"><ele>1277.73</ele><time>2015-11-24T07:02:38Z</time></trkpt><trkpt lat="30.5291359406" lon="35.5650495831"><ele>1277.73</ele><time>2015-11-24T07:02:39Z</time></trkpt><trkpt lat="30.5291529559" lon="35.5650563724"><ele>1277.73</ele><time>2015-11-24T07:02:40Z</time></trkpt><trkpt lat="30.5291732401" lon="35.5650696158"><ele>1277.73</ele><time>2015-11-24T07:02:41Z</time></trkpt><trkpt lat="30.5291977152" lon="35.5650898162"><ele>1277.25</ele><time>2015-11-24T07:02:42Z</time></trkpt><trkpt lat="30.5292254593" lon="35.5651157163"><ele>1277.25</ele><time>2015-11-24T07:02:43Z</time></trkpt><trkpt lat="30.5294992961" lon="35.5653287843"><ele>1275.33</ele><time>2015-11-24T07:02:51Z</time></trkpt><trkpt lat="30.5296644196" lon="35.5654924829"><ele>1274.36</ele><time>2015-11-24T07:02:55Z</time></trkpt><trkpt lat="30.5296992045" lon="35.5655455403"><ele>1273.88</ele><time>2015-11-24T07:02:56Z</time></trkpt><trkpt lat="30.5297311395" lon="35.5656020343"><ele>1274.36</ele><time>2015-11-24T07:02:57Z</time></trkpt><trkpt lat="30.5297611468" lon="35.5656609591"><ele>1274.36</ele><time>2015-11-24T07:02:58Z</time></trkpt><trkpt lat="30.5297850352" lon="35.5657234881"><ele>1274.36</ele><time>2015-11-24T07:02:59Z</time></trkpt><trkpt lat="30.5298028048" lon="35.5657897890"><ele>1274.36</ele><time>2015-11-24T07:03:00Z</time></trkpt><trkpt lat="30.5298159644" lon="35.5658566765"><ele>1274.36</ele><time>2015-11-24T07:03:01Z</time></trkpt><trkpt lat="30.5298265256" lon="35.5659241509"><ele>1274.36</ele><time>2015-11-24T07:03:02Z</time></trkpt><trkpt lat="30.5299340654" lon="35.5667042546"><ele>1274.85</ele><time>2015-11-24T07:03:14Z</time></trkpt><trkpt lat="30.5300338101" lon="35.5674928240"><ele>1276.77</ele><time>2015-11-24T07:03:29Z</time></trkpt><trkpt lat="30.5300411023" lon="35.5679342989"><ele>1280.13</ele><time>2015-11-24T07:03:43Z</time></trkpt><trkpt lat="30.5299948342" lon="35.5682380591"><ele>1282.54</ele><time>2015-11-24T07:03:57Z</time></trkpt><trkpt lat="30.5298784934" lon="35.5685765203"><ele>1284.46</ele><time>2015-11-24T07:04:15Z</time></trkpt><trkpt lat="30.5297436286" lon="35.5688891653"><ele>1283.50</ele><time>2015-11-24T07:04:30Z</time></trkpt><trkpt lat="30.5295357574" lon="35.5691386107"><ele>1283.02</ele><time>2015-11-24T07:04:43Z</time></trkpt><trkpt lat="30.5291209370" lon="35.5694028083"><ele>1279.65</ele><time>2015-11-24T07:04:53Z</time></trkpt><trkpt lat="30.5288283248" lon="35.5695702787"><ele>1277.25</ele><time>2015-11-24T07:04:58Z</time></trkpt><trkpt lat="30.5283004325" lon="35.5699411780"><ele>1276.29</ele><time>2015-11-24T07:05:10Z</time></trkpt><trkpt lat="30.5281650648" lon="35.5700488854"><ele>1276.77</ele><time>2015-11-24T07:05:20Z</time></trkpt><trkpt lat="30.5281737819" lon="35.5700562615"><ele>1275.81</ele><time>2015-11-24T07:05:44Z</time></trkpt><trkpt lat="30.5281861871" lon="35.5700485501"><ele>1275.81</ele><time>2015-11-24T07:06:27Z</time></trkpt><trkpt lat="30.5281669926" lon="35.5700700078"><ele>1276.29</ele><time>2015-11-24T07:06:40Z</time></trkpt><trkpt lat="30.5281995144" lon="35.5701394100"><ele>1275.33</ele><time>2015-11-24T07:06:44Z</time></trkpt><trkpt lat="30.5282266717" lon="35.5701598618"><ele>1274.85</ele><time>2015-11-24T07:06:45Z</time></trkpt><trkpt lat="30.5282633845" lon="35.5701806489"><ele>1273.88</ele><time>2015-11-24T07:06:46Z</time></trkpt><trkpt lat="30.5284979101" lon="35.5703067128"><ele>1270.52</ele><time>2015-11-24T07:06:50Z</time></trkpt><trkpt lat="30.5287538934" lon="35.5704570841"><ele>1267.16</ele><time>2015-11-24T07:06:53Z</time></trkpt><trkpt lat="30.5290600006" lon="35.5706390552"><ele>1263.31</ele><time>2015-11-24T07:06:56Z</time></trkpt><trkpt lat="30.5293687899" lon="35.5708300788"><ele>1259.46</ele><time>2015-11-24T07:06:59Z</time></trkpt><trkpt lat="30.5296117812" lon="35.5709724873"><ele>1255.14</ele><time>2015-11-24T07:07:02Z</time></trkpt><trkpt lat="30.5297900643" lon="35.5710951984"><ele>1252.25</ele><time>2015-11-24T07:07:05Z</time></trkpt><trkpt lat="30.5298342369" lon="35.5711492617"><ele>1251.77</ele><time>2015-11-24T07:07:06Z</time></trkpt><trkpt lat="30.5298674293" lon="35.5712169036"><ele>1251.77</ele><time>2015-11-24T07:07:07Z</time></trkpt><trkpt lat="30.5298820976" lon="35.5713001359"><ele>1250.81</ele><time>2015-11-24T07:07:08Z</time></trkpt><trkpt lat="30.5298728775" lon="35.5713884812"><ele>1250.81</ele><time>2015-11-24T07:07:09Z</time></trkpt><trkpt lat="30.5298404396" lon="35.5714717973"><ele>1250.33</ele><time>2015-11-24T07:07:10Z</time></trkpt><trkpt lat="30.5297913216" lon="35.5715444684"><ele>1249.85</ele><time>2015-11-24T07:07:11Z</time></trkpt><trkpt lat="30.5297344085" lon="35.5716090929"><ele>1249.37</ele><time>2015-11-24T07:07:12Z</time></trkpt><trkpt lat="30.5296744779" lon="35.5716696940"><ele>1248.89</ele><time>2015-11-24T07:07:13Z</time></trkpt><trkpt lat="30.5295126233" lon="35.5718203168"><ele>1247.93</ele><time>2015-11-24T07:07:16Z</time></trkpt><trkpt lat="30.5292591546" lon="35.5720778089"><ele>1246.01</ele><time>2015-11-24T07:07:26Z</time></trkpt><trkpt lat="30.5292272195" lon="35.5721277650"><ele>1245.04</ele><time>2015-11-24T07:07:38Z</time></trkpt><trkpt lat="30.5292231962" lon="35.5721172038"><ele>1245.04</ele><time>2015-11-24T07:08:10Z</time></trkpt><trkpt lat="30.5292335059" lon="35.5721151922"><ele>1245.04</ele><time>2015-11-24T07:08:47Z</time></trkpt><trkpt lat="30.5292428099" lon="35.5720996018"><ele>1245.04</ele><time>2015-11-24T07:09:19Z</time></trkpt><trkpt lat="30.5292381998" lon="35.5721013620"><ele>1244.08</ele><time>2015-11-24T07:09:45Z</time></trkpt><trkpt lat="30.5292346794" lon="35.5721048824"><ele>1245.04</ele><time>2015-11-24T07:10:06Z</time></trkpt><trkpt lat="30.5292160716" lon="35.5721091572"><ele>1244.56</ele><time>2015-11-24T07:10:37Z</time></trkpt><trkpt lat="30.5292219389" lon="35.5721178744"><ele>1244.56</ele><time>2015-11-24T07:11:08Z</time></trkpt><trkpt lat="30.5292168260" lon="35.5721247476"><ele>1244.56</ele><time>2015-11-24T07:11:34Z</time></trkpt><trkpt lat="30.5292165745" lon="35.5721304473"><ele>1244.56</ele><time>2015-11-24T07:12:12Z</time></trkpt><trkpt lat="30.5292046722" lon="35.5721347220"><ele>1244.08</ele><time>2015-11-24T07:12:46Z</time></trkpt><trkpt lat="30.5291681271" lon="35.5721383262"><ele>1244.56</ele><time>2015-11-24T07:12:53Z</time></trkpt><trkpt lat="30.5291580688" lon="35.5721432716"><ele>1244.56</ele><time>2015-11-24T07:12:54Z</time></trkpt><trkpt lat="30.5291476753" lon="35.5721517373"><ele>1245.04</ele><time>2015-11-24T07:12:55Z</time></trkpt><trkpt lat="30.5291365273" lon="35.5721650645"><ele>1244.56</ele><time>2015-11-24T07:12:56Z</time></trkpt><trkpt lat="30.5291242898" lon="35.5721805710"><ele>1244.56</ele><time>2015-11-24T07:12:57Z</time></trkpt><trkpt lat="30.5291126389" lon="35.5722042918"><ele>1244.56</ele><time>2015-11-24T07:12:58Z</time></trkpt><trkpt lat="30.5290980544" lon="35.5722313654"><ele>1244.08</ele><time>2015-11-24T07:12:59Z</time></trkpt><trkpt lat="30.5290859006" lon="35.5722654797"><ele>1244.08</ele><time>2015-11-24T07:13:00Z</time></trkpt><trkpt lat="30.5290765967" lon="35.5723057967"><ele>1243.60</ele><time>2015-11-24T07:13:01Z</time></trkpt><trkpt lat="30.5290736631" lon="35.5723497178"><ele>1243.12</ele><time>2015-11-24T07:13:02Z</time></trkpt><trkpt lat="30.5290787760" lon="35.5723957345"><ele>1243.12</ele><time>2015-11-24T07:13:03Z</time></trkpt><trkpt lat="30.5290930253" lon="35.5724355485"><ele>1242.64</ele><time>2015-11-24T07:13:04Z</time></trkpt><trkpt lat="30.5291149858" lon="35.5724777095"><ele>1242.16</ele><time>2015-11-24T07:13:05Z</time></trkpt><trkpt lat="30.5291481782" lon="35.5725200381"><ele>1241.68</ele><time>2015-11-24T07:13:06Z</time></trkpt><trkpt lat="30.5291908421" lon="35.5725600198"><ele>1241.20</ele><time>2015-11-24T07:13:07Z</time></trkpt><trkpt lat="30.5295379367" lon="35.5727450084"><ele>1236.87</ele><time>2015-11-24T07:13:12Z</time></trkpt><trkpt lat="30.5297857057" lon="35.5728746764"><ele>1233.51</ele><time>2015-11-24T07:13:15Z</time></trkpt><trkpt lat="30.5299099255" lon="35.5729579926"><ele>1231.11</ele><time>2015-11-24T07:13:17Z</time></trkpt><trkpt lat="30.5299523380" lon="35.5730024166"><ele>1229.66</ele><time>2015-11-24T07:13:18Z</time></trkpt><trkpt lat="30.5299804173" lon="35.5730563961"><ele>1228.70</ele><time>2015-11-24T07:13:19Z</time></trkpt><trkpt lat="30.5299882125" lon="35.5731245410"><ele>1227.74</ele><time>2015-11-24T07:13:20Z</time></trkpt><trkpt lat="30.5299722031" lon="35.5732029118"><ele>1226.78</ele><time>2015-11-24T07:13:21Z</time></trkpt><trkpt lat="30.5299290363" lon="35.5732785165"><ele>1225.82</ele><time>2015-11-24T07:13:22Z</time></trkpt><trkpt lat="30.5298739672" lon="35.5733519420"><ele>1225.34</ele><time>2015-11-24T07:13:23Z</time></trkpt><trkpt lat="30.5298114382" lon="35.5734225176"><ele>1224.86</ele><time>2015-11-24T07:13:24Z</time></trkpt><trkpt lat="30.5294770841" lon="35.5737936683"><ele>1221.49</ele><time>2015-11-24T07:13:29Z</time></trkpt><trkpt lat="30.5293279700" lon="35.5739852786"><ele>1219.09</ele><time>2015-11-24T07:13:32Z</time></trkpt><trkpt lat="30.5293070152" lon="35.5740453769"><ele>1218.13</ele><time>2015-11-24T07:13:33Z</time></trkpt><trkpt lat="30.5293034110" lon="35.5741046369"><ele>1217.17</ele><time>2015-11-24T07:13:34Z</time></trkpt><trkpt lat="30.5293192528" lon="35.5741675850"><ele>1216.69</ele><time>2015-11-24T07:13:35Z</time></trkpt><trkpt lat="30.5293578934" lon="35.5742251687"><ele>1215.72</ele><time>2015-11-24T07:13:36Z</time></trkpt><trkpt lat="30.5294195842" lon="35.5742748734"><ele>1214.28</ele><time>2015-11-24T07:13:37Z</time></trkpt><trkpt lat="30.5294972844" lon="35.5743130110"><ele>1213.32</ele><time>2015-11-24T07:13:38Z</time></trkpt><trkpt lat="30.5295873899" lon="35.5743495561"><ele>1211.88</ele><time>2015-11-24T07:13:39Z</time></trkpt><trkpt lat="30.5299082492" lon="35.5744378176"><ele>1207.55</ele><time>2015-11-24T07:13:42Z</time></trkpt><trkpt lat="30.5302769691" lon="35.5745275039"><ele>1203.23</ele><time>2015-11-24T07:13:45Z</time></trkpt><trkpt lat="30.5306638777" lon="35.5746287573"><ele>1199.38</ele><time>2015-11-24T07:13:48Z</time></trkpt><trkpt lat="30.5310066137" lon="35.5747173540"><ele>1196.50</ele><time>2015-11-24T07:13:51Z</time></trkpt><trkpt lat="30.5310976412" lon="35.5747585092"><ele>1195.54</ele><time>2015-11-24T07:13:52Z</time></trkpt><trkpt lat="30.5311737489" lon="35.5748176016"><ele>1194.58</ele><time>2015-11-24T07:13:53Z</time></trkpt><trkpt lat="30.5312356073" lon="35.5748987384"><ele>1193.61</ele><time>2015-11-24T07:13:54Z</time></trkpt><trkpt lat="30.5312820431" lon="35.5749989022"><ele>1192.65</ele><time>2015-11-24T07:13:55Z</time></trkpt><trkpt lat="30.5313126370" lon="35.5751144886"><ele>1192.17</ele><time>2015-11-24T07:13:56Z</time></trkpt><trkpt lat="30.5313286465" lon="35.5752393790"><ele>1190.73</ele><time>2015-11-24T07:13:57Z</time></trkpt><trkpt lat="30.5313406326" lon="35.5753723159"><ele>1190.25</ele><time>2015-11-24T07:13:58Z</time></trkpt><trkpt lat="30.5313797761" lon="35.5757891480"><ele>1186.40</ele><time>2015-11-24T07:14:01Z</time></trkpt><trkpt lat="30.5313994735" lon="35.5760748871"><ele>1183.04</ele><time>2015-11-24T07:14:03Z</time></trkpt><trkpt lat="30.5314204283" lon="35.5765054654"><ele>1179.19</ele><time>2015-11-24T07:14:06Z</time></trkpt><trkpt lat="30.5314368568" lon="35.5767919589"><ele>1174.87</ele><time>2015-11-24T07:14:08Z</time></trkpt><trkpt lat="30.5314504355" lon="35.5769311823"><ele>1175.83</ele><time>2015-11-24T07:14:09Z</time></trkpt><trkpt lat="30.5315006431" lon="35.5773315020"><ele>1172.47</ele><time>2015-11-24T07:14:13Z</time></trkpt><trkpt lat="30.5316145532" lon="35.5776488408"><ele>1170.54</ele><time>2015-11-24T07:14:17Z</time></trkpt><trkpt lat="30.5316586420" lon="35.5777282175"><ele>1169.58</ele><time>2015-11-24T07:14:18Z</time></trkpt><trkpt lat="30.5317132082" lon="35.5778080970"><ele>1168.62</ele><time>2015-11-24T07:14:19Z</time></trkpt><trkpt lat="30.5317773297" lon="35.5778870545"><ele>1167.66</ele><time>2015-11-24T07:14:20Z</time></trkpt><trkpt lat="30.5318503361" lon="35.5779653415"><ele>1166.70</ele><time>2015-11-24T07:14:21Z</time></trkpt><trkpt lat="30.5319322273" lon="35.5780405272"><ele>1165.74</ele><time>2015-11-24T07:14:22Z</time></trkpt><trkpt lat="30.5320216622" lon="35.5781126954"><ele>1165.26</ele><time>2015-11-24T07:14:23Z</time></trkpt><trkpt lat="30.5323017854" lon="35.5783020426"><ele>1160.93</ele><time>2015-11-24T07:14:26Z</time></trkpt><trkpt lat="30.5323752947" lon="35.5783347320"><ele>1159.97</ele><time>2015-11-24T07:14:27Z</time></trkpt><trkpt lat="30.5324461218" lon="35.5783462152"><ele>1159.01</ele><time>2015-11-24T07:14:28Z</time></trkpt><trkpt lat="30.5325205531" lon="35.5783329718"><ele>1158.53</ele><time>2015-11-24T07:14:29Z</time></trkpt><trkpt lat="30.5325922184" lon="35.5782940798"><ele>1157.56</ele><time>2015-11-24T07:14:30Z</time></trkpt><trkpt lat="30.5326571781" lon="35.5782353226"><ele>1157.56</ele><time>2015-11-24T07:14:31Z</time></trkpt><trkpt lat="30.5327165220" lon="35.5781714525"><ele>1157.08</ele><time>2015-11-24T07:14:32Z</time></trkpt><trkpt lat="30.5327698309" lon="35.5781074986"><ele>1156.60</ele><time>2015-11-24T07:14:33Z</time></trkpt><trkpt lat="30.5328085553" lon="35.5780407786"><ele>1156.60</ele><time>2015-11-24T07:14:34Z</time></trkpt><trkpt lat="30.5328383110" lon="35.5779696163"><ele>1156.12</ele><time>2015-11-24T07:14:35Z</time></trkpt><trkpt lat="30.5328625347" lon="35.5778946821"><ele>1156.12</ele><time>2015-11-24T07:14:36Z</time></trkpt><trkpt lat="30.5328870937" lon="35.5778202508"><ele>1155.64</ele><time>2015-11-24T07:14:37Z</time></trkpt><trkpt lat="30.5329681467" lon="35.5776005611"><ele>1154.68</ele><time>2015-11-24T07:14:40Z</time></trkpt><trkpt lat="30.5330119841" lon="35.5775361042"><ele>1154.68</ele><time>2015-11-24T07:14:41Z</time></trkpt><trkpt lat="30.5330717470" lon="35.5774911772"><ele>1154.20</ele><time>2015-11-24T07:14:42Z</time></trkpt><trkpt lat="30.5331410654" lon="35.5774739105"><ele>1153.24</ele><time>2015-11-24T07:14:43Z</time></trkpt><trkpt lat="30.5332180951" lon="35.5774762575"><ele>1152.76</ele><time>2015-11-24T07:14:44Z</time></trkpt><trkpt lat="30.5332973879" lon="35.5774863996"><ele>1152.76</ele><time>2015-11-24T07:14:45Z</time></trkpt><trkpt lat="30.5337070953" lon="35.5775836296"><ele>1155.16</ele><time>2015-11-24T07:14:51Z</time></trkpt><trkpt lat="30.5337486695" lon="35.5776056740"><ele>1155.64</ele><time>2015-11-24T07:14:52Z</time></trkpt><trkpt lat="30.5337805208" lon="35.5776266288"><ele>1156.60</ele><time>2015-11-24T07:14:53Z</time></trkpt><trkpt lat="30.5338052474" lon="35.5776458234"><ele>1157.08</ele><time>2015-11-24T07:14:54Z</time></trkpt><trkpt lat="30.5339457281" lon="35.5778206699"><ele>1159.97</ele><time>2015-11-24T07:15:03Z</time></trkpt><trkpt lat="30.5341157131" lon="35.5780658405"><ele>1162.85</ele><time>2015-11-24T07:15:16Z</time></trkpt><trkpt lat="30.5342588760" lon="35.5783012882"><ele>1164.29</ele><time>2015-11-24T07:15:31Z</time></trkpt><trkpt lat="30.5343689304" lon="35.5784557667"><ele>1164.77</ele><time>2015-11-24T07:15:40Z</time></trkpt><trkpt lat="30.5343808327" lon="35.5784676690"><ele>1164.77</ele><time>2015-11-24T07:15:41Z</time></trkpt><trkpt lat="30.5343908910" lon="35.5784814991"><ele>1164.77</ele><time>2015-11-24T07:15:42Z</time></trkpt><trkpt lat="30.5344020389" lon="35.5784969218"><ele>1164.77</ele><time>2015-11-24T07:15:43Z</time></trkpt><trkpt lat="30.5344126001" lon="35.5785170384"><ele>1164.77</ele><time>2015-11-24T07:15:44Z</time></trkpt><trkpt lat="30.5344238319" lon="35.5785393342"><ele>1164.77</ele><time>2015-11-24T07:15:45Z</time></trkpt><trkpt lat="30.5344382487" lon="35.5785611272"><ele>1164.77</ele><time>2015-11-24T07:15:46Z</time></trkpt><trkpt lat="30.5346881971" lon="35.5788500514"><ele>1164.29</ele><time>2015-11-24T07:16:01Z</time></trkpt><trkpt lat="30.5350228865" lon="35.5791429989"><ele>1164.29</ele><time>2015-11-24T07:16:15Z</time></trkpt><trkpt lat="30.5354819633" lon="35.5792950466"><ele>1163.81</ele><time>2015-11-24T07:16:32Z</time></trkpt><trkpt lat="30.5360193271" lon="35.5793914385"><ele>1165.26</ele><time>2015-11-24T07:16:50Z</time></trkpt><trkpt lat="30.5362362508" lon="35.5796705559"><ele>1167.18</ele><time>2015-11-24T07:17:03Z</time></trkpt><trkpt lat="30.5363577884" lon="35.5799583904"><ele>1169.58</ele><time>2015-11-24T07:17:18Z</time></trkpt><trkpt lat="30.5364380870" lon="35.5801991187"><ele>1172.95</ele><time>2015-11-24T07:17:32Z</time></trkpt><trkpt lat="30.5364741292" lon="35.5803401023"><ele>1174.39</ele><time>2015-11-24T07:17:41Z</time></trkpt><trkpt lat="30.5364812538" lon="35.5803556088"><ele>1174.87</ele><time>2015-11-24T07:17:42Z</time></trkpt><trkpt lat="30.5365619715" lon="35.5805256777"><ele>1178.23</ele><time>2015-11-24T07:17:54Z</time></trkpt><trkpt lat="30.5365721136" lon="35.5805378314"><ele>1178.23</ele><time>2015-11-24T07:17:55Z</time></trkpt><trkpt lat="30.5365825910" lon="35.5805473868"><ele>1178.71</ele><time>2015-11-24T07:17:56Z</time></trkpt><trkpt lat="30.5365929008" lon="35.5805589538"><ele>1178.71</ele><time>2015-11-24T07:17:57Z</time></trkpt><trkpt lat="30.5366025399" lon="35.5805735383"><ele>1179.67</ele><time>2015-11-24T07:17:58Z</time></trkpt><trkpt lat="30.5366122629" lon="35.5805867817"><ele>1179.67</ele><time>2015-11-24T07:17:59Z</time></trkpt><trkpt lat="30.5366203934" lon="35.5806013662"><ele>1180.16</ele><time>2015-11-24T07:18:00Z</time></trkpt><trkpt lat="30.5367070623" lon="35.5807073973"><ele>1183.04</ele><time>2015-11-24T07:18:09Z</time></trkpt><trkpt lat="30.5368266720" lon="35.5808103271"><ele>1184.00</ele><time>2015-11-24T07:18:19Z</time></trkpt><trkpt lat="30.5368366465" lon="35.5808228161"><ele>1184.00</ele><time>2015-11-24T07:18:20Z</time></trkpt><trkpt lat="30.5368475430" lon="35.5808308627"><ele>1184.96</ele><time>2015-11-24T07:18:21Z</time></trkpt><trkpt lat="30.5368595291" lon="35.5808393285"><ele>1184.96</ele><time>2015-11-24T07:18:22Z</time></trkpt><trkpt lat="30.5368726049" lon="35.5808482133"><ele>1185.44</ele><time>2015-11-24T07:18:23Z</time></trkpt><trkpt lat="30.5369169451" lon="35.5808852613"><ele>1186.40</ele><time>2015-11-24T07:18:27Z</time></trkpt><trkpt lat="30.5369705055" lon="35.5809240695"><ele>1187.37</ele><time>2015-11-24T07:18:32Z</time></trkpt><trkpt lat="30.5369840004" lon="35.5809280928"><ele>1187.85</ele><time>2015-11-24T07:18:33Z</time></trkpt><trkpt lat="30.5369959027" lon="35.5809318647"><ele>1188.33</ele><time>2015-11-24T07:18:34Z</time></trkpt><trkpt lat="30.5370094813" lon="35.5809348822"><ele>1188.81</ele><time>2015-11-24T07:18:35Z</time></trkpt><trkpt lat="30.5370204616" lon="35.5809399113"><ele>1189.29</ele><time>2015-11-24T07:18:36Z</time></trkpt><trkpt lat="30.5370316096" lon="35.5809418391"><ele>1188.81</ele><time>2015-11-24T07:18:37Z</time></trkpt><trkpt lat="30.5370440986" lon="35.5809453595"><ele>1188.81</ele><time>2015-11-24T07:18:38Z</time></trkpt><trkpt lat="30.5371303484" lon="35.5809606984"><ele>1189.77</ele><time>2015-11-24T07:18:44Z</time></trkpt><trkpt lat="30.5371459387" lon="35.5809691641"><ele>1190.25</ele><time>2015-11-24T07:18:45Z</time></trkpt><trkpt lat="30.5371590983" lon="35.5809710082"><ele>1190.25</ele><time>2015-11-24T07:18:46Z</time></trkpt><trkpt lat="30.5373533908" lon="35.5810067151"><ele>1191.69</ele><time>2015-11-24T07:19:01Z</time></trkpt><trkpt lat="30.5374089628" lon="35.5810236465"><ele>1192.17</ele><time>2015-11-24T07:19:05Z</time></trkpt><trkpt lat="30.5377024971" lon="35.5810828228"><ele>1194.58</ele><time>2015-11-24T07:19:24Z</time></trkpt><trkpt lat="30.5379412975" lon="35.5811203737"><ele>1196.98</ele><time>2015-11-24T07:19:39Z</time></trkpt><trkpt lat="30.5381926708" lon="35.5811764486"><ele>1200.34</ele><time>2015-11-24T07:19:54Z</time></trkpt><trkpt lat="30.5384540185" lon="35.5812418275"><ele>1202.75</ele><time>2015-11-24T07:20:10Z</time></trkpt><trkpt lat="30.5386749655" lon="35.5813051108"><ele>1205.63</ele><time>2015-11-24T07:20:25Z</time></trkpt><trkpt lat="30.5387074873" lon="35.5813083798"><ele>1206.59</ele><time>2015-11-24T07:20:27Z</time></trkpt><trkpt lat="30.5387222394" lon="35.5813052785"><ele>1206.59</ele><time>2015-11-24T07:20:28Z</time></trkpt><trkpt lat="30.5387378298" lon="35.5813016742"><ele>1206.59</ele><time>2015-11-24T07:20:29Z</time></trkpt><trkpt lat="30.5387530848" lon="35.5812963098"><ele>1207.55</ele><time>2015-11-24T07:20:30Z</time></trkpt><trkpt lat="30.5387658253" lon="35.5812869221"><ele>1207.07</ele><time>2015-11-24T07:20:31Z</time></trkpt><trkpt lat="30.5387764703" lon="35.5812756903"><ele>1207.07</ele><time>2015-11-24T07:20:32Z</time></trkpt><trkpt lat="30.5387856904" lon="35.5812600162"><ele>1208.51</ele><time>2015-11-24T07:20:33Z</time></trkpt><trkpt lat="30.5387929827" lon="35.5812420789"><ele>1208.03</ele><time>2015-11-24T07:20:34Z</time></trkpt><trkpt lat="30.5387990177" lon="35.5812264886"><ele>1208.51</ele><time>2015-11-24T07:20:35Z</time></trkpt><trkpt lat="30.5388103332" lon="35.5812116526"><ele>1209.00</ele><time>2015-11-24T07:20:36Z</time></trkpt><trkpt lat="30.5388291925" lon="35.5809309427"><ele>1211.88</ele><time>2015-11-24T07:20:52Z</time></trkpt><trkpt lat="30.5388182960" lon="35.5809129216"><ele>1211.88</ele><time>2015-11-24T07:21:03Z</time></trkpt><trkpt lat="30.5388151947" lon="35.5808483809"><ele>1213.80</ele><time>2015-11-24T07:21:15Z</time></trkpt><trkpt lat="30.5387882050" lon="35.5807341356"><ele>1214.76</ele><time>2015-11-24T07:21:31Z</time></trkpt><trkpt lat="30.5387400091" lon="35.5806180462"><ele>1216.21</ele><time>2015-11-24T07:21:48Z</time></trkpt><trkpt lat="30.5386508256" lon="35.5804892164"><ele>1219.09</ele><time>2015-11-24T07:22:06Z</time></trkpt><trkpt lat="30.5385434534" lon="35.5804069899"><ele>1220.05</ele><time>2015-11-24T07:22:22Z</time></trkpt><trkpt lat="30.5384127796" lon="35.5803091731"><ele>1222.45</ele><time>2015-11-24T07:22:41Z</time></trkpt><trkpt lat="30.5384001229" lon="35.5803028028"><ele>1222.45</ele><time>2015-11-24T07:22:42Z</time></trkpt><trkpt lat="30.5383572914" lon="35.5802772380"><ele>1222.93</ele><time>2015-11-24T07:22:46Z</time></trkpt><trkpt lat="30.5383464787" lon="35.5802767351"><ele>1223.42</ele><time>2015-11-24T07:22:47Z</time></trkpt><trkpt lat="30.5383249372" lon="35.5802820157"><ele>1223.42</ele><time>2015-11-24T07:22:49Z</time></trkpt><trkpt lat="30.5383105204" lon="35.5802708678"><ele>1223.42</ele><time>2015-11-24T07:22:50Z</time></trkpt><trkpt lat="30.5383058265" lon="35.5802579597"><ele>1223.42</ele><time>2015-11-24T07:22:51Z</time></trkpt><trkpt lat="30.5383021384" lon="35.5802450515"><ele>1224.86</ele><time>2015-11-24T07:22:52Z</time></trkpt><trkpt lat="30.5382924993" lon="35.5802347418"><ele>1224.38</ele><time>2015-11-24T07:22:53Z</time></trkpt><trkpt lat="30.5382816028" lon="35.5802241806"><ele>1223.90</ele><time>2015-11-24T07:22:54Z</time></trkpt><trkpt lat="30.5382723827" lon="35.5802111886"><ele>1223.90</ele><time>2015-11-24T07:22:55Z</time></trkpt><trkpt lat="30.5382615700" lon="35.5802017171"><ele>1224.38</ele><time>2015-11-24T07:22:56Z</time></trkpt><trkpt lat="30.5382500030" lon="35.5801932514"><ele>1224.86</ele><time>2015-11-24T07:22:57Z</time></trkpt><trkpt lat="30.5382383522" lon="35.5801836122"><ele>1224.86</ele><time>2015-11-24T07:22:58Z</time></trkpt><trkpt lat="30.5382272881" lon="35.5801726319"><ele>1224.86</ele><time>2015-11-24T07:22:59Z</time></trkpt><trkpt lat="30.5382152181" lon="35.5801635794"><ele>1225.34</ele><time>2015-11-24T07:23:00Z</time></trkpt><trkpt lat="30.5382049922" lon="35.5801535212"><ele>1225.34</ele><time>2015-11-24T07:23:01Z</time></trkpt><trkpt lat="30.5381939281" lon="35.5801467318"><ele>1225.82</ele><time>2015-11-24T07:23:02Z</time></trkpt><trkpt lat="30.5381828640" lon="35.5801395234"><ele>1226.30</ele><time>2015-11-24T07:23:03Z</time></trkpt><trkpt lat="30.5381723866" lon="35.5801313091"><ele>1226.30</ele><time>2015-11-24T07:23:04Z</time></trkpt><trkpt lat="30.5380433053" lon="35.5799591448"><ele>1228.70</ele><time>2015-11-24T07:23:19Z</time></trkpt><trkpt lat="30.5379533675" lon="35.5797671154"><ele>1231.59</ele><time>2015-11-24T07:23:34Z</time></trkpt><trkpt lat="30.5378625076" lon="35.5795391276"><ele>1234.47</ele><time>2015-11-24T07:23:50Z</time></trkpt><trkpt lat="30.5378076900" lon="35.5793284904"><ele>1236.87</ele><time>2015-11-24T07:24:05Z</time></trkpt><trkpt lat="30.5378093664" lon="35.5792201124"><ele>1237.83</ele><time>2015-11-24T07:24:12Z</time></trkpt><trkpt lat="30.5378160719" lon="35.5791920330"><ele>1239.28</ele><time>2015-11-24T07:24:14Z</time></trkpt><trkpt lat="30.5379278027" lon="35.5789801385"><ele>1241.20</ele><time>2015-11-24T07:24:30Z</time></trkpt><trkpt lat="30.5381456483" lon="35.5788450222"><ele>1244.08</ele><time>2015-11-24T07:24:46Z</time></trkpt><trkpt lat="30.5384392664" lon="35.5786957406"><ele>1244.56</ele><time>2015-11-24T07:25:04Z</time></trkpt><trkpt lat="30.5387341417" lon="35.5785279348"><ele>1246.49</ele><time>2015-11-24T07:25:22Z</time></trkpt><trkpt lat="30.5389407557" lon="35.5783214048"><ele>1248.41</ele><time>2015-11-24T07:25:37Z</time></trkpt><trkpt lat="30.5391341262" lon="35.5780099332"><ele>1249.85</ele><time>2015-11-24T07:25:55Z</time></trkpt><trkpt lat="30.5393003393" lon="35.5776966177"><ele>1252.25</ele><time>2015-11-24T07:26:12Z</time></trkpt><trkpt lat="30.5394675583" lon="35.5774023291"><ele>1254.66</ele><time>2015-11-24T07:26:31Z</time></trkpt><trkpt lat="30.5397056881" lon="35.5771255586"><ele>1256.58</ele><time>2015-11-24T07:26:49Z</time></trkpt><trkpt lat="30.5400978774" lon="35.5769503769"><ele>1259.94</ele><time>2015-11-24T07:27:07Z</time></trkpt><trkpt lat="30.5404705368" lon="35.5767661426"><ele>1261.39</ele><time>2015-11-24T07:27:23Z</time></trkpt><trkpt lat="30.5410186294" lon="35.5763068143"><ele>1260.43</ele><time>2015-11-24T07:27:39Z</time></trkpt><trkpt lat="30.5417725816" lon="35.5757172313"><ele>1260.43</ele><time>2015-11-24T07:27:55Z</time></trkpt><trkpt lat="30.5421316624" lon="35.5755413789"><ele>1261.87</ele><time>2015-11-24T07:28:03Z</time></trkpt><trkpt lat="30.5425899848" lon="35.5753653590"><ele>1264.75</ele><time>2015-11-24T07:28:16Z</time></trkpt><trkpt lat="30.5429189745" lon="35.5752497725"><ele>1268.12</ele><time>2015-11-24T07:28:29Z</time></trkpt><trkpt lat="30.5431569368" lon="35.5751720723"><ele>1271.00</ele><time>2015-11-24T07:28:40Z</time></trkpt><trkpt lat="30.5434280075" lon="35.5750784464"><ele>1274.36</ele><time>2015-11-24T07:28:54Z</time></trkpt><trkpt lat="30.5437410716" lon="35.5749792047"><ele>1276.77</ele><time>2015-11-24T07:29:12Z</time></trkpt><trkpt lat="30.5439913552" lon="35.5748818908"><ele>1279.17</ele><time>2015-11-24T07:29:27Z</time></trkpt><trkpt lat="30.5443111248" lon="35.5747683998"><ele>1281.57</ele><time>2015-11-24T07:29:44Z</time></trkpt><trkpt lat="30.5445697065" lon="35.5746582616"><ele>1284.46</ele><time>2015-11-24T07:29:57Z</time></trkpt><trkpt lat="30.5449487362" lon="35.5743871909"><ele>1285.90</ele><time>2015-11-24T07:30:14Z</time></trkpt><trkpt lat="30.5451017898" lon="35.5741916411"><ele>1286.86</ele><time>2015-11-24T07:30:26Z</time></trkpt><trkpt lat="30.5451001134" lon="35.5741918925"><ele>1286.86</ele><time>2015-11-24T07:30:27Z</time></trkpt><trkpt lat="30.5451152846" lon="35.5742135178"><ele>1283.98</ele><time>2015-11-24T07:30:46Z</time></trkpt><trkpt lat="30.5451209005" lon="35.5742103327"><ele>1283.02</ele><time>2015-11-24T07:31:34Z</time></trkpt><trkpt lat="30.5451211520" lon="35.5742119253"><ele>1283.50</ele><time>2015-11-24T07:32:12Z</time></trkpt><trkpt lat="30.5451131891" lon="35.5742018670"><ele>1285.42</ele><time>2015-11-24T07:32:29Z</time></trkpt><trkpt lat="30.5451113451" lon="35.5741685070"><ele>1284.46</ele><time>2015-11-24T07:32:35Z</time></trkpt><trkpt lat="30.5451103393" lon="35.5741458759"><ele>1285.42</ele><time>2015-11-24T07:32:37Z</time></trkpt><trkpt lat="30.5451141950" lon="35.5741302855"><ele>1285.42</ele><time>2015-11-24T07:32:38Z</time></trkpt><trkpt lat="30.5452145264" lon="35.5739240069"><ele>1282.06</ele><time>2015-11-24T07:32:45Z</time></trkpt><trkpt lat="30.5453963298" lon="35.5735184904"><ele>1278.69</ele><time>2015-11-24T07:32:52Z</time></trkpt><trkpt lat="30.5455922149" lon="35.5731136445"><ele>1275.81</ele><time>2015-11-24T07:32:57Z</time></trkpt><trkpt lat="30.5456432607" lon="35.5730386265"><ele>1274.85</ele><time>2015-11-24T07:32:58Z</time></trkpt><trkpt lat="30.5458865874" lon="35.5727750994"><ele>1272.44</ele><time>2015-11-24T07:33:02Z</time></trkpt><trkpt lat="30.5461811274" lon="35.5725823157"><ele>1272.44</ele><time>2015-11-24T07:33:06Z</time></trkpt><trkpt lat="30.5462633539" lon="35.5725568347"><ele>1272.44</ele><time>2015-11-24T07:33:07Z</time></trkpt><trkpt lat="30.5463466700" lon="35.5725423340"><ele>1272.44</ele><time>2015-11-24T07:33:08Z</time></trkpt><trkpt lat="30.5465746578" lon="35.5725113209"><ele>1275.81</ele><time>2015-11-24T07:33:11Z</time></trkpt><trkpt lat="30.5466388632" lon="35.5724852532"><ele>1276.29</ele><time>2015-11-24T07:33:12Z</time></trkpt><trkpt lat="30.5466950219" lon="35.5724475347"><ele>1276.29</ele><time>2015-11-24T07:33:13Z</time></trkpt><trkpt lat="30.5467417091" lon="35.5723971594"><ele>1276.77</ele><time>2015-11-24T07:33:14Z</time></trkpt><trkpt lat="30.5467757396" lon="35.5723337084"><ele>1276.77</ele><time>2015-11-24T07:33:15Z</time></trkpt><trkpt lat="30.5467966944" lon="35.5722622108"><ele>1276.77</ele><time>2015-11-24T07:33:16Z</time></trkpt><trkpt lat="30.5468071718" lon="35.5721856002"><ele>1275.81</ele><time>2015-11-24T07:33:17Z</time></trkpt><trkpt lat="30.5468074232" lon="35.5721053854"><ele>1275.33</ele><time>2015-11-24T07:33:18Z</time></trkpt><trkpt lat="30.5468005501" lon="35.5720229913"><ele>1274.36</ele><time>2015-11-24T07:33:19Z</time></trkpt><trkpt lat="30.5467894860" lon="35.5719412677"><ele>1273.88</ele><time>2015-11-24T07:33:20Z</time></trkpt><trkpt lat="30.5467737280" lon="35.5718595441"><ele>1272.92</ele><time>2015-11-24T07:33:21Z</time></trkpt><trkpt lat="30.5467593111" lon="35.5717763118"><ele>1272.44</ele><time>2015-11-24T07:33:22Z</time></trkpt><trkpt lat="30.5467484146" lon="35.5716916546"><ele>1271.96</ele><time>2015-11-24T07:33:23Z</time></trkpt><trkpt lat="30.5467412062" lon="35.5715230107"><ele>1271.96</ele><time>2015-11-24T07:33:25Z</time></trkpt><trkpt lat="30.5467483308" lon="35.5714414548"><ele>1271.00</ele><time>2015-11-24T07:33:26Z</time></trkpt><trkpt lat="30.5467630830" lon="35.5713629164"><ele>1271.48</ele><time>2015-11-24T07:33:27Z</time></trkpt><trkpt lat="30.5467824452" lon="35.5712880660"><ele>1271.00</ele><time>2015-11-24T07:33:28Z</time></trkpt><trkpt lat="30.5468071718" lon="35.5712161493"><ele>1271.00</ele><time>2015-11-24T07:33:29Z</time></trkpt><trkpt lat="30.5468401965" lon="35.5711492617"><ele>1270.52</ele><time>2015-11-24T07:33:30Z</time></trkpt><trkpt lat="30.5468805134" lon="35.5710881576"><ele>1270.52</ele><time>2015-11-24T07:33:31Z</time></trkpt><trkpt lat="30.5469272006" lon="35.5710346811"><ele>1270.52</ele><time>2015-11-24T07:33:32Z</time></trkpt><trkpt lat="30.5469790846" lon="35.5709865689"><ele>1270.52</ele><time>2015-11-24T07:33:33Z</time></trkpt><trkpt lat="30.5470369197" lon="35.5709439889"><ele>1270.52</ele><time>2015-11-24T07:33:34Z</time></trkpt><trkpt lat="30.5470983591" lon="35.5709009059"><ele>1270.04</ele><time>2015-11-24T07:33:35Z</time></trkpt><trkpt lat="30.5471588764" lon="35.5708486866"><ele>1269.56</ele><time>2015-11-24T07:33:36Z</time></trkpt><trkpt lat="30.5472142808" lon="35.5707826372"><ele>1269.08</ele><time>2015-11-24T07:33:37Z</time></trkpt><trkpt lat="30.5472672544" lon="35.5707066134"><ele>1268.60</ele><time>2015-11-24T07:33:38Z</time></trkpt><trkpt lat="30.5475036241" lon="35.5703484546"><ele>1264.75</ele><time>2015-11-24T07:33:42Z</time></trkpt><trkpt lat="30.5477076396" lon="35.5700390786"><ele>1261.39</ele><time>2015-11-24T07:33:45Z</time></trkpt><trkpt lat="30.5478540715" lon="35.5698610470"><ele>1259.94</ele><time>2015-11-24T07:33:47Z</time></trkpt><trkpt lat="30.5479221325" lon="35.5698007811"><ele>1259.46</ele><time>2015-11-24T07:33:48Z</time></trkpt><trkpt lat="30.5479817279" lon="35.5697607994"><ele>1258.50</ele><time>2015-11-24T07:33:49Z</time></trkpt><trkpt lat="30.5480309296" lon="35.5697270203"><ele>1258.02</ele><time>2015-11-24T07:33:50Z</time></trkpt><trkpt lat="30.5480714981" lon="35.5696962588"><ele>1257.54</ele><time>2015-11-24T07:33:51Z</time></trkpt><trkpt lat="30.5481455941" lon="35.5696406867"><ele>1257.06</ele><time>2015-11-24T07:33:53Z</time></trkpt><trkpt lat="30.5483891722" lon="35.5693910737"><ele>1254.66</ele><time>2015-11-24T07:33:59Z</time></trkpt><trkpt lat="30.5484354403" lon="35.5693189055"><ele>1253.70</ele><time>2015-11-24T07:34:00Z</time></trkpt><trkpt lat="30.5484801996" lon="35.5692370981"><ele>1252.74</ele><time>2015-11-24T07:34:01Z</time></trkpt><trkpt lat="30.5485231988" lon="35.5691424664"><ele>1251.29</ele><time>2015-11-24T07:34:02Z</time></trkpt><trkpt lat="30.5485664494" lon="35.5690373573"><ele>1249.85</ele><time>2015-11-24T07:34:03Z</time></trkpt><trkpt lat="30.5486963689" lon="35.5686600879"><ele>1245.53</ele><time>2015-11-24T07:34:06Z</time></trkpt><trkpt lat="30.5487848818" lon="35.5683637038"><ele>1240.72</ele><time>2015-11-24T07:34:08Z</time></trkpt><trkpt lat="30.5488840397" lon="35.5680801440"><ele>1236.87</ele><time>2015-11-24T07:34:10Z</time></trkpt><trkpt lat="30.5489440542" lon="35.5679555889"><ele>1236.39</ele><time>2015-11-24T07:34:11Z</time></trkpt><trkpt lat="30.5490041524" lon="35.5678526592"><ele>1235.91</ele><time>2015-11-24T07:34:12Z</time></trkpt><trkpt lat="30.5490593892" lon="35.5677527469"><ele>1234.95</ele><time>2015-11-24T07:34:13Z</time></trkpt><trkpt lat="30.5491067469" lon="35.5676366575"><ele>1233.99</ele><time>2015-11-24T07:34:14Z</time></trkpt><trkpt lat="30.5491468124" lon="35.5675068218"><ele>1232.07</ele><time>2015-11-24T07:34:15Z</time></trkpt><trkpt lat="30.5491813459" lon="35.5673665088"><ele>1230.62</ele><time>2015-11-24T07:34:16Z</time></trkpt><trkpt lat="30.5492111854" lon="35.5672215018"><ele>1228.70</ele><time>2015-11-24T07:34:17Z</time></trkpt><trkpt lat="30.5492711160" lon="35.5666999798"><ele>1225.82</ele><time>2015-11-24T07:34:21Z</time></trkpt><trkpt lat="30.5492914841" lon="35.5666065216"><ele>1225.34</ele><time>2015-11-24T07:34:22Z</time></trkpt><trkpt lat="30.5493236706" lon="35.5665358622"><ele>1225.82</ele><time>2015-11-24T07:34:23Z</time></trkpt><trkpt lat="30.5493661668" lon="35.5664876662"><ele>1225.34</ele><time>2015-11-24T07:34:24Z</time></trkpt><trkpt lat="30.5494140275" lon="35.5664577428"><ele>1224.86</ele><time>2015-11-24T07:34:25Z</time></trkpt><trkpt lat="30.5494676717" lon="35.5664463434"><ele>1223.90</ele><time>2015-11-24T07:34:26Z</time></trkpt><trkpt lat="30.5495294463" lon="35.5664564017"><ele>1222.93</ele><time>2015-11-24T07:34:27Z</time></trkpt><trkpt lat="30.5495983455" lon="35.5664838105"><ele>1222.45</ele><time>2015-11-24T07:34:28Z</time></trkpt><trkpt lat="30.5496734474" lon="35.5665170029"><ele>1221.01</ele><time>2015-11-24T07:34:29Z</time></trkpt><trkpt lat="30.5499113258" lon="35.5665944517"><ele>1218.13</ele><time>2015-11-24T07:34:32Z</time></trkpt><trkpt lat="30.5499872658" lon="35.5665957928"><ele>1217.65</ele><time>2015-11-24T07:34:33Z</time></trkpt><trkpt lat="30.5500626191" lon="35.5665758438"><ele>1216.69</ele><time>2015-11-24T07:34:34Z</time></trkpt><trkpt lat="30.5501322728" lon="35.5665326770"><ele>1216.21</ele><time>2015-11-24T07:34:35Z</time></trkpt><trkpt lat="30.5501956400" lon="35.5664650351"><ele>1214.76</ele><time>2015-11-24T07:34:36Z</time></trkpt><trkpt lat="30.5502567440" lon="35.5663830601"><ele>1213.80</ele><time>2015-11-24T07:34:37Z</time></trkpt><trkpt lat="30.5503214523" lon="35.5663083773"><ele>1212.36</ele><time>2015-11-24T07:34:38Z</time></trkpt><trkpt lat="30.5503964704" lon="35.5662569124"><ele>1211.40</ele><time>2015-11-24T07:34:39Z</time></trkpt><trkpt lat="30.5504806247" lon="35.5662290845"><ele>1209.96</ele><time>2015-11-24T07:34:40Z</time></trkpt><trkpt lat="30.5507577304" lon="35.5661776196"><ele>1206.59</ele><time>2015-11-24T07:34:43Z</time></trkpt><trkpt lat="30.5508602411" lon="35.5661772843"><ele>1205.63</ele><time>2015-11-24T07:34:44Z</time></trkpt><trkpt lat="30.5509588122" lon="35.5661933776"><ele>1205.15</ele><time>2015-11-24T07:34:45Z</time></trkpt><trkpt lat="30.5510422960" lon="35.5662229657"><ele>1204.19</ele><time>2015-11-24T07:34:46Z</time></trkpt><trkpt lat="30.5511091836" lon="35.5662628636"><ele>1204.19</ele><time>2015-11-24T07:34:47Z</time></trkpt><trkpt lat="30.5511661805" lon="35.5663030129"><ele>1203.71</ele><time>2015-11-24T07:34:48Z</time></trkpt><trkpt lat="30.5512221716" lon="35.5663373787"><ele>1202.75</ele><time>2015-11-24T07:34:49Z</time></trkpt><trkpt lat="30.5512809288" lon="35.5663733371"><ele>1202.75</ele><time>2015-11-24T07:34:50Z</time></trkpt><trkpt lat="30.5515563581" lon="35.5665246304"><ele>1198.90</ele><time>2015-11-24T07:34:54Z</time></trkpt><trkpt lat="30.5516936537" lon="35.5666048452"><ele>1195.54</ele><time>2015-11-24T07:34:56Z</time></trkpt><trkpt lat="30.5517905485" lon="35.5666672904"><ele>1193.61</ele><time>2015-11-24T07:34:58Z</time></trkpt><trkpt lat="30.5518426839" lon="35.5666864850"><ele>1193.13</ele><time>2015-11-24T07:34:59Z</time></trkpt><trkpt lat="30.5518928915" lon="35.5666832998"><ele>1192.17</ele><time>2015-11-24T07:35:00Z</time></trkpt><trkpt lat="30.5519319512" lon="35.5666534603"><ele>1190.73</ele><time>2015-11-24T07:35:01Z</time></trkpt><trkpt lat="30.5519508105" lon="35.5666002352"><ele>1189.29</ele><time>2015-11-24T07:35:02Z</time></trkpt><trkpt lat="30.5519500561" lon="35.5665335990"><ele>1189.29</ele><time>2015-11-24T07:35:03Z</time></trkpt><trkpt lat="30.5519382376" lon="35.5664605927"><ele>1188.81</ele><time>2015-11-24T07:35:04Z</time></trkpt><trkpt lat="30.5519166123" lon="35.5662883446"><ele>1185.44</ele><time>2015-11-24T07:35:06Z</time></trkpt><trkpt lat="30.5518864375" lon="35.5659886915"><ele>1183.04</ele><time>2015-11-24T07:35:09Z</time></trkpt><trkpt lat="30.5518985074" lon="35.5658829119"><ele>1183.04</ele><time>2015-11-24T07:35:10Z</time></trkpt><trkpt lat="30.5519212224" lon="35.5657757912"><ele>1182.56</ele><time>2015-11-24T07:35:11Z</time></trkpt><trkpt lat="30.5519551691" lon="35.5656703468"><ele>1182.08</ele><time>2015-11-24T07:35:12Z</time></trkpt><trkpt lat="30.5520037841" lon="35.5655701831"><ele>1181.12</ele><time>2015-11-24T07:35:13Z</time></trkpt><trkpt lat="30.5520663131" lon="35.5654753000"><ele>1180.16</ele><time>2015-11-24T07:35:14Z</time></trkpt><trkpt lat="30.5521485396" lon="35.5653962586"><ele>1179.19</ele><time>2015-11-24T07:35:15Z</time></trkpt><trkpt lat="30.5522495415" lon="35.5653496552"><ele>1178.71</ele><time>2015-11-24T07:35:16Z</time></trkpt><trkpt lat="30.5523555726" lon="35.5653405190"><ele>1178.71</ele><time>2015-11-24T07:35:17Z</time></trkpt><trkpt lat="30.5524548981" lon="35.5653645750"><ele>1178.71</ele><time>2015-11-24T07:35:18Z</time></trkpt><trkpt lat="30.5525430758" lon="35.5654121004"><ele>1178.71</ele><time>2015-11-24T07:35:19Z</time></trkpt><trkpt lat="30.5526270624" lon="35.5654599611"><ele>1178.71</ele><time>2015-11-24T07:35:20Z</time></trkpt><trkpt lat="30.5527085345" lon="35.5654976796"><ele>1177.75</ele><time>2015-11-24T07:35:21Z</time></trkpt><trkpt lat="30.5527813733" lon="35.5655219033"><ele>1178.23</ele><time>2015-11-24T07:35:22Z</time></trkpt><trkpt lat="30.5528475065" lon="35.5655294470"><ele>1177.75</ele><time>2015-11-24T07:35:23Z</time></trkpt><trkpt lat="30.5529166572" lon="35.5655210651"><ele>1176.79</ele><time>2015-11-24T07:35:24Z</time></trkpt><trkpt lat="30.5529951118" lon="35.5655010324"><ele>1175.35</ele><time>2015-11-24T07:35:25Z</time></trkpt><trkpt lat="30.5530867260" lon="35.5654732883"><ele>1173.43</ele><time>2015-11-24T07:35:26Z</time></trkpt><trkpt lat="30.5531920865" lon="35.5654478073"><ele>1171.50</ele><time>2015-11-24T07:35:27Z</time></trkpt><trkpt lat="30.5533105228" lon="35.5654305406"><ele>1169.10</ele><time>2015-11-24T07:35:28Z</time></trkpt><trkpt lat="30.5534362514" lon="35.5654263496"><ele>1168.14</ele><time>2015-11-24T07:35:29Z</time></trkpt><trkpt lat="30.5535634048" lon="35.5654355697"><ele>1167.66</ele><time>2015-11-24T07:35:30Z</time></trkpt><trkpt lat="30.5536871217" lon="35.5654550157"><ele>1166.70</ele><time>2015-11-24T07:35:31Z</time></trkpt><trkpt lat="30.5537994392" lon="35.5654808320"><ele>1165.26</ele><time>2015-11-24T07:35:32Z</time></trkpt><trkpt lat="30.5539968330" lon="35.5655291118"><ele>1164.77</ele><time>2015-11-24T07:35:34Z</time></trkpt><trkpt lat="30.5544134974" lon="35.5655950774"><ele>1160.93</ele><time>2015-11-24T07:35:40Z</time></trkpt><trkpt lat="30.5545931216" lon="35.5655954126"><ele>1158.53</ele><time>2015-11-24T07:35:46Z</time></trkpt><trkpt lat="30.5545824766" lon="35.5656074826"><ele>1158.53</ele><time>2015-11-24T07:36:09Z</time></trkpt><trkpt lat="30.5545915291" lon="35.5656098295"><ele>1158.53</ele><time>2015-11-24T07:36:24Z</time></trkpt><trkpt lat="30.5546076223" lon="35.5656059738"><ele>1158.53</ele><time>2015-11-24T07:36:25Z</time></trkpt><trkpt lat="30.5546342768" lon="35.5655983463"><ele>1158.05</ele><time>2015-11-24T07:36:26Z</time></trkpt><trkpt lat="30.5546716601" lon="35.5655817501"><ele>1157.08</ele><time>2015-11-24T07:36:27Z</time></trkpt><trkpt lat="30.5547189340" lon="35.5655544251"><ele>1156.60</ele><time>2015-11-24T07:36:28Z</time></trkpt><trkpt lat="30.5547659565" lon="35.5655146111"><ele>1155.64</ele><time>2015-11-24T07:36:29Z</time></trkpt><trkpt lat="30.5548051000" lon="35.5654635653"><ele>1155.64</ele><time>2015-11-24T07:36:30Z</time></trkpt><trkpt lat="30.5548371188" lon="35.5654047243"><ele>1155.16</ele><time>2015-11-24T07:36:31Z</time></trkpt><trkpt lat="30.5548663717" lon="35.5653399322"><ele>1154.68</ele><time>2015-11-24T07:36:32Z</time></trkpt><trkpt lat="30.5550180003" lon="35.5650076736"><ele>1151.80</ele><time>2015-11-24T07:36:36Z</time></trkpt><trkpt lat="30.5552274641" lon="35.5645665340"><ele>1148.91</ele><time>2015-11-24T07:36:40Z</time></trkpt><trkpt lat="30.5555712897" lon="35.5638839118"><ele>1152.28</ele><time>2015-11-24T07:36:48Z</time></trkpt><trkpt lat="30.5556618143" lon="35.5637060478"><ele>1155.64</ele><time>2015-11-24T07:36:53Z</time></trkpt><trkpt lat="30.5557064060" lon="35.5636119191"><ele>1155.16</ele><time>2015-11-24T07:36:57Z</time></trkpt><trkpt lat="30.5557199847" lon="35.5635912158"><ele>1155.16</ele><time>2015-11-24T07:36:58Z</time></trkpt><trkpt lat="30.5557335634" lon="35.5635716021"><ele>1155.64</ele><time>2015-11-24T07:36:59Z</time></trkpt><trkpt lat="30.5557456333" lon="35.5635518208"><ele>1155.16</ele><time>2015-11-24T07:37:00Z</time></trkpt><trkpt lat="30.5557520036" lon="35.5635319557"><ele>1155.64</ele><time>2015-11-24T07:37:01Z</time></trkpt><trkpt lat="30.5557592958" lon="35.5635134317"><ele>1155.64</ele><time>2015-11-24T07:37:02Z</time></trkpt><trkpt lat="30.5557681806" lon="35.5634952430"><ele>1155.16</ele><time>2015-11-24T07:37:03Z</time></trkpt><trkpt lat="30.5557771493" lon="35.5634763837"><ele>1155.16</ele><time>2015-11-24T07:37:04Z</time></trkpt><trkpt lat="30.5557888001" lon="35.5634579435"><ele>1156.12</ele><time>2015-11-24T07:37:05Z</time></trkpt><trkpt lat="30.5557992775" lon="35.5634388328"><ele>1156.12</ele><time>2015-11-24T07:37:06Z</time></trkpt><trkpt lat="30.5558079947" lon="35.5634173751"><ele>1155.64</ele><time>2015-11-24T07:37:07Z</time></trkpt><trkpt lat="30.5558129400" lon="35.5633971747"><ele>1155.64</ele><time>2015-11-24T07:37:08Z</time></trkpt><trkpt lat="30.5559633113" lon="35.5631298758"><ele>1155.16</ele><time>2015-11-24T07:37:20Z</time></trkpt><trkpt lat="30.5562927201" lon="35.5628012214"><ele>1152.28</ele><time>2015-11-24T07:37:29Z</time></trkpt><trkpt lat="30.5563623738" lon="35.5627637543"><ele>1151.32</ele><time>2015-11-24T07:37:30Z</time></trkpt><trkpt lat="30.5564324465" lon="35.5627388600"><ele>1151.32</ele><time>2015-11-24T07:37:31Z</time></trkpt><trkpt lat="30.5565017648" lon="35.5627244432"><ele>1151.32</ele><time>2015-11-24T07:37:32Z</time></trkpt><trkpt lat="30.5565696582" lon="35.5627225153"><ele>1151.32</ele><time>2015-11-24T07:37:33Z</time></trkpt><trkpt lat="30.5566354562" lon="35.5627328251"><ele>1151.80</ele><time>2015-11-24T07:37:34Z</time></trkpt><trkpt lat="30.5566970631" lon="35.5627467390"><ele>1152.28</ele><time>2015-11-24T07:37:35Z</time></trkpt><trkpt lat="30.5574482493" lon="35.5629766546"><ele>1154.68</ele><time>2015-11-24T07:37:50Z</time></trkpt><trkpt lat="30.5576067511" lon="35.5630452186"><ele>1155.64</ele><time>2015-11-24T07:37:54Z</time></trkpt><trkpt lat="30.5577729642" lon="35.5630882178"><ele>1155.64</ele><time>2015-11-24T07:37:58Z</time></trkpt><trkpt lat="30.5586386472" lon="35.5630240962"><ele>1154.20</ele><time>2015-11-24T07:38:15Z</time></trkpt><trkpt lat="30.5587384757" lon="35.5629778281"><ele>1153.72</ele><time>2015-11-24T07:38:17Z</time></trkpt><trkpt lat="30.5587860011" lon="35.5629432946"><ele>1153.72</ele><time>2015-11-24T07:38:18Z</time></trkpt><trkpt lat="30.5588315986" lon="35.5629070010"><ele>1153.72</ele><time>2015-11-24T07:38:19Z</time></trkpt><trkpt lat="30.5588735081" lon="35.5628642533"><ele>1153.72</ele><time>2015-11-24T07:38:20Z</time></trkpt><trkpt lat="30.5589133222" lon="35.5628138781"><ele>1153.24</ele><time>2015-11-24T07:38:21Z</time></trkpt><trkpt lat="30.5589538068" lon="35.5627589766"><ele>1153.24</ele><time>2015-11-24T07:38:22Z</time></trkpt><trkpt lat="30.5589976441" lon="35.5627038237"><ele>1152.76</ele><time>2015-11-24T07:38:23Z</time></trkpt><trkpt lat="30.5593521986" lon="35.5621656217"><ele>1151.32</ele><time>2015-11-24T07:38:31Z</time></trkpt><trkpt lat="30.5593999755" lon="35.5621061940"><ele>1151.80</ele><time>2015-11-24T07:38:32Z</time></trkpt><trkpt lat="30.5594540387" lon="35.5620524660"><ele>1151.80</ele><time>2015-11-24T07:38:33Z</time></trkpt><trkpt lat="30.5599401891" lon="35.5616215523"><ele>1151.80</ele><time>2015-11-24T07:38:42Z</time></trkpt><trkpt lat="30.5599986110" lon="35.5615923833"><ele>1151.80</ele><time>2015-11-24T07:38:43Z</time></trkpt><trkpt lat="30.5605669040" lon="35.5614749528"><ele>1153.72</ele><time>2015-11-24T07:38:54Z</time></trkpt><trkpt lat="30.5607921258" lon="35.5614575185"><ele>1156.60</ele><time>2015-11-24T07:39:06Z</time></trkpt><trkpt lat="30.5609005876" lon="35.5614251643"><ele>1158.05</ele><time>2015-11-24T07:39:13Z</time></trkpt><trkpt lat="30.5609170161" lon="35.5614191294"><ele>1158.53</ele><time>2015-11-24T07:39:14Z</time></trkpt><trkpt lat="30.5611192714" lon="35.5613699276"><ele>1160.93</ele><time>2015-11-24T07:39:29Z</time></trkpt><trkpt lat="30.5613531265" lon="35.5612857733"><ele>1163.33</ele><time>2015-11-24T07:39:46Z</time></trkpt><trkpt lat="30.5614167452" lon="35.5612469651"><ele>1163.81</ele><time>2015-11-24T07:39:51Z</time></trkpt><trkpt lat="30.5614288151" lon="35.5612421874"><ele>1163.81</ele><time>2015-11-24T07:39:52Z</time></trkpt><trkpt lat="30.5614646897" lon="35.5612135213"><ele>1165.26</ele><time>2015-11-24T07:39:55Z</time></trkpt><trkpt lat="30.5615410488" lon="35.5611668341"><ele>1167.66</ele><time>2015-11-24T07:40:02Z</time></trkpt><trkpt lat="30.5615518615" lon="35.5611613858"><ele>1168.14</ele><time>2015-11-24T07:40:03Z</time></trkpt><trkpt lat="30.5616919231" lon="35.5610447098"><ele>1171.50</ele><time>2015-11-24T07:40:16Z</time></trkpt><trkpt lat="30.5618671048" lon="35.5608771555"><ele>1173.43</ele><time>2015-11-24T07:40:32Z</time></trkpt><trkpt lat="30.5618802644" lon="35.5608644988"><ele>1173.43</ele><time>2015-11-24T07:40:33Z</time></trkpt><trkpt lat="30.5618909094" lon="35.5608520936"><ele>1173.43</ele><time>2015-11-24T07:40:34Z</time></trkpt><trkpt lat="30.5619356688" lon="35.5608090945"><ele>1173.91</ele><time>2015-11-24T07:40:38Z</time></trkpt><trkpt lat="30.5619458947" lon="35.5607974436"><ele>1173.91</ele><time>2015-11-24T07:40:39Z</time></trkpt><trkpt lat="30.5621406902" lon="35.5605674442"><ele>1176.31</ele><time>2015-11-24T07:40:56Z</time></trkpt><trkpt lat="30.5623194762" lon="35.5603615008"><ele>1176.79</ele><time>2015-11-24T07:41:08Z</time></trkpt><trkpt lat="30.5626061372" lon="35.5600167532"><ele>1178.71</ele><time>2015-11-24T07:41:25Z</time></trkpt><trkpt lat="30.5629098136" lon="35.5596641265"><ele>1178.23</ele><time>2015-11-24T07:41:40Z</time></trkpt><trkpt lat="30.5633081216" lon="35.5593036208"><ele>1176.31</ele><time>2015-11-24T07:41:54Z</time></trkpt><trkpt lat="30.5637005623" lon="35.5590245873"><ele>1172.95</ele><time>2015-11-24T07:42:01Z</time></trkpt><trkpt lat="30.5640144646" lon="35.5588335637"><ele>1170.06</ele><time>2015-11-24T07:42:05Z</time></trkpt><trkpt lat="30.5641064141" lon="35.5588007905"><ele>1170.06</ele><time>2015-11-24T07:42:06Z</time></trkpt><trkpt lat="30.5642018840" lon="35.5587779079"><ele>1169.58</ele><time>2015-11-24T07:42:07Z</time></trkpt><trkpt lat="30.5642996170" lon="35.5587626528"><ele>1169.10</ele><time>2015-11-24T07:42:08Z</time></trkpt><trkpt lat="30.5643981043" lon="35.5587561987"><ele>1168.62</ele><time>2015-11-24T07:42:09Z</time></trkpt><trkpt lat="30.5644964240" lon="35.5587588809"><ele>1169.10</ele><time>2015-11-24T07:42:10Z</time></trkpt><trkpt lat="30.5645926483" lon="35.5587680172"><ele>1169.58</ele><time>2015-11-24T07:42:11Z</time></trkpt><trkpt lat="30.5646856874" lon="35.5587841943"><ele>1169.58</ele><time>2015-11-24T07:42:12Z</time></trkpt><trkpt lat="30.5655671284" lon="35.5589919817"><ele>1171.50</ele><time>2015-11-24T07:42:24Z</time></trkpt><trkpt lat="30.5663991999" lon="35.5588768143"><ele>1171.50</ele><time>2015-11-24T07:42:39Z</time></trkpt><trkpt lat="30.5671848357" lon="35.5586102698"><ele>1171.98</ele><time>2015-11-24T07:42:55Z</time></trkpt><trkpt lat="30.5674323533" lon="35.5585490819"><ele>1172.95</ele><time>2015-11-24T07:43:01Z</time></trkpt><trkpt lat="30.5676340219" lon="35.5585500877"><ele>1176.31</ele><time>2015-11-24T07:43:08Z</time></trkpt><trkpt lat="30.5676836427" lon="35.5585701205"><ele>1176.31</ele><time>2015-11-24T07:43:18Z</time></trkpt><trkpt lat="30.5676837265" lon="35.5585743114"><ele>1175.83</ele><time>2015-11-24T07:43:34Z</time></trkpt><trkpt lat="30.5676683038" lon="35.5585779995"><ele>1172.47</ele><time>2015-11-24T07:43:45Z</time></trkpt><trkpt lat="30.5676589999" lon="35.5585807655"><ele>1174.87</ele><time>2015-11-24T07:43:48Z</time></trkpt><trkpt lat="30.5676371232" lon="35.5585650075"><ele>1173.91</ele><time>2015-11-24T07:44:02Z</time></trkpt><trkpt lat="30.5676352791" lon="35.5585604813"><ele>1173.43</ele><time>2015-11-24T07:44:22Z</time></trkpt><trkpt lat="30.5676290765" lon="35.5585575476"><ele>1173.43</ele><time>2015-11-24T07:44:39Z</time></trkpt><trkpt lat="30.5676311720" lon="35.5585725512"><ele>1173.43</ele><time>2015-11-24T07:45:20Z</time></trkpt><trkpt lat="30.5676320102" lon="35.5585766584"><ele>1173.43</ele><time>2015-11-24T07:46:01Z</time></trkpt><trkpt lat="30.5676388834" lon="35.5585773289"><ele>1174.39</ele><time>2015-11-24T07:46:39Z</time></trkpt><trkpt lat="30.5676414818" lon="35.5585709587"><ele>1173.43</ele><time>2015-11-24T07:47:12Z</time></trkpt><trkpt lat="30.5676401407" lon="35.5585691985"><ele>1173.91</ele><time>2015-11-24T07:47:42Z</time></trkpt><trkpt lat="30.5676416494" lon="35.5585695338"><ele>1173.43</ele><time>2015-11-24T07:48:16Z</time></trkpt><trkpt lat="30.5676375423" lon="35.5585698690"><ele>1172.95</ele><time>2015-11-24T07:48:45Z</time></trkpt><trkpt lat="30.5676393863" lon="35.5585681088"><ele>1173.91</ele><time>2015-11-24T07:49:22Z</time></trkpt><trkpt lat="30.5676404759" lon="35.5585782509"><ele>1172.95</ele><time>2015-11-24T07:50:03Z</time></trkpt><trkpt lat="30.5676392186" lon="35.5585712101"><ele>1173.43</ele><time>2015-11-24T07:50:45Z</time></trkpt><trkpt lat="30.5676427390" lon="35.5585781671"><ele>1172.95</ele><time>2015-11-24T07:51:26Z</time></trkpt><trkpt lat="30.5676381290" lon="35.5585718807"><ele>1173.43</ele><time>2015-11-24T07:52:16Z</time></trkpt><trkpt lat="30.5676386319" lon="35.5585733056"><ele>1173.43</ele><time>2015-11-24T07:52:51Z</time></trkpt><trkpt lat="30.5676255561" lon="35.5585593916"><ele>1173.43</ele><time>2015-11-24T07:53:27Z</time></trkpt><trkpt lat="30.5676333513" lon="35.5585183203"><ele>1175.35</ele><time>2015-11-24T07:53:33Z</time></trkpt><trkpt lat="30.5676328484" lon="35.5585154705"><ele>1175.35</ele><time>2015-11-24T07:53:37Z</time></trkpt><trkpt lat="30.5676353630" lon="35.5585004669"><ele>1174.87</ele><time>2015-11-24T07:53:38Z</time></trkpt><trkpt lat="30.5676398892" lon="35.5584808532"><ele>1173.91</ele><time>2015-11-24T07:53:39Z</time></trkpt><trkpt lat="30.5676423199" lon="35.5584624130"><ele>1173.91</ele><time>2015-11-24T07:53:40Z</time></trkpt><trkpt lat="30.5676500313" lon="35.5584396143"><ele>1174.39</ele><time>2015-11-24T07:53:41Z</time></trkpt><trkpt lat="30.5676671304" lon="35.5584139656"><ele>1174.39</ele><time>2015-11-24T07:53:42Z</time></trkpt><trkpt lat="30.5677328445" lon="35.5582943559"><ele>1172.95</ele><time>2015-11-24T07:53:46Z</time></trkpt><trkpt lat="30.5677617621" lon="35.5581855588"><ele>1171.02</ele><time>2015-11-24T07:53:48Z</time></trkpt><trkpt lat="30.5678165797" lon="35.5579332635"><ele>1166.70</ele><time>2015-11-24T07:53:51Z</time></trkpt><trkpt lat="30.5678689666" lon="35.5577233806"><ele>1163.33</ele><time>2015-11-24T07:53:53Z</time></trkpt><trkpt lat="30.5679131392" lon="35.5576150864"><ele>1162.85</ele><time>2015-11-24T07:53:54Z</time></trkpt><trkpt lat="30.5679679569" lon="35.5575146712"><ele>1161.89</ele><time>2015-11-24T07:53:55Z</time></trkpt><trkpt lat="30.5680283904" lon="35.5574255716"><ele>1161.41</ele><time>2015-11-24T07:53:56Z</time></trkpt><trkpt lat="30.5680945236" lon="35.5573456921"><ele>1160.93</ele><time>2015-11-24T07:53:57Z</time></trkpt><trkpt lat="30.5681645963" lon="35.5572705064"><ele>1160.93</ele><time>2015-11-24T07:53:58Z</time></trkpt><trkpt lat="30.5685844459" lon="35.5568404309"><ele>1161.41</ele><time>2015-11-24T07:54:04Z</time></trkpt><trkpt lat="30.5686617270" lon="35.5567867868"><ele>1161.41</ele><time>2015-11-24T07:54:05Z</time></trkpt><trkpt lat="30.5687442049" lon="35.5567510799"><ele>1161.41</ele><time>2015-11-24T07:54:06Z</time></trkpt><trkpt lat="30.5688323826" lon="35.5567388423"><ele>1161.89</ele><time>2015-11-24T07:54:07Z</time></trkpt><trkpt lat="30.5689202249" lon="35.5567468051"><ele>1162.37</ele><time>2015-11-24T07:54:08Z</time></trkpt><trkpt lat="30.5690048821" lon="35.5567670055"><ele>1164.29</ele><time>2015-11-24T07:54:09Z</time></trkpt><trkpt lat="30.5690830853" lon="35.5567903072"><ele>1164.29</ele><time>2015-11-24T07:54:10Z</time></trkpt><trkpt lat="30.5692574289" lon="35.5568270199"><ele>1166.70</ele><time>2015-11-24T07:54:13Z</time></trkpt><trkpt lat="30.5692909565" lon="35.5568225775"><ele>1168.62</ele><time>2015-11-24T07:54:14Z</time></trkpt><trkpt lat="30.5693143420" lon="35.5568157043"><ele>1169.10</ele><time>2015-11-24T07:54:15Z</time></trkpt><trkpt lat="30.5693328660" lon="35.5568090826"><ele>1169.58</ele><time>2015-11-24T07:54:16Z</time></trkpt><trkpt lat="30.5693502165" lon="35.5568034668"><ele>1170.54</ele><time>2015-11-24T07:54:17Z</time></trkpt><trkpt lat="30.5695183575" lon="35.5567480624"><ele>1171.02</ele><time>2015-11-24T07:54:30Z</time></trkpt><trkpt lat="30.5695318524" lon="35.5567399319"><ele>1171.02</ele><time>2015-11-24T07:54:31Z</time></trkpt><trkpt lat="30.5695461854" lon="35.5567349866"><ele>1171.02</ele><time>2015-11-24T07:54:32Z</time></trkpt><trkpt lat="30.5695603509" lon="35.5567292869"><ele>1171.02</ele><time>2015-11-24T07:54:33Z</time></trkpt><trkpt lat="30.5695744324" lon="35.5567261856"><ele>1171.50</ele><time>2015-11-24T07:54:34Z</time></trkpt><trkpt lat="30.5695879273" lon="35.5567219947"><ele>1171.02</ele><time>2015-11-24T07:54:35Z</time></trkpt><trkpt lat="30.5696021765" lon="35.5567137804"><ele>1171.50</ele><time>2015-11-24T07:54:36Z</time></trkpt><trkpt lat="30.5696155038" lon="35.5567026325"><ele>1171.50</ele><time>2015-11-24T07:54:37Z</time></trkpt><trkpt lat="30.5696264841" lon="35.5566939991"><ele>1171.98</ele><time>2015-11-24T07:54:38Z</time></trkpt><trkpt lat="30.5696381349" lon="35.5566882156"><ele>1172.47</ele><time>2015-11-24T07:54:39Z</time></trkpt><trkpt lat="30.5696515460" lon="35.5566822644"><ele>1172.95</ele><time>2015-11-24T07:54:40Z</time></trkpt><trkpt lat="30.5696649570" lon="35.5566774867"><ele>1172.47</ele><time>2015-11-24T07:54:41Z</time></trkpt><trkpt lat="30.5696780328" lon="35.5566722900"><ele>1172.47</ele><time>2015-11-24T07:54:42Z</time></trkpt><trkpt lat="30.5696911924" lon="35.5566667579"><ele>1172.47</ele><time>2015-11-24T07:54:43Z</time></trkpt><trkpt lat="30.5697029270" lon="35.5566606391"><ele>1172.95</ele><time>2015-11-24T07:54:44Z</time></trkpt><trkpt lat="30.5697165895" lon="35.5566551071"><ele>1173.43</ele><time>2015-11-24T07:54:45Z</time></trkpt><trkpt lat="30.5697546434" lon="35.5566332303"><ele>1173.91</ele><time>2015-11-24T07:54:48Z</time></trkpt><trkpt lat="30.5697643664" lon="35.5566210765"><ele>1173.91</ele><time>2015-11-24T07:54:49Z</time></trkpt><trkpt lat="30.5697755143" lon="35.5566103477"><ele>1173.43</ele><time>2015-11-24T07:54:50Z</time></trkpt><trkpt lat="30.5697892606" lon="35.5566014629"><ele>1173.43</ele><time>2015-11-24T07:54:51Z</time></trkpt><trkpt lat="30.5698035099" lon="35.5565917399"><ele>1174.39</ele><time>2015-11-24T07:54:52Z</time></trkpt><trkpt lat="30.5698173400" lon="35.5565823521"><ele>1174.87</ele><time>2015-11-24T07:54:53Z</time></trkpt><trkpt lat="30.5698310025" lon="35.5565756466"><ele>1174.87</ele><time>2015-11-24T07:54:54Z</time></trkpt><trkpt lat="30.5699897557" lon="35.5564199947"><ele>1176.31</ele><time>2015-11-24T07:55:06Z</time></trkpt><trkpt lat="30.5701617524" lon="35.5561892409"><ele>1176.31</ele><time>2015-11-24T07:55:20Z</time></trkpt><trkpt lat="30.5704086833" lon="35.5558104627"><ele>1173.91</ele><time>2015-11-24T07:55:34Z</time></trkpt><trkpt lat="30.5704613216" lon="35.5557280686"><ele>1173.43</ele><time>2015-11-24T07:55:36Z</time></trkpt><trkpt lat="30.5708396807" lon="35.5549887847"><ele>1170.54</ele><time>2015-11-24T07:55:49Z</time></trkpt><trkpt lat="30.5708786566" lon="35.5549254175"><ele>1170.54</ele><time>2015-11-24T07:55:50Z</time></trkpt><trkpt lat="30.5709953327" lon="35.5547822546"><ele>1171.98</ele><time>2015-11-24T07:55:53Z</time></trkpt><trkpt lat="30.5710351467" lon="35.5547600426"><ele>1171.98</ele><time>2015-11-24T07:55:54Z</time></trkpt><trkpt lat="30.5712820776" lon="35.5546419416"><ele>1176.31</ele><time>2015-11-24T07:56:04Z</time></trkpt><trkpt lat="30.5713143479" lon="35.5546193942"><ele>1176.31</ele><time>2015-11-24T07:56:06Z</time></trkpt><trkpt lat="30.5713298544" lon="35.5546109285"><ele>1176.31</ele><time>2015-11-24T07:56:07Z</time></trkpt><trkpt lat="30.5713467021" lon="35.5546027981"><ele>1176.31</ele><time>2015-11-24T07:56:08Z</time></trkpt><trkpt lat="30.5713634659" lon="35.5545933265"><ele>1176.79</ele><time>2015-11-24T07:56:09Z</time></trkpt><trkpt lat="30.5713788886" lon="35.5545826815"><ele>1176.79</ele><time>2015-11-24T07:56:10Z</time></trkpt><trkpt lat="30.5714254919" lon="35.5545640737"><ele>1178.71</ele><time>2015-11-24T07:56:13Z</time></trkpt><trkpt lat="30.5716462713" lon="35.5544722080"><ele>1181.60</ele><time>2015-11-24T07:56:27Z</time></trkpt><trkpt lat="30.5718483590" lon="35.5544133671"><ele>1182.56</ele><time>2015-11-24T07:56:41Z</time></trkpt><trkpt lat="30.5721079465" lon="35.5543075874"><ele>1183.52</ele><time>2015-11-24T07:56:56Z</time></trkpt><trkpt lat="30.5722186714" lon="35.5542663485"><ele>1184.48</ele><time>2015-11-24T07:57:02Z</time></trkpt><trkpt lat="30.5725429673" lon="35.5542016402"><ele>1185.44</ele><time>2015-11-24T07:57:18Z</time></trkpt><trkpt lat="30.5728243478" lon="35.5542147160"><ele>1188.81</ele><time>2015-11-24T07:57:32Z</time></trkpt><trkpt lat="30.5731390044" lon="35.5542497523"><ele>1191.69</ele><time>2015-11-24T07:57:49Z</time></trkpt><trkpt lat="30.5735266674" lon="35.5542560387"><ele>1193.13</ele><time>2015-11-24T07:58:07Z</time></trkpt><trkpt lat="30.5738454312" lon="35.5541163124"><ele>1196.50</ele><time>2015-11-24T07:58:23Z</time></trkpt><trkpt lat="30.5738789588" lon="35.5540925078"><ele>1196.50</ele><time>2015-11-24T07:58:25Z</time></trkpt><trkpt lat="30.5738918670" lon="35.5540767498"><ele>1196.98</ele><time>2015-11-24T07:58:26Z</time></trkpt><trkpt lat="30.5739012547" lon="35.5540613271"><ele>1196.98</ele><time>2015-11-24T07:58:27Z</time></trkpt><trkpt lat="30.5739091337" lon="35.5540464073"><ele>1196.98</ele><time>2015-11-24T07:58:28Z</time></trkpt><trkpt lat="30.5739193596" lon="35.5540313199"><ele>1197.46</ele><time>2015-11-24T07:58:29Z</time></trkpt><trkpt lat="30.5739269871" lon="35.5540140532"><ele>1198.42</ele><time>2015-11-24T07:58:30Z</time></trkpt><trkpt lat="30.5739315972" lon="35.5539945234"><ele>1198.90</ele><time>2015-11-24T07:58:31Z</time></trkpt><trkpt lat="30.5739331059" lon="35.5539751612"><ele>1199.38</ele><time>2015-11-24T07:58:32Z</time></trkpt><trkpt lat="30.5739345308" lon="35.5539550446"><ele>1199.38</ele><time>2015-11-24T07:58:33Z</time></trkpt><trkpt lat="30.5739367940" lon="35.5539349280"><ele>1199.86</ele><time>2015-11-24T07:58:34Z</time></trkpt><trkpt lat="30.5739338603" lon="35.5538564734"><ele>1202.75</ele><time>2015-11-24T07:58:38Z</time></trkpt><trkpt lat="30.5739331897" lon="35.5536310002"><ele>1206.59</ele><time>2015-11-24T07:58:50Z</time></trkpt><trkpt lat="30.5739429127" lon="35.5534594227"><ele>1209.00</ele><time>2015-11-24T07:59:00Z</time></trkpt><trkpt lat="30.5739771947" lon="35.5533826444"><ele>1210.92</ele><time>2015-11-24T07:59:07Z</time></trkpt><trkpt lat="30.5740071181" lon="35.5533611868"><ele>1210.92</ele><time>2015-11-24T07:59:11Z</time></trkpt><trkpt lat="30.5742875766" lon="35.5533999112"><ele>1209.96</ele><time>2015-11-24T07:59:24Z</time></trkpt><trkpt lat="30.5746143032" lon="35.5534875859"><ele>1208.03</ele><time>2015-11-24T07:59:30Z</time></trkpt><trkpt lat="30.5746791791" lon="35.5534911063"><ele>1207.55</ele><time>2015-11-24T07:59:31Z</time></trkpt><trkpt lat="30.5747451447" lon="35.5534832273"><ele>1207.07</ele><time>2015-11-24T07:59:32Z</time></trkpt><trkpt lat="30.5748065002" lon="35.5534570757"><ele>1207.55</ele><time>2015-11-24T07:59:33Z</time></trkpt><trkpt lat="30.5748634972" lon="35.5534248054"><ele>1208.03</ele><time>2015-11-24T07:59:34Z</time></trkpt><trkpt lat="30.5749121960" lon="35.5533854943"><ele>1209.00</ele><time>2015-11-24T07:59:35Z</time></trkpt><trkpt lat="30.5749574583" lon="35.5533424951"><ele>1209.96</ele><time>2015-11-24T07:59:36Z</time></trkpt><trkpt lat="30.5749979429" lon="35.5532946344"><ele>1210.92</ele><time>2015-11-24T07:59:37Z</time></trkpt><trkpt lat="30.5750321411" lon="35.5532418285"><ele>1211.88</ele><time>2015-11-24T07:59:38Z</time></trkpt><trkpt lat="30.5750589631" lon="35.5531844124"><ele>1213.32</ele><time>2015-11-24T07:59:39Z</time></trkpt><trkpt lat="30.5750794988" lon="35.5531280022"><ele>1213.80</ele><time>2015-11-24T07:59:40Z</time></trkpt><trkpt lat="30.5750933290" lon="35.5530754477"><ele>1214.28</ele><time>2015-11-24T07:59:41Z</time></trkpt><trkpt lat="30.5751037225" lon="35.5530275870"><ele>1214.76</ele><time>2015-11-24T07:59:42Z</time></trkpt><trkpt lat="30.5751183070" lon="35.5529521499"><ele>1216.21</ele><time>2015-11-24T07:59:44Z</time></trkpt><trkpt lat="30.5751494877" lon="35.5526691768"><ele>1219.09</ele><time>2015-11-24T07:59:57Z</time></trkpt><trkpt lat="30.5751452129" lon="35.5524146184"><ele>1219.57</ele><time>2015-11-24T08:00:10Z</time></trkpt><trkpt lat="30.5751428660" lon="35.5523165502"><ele>1220.53</ele><time>2015-11-24T08:00:15Z</time></trkpt><trkpt lat="30.5751369987" lon="35.5522974394"><ele>1220.53</ele><time>2015-11-24T08:00:16Z</time></trkpt><trkpt lat="30.5751171336" lon="35.5521689449"><ele>1221.01</ele><time>2015-11-24T08:00:23Z</time></trkpt><trkpt lat="30.5751140323" lon="35.5521519296"><ele>1221.97</ele><time>2015-11-24T08:00:24Z</time></trkpt><trkpt lat="30.5751088355" lon="35.5521345790"><ele>1222.45</ele><time>2015-11-24T08:00:25Z</time></trkpt><trkpt lat="30.5751013756" lon="35.5521165580"><ele>1221.97</ele><time>2015-11-24T08:00:26Z</time></trkpt><trkpt lat="30.5750975199" lon="35.5520992912"><ele>1221.97</ele><time>2015-11-24T08:00:27Z</time></trkpt><trkpt lat="30.5750936642" lon="35.5520830303"><ele>1221.97</ele><time>2015-11-24T08:00:28Z</time></trkpt><trkpt lat="30.5750898924" lon="35.5520692002"><ele>1221.97</ele><time>2015-11-24T08:00:29Z</time></trkpt><trkpt lat="30.5750361644" lon="35.5519730598"><ele>1222.93</ele><time>2015-11-24T08:00:36Z</time></trkpt><trkpt lat="30.5750230886" lon="35.5519600678"><ele>1222.93</ele><time>2015-11-24T08:00:37Z</time></trkpt><trkpt lat="30.5750097614" lon="35.5519457348"><ele>1224.86</ele><time>2015-11-24T08:00:38Z</time></trkpt><trkpt lat="30.5749954283" lon="35.5519298092"><ele>1224.38</ele><time>2015-11-24T08:00:39Z</time></trkpt><trkpt lat="30.5749781616" lon="35.5519134644"><ele>1224.38</ele><time>2015-11-24T08:00:40Z</time></trkpt><trkpt lat="30.5749587156" lon="35.5518998858"><ele>1224.38</ele><time>2015-11-24T08:00:41Z</time></trkpt><trkpt lat="30.5749370065" lon="35.5518893246"><ele>1224.86</ele><time>2015-11-24T08:00:42Z</time></trkpt><trkpt lat="30.5749160517" lon="35.5518790148"><ele>1225.82</ele><time>2015-11-24T08:00:43Z</time></trkpt><trkpt lat="30.5748960190" lon="35.5518682860"><ele>1227.26</ele><time>2015-11-24T08:00:44Z</time></trkpt><trkpt lat="30.5748751480" lon="35.5518631730"><ele>1227.74</ele><time>2015-11-24T08:00:45Z</time></trkpt><trkpt lat="30.5748520978" lon="35.5518627539"><ele>1226.78</ele><time>2015-11-24T08:00:46Z</time></trkpt><trkpt lat="30.5748345796" lon="35.5518665258"><ele>1226.78</ele><time>2015-11-24T08:00:47Z</time></trkpt><trkpt lat="30.5748036504" lon="35.5518754944"><ele>1229.18</ele><time>2015-11-24T08:00:58Z</time></trkpt><trkpt lat="30.5747681111" lon="35.5518807750"><ele>1227.74</ele><time>2015-11-24T08:01:18Z</time></trkpt><trkpt lat="30.5747711286" lon="35.5518619996"><ele>1226.78</ele><time>2015-11-24T08:01:53Z</time></trkpt><trkpt lat="30.5747614894" lon="35.5518624187"><ele>1225.82</ele><time>2015-11-24T08:02:28Z</time></trkpt><trkpt lat="30.5747553706" lon="35.5518676154"><ele>1226.30</ele><time>2015-11-24T08:03:06Z</time></trkpt><trkpt lat="30.5747648422" lon="35.5518805236"><ele>1224.86</ele><time>2015-11-24T08:03:52Z</time></trkpt><trkpt lat="30.5747569632" lon="35.5518925097"><ele>1225.82</ele><time>2015-11-24T08:04:10Z</time></trkpt><trkpt lat="30.5747474078" lon="35.5519000534"><ele>1225.82</ele><time>2015-11-24T08:04:11Z</time></trkpt><trkpt lat="30.5745730642" lon="35.5520668533"><ele>1227.26</ele><time>2015-11-24T08:04:29Z</time></trkpt><trkpt lat="30.5743865669" lon="35.5522126984"><ele>1230.14</ele><time>2015-11-24T08:04:49Z</time></trkpt><trkpt lat="30.5742805358" lon="35.5522486567"><ele>1231.59</ele><time>2015-11-24T08:05:00Z</time></trkpt><trkpt lat="30.5742698908" lon="35.5522489082"><ele>1232.07</ele><time>2015-11-24T08:05:01Z</time></trkpt><trkpt lat="30.5741889216" lon="35.5522237625"><ele>1235.43</ele><time>2015-11-24T08:05:11Z</time></trkpt><trkpt lat="30.5741828028" lon="35.5522178113"><ele>1235.43</ele><time>2015-11-24T08:05:12Z</time></trkpt><trkpt lat="30.5741644464" lon="35.5521864630"><ele>1234.47</ele><time>2015-11-24T08:05:17Z</time></trkpt><trkpt lat="30.5741595849" lon="35.5521763209"><ele>1233.99</ele><time>2015-11-24T08:05:18Z</time></trkpt><trkpt lat="30.5741514545" lon="35.5521444697"><ele>1236.39</ele><time>2015-11-24T08:05:23Z</time></trkpt><trkpt lat="30.5741395522" lon="35.5520495027"><ele>1237.83</ele><time>2015-11-24T08:05:33Z</time></trkpt><trkpt lat="30.5741343554" lon="35.5520262849"><ele>1239.28</ele><time>2015-11-24T08:05:36Z</time></trkpt><trkpt lat="30.5741294101" lon="35.5519604031"><ele>1242.16</ele><time>2015-11-24T08:05:45Z</time></trkpt><trkpt lat="30.5741047673" lon="35.5518364348"><ele>1245.04</ele><time>2015-11-24T08:06:02Z</time></trkpt><trkpt lat="30.5740866624" lon="35.5518129654"><ele>1246.01</ele><time>2015-11-24T08:06:06Z</time></trkpt><trkpt lat="30.5740422383" lon="35.5517480057"><ele>1247.93</ele><time>2015-11-24T08:06:14Z</time></trkpt><trkpt lat="30.5740258098" lon="35.5517287273"><ele>1248.89</ele><time>2015-11-24T08:06:17Z</time></trkpt><trkpt lat="30.5740035139" lon="35.5517186690"><ele>1245.53</ele><time>2015-11-24T08:06:20Z</time></trkpt><trkpt lat="30.5739168450" lon="35.5516827106"><ele>1245.04</ele><time>2015-11-24T08:06:33Z</time></trkpt><trkpt lat="30.5738147534" lon="35.5516267195"><ele>1246.01</ele><time>2015-11-24T08:06:48Z</time></trkpt><trkpt lat="30.5737911165" lon="35.5516064353"><ele>1248.41</ele><time>2015-11-24T08:06:52Z</time></trkpt><trkpt lat="30.5736709200" lon="35.5515361112"><ele>1250.33</ele><time>2015-11-24T08:07:09Z</time></trkpt><trkpt lat="30.5736644659" lon="35.5515325069"><ele>1250.33</ele><time>2015-11-24T08:07:10Z</time></trkpt><trkpt lat="30.5736229755" lon="35.5515110493"><ele>1248.89</ele><time>2015-11-24T08:07:15Z</time></trkpt><trkpt lat="30.5735285114" lon="35.5514771864"><ele>1252.25</ele><time>2015-11-24T08:07:25Z</time></trkpt><trkpt lat="30.5733904615" lon="35.5514284875"><ele>1252.74</ele><time>2015-11-24T08:07:34Z</time></trkpt><trkpt lat="30.5733628012" lon="35.5514356121"><ele>1251.77</ele><time>2015-11-24T08:07:36Z</time></trkpt><trkpt lat="30.5733524077" lon="35.5514271464"><ele>1254.66</ele><time>2015-11-24T08:07:37Z</time></trkpt><trkpt lat="30.5733436067" lon="35.5514123943"><ele>1255.14</ele><time>2015-11-24T08:07:38Z</time></trkpt><trkpt lat="30.5733304471" lon="35.5514001567"><ele>1255.62</ele><time>2015-11-24T08:07:39Z</time></trkpt><trkpt lat="30.5733164493" lon="35.5513916072"><ele>1254.66</ele><time>2015-11-24T08:07:40Z</time></trkpt><trkpt lat="30.5733027868" lon="35.5513847340"><ele>1255.14</ele><time>2015-11-24T08:07:41Z</time></trkpt><trkpt lat="30.5732875317" lon="35.5513771903"><ele>1256.10</ele><time>2015-11-24T08:07:42Z</time></trkpt><trkpt lat="30.5732722767" lon="35.5513722450"><ele>1255.62</ele><time>2015-11-24T08:07:43Z</time></trkpt><trkpt lat="30.5732577760" lon="35.5513693951"><ele>1255.62</ele><time>2015-11-24T08:07:44Z</time></trkpt><trkpt lat="30.5732429400" lon="35.5513682216"><ele>1256.58</ele><time>2015-11-24T08:07:45Z</time></trkpt><trkpt lat="30.5732283555" lon="35.5513686407"><ele>1256.10</ele><time>2015-11-24T08:07:46Z</time></trkpt><trkpt lat="30.5732135195" lon="35.5513707362"><ele>1255.14</ele><time>2015-11-24T08:07:47Z</time></trkpt><trkpt lat="30.5731998570" lon="35.5513709038"><ele>1256.10</ele><time>2015-11-24T08:07:48Z</time></trkpt><trkpt lat="30.5731867813" lon="35.5513670482"><ele>1257.06</ele><time>2015-11-24T08:07:49Z</time></trkpt><trkpt lat="30.5731719453" lon="35.5513647012"><ele>1257.54</ele><time>2015-11-24T08:07:50Z</time></trkpt><trkpt lat="30.5731571093" lon="35.5513626896"><ele>1256.10</ele><time>2015-11-24T08:07:51Z</time></trkpt><trkpt lat="30.5731436145" lon="35.5513579957"><ele>1256.10</ele><time>2015-11-24T08:07:52Z</time></trkpt><trkpt lat="30.5731100868" lon="35.5513584986"><ele>1255.62</ele><time>2015-11-24T08:07:55Z</time></trkpt><trkpt lat="30.5730989389" lon="35.5513538048"><ele>1255.62</ele><time>2015-11-24T08:07:56Z</time></trkpt><trkpt lat="30.5730873719" lon="35.5513496976"><ele>1258.02</ele><time>2015-11-24T08:07:57Z</time></trkpt><trkpt lat="30.5730741285" lon="35.5513501167"><ele>1256.10</ele><time>2015-11-24T08:07:58Z</time></trkpt><trkpt lat="30.5730609689" lon="35.5513511226"><ele>1255.62</ele><time>2015-11-24T08:07:59Z</time></trkpt><trkpt lat="30.5729950871" lon="35.5513562355"><ele>1255.14</ele><time>2015-11-24T08:08:04Z</time></trkpt><trkpt lat="30.5729875434" lon="35.5513648689"><ele>1255.14</ele><time>2015-11-24T08:08:05Z</time></trkpt><trkpt lat="30.5729686841" lon="35.5513761006"><ele>1255.62</ele><time>2015-11-24T08:08:07Z</time></trkpt><trkpt lat="30.5729559436" lon="35.5513745081"><ele>1254.66</ele><time>2015-11-24T08:08:08Z</time></trkpt><trkpt lat="30.5729428679" lon="35.5513668805"><ele>1256.58</ele><time>2015-11-24T08:08:09Z</time></trkpt><trkpt lat="30.5729305465" lon="35.5513585825"><ele>1256.10</ele><time>2015-11-24T08:08:10Z</time></trkpt><trkpt lat="30.5729184765" lon="35.5513523798"><ele>1255.62</ele><time>2015-11-24T08:08:11Z</time></trkpt><trkpt lat="30.5729060713" lon="35.5513475183"><ele>1255.14</ele><time>2015-11-24T08:08:12Z</time></trkpt><trkpt lat="30.5728935823" lon="35.5513429083"><ele>1254.18</ele><time>2015-11-24T08:08:13Z</time></trkpt><trkpt lat="30.5728815962" lon="35.5513411481"><ele>1255.14</ele><time>2015-11-24T08:08:14Z</time></trkpt><trkpt lat="30.5728696939" lon="35.5513403099"><ele>1254.66</ele><time>2015-11-24T08:08:15Z</time></trkpt><trkpt lat="30.5728580430" lon="35.5513384659"><ele>1254.66</ele><time>2015-11-24T08:08:16Z</time></trkpt><trkpt lat="30.5728468113" lon="35.5513352808"><ele>1253.70</ele><time>2015-11-24T08:08:17Z</time></trkpt><trkpt lat="30.5728353281" lon="35.5513337720"><ele>1253.70</ele><time>2015-11-24T08:08:18Z</time></trkpt><trkpt lat="30.5728234258" lon="35.5513321795"><ele>1253.70</ele><time>2015-11-24T08:08:19Z</time></trkpt><trkpt lat="30.5728104338" lon="35.5513280723"><ele>1253.22</ele><time>2015-11-24T08:08:20Z</time></trkpt><trkpt lat="30.5727961846" lon="35.5513238814"><ele>1253.22</ele><time>2015-11-24T08:08:21Z</time></trkpt><trkpt lat="30.5727821868" lon="35.5513222050"><ele>1254.18</ele><time>2015-11-24T08:08:22Z</time></trkpt><trkpt lat="30.5727695301" lon="35.5513234623"><ele>1253.70</ele><time>2015-11-24T08:08:23Z</time></trkpt><trkpt lat="30.5727460608" lon="35.5513233785"><ele>1253.70</ele><time>2015-11-24T08:08:25Z</time></trkpt><trkpt lat="30.5727334879" lon="35.5513187684"><ele>1254.66</ele><time>2015-11-24T08:08:26Z</time></trkpt><trkpt lat="30.5727196578" lon="35.5513142422"><ele>1254.66</ele><time>2015-11-24T08:08:27Z</time></trkpt><trkpt lat="30.5727068335" lon="35.5513099674"><ele>1255.14</ele><time>2015-11-24T08:08:28Z</time></trkpt><trkpt lat="30.5726927519" lon="35.5513082072"><ele>1254.66</ele><time>2015-11-24T08:08:29Z</time></trkpt><trkpt lat="30.5726779997" lon="35.5513075367"><ele>1254.18</ele><time>2015-11-24T08:08:30Z</time></trkpt><trkpt lat="30.5725342501" lon="35.5512715783"><ele>1257.06</ele><time>2015-11-24T08:08:40Z</time></trkpt><trkpt lat="30.5725213420" lon="35.5512618553"><ele>1255.62</ele><time>2015-11-24T08:08:41Z</time></trkpt><trkpt lat="30.5725069251" lon="35.5512560718"><ele>1256.10</ele><time>2015-11-24T08:08:42Z</time></trkpt><trkpt lat="30.5724922568" lon="35.5512540601"><ele>1256.10</ele><time>2015-11-24T08:08:43Z</time></trkpt><trkpt lat="30.5724779237" lon="35.5512538087"><ele>1255.14</ele><time>2015-11-24T08:08:44Z</time></trkpt><trkpt lat="30.5724651832" lon="35.5512547307"><ele>1255.62</ele><time>2015-11-24T08:08:45Z</time></trkpt><trkpt lat="30.5724518560" lon="35.5512567423"><ele>1255.62</ele><time>2015-11-24T08:08:46Z</time></trkpt><trkpt lat="30.5724381097" lon="35.5512548983"><ele>1255.14</ele><time>2015-11-24T08:08:47Z</time></trkpt><trkpt lat="30.5724244472" lon="35.5512481928"><ele>1254.66</ele><time>2015-11-24T08:08:48Z</time></trkpt><trkpt lat="30.5724102817" lon="35.5512416549"><ele>1254.18</ele><time>2015-11-24T08:08:49Z</time></trkpt><trkpt lat="30.5723948590" lon="35.5512382183"><ele>1255.14</ele><time>2015-11-24T08:08:50Z</time></trkpt><trkpt lat="30.5723795202" lon="35.5512355361"><ele>1253.70</ele><time>2015-11-24T08:08:51Z</time></trkpt><trkpt lat="30.5723639298" lon="35.5512326024"><ele>1254.18</ele><time>2015-11-24T08:08:52Z</time></trkpt><trkpt lat="30.5723488424" lon="35.5512298364"><ele>1255.14</ele><time>2015-11-24T08:08:53Z</time></trkpt><trkpt lat="30.5723341741" lon="35.5512265675"><ele>1254.66</ele><time>2015-11-24T08:08:54Z</time></trkpt><trkpt lat="30.5723184161" lon="35.5512233824"><ele>1254.18</ele><time>2015-11-24T08:08:55Z</time></trkpt><trkpt lat="30.5720916856" lon="35.5511986557"><ele>1255.62</ele><time>2015-11-24T08:09:10Z</time></trkpt><trkpt lat="30.5720608402" lon="35.5511981528"><ele>1256.10</ele><time>2015-11-24T08:09:12Z</time></trkpt><trkpt lat="30.5720451660" lon="35.5512020923"><ele>1256.10</ele><time>2015-11-24T08:09:13Z</time></trkpt><trkpt lat="30.5717923678" lon="35.5512476899"><ele>1255.62</ele><time>2015-11-24T08:09:29Z</time></trkpt><trkpt lat="30.5717437528" lon="35.5512568261"><ele>1255.14</ele><time>2015-11-24T08:09:32Z</time></trkpt><trkpt lat="30.5717283301" lon="35.5512588378"><ele>1255.14</ele><time>2015-11-24T08:09:33Z</time></trkpt><trkpt lat="30.5715515558" lon="35.5513025075"><ele>1257.54</ele><time>2015-11-24T08:09:44Z</time></trkpt><trkpt lat="30.5715340376" lon="35.5513087101"><ele>1257.54</ele><time>2015-11-24T08:09:45Z</time></trkpt><trkpt lat="30.5713037029" lon="35.5513063632"><ele>1257.54</ele><time>2015-11-24T08:09:59Z</time></trkpt><trkpt lat="30.5711300299" lon="35.5511926208"><ele>1259.94</ele><time>2015-11-24T08:10:11Z</time></trkpt><trkpt lat="30.5710537545" lon="35.5510843266"><ele>1263.31</ele><time>2015-11-24T08:10:18Z</time></trkpt><trkpt lat="30.5708747171" lon="35.5508363061"><ele>1264.75</ele><time>2015-11-24T08:10:32Z</time></trkpt><trkpt lat="30.5708583724" lon="35.5508213863"><ele>1264.75</ele><time>2015-11-24T08:10:33Z</time></trkpt><trkpt lat="30.5708420277" lon="35.5508078076"><ele>1264.75</ele><time>2015-11-24T08:10:34Z</time></trkpt><trkpt lat="30.5708245095" lon="35.5507953186"><ele>1265.71</ele><time>2015-11-24T08:10:35Z</time></trkpt><trkpt lat="30.5708074104" lon="35.5507835839"><ele>1265.71</ele><time>2015-11-24T08:10:36Z</time></trkpt><trkpt lat="30.5707903951" lon="35.5507731065"><ele>1264.75</ele><time>2015-11-24T08:10:37Z</time></trkpt><trkpt lat="30.5707729608" lon="35.5507643055"><ele>1264.75</ele><time>2015-11-24T08:10:38Z</time></trkpt><trkpt lat="30.5707566999" lon="35.5507539958"><ele>1265.71</ele><time>2015-11-24T08:10:39Z</time></trkpt><trkpt lat="30.5707416963" lon="35.5507442728"><ele>1265.71</ele><time>2015-11-24T08:10:40Z</time></trkpt><trkpt lat="30.5707263574" lon="35.5507348850"><ele>1266.19</ele><time>2015-11-24T08:10:41Z</time></trkpt><trkpt lat="30.5707107671" lon="35.5507261679"><ele>1266.19</ele><time>2015-11-24T08:10:42Z</time></trkpt><trkpt lat="30.5705943424" lon="35.5506428517"><ele>1264.27</ele><time>2015-11-24T08:10:50Z</time></trkpt><trkpt lat="30.5703987926" lon="35.5504964199"><ele>1266.19</ele><time>2015-11-24T08:11:04Z</time></trkpt><trkpt lat="30.5702709686" lon="35.5503904726"><ele>1269.56</ele><time>2015-11-24T08:11:14Z</time></trkpt><trkpt lat="30.5701100361" lon="35.5502654985"><ele>1271.00</ele><time>2015-11-24T08:11:26Z</time></trkpt><trkpt lat="30.5698687211" lon="35.5501727946"><ele>1269.56</ele><time>2015-11-24T08:11:38Z</time></trkpt><trkpt lat="30.5698484369" lon="35.5501712020"><ele>1269.56</ele><time>2015-11-24T08:11:39Z</time></trkpt><trkpt lat="30.5698279850" lon="35.5501682684"><ele>1270.04</ele><time>2015-11-24T08:11:40Z</time></trkpt><trkpt lat="30.5695569981" lon="35.5502954219"><ele>1271.48</ele><time>2015-11-24T08:11:56Z</time></trkpt><trkpt lat="30.5694033578" lon="35.5503796600"><ele>1273.40</ele><time>2015-11-24T08:12:07Z</time></trkpt><trkpt lat="30.5693889409" lon="35.5503810849"><ele>1272.92</ele><time>2015-11-24T08:12:08Z</time></trkpt><trkpt lat="30.5693749432" lon="35.5503848568"><ele>1273.40</ele><time>2015-11-24T08:12:09Z</time></trkpt><trkpt lat="30.5693618674" lon="35.5503930710"><ele>1273.88</ele><time>2015-11-24T08:12:10Z</time></trkpt><trkpt lat="30.5693497974" lon="35.5504037160"><ele>1273.88</ele><time>2015-11-24T08:12:11Z</time></trkpt><trkpt lat="30.5693374760" lon="35.5504165404"><ele>1273.88</ele><time>2015-11-24T08:12:12Z</time></trkpt><trkpt lat="30.5691283476" lon="35.5505400058"><ele>1275.33</ele><time>2015-11-24T08:12:27Z</time></trkpt><trkpt lat="30.5689136870" lon="35.5506657343"><ele>1277.25</ele><time>2015-11-24T08:12:43Z</time></trkpt><trkpt lat="30.5688661616" lon="35.5507212225"><ele>1278.21</ele><time>2015-11-24T08:12:47Z</time></trkpt><trkpt lat="30.5688513257" lon="35.5507242400"><ele>1277.73</ele><time>2015-11-24T08:12:48Z</time></trkpt><trkpt lat="30.5687988549" lon="35.5507280119"><ele>1278.21</ele><time>2015-11-24T08:12:52Z</time></trkpt><trkpt lat="30.5687624775" lon="35.5507635511"><ele>1278.69</ele><time>2015-11-24T08:12:55Z</time></trkpt><trkpt lat="30.5686464719" lon="35.5508084781"><ele>1279.65</ele><time>2015-11-24T08:13:03Z</time></trkpt><trkpt lat="30.5685863737" lon="35.5508120824"><ele>1281.09</ele><time>2015-11-24T08:13:07Z</time></trkpt><trkpt lat="30.5685511697" lon="35.5508038681"><ele>1281.57</ele><time>2015-11-24T08:13:10Z</time></trkpt><trkpt lat="30.5685891397" lon="35.5506586935"><ele>1284.94</ele><time>2015-11-24T08:13:20Z</time></trkpt><trkpt lat="30.5687756371" lon="35.5504280236"><ele>1286.38</ele><time>2015-11-24T08:13:37Z</time></trkpt><trkpt lat="30.5689385813" lon="35.5502341501"><ele>1289.27</ele><time>2015-11-24T08:13:52Z</time></trkpt><trkpt lat="30.5689940695" lon="35.5501613114"><ele>1291.67</ele><time>2015-11-24T08:13:57Z</time></trkpt><trkpt lat="30.5690492224" lon="35.5500882212"><ele>1294.07</ele><time>2015-11-24T08:14:02Z</time></trkpt><trkpt lat="30.5691844225" lon="35.5498617422"><ele>1295.51</ele><time>2015-11-24T08:14:17Z</time></trkpt><trkpt lat="30.5693150964" lon="35.5495439004"><ele>1298.40</ele><time>2015-11-24T08:14:36Z</time></trkpt><trkpt lat="30.5694211274" lon="35.5493007414"><ele>1299.84</ele><time>2015-11-24T08:14:51Z</time></trkpt><trkpt lat="30.5695208721" lon="35.5490858294"><ele>1302.72</ele><time>2015-11-24T08:15:05Z</time></trkpt><trkpt lat="30.5696070381" lon="35.5488901958"><ele>1306.09</ele><time>2015-11-24T08:15:17Z</time></trkpt><trkpt lat="30.5696450919" lon="35.5487673171"><ele>1308.97</ele><time>2015-11-24T08:15:24Z</time></trkpt><trkpt lat="30.5697183497" lon="35.5486129224"><ele>1312.82</ele><time>2015-11-24T08:15:33Z</time></trkpt><trkpt lat="30.5697615165" lon="35.5485331267"><ele>1314.26</ele><time>2015-11-24T08:15:38Z</time></trkpt><trkpt lat="30.5697757658" lon="35.5485001020"><ele>1315.22</ele><time>2015-11-24T08:15:40Z</time></trkpt><trkpt lat="30.5698713195" lon="35.5483101681"><ele>1316.18</ele><time>2015-11-24T08:15:53Z</time></trkpt><trkpt lat="30.5699981377" lon="35.5480701104"><ele>1318.59</ele><time>2015-11-24T08:16:10Z</time></trkpt><trkpt lat="30.5700972956" lon="35.5478815176"><ele>1320.99</ele><time>2015-11-24T08:16:24Z</time></trkpt><trkpt lat="30.5701178312" lon="35.5478401948"><ele>1322.91</ele><time>2015-11-24T08:16:27Z</time></trkpt><trkpt lat="30.5702257901" lon="35.5476516858"><ele>1323.87</ele><time>2015-11-24T08:16:41Z</time></trkpt><trkpt lat="30.5702541210" lon="35.5475780927"><ele>1325.31</ele><time>2015-11-24T08:16:46Z</time></trkpt><trkpt lat="30.5702790990" lon="35.5475426372"><ele>1325.31</ele><time>2015-11-24T08:16:49Z</time></trkpt><trkpt lat="30.5703329109" lon="35.5474544596"><ele>1327.72</ele><time>2015-11-24T08:16:56Z</time></trkpt><trkpt lat="30.5703419633" lon="35.5474266317"><ele>1328.68</ele><time>2015-11-24T08:16:58Z</time></trkpt><trkpt lat="30.5704336613" lon="35.5472216103"><ele>1330.12</ele><time>2015-11-24T08:17:11Z</time></trkpt><trkpt lat="30.5705386866" lon="35.5469450913"><ele>1333.01</ele><time>2015-11-24T08:17:28Z</time></trkpt><trkpt lat="30.5705569591" lon="35.5468932912"><ele>1334.93</ele><time>2015-11-24T08:17:31Z</time></trkpt><trkpt lat="30.5705964379" lon="35.5466160178"><ele>1336.37</ele><time>2015-11-24T08:17:47Z</time></trkpt><trkpt lat="30.5705894809" lon="35.5465111602"><ele>1338.29</ele><time>2015-11-24T08:17:53Z</time></trkpt><trkpt lat="30.5705743097" lon="35.5463779718"><ele>1339.73</ele><time>2015-11-24T08:18:00Z</time></trkpt><trkpt lat="30.5705547798" lon="35.5462535005"><ele>1342.62</ele><time>2015-11-24T08:18:07Z</time></trkpt><trkpt lat="30.5705519300" lon="35.5462353956"><ele>1343.10</ele><time>2015-11-24T08:18:08Z</time></trkpt><trkpt lat="30.5705430452" lon="35.5462008622"><ele>1345.02</ele><time>2015-11-24T08:18:10Z</time></trkpt><trkpt lat="30.5704880599" lon="35.5460711103"><ele>1345.98</ele><time>2015-11-24T08:18:19Z</time></trkpt><trkpt lat="30.5704752356" lon="35.5458753090"><ele>1348.39</ele><time>2015-11-24T08:18:33Z</time></trkpt><trkpt lat="30.5704660155" lon="35.5457415339"><ele>1347.91</ele><time>2015-11-24T08:18:41Z</time></trkpt><trkpt lat="30.5704724696" lon="35.5456901528"><ele>1348.39</ele><time>2015-11-24T08:18:44Z</time></trkpt><trkpt lat="30.5704799294" lon="35.5456213374"><ele>1348.87</ele><time>2015-11-24T08:18:48Z</time></trkpt><trkpt lat="30.5705241859" lon="35.5453654379"><ele>1351.27</ele><time>2015-11-24T08:19:02Z</time></trkpt><trkpt lat="30.5706297979" lon="35.5450464226"><ele>1352.23</ele><time>2015-11-24T08:19:15Z</time></trkpt><trkpt lat="30.5706233438" lon="35.5449704826"><ele>1350.79</ele><time>2015-11-24T08:19:18Z</time></trkpt><trkpt lat="30.5705268681" lon="35.5447807163"><ele>1350.31</ele><time>2015-11-24T08:19:31Z</time></trkpt><trkpt lat="30.5704925023" lon="35.5447423272"><ele>1349.83</ele><time>2015-11-24T08:19:34Z</time></trkpt><trkpt lat="30.5704371817" lon="35.5446782056"><ele>1350.79</ele><time>2015-11-24T08:19:40Z</time></trkpt><trkpt lat="30.5703751557" lon="35.5446229689"><ele>1353.67</ele><time>2015-11-24T08:19:52Z</time></trkpt><trkpt lat="30.5702983774" lon="35.5445337016"><ele>1354.15</ele><time>2015-11-24T08:20:09Z</time></trkpt><trkpt lat="30.5702489242" lon="35.5444539059"><ele>1354.63</ele><time>2015-11-24T08:20:21Z</time></trkpt><trkpt lat="30.5701538734" lon="35.5443707574"><ele>1355.60</ele><time>2015-11-24T08:20:36Z</time></trkpt><trkpt lat="30.5701216869" lon="35.5443264171"><ele>1356.56</ele><time>2015-11-24T08:20:42Z</time></trkpt><trkpt lat="30.5700837169" lon="35.5443065520"><ele>1358.48</ele><time>2015-11-24T08:20:56Z</time></trkpt><trkpt lat="30.5700696353" lon="35.5442965776"><ele>1355.12</ele><time>2015-11-24T08:21:21Z</time></trkpt><trkpt lat="30.5700703897" lon="35.5442974996"><ele>1355.12</ele><time>2015-11-24T08:21:22Z</time></trkpt><trkpt lat="30.5700701382" lon="35.5442978349"><ele>1356.56</ele><time>2015-11-24T08:21:25Z</time></trkpt><trkpt lat="30.5700672045" lon="35.5443006009"><ele>1356.08</ele><time>2015-11-24T08:21:33Z</time></trkpt><trkpt lat="30.5700682942" lon="35.5443002656"><ele>1356.08</ele><time>2015-11-24T08:21:46Z</time></trkpt><trkpt lat="30.5700694676" lon="35.5442944821"><ele>1355.60</ele><time>2015-11-24T08:22:24Z</time></trkpt><trkpt lat="30.5700698867" lon="35.5442938115"><ele>1358.48</ele><time>2015-11-24T08:22:28Z</time></trkpt><trkpt lat="30.5700721499" lon="35.5442943145"><ele>1355.12</ele><time>2015-11-24T08:23:00Z</time></trkpt><trkpt lat="30.5700722337" lon="35.5442946497"><ele>1354.63</ele><time>2015-11-24T08:23:02Z</time></trkpt><trkpt lat="30.5700753350" lon="35.5442927219"><ele>1357.52</ele><time>2015-11-24T08:23:05Z</time></trkpt><trkpt lat="30.5700862315" lon="35.5442987569"><ele>1356.56</ele><time>2015-11-24T08:23:24Z</time></trkpt><trkpt lat="30.5700902548" lon="35.5442969128"><ele>1357.52</ele><time>2015-11-24T08:24:04Z</time></trkpt><trkpt lat="30.5700869020" lon="35.5443005171"><ele>1358.00</ele><time>2015-11-24T08:24:21Z</time></trkpt><trkpt lat="30.5700864829" lon="35.5442997627"><ele>1357.52</ele><time>2015-11-24T08:24:40Z</time></trkpt><trkpt lat="30.5700846389" lon="35.5442999303"><ele>1356.56</ele><time>2015-11-24T08:24:42Z</time></trkpt><trkpt lat="30.5700845551" lon="35.5442977510"><ele>1355.60</ele><time>2015-11-24T08:24:52Z</time></trkpt><trkpt lat="30.5700843874" lon="35.5442991760"><ele>1358.00</ele><time>2015-11-24T08:24:56Z</time></trkpt><trkpt lat="30.5700884108" lon="35.5443012714"><ele>1357.04</ele><time>2015-11-24T08:25:11Z</time></trkpt><trkpt lat="30.5700900871" lon="35.5443000142"><ele>1356.56</ele><time>2015-11-24T08:25:49Z</time></trkpt><trkpt lat="30.5700876564" lon="35.5443034507"><ele>1357.04</ele><time>2015-11-24T08:26:21Z</time></trkpt><trkpt lat="30.5700895004" lon="35.5443053786"><ele>1357.04</ele><time>2015-11-24T08:26:27Z</time></trkpt><trkpt lat="30.5700906739" lon="35.5443069711"><ele>1356.56</ele><time>2015-11-24T08:27:01Z</time></trkpt><trkpt lat="30.5700911768" lon="35.5443052948"><ele>1358.00</ele><time>2015-11-24T08:27:21Z</time></trkpt><trkpt lat="30.5700878240" lon="35.5443077255"><ele>1354.63</ele><time>2015-11-24T08:27:42Z</time></trkpt><trkpt lat="30.5700853094" lon="35.5443064682"><ele>1357.04</ele><time>2015-11-24T08:27:45Z</time></trkpt><trkpt lat="30.5700866506" lon="35.5443047080"><ele>1355.60</ele><time>2015-11-24T08:27:48Z</time></trkpt><trkpt lat="30.5700868182" lon="35.5443049595"><ele>1357.04</ele><time>2015-11-24T08:27:53Z</time></trkpt><trkpt lat="30.5700748321" lon="35.5443000142"><ele>1355.60</ele><time>2015-11-24T08:28:31Z</time></trkpt><trkpt lat="30.5700666178" lon="35.5442891177"><ele>1355.60</ele><time>2015-11-24T08:28:55Z</time></trkpt><trkpt lat="30.5700639356" lon="35.5442859326"><ele>1355.60</ele><time>2015-11-24T08:29:25Z</time></trkpt><trkpt lat="30.5700616725" lon="35.5442813225"><ele>1356.56</ele><time>2015-11-24T08:30:17Z</time></trkpt><trkpt lat="30.5700627621" lon="35.5442835018"><ele>1356.56</ele><time>2015-11-24T08:30:25Z</time></trkpt><trkpt lat="30.5700548831" lon="35.5442820769"><ele>1356.08</ele><time>2015-11-24T08:31:14Z</time></trkpt><trkpt lat="30.5700542126" lon="35.5442874413"><ele>1355.60</ele><time>2015-11-24T08:31:35Z</time></trkpt><trkpt lat="30.5700510275" lon="35.5442866869"><ele>1354.63</ele><time>2015-11-24T08:32:27Z</time></trkpt><trkpt lat="30.5700790230" lon="35.5442866031"><ele>1355.12</ele><time>2015-11-24T08:33:04Z</time></trkpt><trkpt lat="30.5700821243" lon="35.5442820769"><ele>1354.15</ele><time>2015-11-24T08:33:41Z</time></trkpt><trkpt lat="30.5700823758" lon="35.5442834180"><ele>1355.60</ele><time>2015-11-24T08:33:45Z</time></trkpt><trkpt lat="30.5700868182" lon="35.5442793109"><ele>1355.60</ele><time>2015-11-24T08:34:07Z</time></trkpt><trkpt lat="30.5700885784" lon="35.5442839209"><ele>1354.15</ele><time>2015-11-24T08:34:13Z</time></trkpt><trkpt lat="30.5700850580" lon="35.5442814901"><ele>1355.60</ele><time>2015-11-24T08:34:22Z</time></trkpt><trkpt lat="30.5700848904" lon="35.5442835018"><ele>1355.12</ele><time>2015-11-24T08:34:40Z</time></trkpt><trkpt lat="30.5700889975" lon="35.5442830827"><ele>1354.15</ele><time>2015-11-24T08:35:20Z</time></trkpt><trkpt lat="30.5700881593" lon="35.5442843400"><ele>1356.08</ele><time>2015-11-24T08:35:34Z</time></trkpt><trkpt lat="30.5700849742" lon="35.5442786403"><ele>1355.12</ele><time>2015-11-24T08:36:07Z</time></trkpt><trkpt lat="30.5700838845" lon="35.5442817416"><ele>1355.60</ele><time>2015-11-24T08:36:25Z</time></trkpt><trkpt lat="30.5700720660" lon="35.5442922190"><ele>1354.15</ele><time>2015-11-24T08:36:58Z</time></trkpt><trkpt lat="30.5700637680" lon="35.5443013553"><ele>1354.63</ele><time>2015-11-24T08:37:30Z</time></trkpt><trkpt lat="30.5700661987" lon="35.5443058815"><ele>1353.67</ele><time>2015-11-24T08:37:44Z</time></trkpt><trkpt lat="30.5700716469" lon="35.5443100724"><ele>1353.19</ele><time>2015-11-24T08:38:15Z</time></trkpt><trkpt lat="30.5700687971" lon="35.5443104915"><ele>1353.67</ele><time>2015-11-24T08:38:23Z</time></trkpt><trkpt lat="30.5700685456" lon="35.5443099886"><ele>1355.12</ele><time>2015-11-24T08:38:26Z</time></trkpt><trkpt lat="30.5700624269" lon="35.5443125870"><ele>1353.67</ele><time>2015-11-24T08:39:02Z</time></trkpt><trkpt lat="30.5700594932" lon="35.5443099048"><ele>1354.63</ele><time>2015-11-24T08:39:41Z</time></trkpt><trkpt lat="30.5700646061" lon="35.5443106592"><ele>1354.15</ele><time>2015-11-24T08:40:18Z</time></trkpt><trkpt lat="30.5700598285" lon="35.5443094019"><ele>1354.15</ele><time>2015-11-24T08:40:51Z</time></trkpt><trkpt lat="30.5700552184" lon="35.5443184543"><ele>1353.19</ele><time>2015-11-24T08:41:28Z</time></trkpt><trkpt lat="30.5700549670" lon="35.5443177000"><ele>1354.15</ele><time>2015-11-24T08:41:56Z</time></trkpt><trkpt lat="30.5700530391" lon="35.5443281773"><ele>1355.12</ele><time>2015-11-24T08:42:32Z</time></trkpt><trkpt lat="30.5700541288" lon="35.5443268362"><ele>1353.67</ele><time>2015-11-24T08:42:35Z</time></trkpt><trkpt lat="30.5700695515" lon="35.5443224777"><ele>1357.04</ele><time>2015-11-24T08:43:13Z</time></trkpt><trkpt lat="30.5700780172" lon="35.5443192087"><ele>1354.63</ele><time>2015-11-24T08:43:16Z</time></trkpt><trkpt lat="30.5701143108" lon="35.5442840047"><ele>1354.63</ele><time>2015-11-24T08:43:25Z</time></trkpt><trkpt lat="30.5701888260" lon="35.5442635529"><ele>1352.71</ele><time>2015-11-24T08:43:40Z</time></trkpt><trkpt lat="30.5702573899" lon="35.5442576017"><ele>1351.75</ele><time>2015-11-24T08:43:48Z</time></trkpt><trkpt lat="30.5703358445" lon="35.5442574341"><ele>1351.27</ele><time>2015-11-24T08:44:02Z</time></trkpt><trkpt lat="30.5703220144" lon="35.5441212282"><ele>1350.79</ele><time>2015-11-24T08:44:16Z</time></trkpt><trkpt lat="30.5702139717" lon="35.5437557772"><ele>1349.83</ele><time>2015-11-24T08:44:31Z</time></trkpt><trkpt lat="30.5701575615" lon="35.5434766598"><ele>1347.43</ele><time>2015-11-24T08:44:35Z</time></trkpt><trkpt lat="30.5701796897" lon="35.5427243002"><ele>1348.87</ele><time>2015-11-24T08:44:48Z</time></trkpt><trkpt lat="30.5701895803" lon="35.5420528259"><ele>1350.31</ele><time>2015-11-24T08:45:02Z</time></trkpt><trkpt lat="30.5703220144" lon="35.5414869636"><ele>1353.19</ele><time>2015-11-24T08:45:18Z</time></trkpt><trkpt lat="30.5703324080" lon="35.5409520306"><ele>1355.12</ele><time>2015-11-24T08:45:33Z</time></trkpt><trkpt lat="30.5702621676" lon="35.5407258868"><ele>1352.23</ele><time>2015-11-24T08:45:37Z</time></trkpt><trkpt lat="30.5701931007" lon="35.5404370464"><ele>1350.31</ele><time>2015-11-24T08:45:41Z</time></trkpt><trkpt lat="30.5701675359" lon="35.5400345474"><ele>1350.31</ele><time>2015-11-24T08:45:46Z</time></trkpt><trkpt lat="30.5703306478" lon="35.5396804959"><ele>1352.23</ele><time>2015-11-24T08:45:52Z</time></trkpt><trkpt lat="30.5703890696" lon="35.5395955034"><ele>1352.71</ele><time>2015-11-24T08:45:54Z</time></trkpt><trkpt lat="30.5704621598" lon="35.5394633207"><ele>1353.67</ele><time>2015-11-24T08:45:57Z</time></trkpt><trkpt lat="30.5704957712" lon="35.5391547829"><ele>1354.63</ele><time>2015-11-24T08:46:04Z</time></trkpt><trkpt lat="30.5704806000" lon="35.5390602350"><ele>1353.19</ele><time>2015-11-24T08:46:06Z</time></trkpt><trkpt lat="30.5703568831" lon="35.5385105498"><ele>1356.08</ele><time>2015-11-24T08:46:21Z</time></trkpt><trkpt lat="30.5701325834" lon="35.5380244832"><ele>1357.04</ele><time>2015-11-24T08:46:36Z</time></trkpt><trkpt lat="30.5698789470" lon="35.5376669113"><ele>1356.08</ele><time>2015-11-24T08:46:47Z</time></trkpt><trkpt lat="30.5698180944" lon="35.5374240875"><ele>1354.63</ele><time>2015-11-24T08:46:52Z</time></trkpt><trkpt lat="30.5698162504" lon="35.5369543657"><ele>1358.48</ele><time>2015-11-24T08:47:00Z</time></trkpt><trkpt lat="30.5698128976" lon="35.5369028170"><ele>1358.00</ele><time>2015-11-24T08:47:01Z</time></trkpt><trkpt lat="30.5698076170" lon="35.5367425550"><ele>1356.08</ele><time>2015-11-24T08:47:04Z</time></trkpt><trkpt lat="30.5698658712" lon="35.5359282531"><ele>1356.56</ele><time>2015-11-24T08:47:21Z</time></trkpt><trkpt lat="30.5699150730" lon="35.5358350463"><ele>1360.40</ele><time>2015-11-24T08:47:25Z</time></trkpt><trkpt lat="30.5701064318" lon="35.5353765562"><ele>1361.84</ele><time>2015-11-24T08:47:43Z</time></trkpt><trkpt lat="30.5701055098" lon="35.5351602193"><ele>1361.36</ele><time>2015-11-24T08:47:50Z</time></trkpt><trkpt lat="30.5700817052" lon="35.5347579718"><ele>1359.92</ele><time>2015-11-24T08:48:00Z</time></trkpt><trkpt lat="30.5700915121" lon="35.5343136471"><ele>1363.29</ele><time>2015-11-24T08:48:14Z</time></trkpt><trkpt lat="30.5700120516" lon="35.5340213701"><ele>1361.84</ele><time>2015-11-24T08:48:22Z</time></trkpt><trkpt lat="30.5699652806" lon="35.5339429155"><ele>1361.36</ele><time>2015-11-24T08:48:24Z</time></trkpt><trkpt lat="30.5698884185" lon="35.5338136666"><ele>1361.36</ele><time>2015-11-24T08:48:27Z</time></trkpt><trkpt lat="30.5697715748" lon="35.5334073119"><ele>1361.84</ele><time>2015-11-24T08:48:37Z</time></trkpt><trkpt lat="30.5697579961" lon="35.5332163721"><ele>1364.73</ele><time>2015-11-24T08:48:42Z</time></trkpt><trkpt lat="30.5697502010" lon="35.5331555195"><ele>1368.57</ele><time>2015-11-24T08:48:44Z</time></trkpt><trkpt lat="30.5697470158" lon="35.5331327207"><ele>1368.57</ele><time>2015-11-24T08:48:45Z</time></trkpt><trkpt lat="30.5696997419" lon="35.5329819303"><ele>1365.21</ele><time>2015-11-24T08:48:52Z</time></trkpt><trkpt lat="30.5695879273" lon="35.5326820258"><ele>1366.65</ele><time>2015-11-24T08:49:04Z</time></trkpt><trkpt lat="30.5695084669" lon="35.5325622484"><ele>1367.61</ele><time>2015-11-24T08:49:10Z</time></trkpt><trkpt lat="30.5694894399" lon="35.5325433891"><ele>1369.54</ele><time>2015-11-24T08:49:15Z</time></trkpt><trkpt lat="30.5694842432" lon="35.5325513519"><ele>1371.94</ele><time>2015-11-24T08:49:18Z</time></trkpt><trkpt lat="30.5694817286" lon="35.5325541180"><ele>1368.57</ele><time>2015-11-24T08:49:19Z</time></trkpt><trkpt lat="30.5694883503" lon="35.5325673614"><ele>1365.21</ele><time>2015-11-24T08:49:33Z</time></trkpt><trkpt lat="30.5694965646" lon="35.5325734802"><ele>1369.05</ele><time>2015-11-24T08:49:49Z</time></trkpt><trkpt lat="30.5694977380" lon="35.5325716361"><ele>1369.05</ele><time>2015-11-24T08:49:50Z</time></trkpt><trkpt lat="30.5694961455" lon="35.5325738154"><ele>1366.17</ele><time>2015-11-24T08:49:56Z</time></trkpt><trkpt lat="30.5694860872" lon="35.5325726420"><ele>1366.17</ele><time>2015-11-24T08:50:23Z</time></trkpt><trkpt lat="30.5694879312" lon="35.5325701274"><ele>1365.21</ele><time>2015-11-24T08:50:44Z</time></trkpt><trkpt lat="30.5695014261" lon="35.5325819459"><ele>1365.21</ele><time>2015-11-24T08:51:29Z</time></trkpt><trkpt lat="30.5694870092" lon="35.5325804371"><ele>1369.54</ele><time>2015-11-24T08:51:50Z</time></trkpt><trkpt lat="30.5694866739" lon="35.5325818621"><ele>1369.05</ele><time>2015-11-24T08:51:51Z</time></trkpt><trkpt lat="30.5694859196" lon="35.5325821135"><ele>1368.09</ele><time>2015-11-24T08:51:53Z</time></trkpt><trkpt lat="30.5694893561" lon="35.5325736478"><ele>1364.73</ele><time>2015-11-24T08:52:07Z</time></trkpt><trkpt lat="30.5694915354" lon="35.5325709656"><ele>1364.73</ele><time>2015-11-24T08:52:08Z</time></trkpt><trkpt lat="30.5694817286" lon="35.5325787608"><ele>1367.13</ele><time>2015-11-24T08:52:45Z</time></trkpt><trkpt lat="30.5694813933" lon="35.5325768329"><ele>1366.65</ele><time>2015-11-24T08:52:49Z</time></trkpt><trkpt lat="30.5694968998" lon="35.5325808562"><ele>1365.21</ele><time>2015-11-24T08:52:56Z</time></trkpt><trkpt lat="30.5695150048" lon="35.5325866397"><ele>1365.69</ele><time>2015-11-24T08:53:12Z</time></trkpt><trkpt lat="30.5695103947" lon="35.5325946026"><ele>1362.81</ele><time>2015-11-24T08:53:27Z</time></trkpt><trkpt lat="30.5695171002" lon="35.5325820297"><ele>1364.73</ele><time>2015-11-24T08:53:40Z</time></trkpt><trkpt lat="30.5695178546" lon="35.5325768329"><ele>1363.29</ele><time>2015-11-24T08:53:42Z</time></trkpt><trkpt lat="30.5695180222" lon="35.5325775873"><ele>1365.69</ele><time>2015-11-24T08:53:55Z</time></trkpt><trkpt lat="30.5695169326" lon="35.5325837899"><ele>1369.05</ele><time>2015-11-24T08:54:00Z</time></trkpt><trkpt lat="30.5695138313" lon="35.5325905792"><ele>1366.65</ele><time>2015-11-24T08:54:03Z</time></trkpt><trkpt lat="30.5695133284" lon="35.5325632542"><ele>1367.61</ele><time>2015-11-24T08:54:35Z</time></trkpt><trkpt lat="30.5694544874" lon="35.5325401202"><ele>1365.69</ele><time>2015-11-24T08:54:46Z</time></trkpt><trkpt lat="30.5694303475" lon="35.5325184949"><ele>1367.61</ele><time>2015-11-24T08:54:49Z</time></trkpt><trkpt lat="30.5693842471" lon="35.5324737355"><ele>1364.25</ele><time>2015-11-24T08:54:54Z</time></trkpt><trkpt lat="30.5693749432" lon="35.5324691255"><ele>1364.73</ele><time>2015-11-24T08:54:55Z</time></trkpt><trkpt lat="30.5693239812" lon="35.5324385315"><ele>1363.77</ele><time>2015-11-24T08:55:01Z</time></trkpt><trkpt lat="30.5693048704" lon="35.5324430577"><ele>1362.33</ele><time>2015-11-24T08:55:04Z</time></trkpt><trkpt lat="30.5692847539" lon="35.5324437283"><ele>1364.25</ele><time>2015-11-24T08:55:06Z</time></trkpt><trkpt lat="30.5690094084" lon="35.5323927663"><ele>1360.40</ele><time>2015-11-24T08:55:16Z</time></trkpt><trkpt lat="30.5689710192" lon="35.5323923472"><ele>1360.40</ele><time>2015-11-24T08:55:17Z</time></trkpt><trkpt lat="30.5688851047" lon="35.5323918443"><ele>1358.96</ele><time>2015-11-24T08:55:19Z</time></trkpt><trkpt lat="30.5683199130" lon="35.5322201829"><ele>1359.92</ele><time>2015-11-24T08:55:34Z</time></trkpt><trkpt lat="30.5681458209" lon="35.5321109667"><ele>1362.81</ele><time>2015-11-24T08:55:41Z</time></trkpt><trkpt lat="30.5680100340" lon="35.5320153292"><ele>1359.44</ele><time>2015-11-24T08:55:46Z</time></trkpt><trkpt lat="30.5676214490" lon="35.5318463501"><ele>1362.81</ele><time>2015-11-24T08:56:00Z</time></trkpt><trkpt lat="30.5670883600" lon="35.5316241458"><ele>1363.77</ele><time>2015-11-24T08:56:17Z</time></trkpt><trkpt lat="30.5667504855" lon="35.5313918833"><ele>1364.25</ele><time>2015-11-24T08:56:32Z</time></trkpt><trkpt lat="30.5663882196" lon="35.5310852733"><ele>1363.29</ele><time>2015-11-24T08:56:42Z</time></trkpt><trkpt lat="30.5662977789" lon="35.5310053099"><ele>1366.17</ele><time>2015-11-24T08:56:45Z</time></trkpt><trkpt lat="30.5662796739" lon="35.5309899710"><ele>1366.65</ele><time>2015-11-24T08:56:46Z</time></trkpt><trkpt lat="30.5660871416" lon="35.5308887176"><ele>1370.02</ele><time>2015-11-24T08:56:58Z</time></trkpt><trkpt lat="30.5659957789" lon="35.5308704451"><ele>1367.61</ele><time>2015-11-24T08:57:08Z</time></trkpt><trkpt lat="30.5659930967" lon="35.5308816768"><ele>1366.17</ele><time>2015-11-24T08:57:37Z</time></trkpt><trkpt lat="30.5660012271" lon="35.5308760609"><ele>1366.17</ele><time>2015-11-24T08:58:29Z</time></trkpt><trkpt lat="30.5658610817" lon="35.5308502447"><ele>1365.21</ele><time>2015-11-24T08:58:35Z</time></trkpt><trkpt lat="30.5656824633" lon="35.5308079161"><ele>1364.25</ele><time>2015-11-24T08:58:39Z</time></trkpt><trkpt lat="30.5654258933" lon="35.5306717101"><ele>1364.73</ele><time>2015-11-24T08:58:47Z</time></trkpt><trkpt lat="30.5652430002" lon="35.5304840393"><ele>1368.09</ele><time>2015-11-24T08:58:58Z</time></trkpt><trkpt lat="30.5652144179" lon="35.5304402858"><ele>1366.65</ele><time>2015-11-24T08:59:00Z</time></trkpt><trkpt lat="30.5651714187" lon="35.5303687043"><ele>1371.46</ele><time>2015-11-24T08:59:03Z</time></trkpt><trkpt lat="30.5651615281" lon="35.5303432234"><ele>1371.46</ele><time>2015-11-24T08:59:04Z</time></trkpt><trkpt lat="30.5651444290" lon="35.5303007271"><ele>1370.02</ele><time>2015-11-24T08:59:06Z</time></trkpt><trkpt lat="30.5650559161" lon="35.5300783552"><ele>1371.46</ele><time>2015-11-24T08:59:19Z</time></trkpt><trkpt lat="30.5650376435" lon="35.5300259683"><ele>1370.02</ele><time>2015-11-24T08:59:22Z</time></trkpt><trkpt lat="30.5650125816" lon="35.5299568176"><ele>1371.94</ele><time>2015-11-24T08:59:26Z</time></trkpt><trkpt lat="30.5649782158" lon="35.5298739206"><ele>1373.38</ele><time>2015-11-24T08:59:31Z</time></trkpt><trkpt lat="30.5649246555" lon="35.5297632795"><ele>1373.86</ele><time>2015-11-24T08:59:38Z</time></trkpt><trkpt lat="30.5648839194" lon="35.5296791252"><ele>1378.19</ele><time>2015-11-24T08:59:43Z</time></trkpt><trkpt lat="30.5646895431" lon="35.5295057874"><ele>1375.30</ele><time>2015-11-24T08:59:59Z</time></trkpt><trkpt lat="30.5644563586" lon="35.5294322781"><ele>1377.71</ele><time>2015-11-24T09:00:12Z</time></trkpt><trkpt lat="30.5643855315" lon="35.5294142570"><ele>1375.30</ele><time>2015-11-24T09:00:15Z</time></trkpt><trkpt lat="30.5641596392" lon="35.5294009298"><ele>1371.94</ele><time>2015-11-24T09:00:22Z</time></trkpt><trkpt lat="30.5638452340" lon="35.5294253211"><ele>1374.34</ele><time>2015-11-24T09:00:29Z</time></trkpt><trkpt lat="30.5636373628" lon="35.5294409953"><ele>1373.38</ele><time>2015-11-24T09:00:33Z</time></trkpt><trkpt lat="30.5634212773" lon="35.5295107327"><ele>1370.98</ele><time>2015-11-24T09:00:38Z</time></trkpt><trkpt lat="30.5633299984" lon="35.5295346212"><ele>1369.54</ele><time>2015-11-24T09:00:40Z</time></trkpt><trkpt lat="30.5632494483" lon="35.5294942204"><ele>1368.09</ele><time>2015-11-24T09:00:42Z</time></trkpt><trkpt lat="30.5632240511" lon="35.5294502154"><ele>1367.61</ele><time>2015-11-24T09:00:43Z</time></trkpt><trkpt lat="30.5631198641" lon="35.5292512290"><ele>1367.13</ele><time>2015-11-24T09:00:47Z</time></trkpt><trkpt lat="30.5630545691" lon="35.5291441083"><ele>1366.17</ele><time>2015-11-24T09:00:49Z</time></trkpt><trkpt lat="30.5628678203" lon="35.5286472291"><ele>1365.69</ele><time>2015-11-24T09:00:56Z</time></trkpt><trkpt lat="30.5627878569" lon="35.5282490887"><ele>1359.92</ele><time>2015-11-24T09:01:01Z</time></trkpt><trkpt lat="30.5626954045" lon="35.5280223582"><ele>1355.12</ele><time>2015-11-24T09:01:05Z</time></trkpt><trkpt lat="30.5626670737" lon="35.5279812869"><ele>1355.12</ele><time>2015-11-24T09:01:06Z</time></trkpt><trkpt lat="30.5626356415" lon="35.5279472563"><ele>1356.08</ele><time>2015-11-24T09:01:07Z</time></trkpt><trkpt lat="30.5622304603" lon="35.5278030038"><ele>1352.23</ele><time>2015-11-24T09:01:18Z</time></trkpt><trkpt lat="30.5620922428" lon="35.5277481861"><ele>1351.27</ele><time>2015-11-24T09:01:20Z</time></trkpt><trkpt lat="30.5617933441" lon="35.5275704898"><ele>1352.23</ele><time>2015-11-24T09:01:25Z</time></trkpt><trkpt lat="30.5616308190" lon="35.5274256505"><ele>1351.27</ele><time>2015-11-24T09:01:29Z</time></trkpt><trkpt lat="30.5615768395" lon="35.5273568351"><ele>1352.23</ele><time>2015-11-24T09:01:31Z</time></trkpt><trkpt lat="30.5615012348" lon="35.5272525642"><ele>1353.67</ele><time>2015-11-24T09:01:36Z</time></trkpt><trkpt lat="30.5612668768" lon="35.5270253308"><ele>1353.19</ele><time>2015-11-24T09:01:48Z</time></trkpt><trkpt lat="30.5611567385" lon="35.5269656517"><ele>1351.27</ele><time>2015-11-24T09:01:54Z</time></trkpt><trkpt lat="30.5609215423" lon="35.5269146059"><ele>1351.75</ele><time>2015-11-24T09:02:03Z</time></trkpt><trkpt lat="30.5605428480" lon="35.5268131848"><ele>1351.75</ele><time>2015-11-24T09:02:18Z</time></trkpt><trkpt lat="30.5602659099" lon="35.5267406814"><ele>1353.19</ele><time>2015-11-24T09:02:32Z</time></trkpt><trkpt lat="30.5599934980" lon="35.5266625620"><ele>1351.75</ele><time>2015-11-24T09:02:45Z</time></trkpt><trkpt lat="30.5598689429" lon="35.5266348179"><ele>1350.31</ele><time>2015-11-24T09:02:49Z</time></trkpt><trkpt lat="30.5595804378" lon="35.5265915673"><ele>1353.67</ele><time>2015-11-24T09:03:01Z</time></trkpt><trkpt lat="30.5592787731" lon="35.5264801718"><ele>1355.12</ele><time>2015-11-24T09:03:16Z</time></trkpt><trkpt lat="30.5590022542" lon="35.5263602268"><ele>1355.60</ele><time>2015-11-24T09:03:30Z</time></trkpt><trkpt lat="30.5586269964" lon="35.5263733026"><ele>1352.71</ele><time>2015-11-24T09:03:45Z</time></trkpt><trkpt lat="30.5582323764" lon="35.5262873042"><ele>1352.71</ele><time>2015-11-24T09:03:57Z</time></trkpt><trkpt lat="30.5581426062" lon="35.5262332410"><ele>1354.15</ele><time>2015-11-24T09:04:01Z</time></trkpt><trkpt lat="30.5576572940" lon="35.5260761641"><ele>1353.67</ele><time>2015-11-24T09:04:18Z</time></trkpt><trkpt lat="30.5573335011" lon="35.5260071810"><ele>1353.19</ele><time>2015-11-24T09:04:27Z</time></trkpt><trkpt lat="30.5571235344" lon="35.5259107053"><ele>1351.75</ele><time>2015-11-24T09:04:31Z</time></trkpt><trkpt lat="30.5569256376" lon="35.5256999843"><ele>1353.19</ele><time>2015-11-24T09:04:36Z</time></trkpt><trkpt lat="30.5568346940" lon="35.5255937856"><ele>1355.12</ele><time>2015-11-24T09:04:40Z</time></trkpt><trkpt lat="30.5566427484" lon="35.5253081303"><ele>1352.71</ele><time>2015-11-24T09:04:48Z</time></trkpt><trkpt lat="30.5562062189" lon="35.5246940721"><ele>1351.75</ele><time>2015-11-24T09:05:02Z</time></trkpt><trkpt lat="30.5561796483" lon="35.5246588681"><ele>1351.75</ele><time>2015-11-24T09:05:03Z</time></trkpt><trkpt lat="30.5559764709" lon="35.5243712012"><ele>1352.23</ele><time>2015-11-24T09:05:12Z</time></trkpt><trkpt lat="30.5555458926" lon="35.5239732284"><ele>1352.71</ele><time>2015-11-24T09:05:29Z</time></trkpt><trkpt lat="30.5553549528" lon="35.5239155609"><ele>1349.83</ele><time>2015-11-24T09:05:36Z</time></trkpt><trkpt lat="30.5553272925" lon="35.5239077657"><ele>1349.35</ele><time>2015-11-24T09:05:37Z</time></trkpt><trkpt lat="30.5552717205" lon="35.5238925107"><ele>1348.39</ele><time>2015-11-24T09:05:39Z</time></trkpt><trkpt lat="30.5549677927" lon="35.5239457358"><ele>1348.39</ele><time>2015-11-24T09:05:52Z</time></trkpt><trkpt lat="30.5549377855" lon="35.5239724740"><ele>1348.39</ele><time>2015-11-24T09:05:54Z</time></trkpt><trkpt lat="30.5548866559" lon="35.5240738112"><ele>1347.91</ele><time>2015-11-24T09:06:00Z</time></trkpt><trkpt lat="30.5548297428" lon="35.5241936725"><ele>1345.50</ele><time>2015-11-24T09:06:05Z</time></trkpt><trkpt lat="30.5547869951" lon="35.5242756475"><ele>1344.06</ele><time>2015-11-24T09:06:07Z</time></trkpt><trkpt lat="30.5547617655" lon="35.5243145395"><ele>1343.10</ele><time>2015-11-24T09:06:08Z</time></trkpt><trkpt lat="30.5546199437" lon="35.5242867116"><ele>1341.66</ele><time>2015-11-24T09:06:12Z</time></trkpt><trkpt lat="30.5544885155" lon="35.5241302215"><ele>1341.18</ele><time>2015-11-24T09:06:16Z</time></trkpt><trkpt lat="30.5542298499" lon="35.5238429736"><ele>1337.33</ele><time>2015-11-24T09:06:22Z</time></trkpt><trkpt lat="30.5541895330" lon="35.5237798579"><ele>1335.89</ele><time>2015-11-24T09:06:23Z</time></trkpt><trkpt lat="30.5541368946" lon="35.5235809553"><ele>1334.45</ele><time>2015-11-24T09:06:26Z</time></trkpt><trkpt lat="30.5541520659" lon="35.5235067755"><ele>1333.01</ele><time>2015-11-24T09:06:27Z</time></trkpt><trkpt lat="30.5542216357" lon="35.5231300928"><ele>1330.60</ele><time>2015-11-24T09:06:33Z</time></trkpt><trkpt lat="30.5542038660" lon="35.5229214672"><ele>1328.20</ele><time>2015-11-24T09:06:37Z</time></trkpt><trkpt lat="30.5541298538" lon="35.5227311142"><ele>1324.83</ele><time>2015-11-24T09:06:40Z</time></trkpt><trkpt lat="30.5540869385" lon="35.5226728600"><ele>1323.39</ele><time>2015-11-24T09:06:41Z</time></trkpt><trkpt lat="30.5539600365" lon="35.5224630609"><ele>1321.95</ele><time>2015-11-24T09:06:44Z</time></trkpt><trkpt lat="30.5536589585" lon="35.5216159020"><ele>1320.03</ele><time>2015-11-24T09:06:55Z</time></trkpt><trkpt lat="30.5535698589" lon="35.5213693902"><ele>1323.39</ele><time>2015-11-24T09:07:00Z</time></trkpt><trkpt lat="30.5535606388" lon="35.5213537160"><ele>1323.87</ele><time>2015-11-24T09:07:01Z</time></trkpt><trkpt lat="30.5534698628" lon="35.5210968945"><ele>1326.76</ele><time>2015-11-24T09:07:16Z</time></trkpt><trkpt lat="30.5534362514" lon="35.5209900253"><ele>1330.12</ele><time>2015-11-24T09:07:24Z</time></trkpt><trkpt lat="30.5533463974" lon="35.5207829922"><ele>1331.56</ele><time>2015-11-24T09:07:40Z</time></trkpt><trkpt lat="30.5533201620" lon="35.5206938088"><ele>1333.97</ele><time>2015-11-24T09:07:46Z</time></trkpt><trkpt lat="30.5532940105" lon="35.5206415895"><ele>1334.45</ele><time>2015-11-24T09:07:50Z</time></trkpt><trkpt lat="30.5532337446" lon="35.5204748735"><ele>1337.33</ele><time>2015-11-24T09:08:01Z</time></trkpt><trkpt lat="30.5532022286" lon="35.5203638133"><ele>1339.25</ele><time>2015-11-24T09:08:08Z</time></trkpt><trkpt lat="30.5531761609" lon="35.5202782340"><ele>1339.73</ele><time>2015-11-24T09:08:13Z</time></trkpt><trkpt lat="30.5531675275" lon="35.5202621408"><ele>1339.25</ele><time>2015-11-24T09:08:14Z</time></trkpt><trkpt lat="30.5531472433" lon="35.5201557744"><ele>1338.77</ele><time>2015-11-24T09:08:20Z</time></trkpt><trkpt lat="30.5530774221" lon="35.5198773276"><ele>1342.14</ele><time>2015-11-24T09:08:37Z</time></trkpt><trkpt lat="30.5530770030" lon="35.5198590551"><ele>1342.62</ele><time>2015-11-24T09:08:38Z</time></trkpt><trkpt lat="30.5530334171" lon="35.5197310634"><ele>1343.58</ele><time>2015-11-24T09:08:46Z</time></trkpt><trkpt lat="30.5529796053" lon="35.5196288880"><ele>1343.58</ele><time>2015-11-24T09:08:53Z</time></trkpt><trkpt lat="30.5529546272" lon="35.5195512716"><ele>1344.54</ele><time>2015-11-24T09:08:58Z</time></trkpt><trkpt lat="30.5529199261" lon="35.5194344278"><ele>1344.06</ele><time>2015-11-24T09:09:06Z</time></trkpt><trkpt lat="30.5528969597" lon="35.5193717312"><ele>1346.46</ele><time>2015-11-24T09:09:10Z</time></trkpt><trkpt lat="30.5528949481" lon="35.5193534587"><ele>1347.43</ele><time>2015-11-24T09:09:11Z</time></trkpt><trkpt lat="30.5528638512" lon="35.5192377046"><ele>1345.98</ele><time>2015-11-24T09:09:16Z</time></trkpt><trkpt lat="30.5528113805" lon="35.5188479461"><ele>1345.98</ele><time>2015-11-24T09:09:31Z</time></trkpt><trkpt lat="30.5527869053" lon="35.5184936430"><ele>1349.35</ele><time>2015-11-24T09:09:44Z</time></trkpt><trkpt lat="30.5526779406" lon="35.5181532539"><ele>1347.91</ele><time>2015-11-24T09:09:58Z</time></trkpt><trkpt lat="30.5526631046" lon="35.5181134399"><ele>1348.87</ele><time>2015-11-24T09:10:00Z</time></trkpt><trkpt lat="30.5526087899" lon="35.5179137830"><ele>1349.35</ele><time>2015-11-24T09:10:09Z</time></trkpt><trkpt lat="30.5525654554" lon="35.5177845340"><ele>1348.87</ele><time>2015-11-24T09:10:16Z</time></trkpt><trkpt lat="30.5525410641" lon="35.5177291296"><ele>1349.35</ele><time>2015-11-24T09:10:19Z</time></trkpt><trkpt lat="30.5524124857" lon="35.5174289737"><ele>1350.79</ele><time>2015-11-24T09:10:36Z</time></trkpt><trkpt lat="30.5523882620" lon="35.5173741560"><ele>1352.23</ele><time>2015-11-24T09:10:39Z</time></trkpt><trkpt lat="30.5523760244" lon="35.5171970464"><ele>1354.15</ele><time>2015-11-24T09:10:49Z</time></trkpt><trkpt lat="30.5523716658" lon="35.5170014966"><ele>1358.00</ele><time>2015-11-24T09:10:59Z</time></trkpt><trkpt lat="30.5523674749" lon="35.5169602577"><ele>1358.96</ele><time>2015-11-24T09:11:01Z</time></trkpt><trkpt lat="30.5523606017" lon="35.5168602616"><ele>1359.44</ele><time>2015-11-24T09:11:06Z</time></trkpt><trkpt lat="30.5523663852" lon="35.5167995766"><ele>1360.88</ele><time>2015-11-24T09:11:09Z</time></trkpt><trkpt lat="30.5523723364" lon="35.5167136621"><ele>1363.29</ele><time>2015-11-24T09:11:13Z</time></trkpt><trkpt lat="30.5523847416" lon="35.5166412424"><ele>1364.25</ele><time>2015-11-24T09:11:17Z</time></trkpt><trkpt lat="30.5523941293" lon="35.5165053718"><ele>1367.13</ele><time>2015-11-24T09:11:24Z</time></trkpt><trkpt lat="30.5523967277" lon="35.5164881051"><ele>1368.57</ele><time>2015-11-24T09:11:25Z</time></trkpt><trkpt lat="30.5523943808" lon="35.5163710099"><ele>1367.13</ele><time>2015-11-24T09:11:31Z</time></trkpt><trkpt lat="30.5523276608" lon="35.5161306169"><ele>1369.05</ele><time>2015-11-24T09:11:41Z</time></trkpt><trkpt lat="30.5522299279" lon="35.5159183033"><ele>1369.54</ele><time>2015-11-24T09:11:51Z</time></trkpt><trkpt lat="30.5520868488" lon="35.5155799259"><ele>1370.98</ele><time>2015-11-24T09:12:10Z</time></trkpt><trkpt lat="30.5520096514" lon="35.5152758304"><ele>1372.90</ele><time>2015-11-24T09:12:25Z</time></trkpt><trkpt lat="30.5520055443" lon="35.5152577255"><ele>1372.90</ele><time>2015-11-24T09:12:26Z</time></trkpt><trkpt lat="30.5519817397" lon="35.5151827075"><ele>1374.34</ele><time>2015-11-24T09:12:30Z</time></trkpt><trkpt lat="30.5519268382" lon="35.5150452442"><ele>1375.30</ele><time>2015-11-24T09:12:37Z</time></trkpt><trkpt lat="30.5517689232" lon="35.5147398077"><ele>1376.75</ele><time>2015-11-24T09:12:52Z</time></trkpt><trkpt lat="30.5516188033" lon="35.5145834852"><ele>1375.78</ele><time>2015-11-24T09:12:59Z</time></trkpt><trkpt lat="30.5516174622" lon="35.5145425815"><ele>1374.82</ele><time>2015-11-24T09:13:09Z</time></trkpt><trkpt lat="30.5516019557" lon="35.5145353731"><ele>1376.26</ele><time>2015-11-24T09:13:19Z</time></trkpt><trkpt lat="30.5515987705" lon="35.5145331938"><ele>1379.63</ele><time>2015-11-24T09:13:23Z</time></trkpt><trkpt lat="30.5515991896" lon="35.5145378038"><ele>1370.98</ele><time>2015-11-24T09:13:24Z</time></trkpt><trkpt lat="30.5515974294" lon="35.5145392288"><ele>1371.94</ele><time>2015-11-24T09:13:25Z</time></trkpt><trkpt lat="30.5515945796" lon="35.5145450961"><ele>1372.90</ele><time>2015-11-24T09:13:27Z</time></trkpt><trkpt lat="30.5515812524" lon="35.5145465210"><ele>1375.78</ele><time>2015-11-24T09:13:31Z</time></trkpt><trkpt lat="30.5515763909" lon="35.5145409051"><ele>1381.55</ele><time>2015-11-24T09:13:40Z</time></trkpt><trkpt lat="30.5515763070" lon="35.5145411566"><ele>1380.11</ele><time>2015-11-24T09:13:41Z</time></trkpt><trkpt lat="30.5515753012" lon="35.5145393964"><ele>1375.78</ele><time>2015-11-24T09:13:42Z</time></trkpt><trkpt lat="30.5515791569" lon="35.5145487003"><ele>1374.34</ele><time>2015-11-24T09:13:48Z</time></trkpt><trkpt lat="30.5515659135" lon="35.5145588424"><ele>1375.30</ele><time>2015-11-24T09:14:07Z</time></trkpt><trkpt lat="30.5515576992" lon="35.5145520531"><ele>1377.23</ele><time>2015-11-24T09:14:12Z</time></trkpt><trkpt lat="30.5515323859" lon="35.5145445932"><ele>1372.42</ele><time>2015-11-24T09:14:16Z</time></trkpt><trkpt lat="30.5515224114" lon="35.5145497900"><ele>1370.98</ele><time>2015-11-24T09:14:18Z</time></trkpt><trkpt lat="30.5514357425" lon="35.5145356245"><ele>1371.46</ele><time>2015-11-24T09:14:24Z</time></trkpt><trkpt lat="30.5512718763" lon="35.5144316051"><ele>1367.13</ele><time>2015-11-24T09:14:28Z</time></trkpt><trkpt lat="30.5511647556" lon="35.5143347941"><ele>1366.65</ele><time>2015-11-24T09:14:30Z</time></trkpt><trkpt lat="30.5511085968" lon="35.5142777972"><ele>1366.65</ele><time>2015-11-24T09:14:31Z</time></trkpt><trkpt lat="30.5509664398" lon="35.5140595324"><ele>1360.88</ele><time>2015-11-24T09:14:34Z</time></trkpt><trkpt lat="30.5509323254" lon="35.5139617994"><ele>1359.44</ele><time>2015-11-24T09:14:35Z</time></trkpt><trkpt lat="30.5507789366" lon="35.5133827776"><ele>1354.15</ele><time>2015-11-24T09:14:40Z</time></trkpt><trkpt lat="30.5507176649" lon="35.5131348409"><ele>1350.79</ele><time>2015-11-24T09:14:42Z</time></trkpt><trkpt lat="30.5506592430" lon="35.5128860660"><ele>1347.43</ele><time>2015-11-24T09:14:44Z</time></trkpt><trkpt lat="30.5506178364" lon="35.5126578268"><ele>1344.54</ele><time>2015-11-24T09:14:46Z</time></trkpt><trkpt lat="30.5505895056" lon="35.5123512167"><ele>1340.22</ele><time>2015-11-24T09:14:49Z</time></trkpt><trkpt lat="30.5505810399" lon="35.5122744385"><ele>1338.77</ele><time>2015-11-24T09:14:50Z</time></trkpt><trkpt lat="30.5504898448" lon="35.5120875221"><ele>1337.81</ele><time>2015-11-24T09:14:54Z</time></trkpt><trkpt lat="30.5504468456" lon="35.5119700078"><ele>1335.89</ele><time>2015-11-24T09:14:58Z</time></trkpt><trkpt lat="30.5504210293" lon="35.5119158607"><ele>1336.85</ele><time>2015-11-24T09:15:00Z</time></trkpt><trkpt lat="30.5502521340" lon="35.5116974283"><ele>1336.85</ele><time>2015-11-24T09:15:07Z</time></trkpt><trkpt lat="30.5501337815" lon="35.5114701949"><ele>1335.89</ele><time>2015-11-24T09:15:11Z</time></trkpt><trkpt lat="30.5500809755" lon="35.5112715438"><ele>1335.89</ele><time>2015-11-24T09:15:14Z</time></trkpt><trkpt lat="30.5498679914" lon="35.5109762494"><ele>1335.89</ele><time>2015-11-24T09:15:21Z</time></trkpt><trkpt lat="30.5496193003" lon="35.5109220184"><ele>1334.45</ele><time>2015-11-24T09:15:32Z</time></trkpt><trkpt lat="30.5496206414" lon="35.5109246168"><ele>1336.37</ele><time>2015-11-24T09:15:36Z</time></trkpt><trkpt lat="30.5496078171" lon="35.5109160673"><ele>1338.29</ele><time>2015-11-24T09:15:58Z</time></trkpt><trkpt lat="30.5496053025" lon="35.5109151453"><ele>1336.37</ele><time>2015-11-24T09:16:02Z</time></trkpt><trkpt lat="30.5496058892" lon="35.5109159835"><ele>1334.45</ele><time>2015-11-24T09:16:06Z</time></trkpt><trkpt lat="30.5496053863" lon="35.5109134689"><ele>1335.89</ele><time>2015-11-24T09:16:12Z</time></trkpt><trkpt lat="30.5496043805" lon="35.5109137204"><ele>1337.81</ele><time>2015-11-24T09:16:16Z</time></trkpt><trkpt lat="30.5496036261" lon="35.5109154806"><ele>1336.85</ele><time>2015-11-24T09:16:37Z</time></trkpt><trkpt lat="30.5496080685" lon="35.5109200906"><ele>1337.81</ele><time>2015-11-24T09:16:56Z</time></trkpt><trkpt lat="30.5495617166" lon="35.5112013873"><ele>1355.12</ele><time>2015-11-24T09:19:34Z</time></trkpt><trkpt lat="30.5495546758" lon="35.5111878924"><ele>1346.94</ele><time>2015-11-24T09:19:35Z</time></trkpt><trkpt lat="30.5495514069" lon="35.5111770798"><ele>1347.43</ele><time>2015-11-24T09:19:36Z</time></trkpt><trkpt lat="30.5495434441" lon="35.5111356732"><ele>1350.79</ele><time>2015-11-24T09:19:57Z</time></trkpt><trkpt lat="30.5496789794" lon="35.5109105352"><ele>1346.94</ele><time>2015-11-24T09:20:08Z</time></trkpt><trkpt lat="30.5496740341" lon="35.5109021533"><ele>1345.50</ele><time>2015-11-24T09:20:11Z</time></trkpt><trkpt lat="30.5496649817" lon="35.5108893290"><ele>1342.14</ele><time>2015-11-24T09:20:16Z</time></trkpt><trkpt lat="30.5496656522" lon="35.5108840484"><ele>1341.66</ele><time>2015-11-24T09:20:18Z</time></trkpt><trkpt lat="30.5496568512" lon="35.5108673684"><ele>1340.22</ele><time>2015-11-24T09:20:21Z</time></trkpt><trkpt lat="30.5496302806" lon="35.5108458269"><ele>1338.29</ele><time>2015-11-24T09:20:44Z</time></trkpt><trkpt lat="30.5496156123" lon="35.5108850542"><ele>1341.18</ele><time>2015-11-24T09:21:08Z</time></trkpt><trkpt lat="30.5496174563" lon="35.5108908378"><ele>1339.25</ele><time>2015-11-24T09:21:11Z</time></trkpt><trkpt lat="30.5496175401" lon="35.5108979624"><ele>1340.22</ele><time>2015-11-24T09:21:21Z</time></trkpt><trkpt lat="30.5496208929" lon="35.5109040812"><ele>1339.25</ele><time>2015-11-24T09:21:29Z</time></trkpt><trkpt lat="30.5496171210" lon="35.5108931847"><ele>1338.77</ele><time>2015-11-24T09:21:53Z</time></trkpt><trkpt lat="30.5496075656" lon="35.5108888261"><ele>1338.29</ele><time>2015-11-24T09:21:56Z</time></trkpt><trkpt lat="30.5495271832" lon="35.5108697154"><ele>1337.81</ele><time>2015-11-24T09:22:02Z</time></trkpt><trkpt lat="30.5494135246" lon="35.5108398758"><ele>1336.37</ele><time>2015-11-24T09:22:08Z</time></trkpt><trkpt lat="30.5493753869" lon="35.5108301528"><ele>1341.18</ele><time>2015-11-24T09:22:10Z</time></trkpt><trkpt lat="30.5490464810" lon="35.5107356887"><ele>1337.81</ele><time>2015-11-24T09:22:20Z</time></trkpt><trkpt lat="30.5489925016" lon="35.5107167456"><ele>1337.81</ele><time>2015-11-24T09:22:21Z</time></trkpt><trkpt lat="30.5486136395" lon="35.5106322560"><ele>1334.45</ele><time>2015-11-24T09:22:27Z</time></trkpt><trkpt lat="30.5485425610" lon="35.5106150731"><ele>1333.97</ele><time>2015-11-24T09:22:28Z</time></trkpt><trkpt lat="30.5483220331" lon="35.5105473474"><ele>1331.08</ele><time>2015-11-24T09:22:31Z</time></trkpt><trkpt lat="30.5477208830" lon="35.5102350377"><ele>1328.20</ele><time>2015-11-24T09:22:40Z</time></trkpt><trkpt lat="30.5474812444" lon="35.5099995900"><ele>1325.31</ele><time>2015-11-24T09:22:44Z</time></trkpt><trkpt lat="30.5473656580" lon="35.5098451115"><ele>1323.39</ele><time>2015-11-24T09:22:46Z</time></trkpt><trkpt lat="30.5470888875" lon="35.5095673352"><ele>1322.43</ele><time>2015-11-24T09:22:50Z</time></trkpt><trkpt lat="30.5469167233" lon="35.5093729589"><ele>1324.35</ele><time>2015-11-24T09:22:54Z</time></trkpt><trkpt lat="30.5467565451" lon="35.5092722084"><ele>1324.83</ele><time>2015-11-24T09:22:58Z</time></trkpt><trkpt lat="30.5463362765" lon="35.5088892393"><ele>1324.83</ele><time>2015-11-24T09:23:14Z</time></trkpt><trkpt lat="30.5462201033" lon="35.5087140575"><ele>1327.72</ele><time>2015-11-24T09:23:23Z</time></trkpt><trkpt lat="30.5459476076" lon="35.5086035002"><ele>1329.16</ele><time>2015-11-24T09:23:35Z</time></trkpt><trkpt lat="30.5459062848" lon="35.5085979681"><ele>1328.68</ele><time>2015-11-24T09:23:36Z</time></trkpt><trkpt lat="30.5455902871" lon="35.5085842218"><ele>1326.28</ele><time>2015-11-24T09:23:42Z</time></trkpt><trkpt lat="30.5454104114" lon="35.5084306654"><ele>1326.28</ele><time>2015-11-24T09:23:47Z</time></trkpt><trkpt lat="30.5451669171" lon="35.5081686471"><ele>1328.68</ele><time>2015-11-24T09:23:55Z</time></trkpt><trkpt lat="30.5449888017" lon="35.5079782102"><ele>1329.64</ele><time>2015-11-24T09:24:00Z</time></trkpt><trkpt lat="30.5447874684" lon="35.5078000110"><ele>1328.68</ele><time>2015-11-24T09:24:05Z</time></trkpt><trkpt lat="30.5447169766" lon="35.5077161081"><ele>1333.01</ele><time>2015-11-24T09:24:11Z</time></trkpt><trkpt lat="30.5447113607" lon="35.5077061336"><ele>1329.16</ele><time>2015-11-24T09:24:16Z</time></trkpt><trkpt lat="30.5447111093" lon="35.5077059660"><ele>1326.28</ele><time>2015-11-24T09:24:18Z</time></trkpt><trkpt lat="30.5446265358" lon="35.5076759588"><ele>1325.31</ele><time>2015-11-24T09:24:23Z</time></trkpt><trkpt lat="30.5445293896" lon="35.5075915530"><ele>1323.87</ele><time>2015-11-24T09:24:27Z</time></trkpt><trkpt lat="30.5443286430" lon="35.5074540060"><ele>1320.99</ele><time>2015-11-24T09:24:33Z</time></trkpt><trkpt lat="30.5441458337" lon="35.5073928181"><ele>1318.10</ele><time>2015-11-24T09:24:42Z</time></trkpt><trkpt lat="30.5440776050" lon="35.5073870346"><ele>1317.62</ele><time>2015-11-24T09:24:46Z</time></trkpt><trkpt lat="30.5438469350" lon="35.5074172094"><ele>1318.10</ele><time>2015-11-24T09:24:59Z</time></trkpt><trkpt lat="30.5438276567" lon="35.5074193887"><ele>1317.62</ele><time>2015-11-24T09:25:00Z</time></trkpt><trkpt lat="30.5434869323" lon="35.5074606277"><ele>1317.62</ele><time>2015-11-24T09:25:12Z</time></trkpt><trkpt lat="30.5433041230" lon="35.5074776430"><ele>1314.26</ele><time>2015-11-24T09:25:16Z</time></trkpt><trkpt lat="30.5432507303" lon="35.5074795708"><ele>1313.78</ele><time>2015-11-24T09:25:17Z</time></trkpt><trkpt lat="30.5429302901" lon="35.5075104162"><ele>1312.34</ele><time>2015-11-24T09:25:23Z</time></trkpt><trkpt lat="30.5425419565" lon="35.5074765533"><ele>1309.93</ele><time>2015-11-24T09:25:31Z</time></trkpt><trkpt lat="30.5422281381" lon="35.5071784090"><ele>1310.90</ele><time>2015-11-24T09:25:45Z</time></trkpt><trkpt lat="30.5421131384" lon="35.5071502458"><ele>1311.86</ele><time>2015-11-24T09:25:57Z</time></trkpt><trkpt lat="30.5421073548" lon="35.5071472283"><ele>1310.41</ele><time>2015-11-24T09:26:25Z</time></trkpt><trkpt lat="30.5421076063" lon="35.5071354937"><ele>1310.41</ele><time>2015-11-24T09:26:59Z</time></trkpt><trkpt lat="30.5421199277" lon="35.5071504973"><ele>1310.90</ele><time>2015-11-24T09:27:32Z</time></trkpt><trkpt lat="30.5418500304" lon="35.5073417723"><ele>1310.90</ele><time>2015-11-24T09:27:46Z</time></trkpt><trkpt lat="30.5415256508" lon="35.5075852666"><ele>1308.01</ele><time>2015-11-24T09:27:53Z</time></trkpt><trkpt lat="30.5412478745" lon="35.5076845922"><ele>1306.09</ele><time>2015-11-24T09:27:57Z</time></trkpt><trkpt lat="30.5411707610" lon="35.5076972488"><ele>1306.09</ele><time>2015-11-24T09:27:58Z</time></trkpt><trkpt lat="30.5403553694" lon="35.5078833271"><ele>1307.05</ele><time>2015-11-24T09:28:12Z</time></trkpt><trkpt lat="30.5403028149" lon="35.5078983307"><ele>1307.05</ele><time>2015-11-24T09:28:13Z</time></trkpt><trkpt lat="30.5396890081" lon="35.5078495480"><ele>1306.57</ele><time>2015-11-24T09:28:25Z</time></trkpt><trkpt lat="30.5394421611" lon="35.5077366438"><ele>1307.53</ele><time>2015-11-24T09:28:31Z</time></trkpt><trkpt lat="30.5390960723" lon="35.5075584445"><ele>1309.45</ele><time>2015-11-24T09:28:43Z</time></trkpt><trkpt lat="30.5388809927" lon="35.5073843524"><ele>1310.90</ele><time>2015-11-24T09:28:54Z</time></trkpt><trkpt lat="30.5386100896" lon="35.5072487332"><ele>1312.82</ele><time>2015-11-24T09:29:08Z</time></trkpt><trkpt lat="30.5384080857" lon="35.5072243419"><ele>1313.78</ele><time>2015-11-24T09:29:21Z</time></trkpt><trkpt lat="30.5382336583" lon="35.5072364118"><ele>1316.18</ele><time>2015-11-24T09:29:34Z</time></trkpt><trkpt lat="30.5382077582" lon="35.5072421953"><ele>1316.66</ele><time>2015-11-24T09:29:37Z</time></trkpt><trkpt lat="30.5380202550" lon="35.5072706938"><ele>1319.07</ele><time>2015-11-24T09:29:53Z</time></trkpt><trkpt lat="30.5377277266" lon="35.5073338095"><ele>1319.55</ele><time>2015-11-24T09:30:09Z</time></trkpt><trkpt lat="30.5376394652" lon="35.5073706899"><ele>1319.55</ele><time>2015-11-24T09:30:12Z</time></trkpt><trkpt lat="30.5374999065" lon="35.5073198117"><ele>1318.59</ele><time>2015-11-24T09:30:16Z</time></trkpt><trkpt lat="30.5372502096" lon="35.5071858689"><ele>1317.14</ele><time>2015-11-24T09:30:26Z</time></trkpt><trkpt lat="30.5372393969" lon="35.5071680993"><ele>1317.14</ele><time>2015-11-24T09:30:49Z</time></trkpt><trkpt lat="30.5370785482" lon="35.5071755592"><ele>1315.70</ele><time>2015-11-24T09:30:59Z</time></trkpt><trkpt lat="30.5368091539" lon="35.5072419439"><ele>1313.78</ele><time>2015-11-24T09:31:04Z</time></trkpt><trkpt lat="30.5364440382" lon="35.5071996991"><ele>1316.18</ele><time>2015-11-24T09:31:11Z</time></trkpt><trkpt lat="30.5360640027" lon="35.5071986932"><ele>1316.66</ele><time>2015-11-24T09:31:23Z</time></trkpt><trkpt lat="30.5359104462" lon="35.5072411057"><ele>1315.22</ele><time>2015-11-24T09:31:27Z</time></trkpt><trkpt lat="30.5356264673" lon="35.5073607154"><ele>1312.34</ele><time>2015-11-24T09:31:34Z</time></trkpt><trkpt lat="30.5355791934" lon="35.5073908065"><ele>1311.86</ele><time>2015-11-24T09:31:35Z</time></trkpt><trkpt lat="30.5354168359" lon="35.5074271839"><ele>1309.93</ele><time>2015-11-24T09:31:38Z</time></trkpt><trkpt lat="30.5352403130" lon="35.5073499866"><ele>1311.38</ele><time>2015-11-24T09:31:42Z</time></trkpt><trkpt lat="30.5349070486" lon="35.5074079894"><ele>1310.41</ele><time>2015-11-24T09:31:55Z</time></trkpt><trkpt lat="30.5346990936" lon="35.5074777268"><ele>1310.41</ele><time>2015-11-24T09:32:00Z</time></trkpt><trkpt lat="30.5345250852" lon="35.5075187143"><ele>1309.45</ele><time>2015-11-24T09:32:04Z</time></trkpt><trkpt lat="30.5341516715" lon="35.5074655730"><ele>1309.45</ele><time>2015-11-24T09:32:14Z</time></trkpt><trkpt lat="30.5339035671" lon="35.5074258428"><ele>1309.45</ele><time>2015-11-24T09:32:20Z</time></trkpt><trkpt lat="30.5334949493" lon="35.5071814265"><ele>1308.49</ele><time>2015-11-24T09:32:31Z</time></trkpt><trkpt lat="30.5334644392" lon="35.5071650818"><ele>1308.01</ele><time>2015-11-24T09:32:32Z</time></trkpt><trkpt lat="30.5332096294" lon="35.5070675164"><ele>1306.09</ele><time>2015-11-24T09:32:37Z</time></trkpt><trkpt lat="30.5330903549" lon="35.5070221703"><ele>1305.13</ele><time>2015-11-24T09:32:39Z</time></trkpt><trkpt lat="30.5329011753" lon="35.5069676042"><ele>1307.05</ele><time>2015-11-24T09:32:43Z</time></trkpt><trkpt lat="30.5325354729" lon="35.5065068509"><ele>1305.13</ele><time>2015-11-24T09:32:55Z</time></trkpt><trkpt lat="30.5325045437" lon="35.5064457469"><ele>1304.65</ele><time>2015-11-24T09:32:56Z</time></trkpt><trkpt lat="30.5319328140" lon="35.5057422537"><ele>1301.28</ele><time>2015-11-24T09:33:08Z</time></trkpt><trkpt lat="30.5318013020" lon="35.5055373162"><ele>1298.88</ele><time>2015-11-24T09:33:13Z</time></trkpt><trkpt lat="30.5318052415" lon="35.5055449437"><ele>1300.32</ele><time>2015-11-24T09:33:16Z</time></trkpt><trkpt lat="30.5317783356" lon="35.5055156071"><ele>1301.28</ele><time>2015-11-24T09:33:28Z</time></trkpt><trkpt lat="30.5316806864" lon="35.5053898785"><ele>1298.40</ele><time>2015-11-24T09:33:33Z</time></trkpt><trkpt lat="30.5313888285" lon="35.5051539280"><ele>1300.80</ele><time>2015-11-24T09:33:47Z</time></trkpt><trkpt lat="30.5311823823" lon="35.5050688516"><ele>1299.36</ele><time>2015-11-24T09:33:54Z</time></trkpt><trkpt lat="30.5310803745" lon="35.5049991980"><ele>1301.28</ele><time>2015-11-24T09:33:59Z</time></trkpt><trkpt lat="30.5310589168" lon="35.5049894750"><ele>1299.84</ele><time>2015-11-24T09:34:01Z</time></trkpt><trkpt lat="30.5309662968" lon="35.5049669277"><ele>1300.32</ele><time>2015-11-24T09:34:06Z</time></trkpt><trkpt lat="30.5308431666" lon="35.5049155466"><ele>1299.84</ele><time>2015-11-24T09:34:11Z</time></trkpt><trkpt lat="30.5307893548" lon="35.5048986152"><ele>1297.92</ele><time>2015-11-24T09:34:13Z</time></trkpt><trkpt lat="30.5307103135" lon="35.5048704520"><ele>1296.48</ele><time>2015-11-24T09:34:17Z</time></trkpt><trkpt lat="30.5307100620" lon="35.5048701167"><ele>1293.11</ele><time>2015-11-24T09:34:19Z</time></trkpt><trkpt lat="30.5307083856" lon="35.5048727989"><ele>1293.59</ele><time>2015-11-24T09:34:20Z</time></trkpt><trkpt lat="30.5307083018" lon="35.5048779119"><ele>1295.03</ele><time>2015-11-24T09:34:23Z</time></trkpt><trkpt lat="30.5307060387" lon="35.5048785824"><ele>1296.96</ele><time>2015-11-24T09:34:27Z</time></trkpt><trkpt lat="30.5306944717" lon="35.5048774090"><ele>1295.99</ele><time>2015-11-24T09:34:39Z</time></trkpt><trkpt lat="30.5305912904" lon="35.5048437137"><ele>1293.59</ele><time>2015-11-24T09:34:44Z</time></trkpt><trkpt lat="30.5304183718" lon="35.5048038159"><ele>1291.67</ele><time>2015-11-24T09:34:50Z</time></trkpt><trkpt lat="30.5302303657" lon="35.5048120301"><ele>1288.30</ele><time>2015-11-24T09:34:55Z</time></trkpt><trkpt lat="30.5301510729" lon="35.5048084259"><ele>1284.94</ele><time>2015-11-24T09:34:57Z</time></trkpt><trkpt lat="30.5301079899" lon="35.5048058275"><ele>1284.94</ele><time>2015-11-24T09:34:58Z</time></trkpt><trkpt lat="30.5300622247" lon="35.5048031453"><ele>1284.46</ele><time>2015-11-24T09:34:59Z</time></trkpt><trkpt lat="30.5299266055" lon="35.5048209149"><ele>1282.06</ele><time>2015-11-24T09:35:02Z</time></trkpt><trkpt lat="30.5298420321" lon="35.5048375111"><ele>1280.61</ele><time>2015-11-24T09:35:04Z</time></trkpt><trkpt lat="30.5297118612" lon="35.5048717931"><ele>1278.69</ele><time>2015-11-24T09:35:07Z</time></trkpt><trkpt lat="30.5295308121" lon="35.5049567018"><ele>1274.36</ele><time>2015-11-24T09:35:11Z</time></trkpt><trkpt lat="30.5292843003" lon="35.5049586296"><ele>1273.40</ele><time>2015-11-24T09:35:17Z</time></trkpt><trkpt lat="30.5291676242" lon="35.5049552768"><ele>1271.96</ele><time>2015-11-24T09:35:20Z</time></trkpt><trkpt lat="30.5290814582" lon="35.5049748067"><ele>1270.52</ele><time>2015-11-24T09:35:22Z</time></trkpt><trkpt lat="30.5288890097" lon="35.5050594639"><ele>1268.60</ele><time>2015-11-24T09:35:26Z</time></trkpt><trkpt lat="30.5286409054" lon="35.5050668400"><ele>1268.12</ele><time>2015-11-24T09:35:31Z</time></trkpt><trkpt lat="30.5281519052" lon="35.5051014572"><ele>1267.16</ele><time>2015-11-24T09:35:45Z</time></trkpt><trkpt lat="30.5278690998" lon="35.5052168760"><ele>1263.79</ele><time>2015-11-24T09:35:52Z</time></trkpt><trkpt lat="30.5277307145" lon="35.5051684286"><ele>1263.31</ele><time>2015-11-24T09:35:56Z</time></trkpt><trkpt lat="30.5274313968" lon="35.5048831087"><ele>1264.27</ele><time>2015-11-24T09:36:09Z</time></trkpt><trkpt lat="30.5270517804" lon="35.5049067456"><ele>1264.27</ele><time>2015-11-24T09:36:21Z</time></trkpt><trkpt lat="30.5269587412" lon="35.5049188994"><ele>1264.27</ele><time>2015-11-24T09:36:24Z</time></trkpt><trkpt lat="30.5268339347" lon="35.5048943404"><ele>1263.31</ele><time>2015-11-24T09:36:27Z</time></trkpt><trkpt lat="30.5267900135" lon="35.5048758164"><ele>1262.83</ele><time>2015-11-24T09:36:28Z</time></trkpt><trkpt lat="30.5262858421" lon="35.5047052447"><ele>1265.23</ele><time>2015-11-24T09:36:43Z</time></trkpt><trkpt lat="30.5260176212" lon="35.5045791809"><ele>1267.64</ele><time>2015-11-24T09:36:57Z</time></trkpt><trkpt lat="30.5257027969" lon="35.5044993851"><ele>1268.60</ele><time>2015-11-24T09:37:12Z</time></trkpt><trkpt lat="30.5253526010" lon="35.5044416338"><ele>1269.56</ele><time>2015-11-24T09:37:27Z</time></trkpt><trkpt lat="30.5253286287" lon="35.5044297315"><ele>1270.04</ele><time>2015-11-24T09:37:28Z</time></trkpt><trkpt lat="30.5248770956" lon="35.5042081978"><ele>1270.04</ele><time>2015-11-24T09:37:45Z</time></trkpt><trkpt lat="30.5246433243" lon="35.5040850677"><ele>1271.96</ele><time>2015-11-24T09:37:54Z</time></trkpt><trkpt lat="30.5244040210" lon="35.5039576627"><ele>1271.96</ele><time>2015-11-24T09:38:05Z</time></trkpt><trkpt lat="30.5242915358" lon="35.5039152503"><ele>1275.33</ele><time>2015-11-24T09:38:10Z</time></trkpt><trkpt lat="30.5242652167" lon="35.5039084610"><ele>1275.33</ele><time>2015-11-24T09:38:11Z</time></trkpt><trkpt lat="30.5242120754" lon="35.5038907751"><ele>1272.92</ele><time>2015-11-24T09:38:13Z</time></trkpt><trkpt lat="30.5241032783" lon="35.5038531404"><ele>1276.77</ele><time>2015-11-24T09:38:17Z</time></trkpt><trkpt lat="30.5238757934" lon="35.5037638731"><ele>1274.36</ele><time>2015-11-24T09:38:28Z</time></trkpt><trkpt lat="30.5237531662" lon="35.5037134141"><ele>1275.33</ele><time>2015-11-24T09:38:38Z</time></trkpt><trkpt lat="30.5237640627" lon="35.5037386436"><ele>1272.92</ele><time>2015-11-24T09:38:59Z</time></trkpt><trkpt lat="30.5237662420" lon="35.5037502106"><ele>1273.40</ele><time>2015-11-24T09:39:20Z</time></trkpt><trkpt lat="30.5237643979" lon="35.5037568323"><ele>1271.96</ele><time>2015-11-24T09:39:42Z</time></trkpt><trkpt lat="30.5237690080" lon="35.5037527252"><ele>1271.48</ele><time>2015-11-24T09:39:44Z</time></trkpt><trkpt lat="30.5237787310" lon="35.5037404038"><ele>1271.48</ele><time>2015-11-24T09:40:12Z</time></trkpt><trkpt lat="30.5237784795" lon="35.5037267413"><ele>1270.52</ele><time>2015-11-24T09:40:26Z</time></trkpt><trkpt lat="30.5234703608" lon="35.5037233885"><ele>1270.52</ele><time>2015-11-24T09:40:38Z</time></trkpt><trkpt lat="30.5232368410" lon="35.5037067924"><ele>1271.96</ele><time>2015-11-24T09:40:45Z</time></trkpt><trkpt lat="30.5229207594" lon="35.5036461074"><ele>1271.96</ele><time>2015-11-24T09:40:56Z</time></trkpt><trkpt lat="30.5226024147" lon="35.5036744382"><ele>1268.60</ele><time>2015-11-24T09:41:07Z</time></trkpt><trkpt lat="30.5225736648" lon="35.5036875140"><ele>1268.60</ele><time>2015-11-24T09:41:08Z</time></trkpt><trkpt lat="30.5225230381" lon="35.5037095584"><ele>1267.16</ele><time>2015-11-24T09:41:10Z</time></trkpt><trkpt lat="30.5224720761" lon="35.5037443433"><ele>1265.23</ele><time>2015-11-24T09:41:13Z</time></trkpt><trkpt lat="30.5222365446" lon="35.5040321779"><ele>1265.71</ele><time>2015-11-24T09:41:23Z</time></trkpt><trkpt lat="30.5220865924" lon="35.5042745825"><ele>1262.83</ele><time>2015-11-24T09:41:31Z</time></trkpt><trkpt lat="30.5220484547" lon="35.5043292325"><ele>1261.39</ele><time>2015-11-24T09:41:33Z</time></trkpt><trkpt lat="30.5219651386" lon="35.5044279713"><ele>1261.87</ele><time>2015-11-24T09:41:39Z</time></trkpt><trkpt lat="30.5219069682" lon="35.5044264626"><ele>1261.87</ele><time>2015-11-24T09:41:43Z</time></trkpt><trkpt lat="30.5218130909" lon="35.5043379497"><ele>1261.87</ele><time>2015-11-24T09:41:51Z</time></trkpt><trkpt lat="30.5217615422" lon="35.5043052603"><ele>1263.31</ele><time>2015-11-24T09:41:55Z</time></trkpt><trkpt lat="30.5216772202" lon="35.5042636022"><ele>1266.19</ele><time>2015-11-24T09:42:01Z</time></trkpt><trkpt lat="30.5215628073" lon="35.5042390432"><ele>1262.83</ele><time>2015-11-24T09:42:10Z</time></trkpt><trkpt lat="30.5214298703" lon="35.5042500235"><ele>1266.67</ele><time>2015-11-24T09:42:20Z</time></trkpt><trkpt lat="30.5212649144" lon="35.5042526219"><ele>1270.04</ele><time>2015-11-24T09:42:32Z</time></trkpt><trkpt lat="30.5210349988" lon="35.5042580701"><ele>1272.44</ele><time>2015-11-24T09:42:47Z</time></trkpt><trkpt lat="30.5206612498" lon="35.5041477643"><ele>1274.85</ele><time>2015-11-24T09:43:03Z</time></trkpt><trkpt lat="30.5205547996" lon="35.5041258875"><ele>1278.21</ele><time>2015-11-24T09:43:07Z</time></trkpt><trkpt lat="30.5200801324" lon="35.5040926114"><ele>1277.25</ele><time>2015-11-24T09:43:24Z</time></trkpt><trkpt lat="30.5200269911" lon="35.5041019991"><ele>1276.29</ele><time>2015-11-24T09:43:26Z</time></trkpt><trkpt lat="30.5196594447" lon="35.5040274002"><ele>1279.17</ele><time>2015-11-24T09:43:39Z</time></trkpt><trkpt lat="30.5194391683" lon="35.5039289128"><ele>1277.73</ele><time>2015-11-24T09:43:50Z</time></trkpt><trkpt lat="30.5192839354" lon="35.5039206985"><ele>1276.29</ele><time>2015-11-24T09:43:55Z</time></trkpt><trkpt lat="30.5191301275" lon="35.5039516278"><ele>1274.85</ele><time>2015-11-24T09:43:58Z</time></trkpt><trkpt lat="30.5187604018" lon="35.5038025975"><ele>1275.33</ele><time>2015-11-24T09:44:06Z</time></trkpt><trkpt lat="30.5184318312" lon="35.5037256517"><ele>1275.81</ele><time>2015-11-24T09:44:16Z</time></trkpt><trkpt lat="30.5183370318" lon="35.5037255678"><ele>1274.36</ele><time>2015-11-24T09:44:18Z</time></trkpt><trkpt lat="30.5182372872" lon="35.5036935490"><ele>1273.88</ele><time>2015-11-24T09:44:20Z</time></trkpt><trkpt lat="30.5178780388" lon="35.5033497233"><ele>1273.88</ele><time>2015-11-24T09:44:31Z</time></trkpt><trkpt lat="30.5177467782" lon="35.5031389184"><ele>1274.36</ele><time>2015-11-24T09:44:40Z</time></trkpt><trkpt lat="30.5177064613" lon="35.5029830150"><ele>1275.33</ele><time>2015-11-24T09:44:47Z</time></trkpt><trkpt lat="30.5175286811" lon="35.5027151294"><ele>1278.69</ele><time>2015-11-24T09:45:01Z</time></trkpt><trkpt lat="30.5172649864" lon="35.5023980420"><ele>1279.65</ele><time>2015-11-24T09:45:17Z</time></trkpt><trkpt lat="30.5169991963" lon="35.5021897517"><ele>1279.65</ele><time>2015-11-24T09:45:30Z</time></trkpt><trkpt lat="30.5167589709" lon="35.5019792821"><ele>1279.17</ele><time>2015-11-24T09:45:43Z</time></trkpt><trkpt lat="30.5163478386" lon="35.5017605983"><ele>1276.29</ele><time>2015-11-24T09:45:55Z</time></trkpt><trkpt lat="30.5161767639" lon="35.5016748514"><ele>1274.36</ele><time>2015-11-24T09:45:59Z</time></trkpt><trkpt lat="30.5160743371" lon="35.5016337801"><ele>1273.40</ele><time>2015-11-24T09:46:01Z</time></trkpt><trkpt lat="30.5158577487" lon="35.5015534814"><ele>1271.48</ele><time>2015-11-24T09:46:05Z</time></trkpt><trkpt lat="30.5157507956" lon="35.5015062913"><ele>1271.00</ele><time>2015-11-24T09:46:07Z</time></trkpt><trkpt lat="30.5154185370" lon="35.5013288464"><ele>1272.44</ele><time>2015-11-24T09:46:18Z</time></trkpt><trkpt lat="30.5152566824" lon="35.5013051257"><ele>1275.33</ele><time>2015-11-24T09:46:26Z</time></trkpt><trkpt lat="30.5151060596" lon="35.5012668204"><ele>1277.25</ele><time>2015-11-24T09:46:36Z</time></trkpt><trkpt lat="30.5150162056" lon="35.5012738612"><ele>1276.29</ele><time>2015-11-24T09:46:43Z</time></trkpt><trkpt lat="30.5149048939" lon="35.5012545828"><ele>1272.92</ele><time>2015-11-24T09:46:50Z</time></trkpt><trkpt lat="30.5147219170" lon="35.5012447760"><ele>1272.92</ele><time>2015-11-24T09:47:00Z</time></trkpt><trkpt lat="30.5145809334" lon="35.5012416746"><ele>1275.33</ele><time>2015-11-24T09:47:07Z</time></trkpt><trkpt lat="30.5145229306" lon="35.5012407526"><ele>1275.81</ele><time>2015-11-24T09:47:09Z</time></trkpt><trkpt lat="30.5143633392" lon="35.5012332927"><ele>1271.96</ele><time>2015-11-24T09:47:14Z</time></trkpt><trkpt lat="30.5143258721" lon="35.5012308620"><ele>1271.96</ele><time>2015-11-24T09:47:15Z</time></trkpt><trkpt lat="30.5141781829" lon="35.5012154393"><ele>1270.52</ele><time>2015-11-24T09:47:18Z</time></trkpt><trkpt lat="30.5140112154" lon="35.5012031179"><ele>1271.48</ele><time>2015-11-24T09:47:21Z</time></trkpt><trkpt lat="30.5136704911" lon="35.5012601148"><ele>1271.00</ele><time>2015-11-24T09:47:32Z</time></trkpt><trkpt lat="30.5132654775" lon="35.5014403258"><ele>1269.56</ele><time>2015-11-24T09:47:46Z</time></trkpt><trkpt lat="30.5129234120" lon="35.5014679022"><ele>1269.08</ele><time>2015-11-24T09:47:58Z</time></trkpt><trkpt lat="30.5126323923" lon="35.5013952311"><ele>1265.71</ele><time>2015-11-24T09:48:06Z</time></trkpt><trkpt lat="30.5124152172" lon="35.5013569258"><ele>1262.83</ele><time>2015-11-24T09:48:11Z</time></trkpt><trkpt lat="30.5121832900" lon="35.5013268348"><ele>1259.46</ele><time>2015-11-24T09:48:17Z</time></trkpt><trkpt lat="30.5121516064" lon="35.5013137590"><ele>1259.46</ele><time>2015-11-24T09:48:18Z</time></trkpt><trkpt lat="30.5117561482" lon="35.5010684207"><ele>1260.43</ele><time>2015-11-24T09:48:29Z</time></trkpt><trkpt lat="30.5115511268" lon="35.5010057241"><ele>1263.31</ele><time>2015-11-24T09:48:37Z</time></trkpt><trkpt lat="30.5111968238" lon="35.5009632278"><ele>1261.39</ele><time>2015-11-24T09:48:52Z</time></trkpt><trkpt lat="30.5111754499" lon="35.5009636469"><ele>1261.39</ele><time>2015-11-24T09:48:53Z</time></trkpt><trkpt lat="30.5108678341" lon="35.5009005312"><ele>1263.79</ele><time>2015-11-24T09:49:07Z</time></trkpt><trkpt lat="30.5106311291" lon="35.5008749664"><ele>1263.79</ele><time>2015-11-24T09:49:21Z</time></trkpt><trkpt lat="30.5104342382" lon="35.5008719489"><ele>1267.16</ele><time>2015-11-24T09:49:31Z</time></trkpt><trkpt lat="30.5104139540" lon="35.5008726195"><ele>1266.67</ele><time>2015-11-24T09:49:32Z</time></trkpt><trkpt lat="30.5103659257" lon="35.5008698534"><ele>1262.35</ele><time>2015-11-24T09:49:34Z</time></trkpt><trkpt lat="30.5101769976" lon="35.5008732900"><ele>1258.98</ele><time>2015-11-24T09:49:40Z</time></trkpt><trkpt lat="30.5100557953" lon="35.5008958373"><ele>1258.02</ele><time>2015-11-24T09:49:44Z</time></trkpt><trkpt lat="30.5098496005" lon="35.5009514093"><ele>1257.06</ele><time>2015-11-24T09:49:56Z</time></trkpt><trkpt lat="30.5096853990" lon="35.5010945722"><ele>1254.18</ele><time>2015-11-24T09:50:08Z</time></trkpt><trkpt lat="30.5095921084" lon="35.5011600349"><ele>1253.22</ele><time>2015-11-24T09:50:14Z</time></trkpt><trkpt lat="30.5093636177" lon="35.5013295170"><ele>1249.85</ele><time>2015-11-24T09:50:24Z</time></trkpt><trkpt lat="30.5091567524" lon="35.5016451795"><ele>1251.29</ele><time>2015-11-24T09:50:36Z</time></trkpt><trkpt lat="30.5089708418" lon="35.5019030906"><ele>1250.81</ele><time>2015-11-24T09:50:48Z</time></trkpt><trkpt lat="30.5088630505" lon="35.5020242091"><ele>1251.77</ele><time>2015-11-24T09:50:54Z</time></trkpt><trkpt lat="30.5087633897" lon="35.5021165777"><ele>1248.41</ele><time>2015-11-24T09:51:03Z</time></trkpt><trkpt lat="30.5086899642" lon="35.5021672882"><ele>1245.04</ele><time>2015-11-24T09:51:11Z</time></trkpt><trkpt lat="30.5086897966" lon="35.5021743290"><ele>1244.56</ele><time>2015-11-24T09:51:13Z</time></trkpt><trkpt lat="30.5084855296" lon="35.5023786798"><ele>1245.04</ele><time>2015-11-24T09:51:28Z</time></trkpt><trkpt lat="30.5083586276" lon="35.5024636723"><ele>1242.16</ele><time>2015-11-24T09:51:34Z</time></trkpt><trkpt lat="30.5082343239" lon="35.5026143789"><ele>1239.28</ele><time>2015-11-24T09:51:41Z</time></trkpt><trkpt lat="30.5081944261" lon="35.5026816018"><ele>1237.83</ele><time>2015-11-24T09:51:44Z</time></trkpt><trkpt lat="30.5081333220" lon="35.5027702823"><ele>1237.35</ele><time>2015-11-24T09:51:47Z</time></trkpt><trkpt lat="30.5078827869" lon="35.5028382596"><ele>1236.87</ele><time>2015-11-24T09:51:57Z</time></trkpt><trkpt lat="30.5078618322" lon="35.5028342362"><ele>1237.35</ele><time>2015-11-24T09:51:58Z</time></trkpt><trkpt lat="30.5076341797" lon="35.5028344877"><ele>1240.72</ele><time>2015-11-24T09:52:12Z</time></trkpt><trkpt lat="30.5076025799" lon="35.5028310511"><ele>1241.68</ele><time>2015-11-24T09:52:14Z</time></trkpt><trkpt lat="30.5073864106" lon="35.5028814264"><ele>1242.16</ele><time>2015-11-24T09:52:28Z</time></trkpt><trkpt lat="30.5071710795" lon="35.5029986054"><ele>1243.60</ele><time>2015-11-24T09:52:42Z</time></trkpt><trkpt lat="30.5069407448" lon="35.5032613780"><ele>1241.20</ele><time>2015-11-24T09:52:55Z</time></trkpt><trkpt lat="30.5067878589" lon="35.5032186303"><ele>1242.16</ele><time>2015-11-24T09:53:04Z</time></trkpt><trkpt lat="30.5065608770" lon="35.5030325521"><ele>1242.64</ele><time>2015-11-24T09:53:17Z</time></trkpt><trkpt lat="30.5063078273" lon="35.5029541813"><ele>1241.20</ele><time>2015-11-24T09:53:28Z</time></trkpt><trkpt lat="30.5059211701" lon="35.5029230006"><ele>1241.20</ele><time>2015-11-24T09:53:40Z</time></trkpt><trkpt lat="30.5055302382" lon="35.5029349029"><ele>1240.24</ele><time>2015-11-24T09:53:52Z</time></trkpt><trkpt lat="30.5053463392" lon="35.5028464738"><ele>1242.64</ele><time>2015-11-24T09:54:03Z</time></trkpt><trkpt lat="30.5052202754" lon="35.5028332304"><ele>1241.68</ele><time>2015-11-24T09:54:10Z</time></trkpt><trkpt lat="30.5048560817" lon="35.5027147941"><ele>1239.76</ele><time>2015-11-24T09:54:26Z</time></trkpt><trkpt lat="30.5045524891" lon="35.5025081802"><ele>1242.64</ele><time>2015-11-24T09:54:42Z</time></trkpt><trkpt lat="30.5045114178" lon="35.5024909135"><ele>1244.08</ele><time>2015-11-24T09:54:44Z</time></trkpt><trkpt lat="30.5043068156" lon="35.5024348386"><ele>1243.60</ele><time>2015-11-24T09:54:56Z</time></trkpt><trkpt lat="30.5041704420" lon="35.5024307314"><ele>1246.97</ele><time>2015-11-24T09:55:03Z</time></trkpt><trkpt lat="30.5041485652" lon="35.5024337489"><ele>1246.97</ele><time>2015-11-24T09:55:04Z</time></trkpt><trkpt lat="30.5039072502" lon="35.5024830345"><ele>1247.45</ele><time>2015-11-24T09:55:15Z</time></trkpt><trkpt lat="30.5038068350" lon="35.5025130417"><ele>1248.41</ele><time>2015-11-24T09:55:19Z</time></trkpt><trkpt lat="30.5035545398" lon="35.5025870539"><ele>1246.97</ele><time>2015-11-24T09:55:27Z</time></trkpt><trkpt lat="30.5031470116" lon="35.5026696995"><ele>1246.01</ele><time>2015-11-24T09:55:40Z</time></trkpt><trkpt lat="30.5027916189" lon="35.5026403628"><ele>1248.41</ele><time>2015-11-24T09:55:54Z</time></trkpt><trkpt lat="30.5024385732" lon="35.5026882235"><ele>1250.33</ele><time>2015-11-24T09:56:09Z</time></trkpt><trkpt lat="30.5021848530" lon="35.5028271116"><ele>1246.49</ele><time>2015-11-24T09:56:19Z</time></trkpt><trkpt lat="30.5019240081" lon="35.5028945860"><ele>1244.56</ele><time>2015-11-24T09:56:29Z</time></trkpt><trkpt lat="30.5016465671" lon="35.5027544405"><ele>1245.04</ele><time>2015-11-24T09:56:42Z</time></trkpt><trkpt lat="30.5013293121" lon="35.5027276184"><ele>1245.53</ele><time>2015-11-24T09:56:54Z</time></trkpt><trkpt lat="30.5011040904" lon="35.5028017983"><ele>1249.37</ele><time>2015-11-24T09:57:04Z</time></trkpt><trkpt lat="30.5010556430" lon="35.5027837772"><ele>1250.81</ele><time>2015-11-24T09:57:07Z</time></trkpt><trkpt lat="30.5007056147" lon="35.5025996268"><ele>1252.25</ele><time>2015-11-24T09:57:25Z</time></trkpt><trkpt lat="30.5003920477" lon="35.5025457311"><ele>1252.74</ele><time>2015-11-24T09:57:38Z</time></trkpt><trkpt lat="30.5001995154" lon="35.5025360081"><ele>1249.37</ele><time>2015-11-24T09:57:45Z</time></trkpt><trkpt lat="30.5001591146" lon="35.5025329906"><ele>1249.37</ele><time>2015-11-24T09:57:46Z</time></trkpt><trkpt lat="30.4999689292" lon="35.5025029834"><ele>1247.45</ele><time>2015-11-24T09:57:50Z</time></trkpt><trkpt lat="30.4998275265" lon="35.5023639277"><ele>1246.49</ele><time>2015-11-24T09:57:54Z</time></trkpt><trkpt lat="30.4996104352" lon="35.5020675436"><ele>1248.89</ele><time>2015-11-24T09:58:04Z</time></trkpt><trkpt lat="30.4994667694" lon="35.5019510351"><ele>1252.25</ele><time>2015-11-24T09:58:12Z</time></trkpt><trkpt lat="30.4992671963" lon="35.5018201936"><ele>1250.81</ele><time>2015-11-24T09:58:24Z</time></trkpt><trkpt lat="30.4991734866" lon="35.5017474387"><ele>1251.77</ele><time>2015-11-24T09:58:30Z</time></trkpt><trkpt lat="30.4990585707" lon="35.5016749352"><ele>1252.74</ele><time>2015-11-24T09:58:36Z</time></trkpt><trkpt lat="30.4990409687" lon="35.5016599316"><ele>1252.25</ele><time>2015-11-24T09:58:37Z</time></trkpt><trkpt lat="30.4990047589" lon="35.5016414076"><ele>1250.81</ele><time>2015-11-24T09:58:39Z</time></trkpt><trkpt lat="30.4989717342" lon="35.5016205367"><ele>1247.93</ele><time>2015-11-24T09:58:41Z</time></trkpt><trkpt lat="30.4989354406" lon="35.5016031861"><ele>1244.56</ele><time>2015-11-24T09:58:43Z</time></trkpt><trkpt lat="30.4989206884" lon="35.5015932955"><ele>1244.56</ele><time>2015-11-24T09:58:44Z</time></trkpt><trkpt lat="30.4987291619" lon="35.5015120748"><ele>1246.49</ele><time>2015-11-24T09:58:53Z</time></trkpt><trkpt lat="30.4984055366" lon="35.5013995897"><ele>1248.41</ele><time>2015-11-24T09:59:06Z</time></trkpt><trkpt lat="30.4981823266" lon="35.5013227277"><ele>1247.45</ele><time>2015-11-24T09:59:13Z</time></trkpt><trkpt lat="30.4978732020" lon="35.5012210552"><ele>1250.33</ele><time>2015-11-24T09:59:26Z</time></trkpt><trkpt lat="30.4976732098" lon="35.5011322908"><ele>1251.29</ele><time>2015-11-24T09:59:35Z</time></trkpt><trkpt lat="30.4974905681" lon="35.5010572728"><ele>1254.66</ele><time>2015-11-24T09:59:44Z</time></trkpt><trkpt lat="30.4972256161" lon="35.5009634793"><ele>1252.74</ele><time>2015-11-24T09:59:58Z</time></trkpt><trkpt lat="30.4970030766" lon="35.5008571129"><ele>1256.58</ele><time>2015-11-24T10:00:11Z</time></trkpt><trkpt lat="30.4969874863" lon="35.5008523352"><ele>1256.58</ele><time>2015-11-24T10:00:12Z</time></trkpt><trkpt lat="30.4969534557" lon="35.5008489825"><ele>1255.14</ele><time>2015-11-24T10:00:14Z</time></trkpt><trkpt lat="30.4969224427" lon="35.5008347332"><ele>1253.70</ele><time>2015-11-24T10:00:16Z</time></trkpt><trkpt lat="30.4966689739" lon="35.5007385928"><ele>1255.62</ele><time>2015-11-24T10:00:31Z</time></trkpt><trkpt lat="30.4966304172" lon="35.5007230863"><ele>1256.58</ele><time>2015-11-24T10:00:33Z</time></trkpt><trkpt lat="30.4963677283" lon="35.5006348249"><ele>1255.14</ele><time>2015-11-24T10:00:45Z</time></trkpt><trkpt lat="30.4960667342" lon="35.5004792567"><ele>1258.50</ele><time>2015-11-24T10:01:00Z</time></trkpt><trkpt lat="30.4958667420" lon="35.5003086850"><ele>1258.02</ele><time>2015-11-24T10:01:11Z</time></trkpt><trkpt lat="30.4956499022" lon="35.5000823736"><ele>1258.50</ele><time>2015-11-24T10:01:25Z</time></trkpt><trkpt lat="30.4955063201" lon="35.4999746662"><ele>1259.46</ele><time>2015-11-24T10:01:33Z</time></trkpt><trkpt lat="30.4954232555" lon="35.4999217764"><ele>1259.94</ele><time>2015-11-24T10:01:40Z</time></trkpt><trkpt lat="30.4953660071" lon="35.4999281466"><ele>1259.46</ele><time>2015-11-24T10:01:44Z</time></trkpt><trkpt lat="30.4952838644" lon="35.4999259673"><ele>1261.39</ele><time>2015-11-24T10:01:55Z</time></trkpt><trkpt lat="30.4952786677" lon="35.4999296553"><ele>1259.94</ele><time>2015-11-24T10:01:57Z</time></trkpt><trkpt lat="30.4952597246" lon="35.4999413062"><ele>1258.98</ele><time>2015-11-24T10:01:59Z</time></trkpt><trkpt lat="30.4951360077" lon="35.4999741632"><ele>1258.50</ele><time>2015-11-24T10:02:07Z</time></trkpt><trkpt lat="30.4949454032" lon="35.5000325851"><ele>1258.02</ele><time>2015-11-24T10:02:16Z</time></trkpt><trkpt lat="30.4949139711" lon="35.5000544619"><ele>1256.10</ele><time>2015-11-24T10:02:18Z</time></trkpt><trkpt lat="30.4948836286" lon="35.5000817031"><ele>1256.10</ele><time>2015-11-24T10:02:20Z</time></trkpt><trkpt lat="30.4947941937" lon="35.5001815315"><ele>1256.10</ele><time>2015-11-24T10:02:26Z</time></trkpt><trkpt lat="30.4947281443" lon="35.5002804380"><ele>1254.18</ele><time>2015-11-24T10:02:29Z</time></trkpt><trkpt lat="30.4946481809" lon="35.5003905762"><ele>1251.29</ele><time>2015-11-24T10:02:35Z</time></trkpt><trkpt lat="30.4944617674" lon="35.5006261077"><ele>1248.89</ele><time>2015-11-24T10:02:47Z</time></trkpt><trkpt lat="30.4944175109" lon="35.5006865412"><ele>1247.45</ele><time>2015-11-24T10:02:50Z</time></trkpt><trkpt lat="30.4943641182" lon="35.5007555243"><ele>1244.56</ele><time>2015-11-24T10:02:53Z</time></trkpt><trkpt lat="30.4943010863" lon="35.5008461326"><ele>1243.12</ele><time>2015-11-24T10:02:57Z</time></trkpt><trkpt lat="30.4941729270" lon="35.5010527465"><ele>1239.28</ele><time>2015-11-24T10:03:05Z</time></trkpt><trkpt lat="30.4941229708" lon="35.5011068936"><ele>1236.39</ele><time>2015-11-24T10:03:10Z</time></trkpt><trkpt lat="30.4941247310" lon="35.5011034571"><ele>1236.39</ele><time>2015-11-24T10:03:11Z</time></trkpt><trkpt lat="30.4941204563" lon="35.5011005234"><ele>1237.83</ele><time>2015-11-24T10:03:39Z</time></trkpt><trkpt lat="30.4941225518" lon="35.5011006910"><ele>1237.83</ele><time>2015-11-24T10:04:05Z</time></trkpt><trkpt lat="30.4941235576" lon="35.5010959972"><ele>1238.32</ele><time>2015-11-24T10:04:37Z</time></trkpt><trkpt lat="30.4941202048" lon="35.5010983441"><ele>1238.32</ele><time>2015-11-24T10:05:08Z</time></trkpt><trkpt lat="30.4941388965" lon="35.5011081509"><ele>1237.83</ele><time>2015-11-24T10:05:25Z</time></trkpt><trkpt lat="30.4941232223" lon="35.5011241604"><ele>1238.32</ele><time>2015-11-24T10:05:46Z</time></trkpt><trkpt lat="30.4941213783" lon="35.5011272617"><ele>1238.32</ele><time>2015-11-24T10:05:47Z</time></trkpt><trkpt lat="30.4939727671" lon="35.5013731867"><ele>1234.47</ele><time>2015-11-24T10:05:58Z</time></trkpt><trkpt lat="30.4939254094" lon="35.5014435947"><ele>1233.51</ele><time>2015-11-24T10:06:00Z</time></trkpt><trkpt lat="30.4938406684" lon="35.5015796330"><ele>1231.11</ele><time>2015-11-24T10:06:04Z</time></trkpt><trkpt lat="30.4937124252" lon="35.5017899349"><ele>1227.74</ele><time>2015-11-24T10:06:10Z</time></trkpt><trkpt lat="30.4936036281" lon="35.5020982213"><ele>1224.86</ele><time>2015-11-24T10:06:21Z</time></trkpt><trkpt lat="30.4935375787" lon="35.5021660309"><ele>1223.42</ele><time>2015-11-24T10:06:24Z</time></trkpt><trkpt lat="30.4934623092" lon="35.5022548791"><ele>1221.97</ele><time>2015-11-24T10:06:27Z</time></trkpt><trkpt lat="30.4933737963" lon="35.5023774225"><ele>1220.53</ele><time>2015-11-24T10:06:30Z</time></trkpt><trkpt lat="30.4931293800" lon="35.5028463900"><ele>1220.05</ele><time>2015-11-24T10:06:42Z</time></trkpt><trkpt lat="30.4929689504" lon="35.5029291194"><ele>1219.57</ele><time>2015-11-24T10:06:53Z</time></trkpt><trkpt lat="30.4929617420" lon="35.5029309634"><ele>1218.61</ele><time>2015-11-24T10:07:15Z</time></trkpt><trkpt lat="30.4927990492" lon="35.5030272715"><ele>1216.21</ele><time>2015-11-24T10:07:29Z</time></trkpt><trkpt lat="30.4927698802" lon="35.5030438676"><ele>1216.21</ele><time>2015-11-24T10:07:30Z</time></trkpt><trkpt lat="30.4926103726" lon="35.5031393375"><ele>1214.76</ele><time>2015-11-24T10:07:35Z</time></trkpt><trkpt lat="30.4922902677" lon="35.5033914652"><ele>1214.28</ele><time>2015-11-24T10:07:48Z</time></trkpt><trkpt lat="30.4921155050" lon="35.5034575984"><ele>1211.40</ele><time>2015-11-24T10:07:54Z</time></trkpt><trkpt lat="30.4919692408" lon="35.5035020225"><ele>1208.03</ele><time>2015-11-24T10:07:58Z</time></trkpt><trkpt lat="30.4918040335" lon="35.5035587680"><ele>1206.59</ele><time>2015-11-24T10:08:02Z</time></trkpt><trkpt lat="30.4913141113" lon="35.5037058704"><ele>1203.23</ele><time>2015-11-24T10:08:15Z</time></trkpt><trkpt lat="30.4911707807" lon="35.5037789606"><ele>1202.75</ele><time>2015-11-24T10:08:22Z</time></trkpt><trkpt lat="30.4911215790" lon="35.5038213730"><ele>1199.38</ele><time>2015-11-24T10:08:29Z</time></trkpt><trkpt lat="30.4911176395" lon="35.5038239714"><ele>1202.75</ele><time>2015-11-24T10:08:31Z</time></trkpt><trkpt lat="30.4911173880" lon="35.5038207863"><ele>1202.27</ele><time>2015-11-24T10:08:32Z</time></trkpt><trkpt lat="30.4911103472" lon="35.5038227141"><ele>1198.42</ele><time>2015-11-24T10:08:35Z</time></trkpt><trkpt lat="30.4911039770" lon="35.5038261507"><ele>1201.79</ele><time>2015-11-24T10:08:36Z</time></trkpt><trkpt lat="30.4909417871" lon="35.5039045215"><ele>1198.90</ele><time>2015-11-24T10:08:43Z</time></trkpt><trkpt lat="30.4909034818" lon="35.5039482750"><ele>1197.46</ele><time>2015-11-24T10:08:45Z</time></trkpt><trkpt lat="30.4906554613" lon="35.5041290727"><ele>1197.46</ele><time>2015-11-24T10:08:57Z</time></trkpt><trkpt lat="30.4904613364" lon="35.5043425597"><ele>1196.02</ele><time>2015-11-24T10:09:10Z</time></trkpt><trkpt lat="30.4904160742" lon="35.5046168994"><ele>1196.98</ele><time>2015-11-24T10:09:23Z</time></trkpt><trkpt lat="30.4904180020" lon="35.5046899896"><ele>1198.90</ele><time>2015-11-24T10:09:27Z</time></trkpt><trkpt lat="30.4903984722" lon="35.5047562905"><ele>1199.38</ele><time>2015-11-24T10:09:31Z</time></trkpt><trkpt lat="30.4903517850" lon="35.5049186479"><ele>1200.34</ele><time>2015-11-24T10:09:44Z</time></trkpt><trkpt lat="30.4903231189" lon="35.5050251819"><ele>1202.27</ele><time>2015-11-24T10:09:58Z</time></trkpt><trkpt lat="30.4903409723" lon="35.5050919857"><ele>1202.75</ele><time>2015-11-24T10:10:11Z</time></trkpt><trkpt lat="30.4902977217" lon="35.5050869565"><ele>1202.27</ele><time>2015-11-24T10:10:47Z</time></trkpt><trkpt lat="30.4903121386" lon="35.5050958414"><ele>1202.75</ele><time>2015-11-24T10:11:27Z</time></trkpt><trkpt lat="30.4903304949" lon="35.5050867889"><ele>1201.79</ele><time>2015-11-24T10:12:14Z</time></trkpt><trkpt lat="30.4903087020" lon="35.5050981045"><ele>1201.30</ele><time>2015-11-24T10:12:35Z</time></trkpt><trkpt lat="30.4903166648" lon="35.5051071569"><ele>1198.90</ele><time>2015-11-24T10:13:09Z</time></trkpt><trkpt lat="30.4903142340" lon="35.5051054806"><ele>1200.34</ele><time>2015-11-24T10:13:11Z</time></trkpt><trkpt lat="30.4902947042" lon="35.5051064864"><ele>1201.79</ele><time>2015-11-24T10:13:42Z</time></trkpt><trkpt lat="30.4903168324" lon="35.5050913151"><ele>1200.82</ele><time>2015-11-24T10:14:07Z</time></trkpt><trkpt lat="30.4903286509" lon="35.5051087495"><ele>1200.34</ele><time>2015-11-24T10:14:46Z</time></trkpt><trkpt lat="30.4903465882" lon="35.5051030498"><ele>1199.86</ele><time>2015-11-24T10:15:13Z</time></trkpt><trkpt lat="30.4903475102" lon="35.5051026307"><ele>1199.86</ele><time>2015-11-24T10:15:18Z</time></trkpt><trkpt lat="30.4903519526" lon="35.5050963443"><ele>1200.34</ele><time>2015-11-24T10:15:32Z</time></trkpt><trkpt lat="30.4903357755" lon="35.5050897226"><ele>1196.98</ele><time>2015-11-24T10:15:57Z</time></trkpt><trkpt lat="30.4903376196" lon="35.5050919019"><ele>1198.42</ele><time>2015-11-24T10:16:00Z</time></trkpt><trkpt lat="30.4903331771" lon="35.5051038880"><ele>1197.94</ele><time>2015-11-24T10:16:10Z</time></trkpt><trkpt lat="30.4903310817" lon="35.5051063187"><ele>1199.86</ele><time>2015-11-24T10:16:12Z</time></trkpt><trkpt lat="30.4903247114" lon="35.5050946679"><ele>1200.82</ele><time>2015-11-24T10:16:24Z</time></trkpt><trkpt lat="30.4903351888" lon="35.5051043071"><ele>1197.46</ele><time>2015-11-24T10:16:40Z</time></trkpt><trkpt lat="30.4903364461" lon="35.5051052291"><ele>1197.46</ele><time>2015-11-24T10:16:41Z</time></trkpt><trkpt lat="30.4903341830" lon="35.5051062349"><ele>1200.34</ele><time>2015-11-24T10:16:47Z</time></trkpt><trkpt lat="30.4903326742" lon="35.5050949194"><ele>1201.30</ele><time>2015-11-24T10:17:26Z</time></trkpt><trkpt lat="30.4903276451" lon="35.5051106773"><ele>1200.82</ele><time>2015-11-24T10:18:02Z</time></trkpt><trkpt lat="30.4903131444" lon="35.5051024631"><ele>1200.34</ele><time>2015-11-24T10:18:36Z</time></trkpt><trkpt lat="30.4903019127" lon="35.5051039718"><ele>1196.98</ele><time>2015-11-24T10:19:07Z</time></trkpt><trkpt lat="30.4902952909" lon="35.5051074084"><ele>1200.34</ele><time>2015-11-24T10:19:12Z</time></trkpt><trkpt lat="30.4902874958" lon="35.5050990265"><ele>1197.94</ele><time>2015-11-24T10:19:35Z</time></trkpt><trkpt lat="30.4902772699" lon="35.5051081628"><ele>1199.38</ele><time>2015-11-24T10:19:46Z</time></trkpt><trkpt lat="30.4903056007" lon="35.5051039718"><ele>1198.42</ele><time>2015-11-24T10:20:07Z</time></trkpt><trkpt lat="30.4902972188" lon="35.5051025469"><ele>1197.94</ele><time>2015-11-24T10:20:25Z</time></trkpt><trkpt lat="30.4902861547" lon="35.5051068217"><ele>1197.94</ele><time>2015-11-24T10:20:35Z</time></trkpt><trkpt lat="30.4902865738" lon="35.5051062349"><ele>1198.90</ele><time>2015-11-24T10:20:38Z</time></trkpt><trkpt lat="30.4902924411" lon="35.5051020440"><ele>1199.86</ele><time>2015-11-24T10:20:47Z</time></trkpt><trkpt lat="30.4902792815" lon="35.5050950032"><ele>1196.98</ele><time>2015-11-24T10:21:02Z</time></trkpt><trkpt lat="30.4902643617" lon="35.5050916504"><ele>1198.42</ele><time>2015-11-24T10:21:12Z</time></trkpt><trkpt lat="30.4902807903" lon="35.5050813407"><ele>1198.90</ele><time>2015-11-24T10:21:47Z</time></trkpt><trkpt lat="30.4902782757" lon="35.5050897226"><ele>1198.42</ele><time>2015-11-24T10:22:12Z</time></trkpt><trkpt lat="30.4902665410" lon="35.5051003676"><ele>1198.42</ele><time>2015-11-24T10:22:37Z</time></trkpt><trkpt lat="30.4902646970" lon="35.5050938297"><ele>1198.90</ele><time>2015-11-24T10:23:08Z</time></trkpt><trkpt lat="30.4902658705" lon="35.5050928239"><ele>1199.38</ele><time>2015-11-24T10:23:57Z</time></trkpt><trkpt lat="30.4902736656" lon="35.5050898902"><ele>1199.38</ele><time>2015-11-24T10:24:19Z</time></trkpt><trkpt lat="30.4902702291" lon="35.5050963443"><ele>1197.94</ele><time>2015-11-24T10:24:38Z</time></trkpt><trkpt lat="30.4902695585" lon="35.5050947517"><ele>1199.38</ele><time>2015-11-24T10:24:43Z</time></trkpt><trkpt lat="30.4902692232" lon="35.5050966796"><ele>1196.98</ele><time>2015-11-24T10:25:14Z</time></trkpt><trkpt lat="30.4902493581" lon="35.5051065702"><ele>1198.90</ele><time>2015-11-24T10:25:54Z</time></trkpt><trkpt lat="30.4902552254" lon="35.5050924048"><ele>1199.38</ele><time>2015-11-24T10:26:28Z</time></trkpt><trkpt lat="30.4902538005" lon="35.5050965957"><ele>1198.42</ele><time>2015-11-24T10:26:59Z</time></trkpt><trkpt lat="30.4902570695" lon="35.5050968472"><ele>1199.38</ele><time>2015-11-24T10:27:31Z</time></trkpt><trkpt lat="30.4902775213" lon="35.5050900578"><ele>1197.94</ele><time>2015-11-24T10:28:07Z</time></trkpt><trkpt lat="30.4902691394" lon="35.5050908122"><ele>1199.38</ele><time>2015-11-24T10:28:37Z</time></trkpt><trkpt lat="30.4902782757" lon="35.5050896388"><ele>1196.50</ele><time>2015-11-24T10:29:04Z</time></trkpt><trkpt lat="30.4902641941" lon="35.5050797481"><ele>1197.46</ele><time>2015-11-24T10:29:42Z</time></trkpt><trkpt lat="30.4902781080" lon="35.5050873756"><ele>1198.90</ele><time>2015-11-24T10:29:56Z</time></trkpt><trkpt lat="30.4902921896" lon="35.5050770659"><ele>1197.46</ele><time>2015-11-24T10:30:30Z</time></trkpt><trkpt lat="30.4902794491" lon="35.5050873756"><ele>1197.94</ele><time>2015-11-24T10:31:03Z</time></trkpt><trkpt lat="30.4902557284" lon="35.5050877109"><ele>1198.42</ele><time>2015-11-24T10:31:42Z</time></trkpt><trkpt lat="30.4902675468" lon="35.5050801672"><ele>1197.94</ele><time>2015-11-24T10:32:16Z</time></trkpt><trkpt lat="30.4902548064" lon="35.5050723720"><ele>1198.90</ele><time>2015-11-24T10:32:34Z</time></trkpt><trkpt lat="30.4902843107" lon="35.5050763953"><ele>1198.90</ele><time>2015-11-24T10:33:12Z</time></trkpt><trkpt lat="30.4902687203" lon="35.5050753057"><ele>1196.98</ele><time>2015-11-24T10:33:20Z</time></trkpt><trkpt lat="30.4902717378" lon="35.5050742999"><ele>1197.46</ele><time>2015-11-24T10:33:32Z</time></trkpt><trkpt lat="30.4903022479" lon="35.5050702766"><ele>1197.94</ele><time>2015-11-24T10:33:47Z</time></trkpt><trkpt lat="30.4903332610" lon="35.5050789099"><ele>1198.42</ele><time>2015-11-24T10:34:00Z</time></trkpt><trkpt lat="30.4903496057" lon="35.5051261000"><ele>1197.46</ele><time>2015-11-24T10:34:37Z</time></trkpt><trkpt lat="30.4903500248" lon="35.5051210709"><ele>1197.46</ele><time>2015-11-24T10:35:09Z</time></trkpt><trkpt lat="30.4903484322" lon="35.5051122699"><ele>1197.46</ele><time>2015-11-24T10:35:44Z</time></trkpt><trkpt lat="30.4903531261" lon="35.5051345658"><ele>1196.02</ele><time>2015-11-24T10:36:13Z</time></trkpt><trkpt lat="30.4903347697" lon="35.5051279441"><ele>1196.50</ele><time>2015-11-24T10:36:53Z</time></trkpt><trkpt lat="30.4903306626" lon="35.5051484797"><ele>1196.98</ele><time>2015-11-24T10:37:13Z</time></trkpt><trkpt lat="30.4903716501" lon="35.5051481444"><ele>1196.50</ele><time>2015-11-24T10:37:54Z</time></trkpt><trkpt lat="30.4903769307" lon="35.5051496532"><ele>1196.50</ele><time>2015-11-24T10:38:26Z</time></trkpt><trkpt lat="30.4903368652" lon="35.5051532574"><ele>1196.98</ele><time>2015-11-24T10:39:00Z</time></trkpt><trkpt lat="30.4903546348" lon="35.5051473062"><ele>1197.46</ele><time>2015-11-24T10:39:43Z</time></trkpt><trkpt lat="30.4903335124" lon="35.5051497370"><ele>1196.02</ele><time>2015-11-24T10:39:54Z</time></trkpt><trkpt lat="30.4903874081" lon="35.5051393434"><ele>1196.98</ele><time>2015-11-24T10:40:32Z</time></trkpt><trkpt lat="30.4903635196" lon="35.5051247589"><ele>1197.94</ele><time>2015-11-24T10:41:12Z</time></trkpt><trkpt lat="30.4903508630" lon="35.5051223282"><ele>1196.50</ele><time>2015-11-24T10:41:27Z</time></trkpt><trkpt lat="30.4903667886" lon="35.5050877947"><ele>1196.02</ele><time>2015-11-24T10:42:00Z</time></trkpt><trkpt lat="30.4904079437" lon="35.5050832685"><ele>1196.50</ele><time>2015-11-24T10:42:22Z</time></trkpt><trkpt lat="30.4904034175" lon="35.5050792452"><ele>1197.46</ele><time>2015-11-24T10:42:27Z</time></trkpt><trkpt lat="30.4904148169" lon="35.5050850287"><ele>1196.98</ele><time>2015-11-24T10:42:56Z</time></trkpt><trkpt lat="30.4903827980" lon="35.5050850287"><ele>1196.50</ele><time>2015-11-24T10:43:28Z</time></trkpt><trkpt lat="30.4903781880" lon="35.5050811730"><ele>1196.50</ele><time>2015-11-24T10:43:57Z</time></trkpt><trkpt lat="30.4903879110" lon="35.5050939973"><ele>1196.02</ele><time>2015-11-24T10:44:18Z</time></trkpt><trkpt lat="30.4903568979" lon="35.5051005352"><ele>1197.46</ele><time>2015-11-24T10:44:48Z</time></trkpt><trkpt lat="30.4903401341" lon="35.5051097553"><ele>1198.90</ele><time>2015-11-24T10:45:36Z</time></trkpt><trkpt lat="30.4903654475" lon="35.5050727911"><ele>1197.46</ele><time>2015-11-24T10:46:27Z</time></trkpt><trkpt lat="30.4903729074" lon="35.5050797481"><ele>1197.46</ele><time>2015-11-24T10:47:07Z</time></trkpt><trkpt lat="30.4903656989" lon="35.5050756410"><ele>1197.94</ele><time>2015-11-24T10:47:43Z</time></trkpt><trkpt lat="30.4903636873" lon="35.5050884653"><ele>1197.46</ele><time>2015-11-24T10:48:33Z</time></trkpt><trkpt lat="30.4903612565" lon="35.5050921533"><ele>1197.46</ele><time>2015-11-24T10:49:13Z</time></trkpt><trkpt lat="30.4903635196" lon="35.5050866213"><ele>1196.98</ele><time>2015-11-24T10:49:57Z</time></trkpt><trkpt lat="30.4903785232" lon="35.5050976016"><ele>1196.02</ele><time>2015-11-24T10:50:33Z</time></trkpt><trkpt lat="30.4903821275" lon="35.5050960928"><ele>1197.46</ele><time>2015-11-24T10:50:35Z</time></trkpt><trkpt lat="30.4904086143" lon="35.5050903093"><ele>1197.46</ele><time>2015-11-24T10:51:07Z</time></trkpt><trkpt lat="30.4904016573" lon="35.5051042233"><ele>1197.94</ele><time>2015-11-24T10:51:49Z</time></trkpt><trkpt lat="30.4903965443" lon="35.5050929077"><ele>1197.46</ele><time>2015-11-24T10:52:27Z</time></trkpt><trkpt lat="30.4904024117" lon="35.5050899740"><ele>1197.94</ele><time>2015-11-24T10:52:59Z</time></trkpt><trkpt lat="30.4904021602" lon="35.5050904769"><ele>1196.02</ele><time>2015-11-24T10:53:03Z</time></trkpt><trkpt lat="30.4904027469" lon="35.5050880462"><ele>1197.46</ele><time>2015-11-24T10:53:05Z</time></trkpt><trkpt lat="30.4903908446" lon="35.5050644930"><ele>1196.98</ele><time>2015-11-24T10:53:48Z</time></trkpt><trkpt lat="30.4903616756" lon="35.5050377548"><ele>1197.94</ele><time>2015-11-24T10:54:23Z</time></trkpt><trkpt lat="30.4903548863" lon="35.5050542671"><ele>1198.42</ele><time>2015-11-24T10:55:07Z</time></trkpt><trkpt lat="30.4903363623" lon="35.5050474778"><ele>1196.02</ele><time>2015-11-24T10:55:13Z</time></trkpt><trkpt lat="30.4903333448" lon="35.5050467234"><ele>1197.46</ele><time>2015-11-24T10:55:15Z</time></trkpt><trkpt lat="30.4903245438" lon="35.5050668400"><ele>1198.42</ele><time>2015-11-24T10:55:57Z</time></trkpt><trkpt lat="30.4903357755" lon="35.5050362460"><ele>1198.42</ele><time>2015-11-24T10:56:45Z</time></trkpt><trkpt lat="30.4903460015" lon="35.5050298758"><ele>1198.90</ele><time>2015-11-24T10:57:04Z</time></trkpt><trkpt lat="30.4903568979" lon="35.5050458014"><ele>1199.38</ele><time>2015-11-24T10:57:25Z</time></trkpt><trkpt lat="30.4903464206" lon="35.5050375871"><ele>1199.38</ele><time>2015-11-24T10:57:49Z</time></trkpt><trkpt lat="30.4903801158" lon="35.5050677620"><ele>1197.94</ele><time>2015-11-24T10:58:04Z</time></trkpt><trkpt lat="30.4903671239" lon="35.5050285347"><ele>1199.86</ele><time>2015-11-24T10:58:31Z</time></trkpt><trkpt lat="30.4903588258" lon="35.5050085858"><ele>1199.86</ele><time>2015-11-24T10:58:43Z</time></trkpt><trkpt lat="30.4903610051" lon="35.5049977731"><ele>1199.86</ele><time>2015-11-24T10:59:05Z</time></trkpt><trkpt lat="30.4903629329" lon="35.5049583782"><ele>1198.90</ele><time>2015-11-24T10:59:27Z</time></trkpt><trkpt lat="30.4904673714" lon="35.5047702882"><ele>1196.50</ele><time>2015-11-24T10:59:39Z</time></trkpt><trkpt lat="30.4905219376" lon="35.5044751614"><ele>1193.13</ele><time>2015-11-24T10:59:48Z</time></trkpt><trkpt lat="30.4905304033" lon="35.5044288933"><ele>1192.65</ele><time>2015-11-24T10:59:49Z</time></trkpt><trkpt lat="30.4905915074" lon="35.5042248778"><ele>1191.69</ele><time>2015-11-24T10:59:59Z</time></trkpt><trkpt lat="30.4906138033" lon="35.5041543860"><ele>1192.17</ele><time>2015-11-24T11:00:11Z</time></trkpt><trkpt lat="30.4905823711" lon="35.5041359458"><ele>1191.69</ele><time>2015-11-24T11:00:21Z</time></trkpt><trkpt lat="30.4905336723" lon="35.5041105486"><ele>1190.25</ele><time>2015-11-24T11:00:25Z</time></trkpt><trkpt lat="30.4903459176" lon="35.5040080380"><ele>1188.33</ele><time>2015-11-24T11:00:37Z</time></trkpt><trkpt lat="30.4901364539" lon="35.5038319342"><ele>1191.69</ele><time>2015-11-24T11:00:54Z</time></trkpt><trkpt lat="30.4899853282" lon="35.5037093069"><ele>1195.06</ele><time>2015-11-24T11:01:07Z</time></trkpt><trkpt lat="30.4898580909" lon="35.5035750289"><ele>1199.38</ele><time>2015-11-24T11:01:21Z</time></trkpt><trkpt lat="30.4898482841" lon="35.5035661440"><ele>1198.90</ele><time>2015-11-24T11:01:22Z</time></trkpt><trkpt lat="30.4897837434" lon="35.5035073869"><ele>1201.79</ele><time>2015-11-24T11:01:29Z</time></trkpt><trkpt lat="30.4896852560" lon="35.5034092348"><ele>1203.71</ele><time>2015-11-24T11:01:41Z</time></trkpt><trkpt lat="30.4896800593" lon="35.5033975001"><ele>1203.71</ele><time>2015-11-24T11:01:42Z</time></trkpt><trkpt lat="30.4896368925" lon="35.5033498071"><ele>1205.15</ele><time>2015-11-24T11:01:47Z</time></trkpt><trkpt lat="30.4895758722" lon="35.5032798182"><ele>1209.48</ele><time>2015-11-24T11:01:54Z</time></trkpt><trkpt lat="30.4895669874" lon="35.5032731965"><ele>1209.48</ele><time>2015-11-24T11:01:55Z</time></trkpt><trkpt lat="30.4895304423" lon="35.5032485537"><ele>1208.03</ele><time>2015-11-24T11:01:59Z</time></trkpt><trkpt lat="30.4894578550" lon="35.5031814985"><ele>1209.00</ele><time>2015-11-24T11:02:07Z</time></trkpt><trkpt lat="30.4894494731" lon="35.5031720269"><ele>1209.96</ele><time>2015-11-24T11:02:08Z</time></trkpt><trkpt lat="30.4893887881" lon="35.5031364039"><ele>1210.92</ele><time>2015-11-24T11:02:14Z</time></trkpt><trkpt lat="30.4892433621" lon="35.5030360725"><ele>1210.92</ele><time>2015-11-24T11:02:27Z</time></trkpt><trkpt lat="30.4892073199" lon="35.5029983539"><ele>1210.92</ele><time>2015-11-24T11:02:31Z</time></trkpt><trkpt lat="30.4890849441" lon="35.5028961785"><ele>1213.80</ele><time>2015-11-24T11:02:43Z</time></trkpt><trkpt lat="30.4890300427" lon="35.5028612260"><ele>1211.88</ele><time>2015-11-24T11:02:48Z</time></trkpt><trkpt lat="30.4888605606" lon="35.5027568713"><ele>1213.32</ele><time>2015-11-24T11:03:03Z</time></trkpt><trkpt lat="30.4887867998" lon="35.5027136207"><ele>1213.32</ele><time>2015-11-24T11:03:09Z</time></trkpt><trkpt lat="30.4885750730" lon="35.5025881436"><ele>1216.21</ele><time>2015-11-24T11:03:26Z</time></trkpt><trkpt lat="30.4885522742" lon="35.5025721341"><ele>1216.21</ele><time>2015-11-24T11:03:28Z</time></trkpt><trkpt lat="30.4884791840" lon="35.5025210045"><ele>1216.69</ele><time>2015-11-24T11:03:35Z</time></trkpt><trkpt lat="30.4884506017" lon="35.5024922546"><ele>1218.13</ele><time>2015-11-24T11:03:38Z</time></trkpt><trkpt lat="30.4884039145" lon="35.5024386942"><ele>1218.13</ele><time>2015-11-24T11:03:43Z</time></trkpt><trkpt lat="30.4882477596" lon="35.5022920109"><ele>1221.01</ele><time>2015-11-24T11:03:58Z</time></trkpt><trkpt lat="30.4880935326" lon="35.5021276418"><ele>1222.45</ele><time>2015-11-24T11:04:15Z</time></trkpt><trkpt lat="30.4880569875" lon="35.5020879116"><ele>1222.93</ele><time>2015-11-24T11:04:19Z</time></trkpt><trkpt lat="30.4879290797" lon="35.5019543879"><ele>1225.34</ele><time>2015-11-24T11:04:34Z</time></trkpt><trkpt lat="30.4878066201" lon="35.5018135719"><ele>1227.74</ele><time>2015-11-24T11:04:47Z</time></trkpt><trkpt lat="30.4876748566" lon="35.5016732588"><ele>1230.62</ele><time>2015-11-24T11:05:01Z</time></trkpt><trkpt lat="30.4876568355" lon="35.5016350374"><ele>1230.62</ele><time>2015-11-24T11:05:04Z</time></trkpt><trkpt lat="30.4875821527" lon="35.5015325267"><ele>1231.11</ele><time>2015-11-24T11:05:13Z</time></trkpt><trkpt lat="30.4875022732" lon="35.5014359672"><ele>1232.55</ele><time>2015-11-24T11:05:21Z</time></trkpt><trkpt lat="30.4873692524" lon="35.5012976658"><ele>1234.47</ele><time>2015-11-24T11:05:35Z</time></trkpt><trkpt lat="30.4873392452" lon="35.5012624618"><ele>1234.47</ele><time>2015-11-24T11:05:39Z</time></trkpt><trkpt lat="30.4871391691" lon="35.5011153594"><ele>1237.35</ele><time>2015-11-24T11:05:58Z</time></trkpt><trkpt lat="30.4869517498" lon="35.5009902176"><ele>1239.28</ele><time>2015-11-24T11:06:13Z</time></trkpt><trkpt lat="30.4867340717" lon="35.5008975975"><ele>1241.20</ele><time>2015-11-24T11:06:29Z</time></trkpt><trkpt lat="30.4865174834" lon="35.5008245073"><ele>1241.20</ele><time>2015-11-24T11:06:45Z</time></trkpt><trkpt lat="30.4865065869" lon="35.5008180533"><ele>1241.20</ele><time>2015-11-24T11:06:46Z</time></trkpt><trkpt lat="30.4863914195" lon="35.5008106772"><ele>1242.16</ele><time>2015-11-24T11:06:55Z</time></trkpt><trkpt lat="30.4863539524" lon="35.5008046422"><ele>1243.12</ele><time>2015-11-24T11:06:58Z</time></trkpt><trkpt lat="30.4862645175" lon="35.5007824302"><ele>1243.60</ele><time>2015-11-24T11:07:05Z</time></trkpt><trkpt lat="30.4860741645" lon="35.5006806739"><ele>1246.97</ele><time>2015-11-24T11:07:20Z</time></trkpt><trkpt lat="30.4859052692" lon="35.5005713739"><ele>1250.33</ele><time>2015-11-24T11:07:33Z</time></trkpt><trkpt lat="30.4857260641" lon="35.5004671030"><ele>1252.74</ele><time>2015-11-24T11:07:48Z</time></trkpt><trkpt lat="30.4856604338" lon="35.5004133750"><ele>1253.70</ele><time>2015-11-24T11:07:54Z</time></trkpt><trkpt lat="30.4855919536" lon="35.5003661010"><ele>1255.14</ele><time>2015-11-24T11:08:00Z</time></trkpt><trkpt lat="30.4855022673" lon="35.5002932623"><ele>1255.62</ele><time>2015-11-24T11:08:08Z</time></trkpt><trkpt lat="30.4853280913" lon="35.5001348443"><ele>1257.54</ele><time>2015-11-24T11:08:24Z</time></trkpt><trkpt lat="30.4851253331" lon="35.4999663681"><ele>1260.43</ele><time>2015-11-24T11:08:40Z</time></trkpt><trkpt lat="30.4849467147" lon="35.4998318385"><ele>1261.87</ele><time>2015-11-24T11:08:55Z</time></trkpt><trkpt lat="30.4848737922" lon="35.4997892585"><ele>1263.31</ele><time>2015-11-24T11:09:01Z</time></trkpt><trkpt lat="30.4846377578" lon="35.4996675532"><ele>1264.75</ele><time>2015-11-24T11:09:18Z</time></trkpt><trkpt lat="30.4844725505" lon="35.4995879252"><ele>1267.64</ele><time>2015-11-24T11:09:31Z</time></trkpt><trkpt lat="30.4842392821" lon="35.4994907789"><ele>1270.04</ele><time>2015-11-24T11:09:49Z</time></trkpt><trkpt lat="30.4840368591" lon="35.4994000867"><ele>1272.92</ele><time>2015-11-24T11:10:05Z</time></trkpt><trkpt lat="30.4839474242" lon="35.4993660562"><ele>1272.92</ele><time>2015-11-24T11:10:12Z</time></trkpt><trkpt lat="30.4837982263" lon="35.4993359651"><ele>1274.36</ele><time>2015-11-24T11:10:22Z</time></trkpt><trkpt lat="30.4837208614" lon="35.4993331991"><ele>1275.81</ele><time>2015-11-24T11:10:27Z</time></trkpt><trkpt lat="30.4836473521" lon="35.4993380606"><ele>1273.88</ele><time>2015-11-24T11:10:31Z</time></trkpt><trkpt lat="30.4832446855" lon="35.4994207062"><ele>1274.36</ele><time>2015-11-24T11:10:44Z</time></trkpt><trkpt lat="30.4830270074" lon="35.4993241467"><ele>1276.77</ele><time>2015-11-24T11:10:55Z</time></trkpt><trkpt lat="30.4827773944" lon="35.4992287606"><ele>1278.69</ele><time>2015-11-24T11:11:13Z</time></trkpt><trkpt lat="30.4826841038" lon="35.4991867673"><ele>1279.17</ele><time>2015-11-24T11:11:20Z</time></trkpt><trkpt lat="30.4826076608" lon="35.4991511442"><ele>1281.57</ele><time>2015-11-24T11:11:26Z</time></trkpt><trkpt lat="30.4825348221" lon="35.4991155211"><ele>1282.06</ele><time>2015-11-24T11:11:32Z</time></trkpt><trkpt lat="30.4824305512" lon="35.4990976676"><ele>1280.61</ele><time>2015-11-24T11:11:39Z</time></trkpt><trkpt lat="30.4823879711" lon="35.4990970809"><ele>1282.06</ele><time>2015-11-24T11:11:42Z</time></trkpt><trkpt lat="30.4823153000" lon="35.4990832508"><ele>1281.09</ele><time>2015-11-24T11:11:46Z</time></trkpt><trkpt lat="30.4822339956" lon="35.4990752041"><ele>1281.09</ele><time>2015-11-24T11:11:51Z</time></trkpt><trkpt lat="30.4822924174" lon="35.4989086557"><ele>1279.65</ele><time>2015-11-24T11:11:57Z</time></trkpt><trkpt lat="30.4823950958" lon="35.4987234995"><ele>1280.13</ele><time>2015-11-24T11:12:07Z</time></trkpt><trkpt lat="30.4824274499" lon="35.4987156205"><ele>1281.57</ele><time>2015-11-24T11:12:33Z</time></trkpt><trkpt lat="30.4824287910" lon="35.4987101723"><ele>1282.06</ele><time>2015-11-24T11:12:35Z</time></trkpt><trkpt lat="30.4824260250" lon="35.4987084121"><ele>1280.13</ele><time>2015-11-24T11:13:07Z</time></trkpt><trkpt lat="30.4824209958" lon="35.4987017065"><ele>1279.65</ele><time>2015-11-24T11:13:36Z</time></trkpt><trkpt lat="30.4824211635" lon="35.4987048078"><ele>1278.21</ele><time>2015-11-24T11:14:07Z</time></trkpt><trkpt lat="30.4824251030" lon="35.4987115134"><ele>1277.73</ele><time>2015-11-24T11:14:37Z</time></trkpt><trkpt lat="30.4824370891" lon="35.4987136088"><ele>1278.69</ele><time>2015-11-24T11:15:09Z</time></trkpt><trkpt lat="30.4824245162" lon="35.4987450410"><ele>1279.17</ele><time>2015-11-24T11:15:14Z</time></trkpt><trkpt lat="30.4823844507" lon="35.4987846036"><ele>1278.69</ele><time>2015-11-24T11:15:18Z</time></trkpt><trkpt lat="30.4823149648" lon="35.4988910537"><ele>1278.69</ele><time>2015-11-24T11:15:25Z</time></trkpt><trkpt lat="30.4822878074" lon="35.4989665747"><ele>1280.13</ele><time>2015-11-24T11:15:31Z</time></trkpt><trkpt lat="30.4822367616" lon="35.4990279302"><ele>1280.61</ele><time>2015-11-24T11:15:38Z</time></trkpt><trkpt lat="30.4822101071" lon="35.4990423471"><ele>1281.57</ele><time>2015-11-24T11:15:40Z</time></trkpt><trkpt lat="30.4820957780" lon="35.4990584403"><ele>1282.06</ele><time>2015-11-24T11:15:46Z</time></trkpt><trkpt lat="30.4816219490" lon="35.4991582688"><ele>1281.57</ele><time>2015-11-24T11:16:01Z</time></trkpt><trkpt lat="30.4814426601" lon="35.4992545769"><ele>1280.13</ele><time>2015-11-24T11:16:07Z</time></trkpt><trkpt lat="30.4811852518" lon="35.4994691536"><ele>1280.13</ele><time>2015-11-24T11:16:16Z</time></trkpt><trkpt lat="30.4810820706" lon="35.4996381328"><ele>1278.69</ele><time>2015-11-24T11:16:20Z</time></trkpt><trkpt lat="30.4809849244" lon="35.4997925274"><ele>1276.77</ele><time>2015-11-24T11:16:23Z</time></trkpt><trkpt lat="30.4808537476" lon="35.5000413861"><ele>1275.33</ele><time>2015-11-24T11:16:27Z</time></trkpt><trkpt lat="30.4804834351" lon="35.5002467427"><ele>1275.33</ele><time>2015-11-24T11:16:35Z</time></trkpt><trkpt lat="30.4799694568" lon="35.5004708748"><ele>1278.69</ele><time>2015-11-24T11:16:49Z</time></trkpt><trkpt lat="30.4796812031" lon="35.5007965956"><ele>1278.69</ele><time>2015-11-24T11:17:03Z</time></trkpt><trkpt lat="30.4794298299" lon="35.5011947360"><ele>1278.69</ele><time>2015-11-24T11:17:15Z</time></trkpt><trkpt lat="30.4791911133" lon="35.5014549103"><ele>1280.61</ele><time>2015-11-24T11:17:28Z</time></trkpt><trkpt lat="30.4789763689" lon="35.5017374642"><ele>1282.06</ele><time>2015-11-24T11:17:45Z</time></trkpt><trkpt lat="30.4787700064" lon="35.5019709002"><ele>1284.46</ele><time>2015-11-24T11:18:00Z</time></trkpt><trkpt lat="30.4785602074" lon="35.5021084473"><ele>1286.86</ele><time>2015-11-24T11:18:13Z</time></trkpt><trkpt lat="30.4785146937" lon="35.5021414720"><ele>1287.82</ele><time>2015-11-24T11:18:16Z</time></trkpt><trkpt lat="30.4782566987" lon="35.5022789352"><ele>1291.19</ele><time>2015-11-24T11:18:32Z</time></trkpt><trkpt lat="30.4779744800" lon="35.5024148058"><ele>1294.07</ele><time>2015-11-24T11:18:49Z</time></trkpt><trkpt lat="30.4778345022" lon="35.5024754908"><ele>1297.44</ele><time>2015-11-24T11:18:57Z</time></trkpt><trkpt lat="30.4775338434" lon="35.5025711283"><ele>1299.36</ele><time>2015-11-24T11:19:13Z</time></trkpt><trkpt lat="30.4771418218" lon="35.5028228369"><ele>1296.48</ele><time>2015-11-24T11:19:25Z</time></trkpt><trkpt lat="30.4770971462" lon="35.5028586276"><ele>1295.99</ele><time>2015-11-24T11:19:26Z</time></trkpt><trkpt lat="30.4769994132" lon="35.5029214919"><ele>1295.03</ele><time>2015-11-24T11:19:28Z</time></trkpt><trkpt lat="30.4765588604" lon="35.5030935723"><ele>1290.23</ele><time>2015-11-24T11:19:35Z</time></trkpt><trkpt lat="30.4764079023" lon="35.5031704344"><ele>1287.82</ele><time>2015-11-24T11:19:37Z</time></trkpt><trkpt lat="30.4758216720" lon="35.5032250844"><ele>1286.38</ele><time>2015-11-24T11:19:44Z</time></trkpt><trkpt lat="30.4755815305" lon="35.5030311272"><ele>1283.98</ele><time>2015-11-24T11:19:49Z</time></trkpt><trkpt lat="30.4755992163" lon="35.5029180553"><ele>1283.98</ele><time>2015-11-24T11:19:51Z</time></trkpt><trkpt lat="30.4756641760" lon="35.5026147980"><ele>1287.82</ele><time>2015-11-24T11:20:01Z</time></trkpt><trkpt lat="30.4756715521" lon="35.5025584716"><ele>1287.82</ele><time>2015-11-24T11:20:13Z</time></trkpt><trkpt lat="30.4756590631" lon="35.5025593098"><ele>1291.19</ele><time>2015-11-24T11:20:28Z</time></trkpt><trkpt lat="30.4756521899" lon="35.5025515985"><ele>1288.78</ele><time>2015-11-24T11:21:07Z</time></trkpt><trkpt lat="30.4756552912" lon="35.5025417078"><ele>1289.27</ele><time>2015-11-24T11:21:20Z</time></trkpt><trkpt lat="30.4756624997" lon="35.5025500897"><ele>1289.75</ele><time>2015-11-24T11:22:08Z</time></trkpt><trkpt lat="30.4756684508" lon="35.5025397800"><ele>1289.75</ele><time>2015-11-24T11:22:23Z</time></trkpt><trkpt lat="30.4757418763" lon="35.5022861436"><ele>1288.30</ele><time>2015-11-24T11:22:35Z</time></trkpt><trkpt lat="30.4758283775" lon="35.5018474348"><ele>1288.78</ele><time>2015-11-24T11:22:48Z</time></trkpt><trkpt lat="30.4758112784" lon="35.5014606938"><ele>1292.15</ele><time>2015-11-24T11:23:01Z</time></trkpt><trkpt lat="30.4758373462" lon="35.5010428559"><ele>1292.63</ele><time>2015-11-24T11:23:16Z</time></trkpt><trkpt lat="30.4757638369" lon="35.5006261077"><ele>1295.03</ele><time>2015-11-24T11:23:32Z</time></trkpt><trkpt lat="30.4755937681" lon="35.5002672784"><ele>1296.96</ele><time>2015-11-24T11:23:49Z</time></trkpt><trkpt lat="30.4754167423" lon="35.4999653623"><ele>1299.84</ele><time>2015-11-24T11:24:04Z</time></trkpt><trkpt lat="30.4752030037" lon="35.4995625280"><ele>1302.72</ele><time>2015-11-24T11:24:23Z</time></trkpt><trkpt lat="30.4749704059" lon="35.4992570076"><ele>1304.17</ele><time>2015-11-24T11:24:40Z</time></trkpt><trkpt lat="30.4747650493" lon="35.4989447817"><ele>1308.01</ele><time>2015-11-24T11:24:55Z</time></trkpt><trkpt lat="30.4747530632" lon="35.4989265092"><ele>1307.53</ele><time>2015-11-24T11:24:56Z</time></trkpt><trkpt lat="30.4746918753" lon="35.4988445342"><ele>1308.97</ele><time>2015-11-24T11:25:01Z</time></trkpt><trkpt lat="30.4745777138" lon="35.4986499064"><ele>1310.90</ele><time>2015-11-24T11:25:13Z</time></trkpt><trkpt lat="30.4744818248" lon="35.4984620679"><ele>1314.26</ele><time>2015-11-24T11:25:24Z</time></trkpt><trkpt lat="30.4743322078" lon="35.4982150532"><ele>1317.62</ele><time>2015-11-24T11:25:40Z</time></trkpt><trkpt lat="30.4743220657" lon="35.4982027318"><ele>1318.10</ele><time>2015-11-24T11:25:41Z</time></trkpt><trkpt lat="30.4741959181" lon="35.4980158992"><ele>1319.07</ele><time>2015-11-24T11:25:54Z</time></trkpt><trkpt lat="30.4740217421" lon="35.4977956228"><ele>1321.95</ele><time>2015-11-24T11:26:11Z</time></trkpt><trkpt lat="30.4739495739" lon="35.4976921901"><ele>1323.39</ele><time>2015-11-24T11:26:18Z</time></trkpt><trkpt lat="30.4738553613" lon="35.4975871649"><ele>1324.83</ele><time>2015-11-24T11:26:26Z</time></trkpt><trkpt lat="30.4738367535" lon="35.4975610133"><ele>1326.28</ele><time>2015-11-24T11:26:28Z</time></trkpt><trkpt lat="30.4736866336" lon="35.4973602667"><ele>1328.68</ele><time>2015-11-24T11:26:42Z</time></trkpt><trkpt lat="30.4735402018" lon="35.4971482046"><ele>1330.12</ele><time>2015-11-24T11:26:57Z</time></trkpt><trkpt lat="30.4734761640" lon="35.4970803112"><ele>1331.56</ele><time>2015-11-24T11:27:03Z</time></trkpt><trkpt lat="30.4734337516" lon="35.4969943967"><ele>1333.01</ele><time>2015-11-24T11:27:08Z</time></trkpt><trkpt lat="30.4733967874" lon="35.4969659820"><ele>1334.45</ele><time>2015-11-24T11:27:11Z</time></trkpt><trkpt lat="30.4732902534" lon="35.4967472143"><ele>1337.33</ele><time>2015-11-24T11:27:24Z</time></trkpt><trkpt lat="30.4732080270" lon="35.4965856951"><ele>1339.73</ele><time>2015-11-24T11:27:35Z</time></trkpt><trkpt lat="30.4731371161" lon="35.4964300431"><ele>1341.66</ele><time>2015-11-24T11:27:45Z</time></trkpt><trkpt lat="30.4730149079" lon="35.4962126166"><ele>1343.10</ele><time>2015-11-24T11:28:00Z</time></trkpt><trkpt lat="30.4729965515" lon="35.4961781669"><ele>1342.14</ele><time>2015-11-24T11:28:02Z</time></trkpt><trkpt lat="30.4729781952" lon="35.4961453099"><ele>1342.62</ele><time>2015-11-24T11:28:10Z</time></trkpt><trkpt lat="30.4729443323" lon="35.4961773288"><ele>1342.14</ele><time>2015-11-24T11:28:45Z</time></trkpt><trkpt lat="30.4729489423" lon="35.4961805139"><ele>1342.62</ele><time>2015-11-24T11:29:29Z</time></trkpt><trkpt lat="30.4729447514" lon="35.4961738084"><ele>1342.62</ele><time>2015-11-24T11:30:09Z</time></trkpt><trkpt lat="30.4729495291" lon="35.4961622413"><ele>1343.58</ele><time>2015-11-24T11:30:18Z</time></trkpt><trkpt lat="30.4729422368" lon="35.4961813521"><ele>1344.06</ele><time>2015-11-24T11:30:58Z</time></trkpt><trkpt lat="30.4729431588" lon="35.4961760715"><ele>1342.62</ele><time>2015-11-24T11:31:40Z</time></trkpt><trkpt lat="30.4729430750" lon="35.4961999599"><ele>1342.62</ele><time>2015-11-24T11:32:14Z</time></trkpt><trkpt lat="30.4726787098" lon="35.4962499999"><ele>1341.18</ele><time>2015-11-24T11:32:28Z</time></trkpt><trkpt lat="30.4722374864" lon="35.4962990340"><ele>1339.73</ele><time>2015-11-24T11:32:43Z</time></trkpt><trkpt lat="30.4721973371" lon="35.4962980282"><ele>1340.22</ele><time>2015-11-24T11:32:44Z</time></trkpt><trkpt lat="30.4720034637" lon="35.4962584656"><ele>1342.14</ele><time>2015-11-24T11:32:49Z</time></trkpt><trkpt lat="30.4717162997" lon="35.4961412027"><ele>1345.02</ele><time>2015-11-24T11:33:01Z</time></trkpt><trkpt lat="30.4714271240" lon="35.4959958605"><ele>1345.98</ele><time>2015-11-24T11:33:16Z</time></trkpt><trkpt lat="30.4711395409" lon="35.4958706349"><ele>1347.91</ele><time>2015-11-24T11:33:32Z</time></trkpt><trkpt lat="30.4710929375" lon="35.4958506860"><ele>1348.39</ele><time>2015-11-24T11:33:35Z</time></trkpt><trkpt lat="30.4709992278" lon="35.4958086088"><ele>1349.83</ele><time>2015-11-24T11:33:41Z</time></trkpt><trkpt lat="30.4709201027" lon="35.4957919288"><ele>1350.31</ele><time>2015-11-24T11:33:46Z</time></trkpt><trkpt lat="30.4708712362" lon="35.4957774282"><ele>1351.27</ele><time>2015-11-24T11:33:49Z</time></trkpt><trkpt lat="30.4708214477" lon="35.4957535397"><ele>1352.23</ele><time>2015-11-24T11:33:52Z</time></trkpt><trkpt lat="30.4707165062" lon="35.4957313277"><ele>1354.15</ele><time>2015-11-24T11:33:58Z</time></trkpt><trkpt lat="30.4704811424" lon="35.4957334232"><ele>1357.04</ele><time>2015-11-24T11:34:12Z</time></trkpt><trkpt lat="30.4704681505" lon="35.4957387876"><ele>1357.04</ele><time>2015-11-24T11:34:13Z</time></trkpt><trkpt lat="30.4703175277" lon="35.4958241992"><ele>1358.00</ele><time>2015-11-24T11:34:24Z</time></trkpt><trkpt lat="30.4701803997" lon="35.4959355947"><ele>1359.44</ele><time>2015-11-24T11:34:34Z</time></trkpt><trkpt lat="30.4699534178" lon="35.4961307254"><ele>1360.40</ele><time>2015-11-24T11:34:52Z</time></trkpt><trkpt lat="30.4699192196" lon="35.4961563740"><ele>1362.81</ele><time>2015-11-24T11:34:55Z</time></trkpt><trkpt lat="30.4698147811" lon="35.4962050728"><ele>1362.81</ele><time>2015-11-24T11:35:03Z</time></trkpt><trkpt lat="30.4697655793" lon="35.4962393548"><ele>1363.77</ele><time>2015-11-24T11:35:07Z</time></trkpt><trkpt lat="30.4695408605" lon="35.4963180609"><ele>1365.21</ele><time>2015-11-24T11:35:23Z</time></trkpt><trkpt lat="30.4694535211" lon="35.4963444639"><ele>1369.54</ele><time>2015-11-24T11:35:29Z</time></trkpt><trkpt lat="30.4694426246" lon="35.4963440448"><ele>1369.54</ele><time>2015-11-24T11:35:30Z</time></trkpt><trkpt lat="30.4694261961" lon="35.4963567015"><ele>1368.57</ele><time>2015-11-24T11:35:33Z</time></trkpt><trkpt lat="30.4692984559" lon="35.4964125250"><ele>1368.09</ele><time>2015-11-24T11:35:44Z</time></trkpt><trkpt lat="30.4692431353" lon="35.4963948391"><ele>1370.50</ele><time>2015-11-24T11:35:48Z</time></trkpt><trkpt lat="30.4691248666" lon="35.4964147881"><ele>1371.46</ele><time>2015-11-24T11:35:57Z</time></trkpt><trkpt lat="30.4690436460" lon="35.4964109324"><ele>1373.86</ele><time>2015-11-24T11:36:03Z</time></trkpt><trkpt lat="30.4689595755" lon="35.4964520037"><ele>1374.34</ele><time>2015-11-24T11:36:11Z</time></trkpt><trkpt lat="30.4689050093" lon="35.4964624811"><ele>1374.34</ele><time>2015-11-24T11:36:15Z</time></trkpt><trkpt lat="30.4686405603" lon="35.4964845255"><ele>1375.30</ele><time>2015-11-24T11:36:33Z</time></trkpt><trkpt lat="30.4683840740" lon="35.4965035524"><ele>1377.23</ele><time>2015-11-24T11:36:49Z</time></trkpt><trkpt lat="30.4681990016" lon="35.4965495691"><ele>1379.15</ele><time>2015-11-24T11:37:01Z</time></trkpt><trkpt lat="30.4679461196" lon="35.4966504034"><ele>1379.15</ele><time>2015-11-24T11:37:18Z</time></trkpt><trkpt lat="30.4676983505" lon="35.4967416823"><ele>1380.11</ele><time>2015-11-24T11:37:32Z</time></trkpt><trkpt lat="30.4674408585" lon="35.4968703445"><ele>1380.59</ele><time>2015-11-24T11:37:45Z</time></trkpt><trkpt lat="30.4670225177" lon="35.4970382340"><ele>1383.47</ele><time>2015-11-24T11:38:04Z</time></trkpt><trkpt lat="30.4667180870" lon="35.4971462768"><ele>1384.44</ele><time>2015-11-24T11:38:21Z</time></trkpt><trkpt lat="30.4665074497" lon="35.4972239770"><ele>1385.88</ele><time>2015-11-24T11:38:32Z</time></trkpt><trkpt lat="30.4661843274" lon="35.4973637871"><ele>1388.76</ele><time>2015-11-24T11:38:48Z</time></trkpt><trkpt lat="30.4659303557" lon="35.4974645376"><ele>1390.68</ele><time>2015-11-24T11:39:03Z</time></trkpt><trkpt lat="30.4657611251" lon="35.4975216184"><ele>1393.09</ele><time>2015-11-24T11:39:13Z</time></trkpt><trkpt lat="30.4654632322" lon="35.4976056051"><ele>1395.01</ele><time>2015-11-24T11:39:31Z</time></trkpt><trkpt lat="30.4652675986" lon="35.4976543039"><ele>1398.86</ele><time>2015-11-24T11:39:44Z</time></trkpt><trkpt lat="30.4650346655" lon="35.4977057688"><ele>1399.82</ele><time>2015-11-24T11:39:59Z</time></trkpt><trkpt lat="30.4648391996" lon="35.4977610894"><ele>1401.26</ele><time>2015-11-24T11:40:12Z</time></trkpt><trkpt lat="30.4645994771" lon="35.4978313297"><ele>1402.22</ele><time>2015-11-24T11:40:25Z</time></trkpt><trkpt lat="30.4642956331" lon="35.4979415517"><ele>1403.18</ele><time>2015-11-24T11:40:40Z</time></trkpt><trkpt lat="30.4640978202" lon="35.4980783444"><ele>1403.66</ele><time>2015-11-24T11:40:52Z</time></trkpt><trkpt lat="30.4639917891" lon="35.4982469883"><ele>1404.62</ele><time>2015-11-24T11:41:03Z</time></trkpt><trkpt lat="30.4639187828" lon="35.4983571265"><ele>1404.62</ele><time>2015-11-24T11:41:10Z</time></trkpt><trkpt lat="30.4637927189" lon="35.4985814262"><ele>1405.58</ele><time>2015-11-24T11:41:24Z</time></trkpt><trkpt lat="30.4637778830" lon="35.4986155406"><ele>1406.55</ele><time>2015-11-24T11:41:26Z</time></trkpt><trkpt lat="30.4637191258" lon="35.4987857770"><ele>1407.51</ele><time>2015-11-24T11:41:38Z</time></trkpt><trkpt lat="30.4636757076" lon="35.4988804087"><ele>1407.03</ele><time>2015-11-24T11:41:51Z</time></trkpt><trkpt lat="30.4636613745" lon="35.4989437759"><ele>1407.51</ele><time>2015-11-24T11:41:58Z</time></trkpt><trkpt lat="30.4636424314" lon="35.4989733640"><ele>1409.43</ele><time>2015-11-24T11:42:01Z</time></trkpt><trkpt lat="30.4635958280" lon="35.4991316143"><ele>1410.87</ele><time>2015-11-24T11:42:17Z</time></trkpt><trkpt lat="30.4635892902" lon="35.4991859291"><ele>1411.35</ele><time>2015-11-24T11:42:22Z</time></trkpt><trkpt lat="30.4636154417" lon="35.4993667267"><ele>1414.72</ele><time>2015-11-24T11:42:40Z</time></trkpt><trkpt lat="30.4636350553" lon="35.4994923715"><ele>1416.16</ele><time>2015-11-24T11:42:58Z</time></trkpt><trkpt lat="30.4636819940" lon="35.4995847400"><ele>1417.60</ele><time>2015-11-24T11:43:14Z</time></trkpt><trkpt lat="30.4637144320" lon="35.4996111430"><ele>1420.49</ele><time>2015-11-24T11:43:22Z</time></trkpt><trkpt lat="30.4637446906" lon="35.4996184353"><ele>1420.97</ele><time>2015-11-24T11:43:40Z</time></trkpt><trkpt lat="30.4637811519" lon="35.4996561538"><ele>1418.56</ele><time>2015-11-24T11:44:18Z</time></trkpt><trkpt lat="30.4637783859" lon="35.4996614344"><ele>1420.00</ele><time>2015-11-24T11:44:21Z</time></trkpt><trkpt lat="30.4637956526" lon="35.4996631946"><ele>1420.97</ele><time>2015-11-24T11:44:23Z</time></trkpt><trkpt lat="30.4638837464" lon="35.4996836465"><ele>1421.45</ele><time>2015-11-24T11:44:36Z</time></trkpt><trkpt lat="30.4639166035" lon="35.4997090437"><ele>1424.33</ele><time>2015-11-24T11:44:41Z</time></trkpt><trkpt lat="30.4639676493" lon="35.4997175932"><ele>1425.77</ele><time>2015-11-24T11:44:47Z</time></trkpt><trkpt lat="30.4641066212" lon="35.4997356981"><ele>1426.73</ele><time>2015-11-24T11:45:05Z</time></trkpt><trkpt lat="30.4642372951" lon="35.4997855704"><ele>1428.18</ele><time>2015-11-24T11:45:24Z</time></trkpt><trkpt lat="30.4642714933" lon="35.4999149870"><ele>1430.10</ele><time>2015-11-24T11:45:43Z</time></trkpt><trkpt lat="30.4642569926" lon="35.4999818746"><ele>1431.06</ele><time>2015-11-24T11:45:51Z</time></trkpt><trkpt lat="30.4641811363" lon="35.5000901688"><ele>1432.50</ele><time>2015-11-24T11:46:08Z</time></trkpt><trkpt lat="30.4641365446" lon="35.5002251174"><ele>1434.42</ele><time>2015-11-24T11:46:25Z</time></trkpt><trkpt lat="30.4641254805" lon="35.5002665240"><ele>1435.87</ele><time>2015-11-24T11:46:31Z</time></trkpt><trkpt lat="30.4641186073" lon="35.5003262870"><ele>1436.83</ele><time>2015-11-24T11:46:40Z</time></trkpt><trkpt lat="30.4641606845" lon="35.5004166439"><ele>1439.23</ele><time>2015-11-24T11:46:54Z</time></trkpt><trkpt lat="30.4642155021" lon="35.5004858784"><ele>1440.19</ele><time>2015-11-24T11:47:06Z</time></trkpt><trkpt lat="30.4642229620" lon="35.5005020555"><ele>1441.63</ele><time>2015-11-24T11:47:08Z</time></trkpt><trkpt lat="30.4643083736" lon="35.5006373394"><ele>1441.15</ele><time>2015-11-24T11:47:26Z</time></trkpt><trkpt lat="30.4643937014" lon="35.5008061510"><ele>1442.60</ele><time>2015-11-24T11:47:47Z</time></trkpt><trkpt lat="30.4644217808" lon="35.5008695181"><ele>1441.63</ele><time>2015-11-24T11:48:01Z</time></trkpt><trkpt lat="30.4644317552" lon="35.5008526705"><ele>1442.11</ele><time>2015-11-24T11:48:10Z</time></trkpt><trkpt lat="30.4644302465" lon="35.5008506589"><ele>1438.75</ele><time>2015-11-24T11:48:12Z</time></trkpt><trkpt lat="30.4644276481" lon="35.5008452106"><ele>1442.11</ele><time>2015-11-24T11:48:15Z</time></trkpt><trkpt lat="30.4644245468" lon="35.5008461326"><ele>1443.08</ele><time>2015-11-24T11:48:43Z</time></trkpt><trkpt lat="30.4644273128" lon="35.5008598790"><ele>1442.11</ele><time>2015-11-24T11:48:51Z</time></trkpt><trkpt lat="30.4644237924" lon="35.5008654110"><ele>1443.56</ele><time>2015-11-24T11:48:54Z</time></trkpt><trkpt lat="30.4644247144" lon="35.5009058956"><ele>1444.04</ele><time>2015-11-24T11:49:01Z</time></trkpt><trkpt lat="30.4644299112" lon="35.5010084901"><ele>1444.52</ele><time>2015-11-24T11:49:08Z</time></trkpt><trkpt lat="30.4643976409" lon="35.5011873599"><ele>1444.52</ele><time>2015-11-24T11:49:19Z</time></trkpt><trkpt lat="30.4643861577" lon="35.5012562592"><ele>1445.00</ele><time>2015-11-24T11:49:23Z</time></trkpt><trkpt lat="30.4643803742" lon="35.5013304390"><ele>1445.00</ele><time>2015-11-24T11:49:27Z</time></trkpt><trkpt lat="30.4643617664" lon="35.5014214665"><ele>1445.96</ele><time>2015-11-24T11:49:32Z</time></trkpt><trkpt lat="30.4643236287" lon="35.5015438423"><ele>1445.96</ele><time>2015-11-24T11:49:40Z</time></trkpt><trkpt lat="30.4642828088" lon="35.5016305111"><ele>1445.96</ele><time>2015-11-24T11:49:46Z</time></trkpt><trkpt lat="30.4642013367" lon="35.5018387176"><ele>1446.44</ele><time>2015-11-24T11:49:58Z</time></trkpt><trkpt lat="30.4641732574" lon="35.5018639471"><ele>1446.92</ele><time>2015-11-24T11:50:00Z</time></trkpt><trkpt lat="30.4641473573" lon="35.5019418150"><ele>1446.92</ele><time>2015-11-24T11:50:05Z</time></trkpt><trkpt lat="30.4641261511" lon="35.5019827187"><ele>1446.92</ele><time>2015-11-24T11:50:08Z</time></trkpt><trkpt lat="30.4640909471" lon="35.5021438189"><ele>1448.84</ele><time>2015-11-24T11:50:19Z</time></trkpt><trkpt lat="30.4640305974" lon="35.5022646021"><ele>1450.29</ele><time>2015-11-24T11:50:29Z</time></trkpt><trkpt lat="30.4640068766" lon="35.5023443140"><ele>1452.21</ele><time>2015-11-24T11:50:35Z</time></trkpt><trkpt lat="30.4639324453" lon="35.5025386903"><ele>1454.61</ele><time>2015-11-24T11:50:50Z</time></trkpt><trkpt lat="30.4639135860" lon="35.5026185699"><ele>1455.09</ele><time>2015-11-24T11:50:56Z</time></trkpt><trkpt lat="30.4638880212" lon="35.5026928335"><ele>1457.02</ele><time>2015-11-24T11:51:03Z</time></trkpt><trkpt lat="30.4638676532" lon="35.5027001258"><ele>1457.50</ele><time>2015-11-24T11:51:05Z</time></trkpt><trkpt lat="30.4638475366" lon="35.5027683545"><ele>1460.38</ele><time>2015-11-24T11:51:12Z</time></trkpt><trkpt lat="30.4638489615" lon="35.5027725454"><ele>1457.02</ele><time>2015-11-24T11:51:16Z</time></trkpt><trkpt lat="30.4638503864" lon="35.5027758982"><ele>1456.53</ele><time>2015-11-24T11:51:17Z</time></trkpt><trkpt lat="30.4638055433" lon="35.5028587114"><ele>1458.46</ele><time>2015-11-24T11:51:33Z</time></trkpt><trkpt lat="30.4637966584" lon="35.5029017944"><ele>1461.82</ele><time>2015-11-24T11:51:42Z</time></trkpt><trkpt lat="30.4637379013" lon="35.5030350666"><ele>1461.82</ele><time>2015-11-24T11:52:00Z</time></trkpt><trkpt lat="30.4637050442" lon="35.5031212326"><ele>1463.74</ele><time>2015-11-24T11:52:13Z</time></trkpt><trkpt lat="30.4636522382" lon="35.5032502301"><ele>1465.67</ele><time>2015-11-24T11:52:32Z</time></trkpt><trkpt lat="30.4635973368" lon="35.5033455323"><ele>1468.07</ele><time>2015-11-24T11:52:47Z</time></trkpt><trkpt lat="30.4635324609" lon="35.5034360569"><ele>1469.03</ele><time>2015-11-24T11:53:03Z</time></trkpt><trkpt lat="30.4634017870" lon="35.5035165232"><ele>1471.92</ele><time>2015-11-24T11:53:21Z</time></trkpt><trkpt lat="30.4633287806" lon="35.5035618693"><ele>1472.40</ele><time>2015-11-24T11:53:31Z</time></trkpt><trkpt lat="30.4632028844" lon="35.5035819020"><ele>1470.95</ele><time>2015-11-24T11:53:47Z</time></trkpt><trkpt lat="30.4630938359" lon="35.5035888590"><ele>1474.32</ele><time>2015-11-24T11:54:02Z</time></trkpt><trkpt lat="30.4629878886" lon="35.5035603605"><ele>1476.24</ele><time>2015-11-24T11:54:18Z</time></trkpt><trkpt lat="30.4629027285" lon="35.5035130866"><ele>1476.24</ele><time>2015-11-24T11:54:33Z</time></trkpt><trkpt lat="30.4628695361" lon="35.5035051238"><ele>1478.16</ele><time>2015-11-24T11:54:38Z</time></trkpt><trkpt lat="30.4628013913" lon="35.5034833308"><ele>1479.13</ele><time>2015-11-24T11:54:55Z</time></trkpt><trkpt lat="30.4627972841" lon="35.5034816545"><ele>1478.65</ele><time>2015-11-24T11:55:00Z</time></trkpt><trkpt lat="30.4627621640" lon="35.5034620408"><ele>1479.13</ele><time>2015-11-24T11:55:13Z</time></trkpt><trkpt lat="30.4626130499" lon="35.5033866875"><ele>1482.01</ele><time>2015-11-24T11:55:29Z</time></trkpt><trkpt lat="30.4624305759" lon="35.5033027846"><ele>1482.01</ele><time>2015-11-24T11:55:43Z</time></trkpt><trkpt lat="30.4623706453" lon="35.5032665748"><ele>1481.53</ele><time>2015-11-24T11:55:47Z</time></trkpt><trkpt lat="30.4621375445" lon="35.5031555146"><ele>1483.93</ele><time>2015-11-24T11:56:00Z</time></trkpt><trkpt lat="30.4618070461" lon="35.5030038860"><ele>1485.37</ele><time>2015-11-24T11:56:17Z</time></trkpt><trkpt lat="30.4617890250" lon="35.5030038022"><ele>1485.37</ele><time>2015-11-24T11:56:18Z</time></trkpt><trkpt lat="30.4617157672" lon="35.5029762257"><ele>1484.41</ele><time>2015-11-24T11:56:22Z</time></trkpt><trkpt lat="30.4614692554" lon="35.5029954202"><ele>1486.34</ele><time>2015-11-24T11:56:36Z</time></trkpt><trkpt lat="30.4613265116" lon="35.5030846037"><ele>1487.30</ele><time>2015-11-24T11:56:45Z</time></trkpt><trkpt lat="30.4612161219" lon="35.5032655690"><ele>1490.18</ele><time>2015-11-24T11:56:56Z</time></trkpt><trkpt lat="30.4611990228" lon="35.5032988451"><ele>1490.66</ele><time>2015-11-24T11:56:58Z</time></trkpt><trkpt lat="30.4611596279" lon="35.5034009367"><ele>1493.06</ele><time>2015-11-24T11:57:10Z</time></trkpt><trkpt lat="30.4611448757" lon="35.5035093985"><ele>1494.99</ele><time>2015-11-24T11:57:25Z</time></trkpt><trkpt lat="30.4610994458" lon="35.5036867596"><ele>1497.39</ele><time>2015-11-24T11:57:46Z</time></trkpt><trkpt lat="30.4610727914" lon="35.5037742667"><ele>1500.76</ele><time>2015-11-24T11:58:00Z</time></trkpt><trkpt lat="30.4610405210" lon="35.5038005020"><ele>1499.31</ele><time>2015-11-24T11:58:06Z</time></trkpt><trkpt lat="30.4610230867" lon="35.5039890110"><ele>1500.76</ele><time>2015-11-24T11:58:25Z</time></trkpt><trkpt lat="30.4609942529" lon="35.5041594151"><ele>1503.16</ele><time>2015-11-24T11:58:46Z</time></trkpt><trkpt lat="30.4609789979" lon="35.5043071043"><ele>1505.08</ele><time>2015-11-24T11:59:04Z</time></trkpt><trkpt lat="30.4609569535" lon="35.5044576433"><ele>1507.48</ele><time>2015-11-24T11:59:23Z</time></trkpt><trkpt lat="30.4609297123" lon="35.5046228506"><ele>1509.41</ele><time>2015-11-24T11:59:43Z</time></trkpt><trkpt lat="30.4609157145" lon="35.5047824420"><ele>1509.89</ele><time>2015-11-24T12:00:01Z</time></trkpt><trkpt lat="30.4609047342" lon="35.5049249344"><ele>1510.85</ele><time>2015-11-24T12:00:19Z</time></trkpt><trkpt lat="30.4609050695" lon="35.5050966796"><ele>1513.25</ele><time>2015-11-24T12:00:41Z</time></trkpt><trkpt lat="30.4608976096" lon="35.5052809976"><ele>1515.66</ele><time>2015-11-24T12:01:03Z</time></trkpt><trkpt lat="30.4608738888" lon="35.5053521600"><ele>1517.58</ele><time>2015-11-24T12:01:13Z</time></trkpt><trkpt lat="30.4608460609" lon="35.5054907966"><ele>1518.54</ele><time>2015-11-24T12:01:28Z</time></trkpt><trkpt lat="30.4607759044" lon="35.5056279246"><ele>1521.90</ele><time>2015-11-24T12:01:47Z</time></trkpt><trkpt lat="30.4606946837" lon="35.5057115760"><ele>1521.90</ele><time>2015-11-24T12:02:02Z</time></trkpt><trkpt lat="30.4606469069" lon="35.5057314411"><ele>1521.42</ele><time>2015-11-24T12:02:12Z</time></trkpt><trkpt lat="30.4606086016" lon="35.5057452712"><ele>1524.79</ele><time>2015-11-24T12:02:16Z</time></trkpt><trkpt lat="30.4605810251" lon="35.5057554971"><ele>1521.42</ele><time>2015-11-24T12:02:22Z</time></trkpt><trkpt lat="30.4604264628" lon="35.5058238097"><ele>1520.94</ele><time>2015-11-24T12:02:34Z</time></trkpt><trkpt lat="30.4603209347" lon="35.5058682337"><ele>1519.98</ele><time>2015-11-24T12:02:39Z</time></trkpt><trkpt lat="30.4600907676" lon="35.5060048588"><ele>1520.94</ele><time>2015-11-24T12:02:50Z</time></trkpt><trkpt lat="30.4598374665" lon="35.5061584990"><ele>1521.42</ele><time>2015-11-24T12:03:04Z</time></trkpt><trkpt lat="30.4596735165" lon="35.5063953716"><ele>1525.27</ele><time>2015-11-24T12:03:17Z</time></trkpt><trkpt lat="30.4595534876" lon="35.5067270435"><ele>1528.15</ele><time>2015-11-24T12:03:32Z</time></trkpt><trkpt lat="30.4594249092" lon="35.5069340765"><ele>1530.56</ele><time>2015-11-24T12:03:44Z</time></trkpt><trkpt lat="30.4594112467" lon="35.5069343280"><ele>1531.52</ele><time>2015-11-24T12:03:45Z</time></trkpt><trkpt lat="30.4594004340" lon="35.5069293827"><ele>1532.96</ele><time>2015-11-24T12:03:46Z</time></trkpt><trkpt lat="30.4593912140" lon="35.5069236830"><ele>1533.92</ele><time>2015-11-24T12:03:47Z</time></trkpt><trkpt lat="30.4593803175" lon="35.5069159716"><ele>1532.96</ele><time>2015-11-24T12:03:48Z</time></trkpt><trkpt lat="30.4593056347" lon="35.5068601482"><ele>1534.40</ele><time>2015-11-24T12:03:53Z</time></trkpt><trkpt lat="30.4592332989" lon="35.5068137124"><ele>1532.48</ele><time>2015-11-24T12:03:57Z</time></trkpt><trkpt lat="30.4592007771" lon="35.5068081804"><ele>1532.00</ele><time>2015-11-24T12:03:59Z</time></trkpt><trkpt lat="30.4591863602" lon="35.5068010557"><ele>1532.00</ele><time>2015-11-24T12:04:00Z</time></trkpt><trkpt lat="30.4589953367" lon="35.5065846350"><ele>1532.00</ele><time>2015-11-24T12:04:13Z</time></trkpt><trkpt lat="30.4589726217" lon="35.5065749120"><ele>1532.48</ele><time>2015-11-24T12:04:24Z</time></trkpt><trkpt lat="30.4589720350" lon="35.5065721460"><ele>1535.36</ele><time>2015-11-24T12:04:33Z</time></trkpt><trkpt lat="30.4589711130" lon="35.5065734871"><ele>1534.88</ele><time>2015-11-24T12:04:34Z</time></trkpt><trkpt lat="30.4589685146" lon="35.5065765046"><ele>1531.52</ele><time>2015-11-24T12:04:37Z</time></trkpt><trkpt lat="30.4589701071" lon="35.5065778457"><ele>1532.00</ele><time>2015-11-24T12:04:38Z</time></trkpt><trkpt lat="30.4589727893" lon="35.5065759178"><ele>1532.48</ele><time>2015-11-24T12:05:07Z</time></trkpt><trkpt lat="30.4589810036" lon="35.5065745767"><ele>1532.00</ele><time>2015-11-24T12:05:33Z</time></trkpt><trkpt lat="30.4589816742" lon="35.5065846350"><ele>1532.00</ele><time>2015-11-24T12:05:57Z</time></trkpt><trkpt lat="30.4589007888" lon="35.5065091141"><ele>1532.96</ele><time>2015-11-24T12:06:20Z</time></trkpt><trkpt lat="30.4586624075" lon="35.5063703097"><ele>1534.88</ele><time>2015-11-24T12:06:34Z</time></trkpt><trkpt lat="30.4583612457" lon="35.5063252151"><ele>1536.80</ele><time>2015-11-24T12:06:49Z</time></trkpt><trkpt lat="30.4582191724" lon="35.5063429847"><ele>1537.29</ele><time>2015-11-24T12:06:58Z</time></trkpt><trkpt lat="30.4581581522" lon="35.5063390452"><ele>1537.77</ele><time>2015-11-24T12:07:03Z</time></trkpt><trkpt lat="30.4580195155" lon="35.5063323397"><ele>1541.13</ele><time>2015-11-24T12:07:14Z</time></trkpt><trkpt lat="30.4578948766" lon="35.5063469242"><ele>1540.17</ele><time>2015-11-24T12:07:23Z</time></trkpt><trkpt lat="30.4576984886" lon="35.5063244607"><ele>1540.17</ele><time>2015-11-24T12:07:33Z</time></trkpt><trkpt lat="30.4573278408" lon="35.5061252229"><ele>1539.69</ele><time>2015-11-24T12:07:48Z</time></trkpt><trkpt lat="30.4569594562" lon="35.5059000012"><ele>1541.61</ele><time>2015-11-24T12:08:04Z</time></trkpt><trkpt lat="30.4568732902" lon="35.5058812257"><ele>1542.09</ele><time>2015-11-24T12:08:15Z</time></trkpt><trkpt lat="30.4568101745" lon="35.5058635399"><ele>1542.09</ele><time>2015-11-24T12:08:35Z</time></trkpt><trkpt lat="30.4567046463" lon="35.5058543198"><ele>1543.53</ele><time>2015-11-24T12:08:44Z</time></trkpt><trkpt lat="30.4566303827" lon="35.5058399029"><ele>1544.01</ele><time>2015-11-24T12:08:50Z</time></trkpt><trkpt lat="30.4564277083" lon="35.5058491230"><ele>1546.42</ele><time>2015-11-24T12:09:07Z</time></trkpt><trkpt lat="30.4563899897" lon="35.5058409926"><ele>1546.90</ele><time>2015-11-24T12:09:10Z</time></trkpt><trkpt lat="30.4563406203" lon="35.5058364663"><ele>1547.86</ele><time>2015-11-24T12:09:14Z</time></trkpt><trkpt lat="30.4562951904" lon="35.5058149248"><ele>1547.86</ele><time>2015-11-24T12:09:18Z</time></trkpt><trkpt lat="30.4562113713" lon="35.5058009271"><ele>1548.34</ele><time>2015-11-24T12:09:27Z</time></trkpt><trkpt lat="30.4559491854" lon="35.5058251508"><ele>1550.26</ele><time>2015-11-24T12:09:44Z</time></trkpt><trkpt lat="30.4558563977" lon="35.5058384780"><ele>1551.22</ele><time>2015-11-24T12:09:50Z</time></trkpt><trkpt lat="30.4556126520" lon="35.5058603548"><ele>1554.11</ele><time>2015-11-24T12:10:06Z</time></trkpt><trkpt lat="30.4554421641" lon="35.5058578402"><ele>1556.51</ele><time>2015-11-24T12:10:18Z</time></trkpt><trkpt lat="30.4553980753" lon="35.5058603548"><ele>1557.47</ele><time>2015-11-24T12:10:21Z</time></trkpt><trkpt lat="30.4552933015" lon="35.5057829060"><ele>1560.36</ele><time>2015-11-24T12:10:30Z</time></trkpt><trkpt lat="30.4552522302" lon="35.5057366379"><ele>1561.80</ele><time>2015-11-24T12:10:34Z</time></trkpt><trkpt lat="30.4552295990" lon="35.5057179462"><ele>1562.76</ele><time>2015-11-24T12:10:36Z</time></trkpt><trkpt lat="30.4551720154" lon="35.5057301000"><ele>1562.28</ele><time>2015-11-24T12:10:41Z</time></trkpt><trkpt lat="30.4551375657" lon="35.5057358835"><ele>1562.28</ele><time>2015-11-24T12:10:44Z</time></trkpt><trkpt lat="30.4551030323" lon="35.5057361349"><ele>1563.72</ele><time>2015-11-24T12:10:47Z</time></trkpt><trkpt lat="30.4550777189" lon="35.5057371408"><ele>1564.20</ele><time>2015-11-24T12:10:49Z</time></trkpt><trkpt lat="30.4549403396" lon="35.5057500489"><ele>1566.61</ele><time>2015-11-24T12:10:59Z</time></trkpt><trkpt lat="30.4549011961" lon="35.5057490431"><ele>1570.93</ele><time>2015-11-24T12:11:02Z</time></trkpt><trkpt lat="30.4548899643" lon="35.5057459418"><ele>1569.97</ele><time>2015-11-24T12:11:03Z</time></trkpt><trkpt lat="30.4548654053" lon="35.5057412479"><ele>1568.53</ele><time>2015-11-24T12:11:05Z</time></trkpt><trkpt lat="30.4546947498" lon="35.5057320278"><ele>1570.93</ele><time>2015-11-24T12:11:21Z</time></trkpt><trkpt lat="30.4546582885" lon="35.5057329498"><ele>1570.45</ele><time>2015-11-24T12:11:24Z</time></trkpt><trkpt lat="30.4546013754" lon="35.5057432596"><ele>1572.37</ele><time>2015-11-24T12:11:29Z</time></trkpt><trkpt lat="30.4545781575" lon="35.5057574250"><ele>1570.45</ele><time>2015-11-24T12:11:31Z</time></trkpt><trkpt lat="30.4545162152" lon="35.5057761166"><ele>1572.37</ele><time>2015-11-24T12:11:36Z</time></trkpt><trkpt lat="30.4545070790" lon="35.5057816487"><ele>1570.93</ele><time>2015-11-24T12:11:37Z</time></trkpt><trkpt lat="30.4544720426" lon="35.5057855882"><ele>1572.85</ele><time>2015-11-24T12:11:40Z</time></trkpt><trkpt lat="30.4543796740" lon="35.5058135837"><ele>1571.41</ele><time>2015-11-24T12:11:48Z</time></trkpt><trkpt lat="30.4543676041" lon="35.5058147572"><ele>1574.30</ele><time>2015-11-24T12:11:49Z</time></trkpt><trkpt lat="30.4543045722" lon="35.5058421660"><ele>1576.22</ele><time>2015-11-24T12:11:54Z</time></trkpt><trkpt lat="30.4542771634" lon="35.5058526434"><ele>1573.33</ele><time>2015-11-24T12:11:56Z</time></trkpt><trkpt lat="30.4541350901" lon="35.5059198663"><ele>1577.66</ele><time>2015-11-24T12:12:06Z</time></trkpt><trkpt lat="30.4540927615" lon="35.5059398990"><ele>1574.30</ele><time>2015-11-24T12:12:09Z</time></trkpt><trkpt lat="30.4540088587" lon="35.5059880950"><ele>1575.26</ele><time>2015-11-24T12:12:15Z</time></trkpt><trkpt lat="30.4539065156" lon="35.5060206167"><ele>1573.82</ele><time>2015-11-24T12:12:20Z</time></trkpt><trkpt lat="30.4537649453" lon="35.5060344469"><ele>1573.33</ele><time>2015-11-24T12:12:25Z</time></trkpt><trkpt lat="30.4536415637" lon="35.5060502887"><ele>1573.82</ele><time>2015-11-24T12:12:29Z</time></trkpt><trkpt lat="30.4535568226" lon="35.5060620233"><ele>1571.41</ele><time>2015-11-24T12:12:32Z</time></trkpt><trkpt lat="30.4531336203" lon="35.5060776975"><ele>1569.97</ele><time>2015-11-24T12:12:48Z</time></trkpt><trkpt lat="30.4527912196" lon="35.5060533900"><ele>1571.41</ele><time>2015-11-24T12:13:03Z</time></trkpt><trkpt lat="30.4525210708" lon="35.5060050264"><ele>1572.85</ele><time>2015-11-24T12:13:17Z</time></trkpt><trkpt lat="30.4522919096" lon="35.5059351213"><ele>1573.33</ele><time>2015-11-24T12:13:31Z</time></trkpt><trkpt lat="30.4521622416" lon="35.5059151724"><ele>1574.78</ele><time>2015-11-24T12:13:40Z</time></trkpt><trkpt lat="30.4520939291" lon="35.5059135798"><ele>1574.78</ele><time>2015-11-24T12:13:45Z</time></trkpt><trkpt lat="30.4518380295" lon="35.5059212074"><ele>1576.22</ele><time>2015-11-24T12:14:01Z</time></trkpt><trkpt lat="30.4517884087" lon="35.5059355404"><ele>1577.18</ele><time>2015-11-24T12:14:04Z</time></trkpt><trkpt lat="30.4516185075" lon="35.5060295016"><ele>1577.18</ele><time>2015-11-24T12:14:17Z</time></trkpt><trkpt lat="30.4514956288" lon="35.5061261449"><ele>1578.14</ele><time>2015-11-24T12:14:30Z</time></trkpt><trkpt lat="30.4514351953" lon="35.5061723292"><ele>1578.62</ele><time>2015-11-24T12:14:36Z</time></trkpt><trkpt lat="30.4513064492" lon="35.5062565673"><ele>1580.06</ele><time>2015-11-24T12:14:47Z</time></trkpt><trkpt lat="30.4512424115" lon="35.5062992312"><ele>1580.06</ele><time>2015-11-24T12:14:52Z</time></trkpt><trkpt lat="30.4511153419" lon="35.5063869059"><ele>1580.54</ele><time>2015-11-24T12:15:02Z</time></trkpt><trkpt lat="30.4508917127" lon="35.5064522848"><ele>1581.51</ele><time>2015-11-24T12:15:16Z</time></trkpt><trkpt lat="30.4505643155" lon="35.5065523647"><ele>1582.47</ele><time>2015-11-24T12:15:34Z</time></trkpt><trkpt lat="30.4503202345" lon="35.5066116247"><ele>1583.43</ele><time>2015-11-24T12:15:47Z</time></trkpt><trkpt lat="30.4500422068" lon="35.5066711362"><ele>1585.83</ele><time>2015-11-24T12:16:02Z</time></trkpt><trkpt lat="30.4497806914" lon="35.5067196675"><ele>1587.75</ele><time>2015-11-24T12:16:16Z</time></trkpt><trkpt lat="30.4496998060" lon="35.5067724735"><ele>1588.24</ele><time>2015-11-24T12:16:23Z</time></trkpt><trkpt lat="30.4495442379" lon="35.5068220943"><ele>1589.20</ele><time>2015-11-24T12:16:34Z</time></trkpt><trkpt lat="30.4492284078" lon="35.5068598129"><ele>1589.68</ele><time>2015-11-24T12:16:51Z</time></trkpt><trkpt lat="30.4489751067" lon="35.5068443902"><ele>1592.08</ele><time>2015-11-24T12:17:06Z</time></trkpt><trkpt lat="30.4487188719" lon="35.5067641754"><ele>1592.56</ele><time>2015-11-24T12:17:20Z</time></trkpt><trkpt lat="30.4484763835" lon="35.5066979583"><ele>1590.64</ele><time>2015-11-24T12:17:33Z</time></trkpt><trkpt lat="30.4481537640" lon="35.5066204257"><ele>1589.20</ele><time>2015-11-24T12:17:48Z</time></trkpt><trkpt lat="30.4478996247" lon="35.5065932684"><ele>1589.68</ele><time>2015-11-24T12:18:02Z</time></trkpt><trkpt lat="30.4478453938" lon="35.5065817852"><ele>1591.12</ele><time>2015-11-24T12:18:05Z</time></trkpt><trkpt lat="30.4477575514" lon="35.5065427255"><ele>1592.08</ele><time>2015-11-24T12:18:10Z</time></trkpt><trkpt lat="30.4475247860" lon="35.5065064318"><ele>1591.60</ele><time>2015-11-24T12:18:23Z</time></trkpt><trkpt lat="30.4474894144" lon="35.5065050069"><ele>1592.08</ele><time>2015-11-24T12:18:25Z</time></trkpt><trkpt lat="30.4473761749" lon="35.5065165740"><ele>1592.56</ele><time>2015-11-24T12:18:33Z</time></trkpt><trkpt lat="30.4473448265" lon="35.5065172445"><ele>1592.08</ele><time>2015-11-24T12:18:35Z</time></trkpt><trkpt lat="30.4471050203" lon="35.5065044202"><ele>1593.52</ele><time>2015-11-24T12:18:50Z</time></trkpt><trkpt lat="30.4470084608" lon="35.5065010674"><ele>1594.00</ele><time>2015-11-24T12:18:56Z</time></trkpt><trkpt lat="30.4467160162" lon="35.5064744968"><ele>1594.48</ele><time>2015-11-24T12:19:12Z</time></trkpt><trkpt lat="30.4465761222" lon="35.5064381193"><ele>1594.96</ele><time>2015-11-24T12:19:20Z</time></trkpt><trkpt lat="30.4464959074" lon="35.5064297374"><ele>1595.45</ele><time>2015-11-24T12:19:25Z</time></trkpt><trkpt lat="30.4462331347" lon="35.5063156597"><ele>1594.96</ele><time>2015-11-24T12:19:40Z</time></trkpt><trkpt lat="30.4459667578" lon="35.5061907694"><ele>1595.45</ele><time>2015-11-24T12:19:55Z</time></trkpt><trkpt lat="30.4456331581" lon="35.5060912762"><ele>1596.41</ele><time>2015-11-24T12:20:14Z</time></trkpt><trkpt lat="30.4455667734" lon="35.5060908571"><ele>1595.93</ele><time>2015-11-24T12:20:18Z</time></trkpt><trkpt lat="30.4453321639" lon="35.5060887616"><ele>1597.85</ele><time>2015-11-24T12:20:34Z</time></trkpt><trkpt lat="30.4453152325" lon="35.5060837325"><ele>1597.37</ele><time>2015-11-24T12:20:48Z</time></trkpt><trkpt lat="30.4452962894" lon="35.5060896836"><ele>1597.37</ele><time>2015-11-24T12:20:50Z</time></trkpt><trkpt lat="30.4452190083" lon="35.5061023403"><ele>1597.37</ele><time>2015-11-24T12:20:56Z</time></trkpt><trkpt lat="30.4450111371" lon="35.5061200261"><ele>1598.81</ele><time>2015-11-24T12:21:10Z</time></trkpt><trkpt lat="30.4449751787" lon="35.5061217025"><ele>1600.25</ele><time>2015-11-24T12:21:12Z</time></trkpt><trkpt lat="30.4447153397" lon="35.5061499495"><ele>1602.17</ele><time>2015-11-24T12:21:27Z</time></trkpt><trkpt lat="30.4445072170" lon="35.5061693955"><ele>1603.62</ele><time>2015-11-24T12:21:40Z</time></trkpt><trkpt lat="30.4442869406" lon="35.5062279012"><ele>1605.06</ele><time>2015-11-24T12:21:54Z</time></trkpt><trkpt lat="30.4439763073" lon="35.5062584113"><ele>1605.06</ele><time>2015-11-24T12:22:09Z</time></trkpt><trkpt lat="30.4435981996" lon="35.5061484408"><ele>1606.02</ele><time>2015-11-24T12:22:26Z</time></trkpt><trkpt lat="30.4433044139" lon="35.5060585868"><ele>1605.06</ele><time>2015-11-24T12:22:40Z</time></trkpt><trkpt lat="30.4432934336" lon="35.5060511269"><ele>1604.58</ele><time>2015-11-24T12:22:41Z</time></trkpt><trkpt lat="30.4432722274" lon="35.5060491990"><ele>1603.62</ele><time>2015-11-24T12:22:55Z</time></trkpt><trkpt lat="30.4432713892" lon="35.5060430802"><ele>1605.54</ele><time>2015-11-24T12:23:03Z</time></trkpt><trkpt lat="30.4431931861" lon="35.5060129054"><ele>1605.54</ele><time>2015-11-24T12:23:16Z</time></trkpt><trkpt lat="30.4431011528" lon="35.5059715826"><ele>1607.46</ele><time>2015-11-24T12:23:26Z</time></trkpt><trkpt lat="30.4428320937" lon="35.5056737736"><ele>1604.58</ele><time>2015-11-24T12:23:42Z</time></trkpt><trkpt lat="30.4427641165" lon="35.5055792257"><ele>1604.58</ele><time>2015-11-24T12:23:52Z</time></trkpt><trkpt lat="30.4427710734" lon="35.5055778846"><ele>1605.06</ele><time>2015-11-24T12:24:16Z</time></trkpt><trkpt lat="30.4427650385" lon="35.5055772979"><ele>1603.62</ele><time>2015-11-24T12:24:44Z</time></trkpt><trkpt lat="30.4427673854" lon="35.5055744480"><ele>1605.54</ele><time>2015-11-24T12:25:05Z</time></trkpt><trkpt lat="30.4427673854" lon="35.5055754539"><ele>1606.50</ele><time>2015-11-24T12:25:07Z</time></trkpt><trkpt lat="30.4426904395" lon="35.5054876953"><ele>1606.02</ele><time>2015-11-24T12:25:19Z</time></trkpt><trkpt lat="30.4424409941" lon="35.5051801633"><ele>1603.62</ele><time>2015-11-24T12:25:32Z</time></trkpt><trkpt lat="30.4422144312" lon="35.5050063226"><ele>1606.98</ele><time>2015-11-24T12:25:42Z</time></trkpt><trkpt lat="30.4420995992" lon="35.5049457215"><ele>1610.83</ele><time>2015-11-24T12:25:47Z</time></trkpt><trkpt lat="30.4419560172" lon="35.5049056560"><ele>1608.42</ele><time>2015-11-24T12:25:53Z</time></trkpt><trkpt lat="30.4416629858" lon="35.5048380140"><ele>1607.94</ele><time>2015-11-24T12:26:07Z</time></trkpt><trkpt lat="30.4416209087" lon="35.5048063304"><ele>1608.42</ele><time>2015-11-24T12:26:10Z</time></trkpt><trkpt lat="30.4415803403" lon="35.5047793407"><ele>1609.86</ele><time>2015-11-24T12:26:21Z</time></trkpt><trkpt lat="30.4415735509" lon="35.5047639180"><ele>1608.42</ele><time>2015-11-24T12:26:24Z</time></trkpt><trkpt lat="30.4415681865" lon="35.5047396943"><ele>1606.98</ele><time>2015-11-24T12:26:32Z</time></trkpt><trkpt lat="30.4415721260" lon="35.5047370121"><ele>1605.54</ele><time>2015-11-24T12:26:35Z</time></trkpt><trkpt lat="30.4415793344" lon="35.5047269538"><ele>1605.54</ele><time>2015-11-24T12:27:21Z</time></trkpt><trkpt lat="30.4415927455" lon="35.5047181528"><ele>1606.98</ele><time>2015-11-24T12:28:26Z</time></trkpt><trkpt lat="30.4415941704" lon="35.5047176499"><ele>1606.02</ele><time>2015-11-24T12:28:30Z</time></trkpt><trkpt lat="30.4415924102" lon="35.5047170632"><ele>1606.50</ele><time>2015-11-24T12:29:22Z</time></trkpt><trkpt lat="30.4415940028" lon="35.5047102738"><ele>1606.50</ele><time>2015-11-24T12:30:27Z</time></trkpt><trkpt lat="30.4415940866" lon="35.5047169793"><ele>1606.02</ele><time>2015-11-24T12:31:38Z</time></trkpt><trkpt lat="30.4415937513" lon="35.5047179852"><ele>1606.02</ele><time>2015-11-24T12:32:40Z</time></trkpt><trkpt lat="30.4415894765" lon="35.5047179852"><ele>1605.54</ele><time>2015-11-24T12:33:34Z</time></trkpt><trkpt lat="30.4415999539" lon="35.5047219247"><ele>1606.02</ele><time>2015-11-24T12:34:24Z</time></trkpt><trkpt lat="30.4415969364" lon="35.5047065858"><ele>1604.58</ele><time>2015-11-24T12:35:18Z</time></trkpt><trkpt lat="30.4415976908" lon="35.5047164764"><ele>1605.06</ele><time>2015-11-24T12:36:04Z</time></trkpt><trkpt lat="30.4415976070" lon="35.5047155544"><ele>1606.02</ele><time>2015-11-24T12:36:51Z</time></trkpt><trkpt lat="30.4416120239" lon="35.5047125369"><ele>1606.50</ele><time>2015-11-24T12:37:49Z</time></trkpt><trkpt lat="30.4415990319" lon="35.5047117826"><ele>1605.06</ele><time>2015-11-24T12:38:41Z</time></trkpt><trkpt lat="30.4415974393" lon="35.5047209188"><ele>1604.58</ele><time>2015-11-24T12:39:32Z</time></trkpt><trkpt lat="30.4416027199" lon="35.5046998803"><ele>1605.54</ele><time>2015-11-24T12:40:11Z</time></trkpt><trkpt lat="30.4416081682" lon="35.5047013890"><ele>1605.54</ele><time>2015-11-24T12:40:24Z</time></trkpt><trkpt lat="30.4416038934" lon="35.5047107767"><ele>1605.06</ele><time>2015-11-24T12:40:43Z</time></trkpt><trkpt lat="30.4416051507" lon="35.5047091842"><ele>1606.50</ele><time>2015-11-24T12:41:32Z</time></trkpt><trkpt lat="30.4415997025" lon="35.5047210865"><ele>1607.46</ele><time>2015-11-24T12:42:12Z</time></trkpt><trkpt lat="30.4415914882" lon="35.5047210865"><ele>1608.90</ele><time>2015-11-24T12:42:13Z</time></trkpt><trkpt lat="30.4415671807" lon="35.5047031492"><ele>1609.38</ele><time>2015-11-24T12:42:26Z</time></trkpt><trkpt lat="30.4415389337" lon="35.5047170632"><ele>1606.02</ele><time>2015-11-24T12:42:36Z</time></trkpt><trkpt lat="30.4414976947" lon="35.5047417898"><ele>1613.23</ele><time>2015-11-24T12:42:46Z</time></trkpt><trkpt lat="30.4414901510" lon="35.5047432147"><ele>1615.15</ele><time>2015-11-24T12:42:47Z</time></trkpt><trkpt lat="30.4414588027" lon="35.5047359224"><ele>1616.59</ele><time>2015-11-24T12:42:50Z</time></trkpt><trkpt lat="30.4414459784" lon="35.5047341622"><ele>1616.59</ele><time>2015-11-24T12:42:51Z</time></trkpt><trkpt lat="30.4413695354" lon="35.5047391914"><ele>1612.75</ele><time>2015-11-24T12:42:57Z</time></trkpt><trkpt lat="30.4411661066" lon="35.5046934262"><ele>1613.71</ele><time>2015-11-24T12:43:10Z</time></trkpt><trkpt lat="30.4409553856" lon="35.5046529416"><ele>1614.19</ele><time>2015-11-24T12:43:23Z</time></trkpt><trkpt lat="30.4407644458" lon="35.5046073440"><ele>1615.63</ele><time>2015-11-24T12:43:35Z</time></trkpt><trkpt lat="30.4407311697" lon="35.5046061706"><ele>1616.59</ele><time>2015-11-24T12:43:37Z</time></trkpt><trkpt lat="30.4405855760" lon="35.5046123732"><ele>1616.59</ele><time>2015-11-24T12:43:49Z</time></trkpt><trkpt lat="30.4405736737" lon="35.5046125408"><ele>1617.56</ele><time>2015-11-24T12:43:51Z</time></trkpt><trkpt lat="30.4405636992" lon="35.5046132952"><ele>1616.59</ele><time>2015-11-24T12:43:52Z</time></trkpt><trkpt lat="30.4405150004" lon="35.5046178214"><ele>1617.56</ele><time>2015-11-24T12:43:56Z</time></trkpt><trkpt lat="30.4403705802" lon="35.5046078470"><ele>1618.52</ele><time>2015-11-24T12:44:06Z</time></trkpt><trkpt lat="30.4402367212" lon="35.5046109483"><ele>1619.48</ele><time>2015-11-24T12:44:17Z</time></trkpt><trkpt lat="30.4401633795" lon="35.5045953579"><ele>1621.40</ele><time>2015-11-24T12:44:23Z</time></trkpt><trkpt lat="30.4401430115" lon="35.5045834556"><ele>1622.36</ele><time>2015-11-24T12:44:25Z</time></trkpt><trkpt lat="30.4398947395" lon="35.5045112874"><ele>1624.28</ele><time>2015-11-24T12:44:43Z</time></trkpt><trkpt lat="30.4398316238" lon="35.5044969544"><ele>1623.80</ele><time>2015-11-24T12:44:48Z</time></trkpt><trkpt lat="30.4396466352" lon="35.5044277199"><ele>1626.21</ele><time>2015-11-24T12:45:03Z</time></trkpt><trkpt lat="30.4395935778" lon="35.5044201761"><ele>1627.17</ele><time>2015-11-24T12:45:07Z</time></trkpt><trkpt lat="30.4394884687" lon="35.5043894146"><ele>1627.17</ele><time>2015-11-24T12:45:14Z</time></trkpt><trkpt lat="30.4394317232" lon="35.5043687951"><ele>1626.69</ele><time>2015-11-24T12:45:18Z</time></trkpt><trkpt lat="30.4392691981" lon="35.5043325014"><ele>1628.13</ele><time>2015-11-24T12:45:28Z</time></trkpt><trkpt lat="30.4391600657" lon="35.5043088645"><ele>1629.57</ele><time>2015-11-24T12:45:35Z</time></trkpt><trkpt lat="30.4389988817" lon="35.5042941961"><ele>1629.57</ele><time>2015-11-24T12:45:45Z</time></trkpt><trkpt lat="30.4387589917" lon="35.5042611714"><ele>1631.98</ele><time>2015-11-24T12:46:00Z</time></trkpt><trkpt lat="30.4385194369" lon="35.5042470898"><ele>1631.98</ele><time>2015-11-24T12:46:14Z</time></trkpt><trkpt lat="30.4382621963" lon="35.5042161606"><ele>1632.94</ele><time>2015-11-24T12:46:28Z</time></trkpt><trkpt lat="30.4379417561" lon="35.5041363649"><ele>1633.90</ele><time>2015-11-24T12:46:43Z</time></trkpt><trkpt lat="30.4378526565" lon="35.5041108839"><ele>1636.78</ele><time>2015-11-24T12:46:47Z</time></trkpt><trkpt lat="30.4376120120" lon="35.5040521268"><ele>1635.34</ele><time>2015-11-24T12:46:57Z</time></trkpt><trkpt lat="30.4372421186" lon="35.5040039308"><ele>1633.90</ele><time>2015-11-24T12:47:12Z</time></trkpt><trkpt lat="30.4370878916" lon="35.5039872508"><ele>1633.90</ele><time>2015-11-24T12:47:21Z</time></trkpt><trkpt lat="30.4369867221" lon="35.5039147474"><ele>1634.38</ele><time>2015-11-24T12:47:28Z</time></trkpt><trkpt lat="30.4369327426" lon="35.5038626119"><ele>1634.86</ele><time>2015-11-24T12:47:33Z</time></trkpt><trkpt lat="30.4368528631" lon="35.5037668068"><ele>1637.74</ele><time>2015-11-24T12:47:40Z</time></trkpt><trkpt lat="30.4366370291" lon="35.5036302656"><ele>1638.70</ele><time>2015-11-24T12:47:54Z</time></trkpt><trkpt lat="30.4365626816" lon="35.5035756156"><ele>1640.15</ele><time>2015-11-24T12:48:00Z</time></trkpt><trkpt lat="30.4365037568" lon="35.5034557544"><ele>1641.11</ele><time>2015-11-24T12:48:07Z</time></trkpt><trkpt lat="30.4364537168" lon="35.5033881124"><ele>1639.67</ele><time>2015-11-24T12:48:12Z</time></trkpt><trkpt lat="30.4363760166" lon="35.5031666625"><ele>1641.11</ele><time>2015-11-24T12:48:26Z</time></trkpt><trkpt lat="30.4362709075" lon="35.5029259343"><ele>1641.59</ele><time>2015-11-24T12:48:40Z</time></trkpt><trkpt lat="30.4361304268" lon="35.5026909895"><ele>1643.51</ele><time>2015-11-24T12:48:53Z</time></trkpt><trkpt lat="30.4359925445" lon="35.5024453159"><ele>1644.95</ele><time>2015-11-24T12:49:06Z</time></trkpt><trkpt lat="30.4358470347" lon="35.5022640154"><ele>1646.88</ele><time>2015-11-24T12:49:22Z</time></trkpt><trkpt lat="30.4357746989" lon="35.5021970440"><ele>1648.80</ele><time>2015-11-24T12:49:29Z</time></trkpt><trkpt lat="30.4356491379" lon="35.5019847304"><ele>1649.76</ele><time>2015-11-24T12:49:45Z</time></trkpt><trkpt lat="30.4356358945" lon="35.5019543879"><ele>1650.24</ele><time>2015-11-24T12:49:47Z</time></trkpt><trkpt lat="30.4355185479" lon="35.5018113088"><ele>1652.64</ele><time>2015-11-24T12:50:03Z</time></trkpt><trkpt lat="30.4354773927" lon="35.5017323513"><ele>1654.09</ele><time>2015-11-24T12:50:17Z</time></trkpt><trkpt lat="30.4354720283" lon="35.5017223768"><ele>1653.12</ele><time>2015-11-24T12:50:19Z</time></trkpt><trkpt lat="30.4353728704" lon="35.5013650563"><ele>1652.16</ele><time>2015-11-24T12:50:33Z</time></trkpt><trkpt lat="30.4353316315" lon="35.5013174471"><ele>1652.16</ele><time>2015-11-24T12:50:35Z</time></trkpt><trkpt lat="30.4351857025" lon="35.5012750346"><ele>1652.64</ele><time>2015-11-24T12:50:47Z</time></trkpt><trkpt lat="30.4351784103" lon="35.5013048742"><ele>1653.60</ele><time>2015-11-24T12:50:49Z</time></trkpt><trkpt lat="30.4350810125" lon="35.5015469436"><ele>1654.57</ele><time>2015-11-24T12:51:03Z</time></trkpt><trkpt lat="30.4350720439" lon="35.5015627015"><ele>1654.57</ele><time>2015-11-24T12:51:04Z</time></trkpt><trkpt lat="30.4350119457" lon="35.5016623624"><ele>1656.01</ele><time>2015-11-24T12:51:10Z</time></trkpt><trkpt lat="30.4349199962" lon="35.5019296613"><ele>1658.41</ele><time>2015-11-24T12:51:26Z</time></trkpt><trkpt lat="30.4348592274" lon="35.5019854847"><ele>1659.85</ele><time>2015-11-24T12:51:32Z</time></trkpt><trkpt lat="30.4346526135" lon="35.5021315813"><ele>1660.81</ele><time>2015-11-24T12:51:48Z</time></trkpt><trkpt lat="30.4345434811" lon="35.5022101197"><ele>1659.37</ele><time>2015-11-24T12:51:54Z</time></trkpt><trkpt lat="30.4341906868" lon="35.5024574697"><ele>1658.41</ele><time>2015-11-24T12:52:08Z</time></trkpt><trkpt lat="30.4339233879" lon="35.5027183983"><ele>1656.97</ele><time>2015-11-24T12:52:18Z</time></trkpt><trkpt lat="30.4338663910" lon="35.5027908180"><ele>1656.01</ele><time>2015-11-24T12:52:20Z</time></trkpt><trkpt lat="30.4337706696" lon="35.5029711965"><ele>1657.93</ele><time>2015-11-24T12:52:24Z</time></trkpt><trkpt lat="30.4336507246" lon="35.5032637250"><ele>1661.30</ele><time>2015-11-24T12:52:35Z</time></trkpt><trkpt lat="30.4335337132" lon="35.5035277549"><ele>1662.74</ele><time>2015-11-24T12:52:49Z</time></trkpt><trkpt lat="30.4335056338" lon="35.5036039464"><ele>1663.70</ele><time>2015-11-24T12:52:54Z</time></trkpt><trkpt lat="30.4334178753" lon="35.5038443394"><ele>1666.10</ele><time>2015-11-24T12:53:09Z</time></trkpt><trkpt lat="30.4333348945" lon="35.5040322617"><ele>1668.99</ele><time>2015-11-24T12:53:24Z</time></trkpt><trkpt lat="30.4331129417" lon="35.5040644482"><ele>1670.91</ele><time>2015-11-24T12:53:40Z</time></trkpt><trkpt lat="30.4330807552" lon="35.5040621851"><ele>1669.95</ele><time>2015-11-24T12:53:42Z</time></trkpt><trkpt lat="30.4327047430" lon="35.5040386319"><ele>1672.35</ele><time>2015-11-24T12:54:00Z</time></trkpt><trkpt lat="30.4325930960" lon="35.5040030926"><ele>1674.75</ele><time>2015-11-24T12:54:05Z</time></trkpt><trkpt lat="30.4323156551" lon="35.5038642045"><ele>1673.79</ele><time>2015-11-24T12:54:19Z</time></trkpt><trkpt lat="30.4320486076" lon="35.5035163555"><ele>1672.35</ele><time>2015-11-24T12:54:34Z</time></trkpt><trkpt lat="30.4319796246" lon="35.5034095701"><ele>1674.27</ele><time>2015-11-24T12:54:38Z</time></trkpt><trkpt lat="30.4316442646" lon="35.5032134335"><ele>1675.72</ele><time>2015-11-24T12:54:54Z</time></trkpt><trkpt lat="30.4314689152" lon="35.5032068118"><ele>1676.20</ele><time>2015-11-24T12:55:05Z</time></trkpt><trkpt lat="30.4313976690" lon="35.5032116733"><ele>1675.72</ele><time>2015-11-24T12:55:11Z</time></trkpt><trkpt lat="30.4312705994" lon="35.5032286886"><ele>1675.72</ele><time>2015-11-24T12:55:23Z</time></trkpt><trkpt lat="30.4312518239" lon="35.5032125954"><ele>1676.20</ele><time>2015-11-24T12:55:51Z</time></trkpt><trkpt lat="30.4312518239" lon="35.5032155290"><ele>1675.72</ele><time>2015-11-24T12:56:24Z</time></trkpt><trkpt lat="30.4312678333" lon="35.5032265931"><ele>1676.68</ele><time>2015-11-24T12:56:43Z</time></trkpt><trkpt lat="30.4312459566" lon="35.5032410100"><ele>1676.68</ele><time>2015-11-24T12:57:07Z</time></trkpt><trkpt lat="30.4312355630" lon="35.5032398365"><ele>1676.20</ele><time>2015-11-24T12:57:09Z</time></trkpt><trkpt lat="30.4311609641" lon="35.5032630544"><ele>1676.20</ele><time>2015-11-24T12:57:14Z</time></trkpt><trkpt lat="30.4307602253" lon="35.5034385715"><ele>1675.23</ele><time>2015-11-24T12:57:31Z</time></trkpt><trkpt lat="30.4303523619" lon="35.5036130827"><ele>1674.27</ele><time>2015-11-24T12:57:45Z</time></trkpt><trkpt lat="30.4301097896" lon="35.5036802217"><ele>1673.31</ele><time>2015-11-24T12:57:54Z</time></trkpt><trkpt lat="30.4296007566" lon="35.5038134940"><ele>1674.27</ele><time>2015-11-24T12:58:11Z</time></trkpt><trkpt lat="30.4292435199" lon="35.5038682278"><ele>1674.75</ele><time>2015-11-24T12:58:23Z</time></trkpt><trkpt lat="30.4288455471" lon="35.5038730893"><ele>1674.75</ele><time>2015-11-24T12:58:37Z</time></trkpt><trkpt lat="30.4284546990" lon="35.5037967302"><ele>1677.64</ele><time>2015-11-24T12:58:53Z</time></trkpt><trkpt lat="30.4282496776" lon="35.5038467702"><ele>1676.20</ele><time>2015-11-24T12:59:04Z</time></trkpt><trkpt lat="30.4279332608" lon="35.5040605087"><ele>1674.75</ele><time>2015-11-24T12:59:19Z</time></trkpt><trkpt lat="30.4275843222" lon="35.5044479202"><ele>1674.27</ele><time>2015-11-24T12:59:35Z</time></trkpt><trkpt lat="30.4272846691" lon="35.5046355072"><ele>1673.31</ele><time>2015-11-24T12:59:47Z</time></trkpt><trkpt lat="30.4268923961" lon="35.5048136227"><ele>1673.79</ele><time>2015-11-24T13:00:01Z</time></trkpt><trkpt lat="30.4267570283" lon="35.5048656743"><ele>1678.60</ele><time>2015-11-24T13:00:07Z</time></trkpt><trkpt lat="30.4267119337" lon="35.5048795044"><ele>1674.75</ele><time>2015-11-24T13:00:09Z</time></trkpt><trkpt lat="30.4263943434" lon="35.5048982799"><ele>1677.64</ele><time>2015-11-24T13:00:20Z</time></trkpt><trkpt lat="30.4261012282" lon="35.5048885569"><ele>1678.12</ele><time>2015-11-24T13:00:34Z</time></trkpt><trkpt lat="30.4259099532" lon="35.5048780795"><ele>1681.48</ele><time>2015-11-24T13:00:45Z</time></trkpt><trkpt lat="30.4258933570" lon="35.5048790853"><ele>1681.48</ele><time>2015-11-24T13:00:46Z</time></trkpt><trkpt lat="30.4257789440" lon="35.5048727989"><ele>1682.44</ele><time>2015-11-24T13:00:53Z</time></trkpt><trkpt lat="30.4257001542" lon="35.5048608966"><ele>1681.96</ele><time>2015-11-24T13:00:58Z</time></trkpt><trkpt lat="30.4256864078" lon="35.5048586335"><ele>1682.44</ele><time>2015-11-24T13:00:59Z</time></trkpt><trkpt lat="30.4255929496" lon="35.5048532691"><ele>1683.89</ele><time>2015-11-24T13:01:05Z</time></trkpt><trkpt lat="30.4255298339" lon="35.5048453901"><ele>1686.29</ele><time>2015-11-24T13:01:09Z</time></trkpt><trkpt lat="30.4254718311" lon="35.5048323981"><ele>1684.85</ele><time>2015-11-24T13:01:13Z</time></trkpt><trkpt lat="30.4254120681" lon="35.5048237648"><ele>1683.89</ele><time>2015-11-24T13:01:17Z</time></trkpt><trkpt lat="30.4252202064" lon="35.5047754850"><ele>1686.77</ele><time>2015-11-24T13:01:30Z</time></trkpt><trkpt lat="30.4250912927" lon="35.5047146324"><ele>1686.77</ele><time>2015-11-24T13:01:38Z</time></trkpt><trkpt lat="30.4248684179" lon="35.5046159774"><ele>1685.81</ele><time>2015-11-24T13:01:51Z</time></trkpt><trkpt lat="30.4248127621" lon="35.5045935977"><ele>1685.81</ele><time>2015-11-24T13:01:56Z</time></trkpt><trkpt lat="30.4245505761" lon="35.5045072641"><ele>1684.37</ele><time>2015-11-24T13:02:12Z</time></trkpt><trkpt lat="30.4245327227" lon="35.5045012292"><ele>1684.37</ele><time>2015-11-24T13:02:13Z</time></trkpt><trkpt lat="30.4244734626" lon="35.5044680368"><ele>1684.85</ele><time>2015-11-24T13:02:17Z</time></trkpt><trkpt lat="30.4241760727" lon="35.5043081101"><ele>1686.77</ele><time>2015-11-24T13:02:31Z</time></trkpt><trkpt lat="30.4241148010" lon="35.5042823777"><ele>1685.33</ele><time>2015-11-24T13:02:33Z</time></trkpt><trkpt lat="30.4240036570" lon="35.5042297393"><ele>1681.96</ele><time>2015-11-24T13:02:36Z</time></trkpt><trkpt lat="30.4239179101" lon="35.5041912664"><ele>1680.52</ele><time>2015-11-24T13:02:38Z</time></trkpt><trkpt lat="30.4235086218" lon="35.5040310882"><ele>1677.16</ele><time>2015-11-24T13:02:47Z</time></trkpt><trkpt lat="30.4234228749" lon="35.5040030926"><ele>1677.64</ele><time>2015-11-24T13:02:49Z</time></trkpt><trkpt lat="30.4231398180" lon="35.5038906075"><ele>1675.23</ele><time>2015-11-24T13:02:57Z</time></trkpt><trkpt lat="30.4227728583" lon="35.5036007613"><ele>1672.35</ele><time>2015-11-24T13:03:11Z</time></trkpt><trkpt lat="30.4225724470" lon="35.5032778904"><ele>1669.95</ele><time>2015-11-24T13:03:23Z</time></trkpt><trkpt lat="30.4224780668" lon="35.5032570194"><ele>1668.99</ele><time>2015-11-24T13:03:28Z</time></trkpt><trkpt lat="30.4222452175" lon="35.5031783972"><ele>1666.58</ele><time>2015-11-24T13:03:41Z</time></trkpt><trkpt lat="30.4218802694" lon="35.5030658282"><ele>1663.22</ele><time>2015-11-24T13:03:54Z</time></trkpt><trkpt lat="30.4215840530" lon="35.5030135252"><ele>1662.26</ele><time>2015-11-24T13:04:03Z</time></trkpt><trkpt lat="30.4214202706" lon="35.5029707775"><ele>1660.81</ele><time>2015-11-24T13:04:07Z</time></trkpt><trkpt lat="30.4212920275" lon="35.5029491521"><ele>1658.89</ele><time>2015-11-24T13:04:10Z</time></trkpt><trkpt lat="30.4211828951" lon="35.5029463023"><ele>1657.93</ele><time>2015-11-24T13:04:12Z</time></trkpt><trkpt lat="30.4208758660" lon="35.5029441230"><ele>1660.81</ele><time>2015-11-24T13:04:18Z</time></trkpt><trkpt lat="30.4206493031" lon="35.5029547680"><ele>1658.41</ele><time>2015-11-24T13:04:24Z</time></trkpt><trkpt lat="30.4203718621" lon="35.5028972682"><ele>1655.53</ele><time>2015-11-24T13:04:32Z</time></trkpt><trkpt lat="30.4202277772" lon="35.5028986931"><ele>1652.64</ele><time>2015-11-24T13:04:36Z</time></trkpt><trkpt lat="30.4200562835" lon="35.5029500742"><ele>1649.28</ele><time>2015-11-24T13:04:40Z</time></trkpt><trkpt lat="30.4197278805" lon="35.5031511560"><ele>1646.88</ele><time>2015-11-24T13:04:48Z</time></trkpt><trkpt lat="30.4195327498" lon="35.5034047924"><ele>1649.28</ele><time>2015-11-24T13:04:57Z</time></trkpt><trkpt lat="30.4194850568" lon="35.5035952292"><ele>1646.88</ele><time>2015-11-24T13:05:03Z</time></trkpt><trkpt lat="30.4193570651" lon="35.5038483627"><ele>1643.51</ele><time>2015-11-24T13:05:10Z</time></trkpt><trkpt lat="30.4191331845" lon="35.5040975567"><ele>1639.67</ele><time>2015-11-24T13:05:18Z</time></trkpt><trkpt lat="30.4191070329" lon="35.5041184276"><ele>1639.67</ele><time>2015-11-24T13:05:19Z</time></trkpt><trkpt lat="30.4189368803" lon="35.5042499397"><ele>1637.26</ele><time>2015-11-24T13:05:25Z</time></trkpt><trkpt lat="30.4188475292" lon="35.5043315794"><ele>1635.82</ele><time>2015-11-24T13:05:28Z</time></trkpt><trkpt lat="30.4186328687" lon="35.5045691226"><ele>1632.46</ele><time>2015-11-24T13:05:36Z</time></trkpt><trkpt lat="30.4184717685" lon="35.5047724675"><ele>1629.57</ele><time>2015-11-24T13:05:45Z</time></trkpt><trkpt lat="30.4182979278" lon="35.5049560312"><ele>1626.69</ele><time>2015-11-24T13:05:54Z</time></trkpt><trkpt lat="30.4182566050" lon="35.5049908161"><ele>1624.77</ele><time>2015-11-24T13:05:56Z</time></trkpt><trkpt lat="30.4181447066" lon="35.5050911475"><ele>1623.32</ele><time>2015-11-24T13:06:01Z</time></trkpt><trkpt lat="30.4180594627" lon="35.5051357392"><ele>1621.88</ele><time>2015-11-24T13:06:04Z</time></trkpt><trkpt lat="30.4177891463" lon="35.5051648244"><ele>1621.88</ele><time>2015-11-24T13:06:16Z</time></trkpt><trkpt lat="30.4176281299" lon="35.5051823426"><ele>1619.96</ele><time>2015-11-24T13:06:22Z</time></trkpt><trkpt lat="30.4174295627" lon="35.5052213185"><ele>1618.52</ele><time>2015-11-24T13:06:29Z</time></trkpt><trkpt lat="30.4171739146" lon="35.5053229909"><ele>1615.15</ele><time>2015-11-24T13:06:39Z</time></trkpt><trkpt lat="30.4171391297" lon="35.5053355638"><ele>1614.67</ele><time>2015-11-24T13:06:40Z</time></trkpt><trkpt lat="30.4168671370" lon="35.5053944886"><ele>1613.71</ele><time>2015-11-24T13:06:51Z</time></trkpt><trkpt lat="30.4167353734" lon="35.5054269265"><ele>1612.75</ele><time>2015-11-24T13:06:56Z</time></trkpt><trkpt lat="30.4165453557" lon="35.5054868571"><ele>1610.35</ele><time>2015-11-24T13:07:02Z</time></trkpt><trkpt lat="30.4163205530" lon="35.5055396631"><ele>1610.83</ele><time>2015-11-24T13:07:09Z</time></trkpt><trkpt lat="30.4162712675" lon="35.5055583548"><ele>1611.79</ele><time>2015-11-24T13:07:12Z</time></trkpt><trkpt lat="30.4162473790" lon="35.5055711791"><ele>1610.83</ele><time>2015-11-24T13:07:13Z</time></trkpt><trkpt lat="30.4162198864" lon="35.5055901222"><ele>1610.83</ele><time>2015-11-24T13:07:14Z</time></trkpt><trkpt lat="30.4161900468" lon="35.5056163576"><ele>1611.31</ele><time>2015-11-24T13:07:15Z</time></trkpt><trkpt lat="30.4161530826" lon="35.5056456942"><ele>1609.38</ele><time>2015-11-24T13:07:16Z</time></trkpt><trkpt lat="30.4161107540" lon="35.5056804791"><ele>1608.90</ele><time>2015-11-24T13:07:17Z</time></trkpt><trkpt lat="30.4160638992" lon="35.5057224724"><ele>1607.94</ele><time>2015-11-24T13:07:18Z</time></trkpt><trkpt lat="30.4160088301" lon="35.5057682376"><ele>1607.94</ele><time>2015-11-24T13:07:19Z</time></trkpt><trkpt lat="30.4158116039" lon="35.5059320200"><ele>1604.58</ele><time>2015-11-24T13:07:22Z</time></trkpt><trkpt lat="30.4157384299" lon="35.5060012545"><ele>1602.66</ele><time>2015-11-24T13:07:23Z</time></trkpt><trkpt lat="30.4156716261" lon="35.5060858279"><ele>1600.73</ele><time>2015-11-24T13:07:24Z</time></trkpt><trkpt lat="30.4156210832" lon="35.5061814655"><ele>1600.25</ele><time>2015-11-24T13:07:25Z</time></trkpt><trkpt lat="30.4155890644" lon="35.5062825512"><ele>1599.77</ele><time>2015-11-24T13:07:26Z</time></trkpt><trkpt lat="30.4155723006" lon="35.5063851457"><ele>1599.77</ele><time>2015-11-24T13:07:27Z</time></trkpt><trkpt lat="30.4155628290" lon="35.5064806994"><ele>1599.77</ele><time>2015-11-24T13:07:28Z</time></trkpt><trkpt lat="30.4155478254" lon="35.5065697152"><ele>1599.29</ele><time>2015-11-24T13:07:29Z</time></trkpt><trkpt lat="30.4155318160" lon="35.5066614132"><ele>1597.85</ele><time>2015-11-24T13:07:30Z</time></trkpt><trkpt lat="30.4154903255" lon="35.5069477390"><ele>1594.48</ele><time>2015-11-24T13:07:33Z</time></trkpt><trkpt lat="30.4153990466" lon="35.5076600332"><ele>1591.12</ele><time>2015-11-24T13:07:41Z</time></trkpt><trkpt lat="30.4153528623" lon="35.5080143362"><ele>1587.75</ele><time>2015-11-24T13:07:47Z</time></trkpt><trkpt lat="30.4153229389" lon="35.5080875941"><ele>1586.31</ele><time>2015-11-24T13:07:49Z</time></trkpt><trkpt lat="30.4153021518" lon="35.5081016757"><ele>1585.83</ele><time>2015-11-24T13:07:50Z</time></trkpt><trkpt lat="30.4152794369" lon="35.5081080459"><ele>1587.27</ele><time>2015-11-24T13:07:51Z</time></trkpt><trkpt lat="30.4152604938" lon="35.5081089679"><ele>1588.24</ele><time>2015-11-24T13:07:52Z</time></trkpt><trkpt lat="30.4152418021" lon="35.5081034359"><ele>1588.24</ele><time>2015-11-24T13:07:53Z</time></trkpt><trkpt lat="30.4152245354" lon="35.5081006698"><ele>1587.27</ele><time>2015-11-24T13:07:54Z</time></trkpt><trkpt lat="30.4152057599" lon="35.5081001669"><ele>1587.27</ele><time>2015-11-24T13:07:55Z</time></trkpt><trkpt lat="30.4151877388" lon="35.5081018433"><ele>1587.27</ele><time>2015-11-24T13:07:56Z</time></trkpt><trkpt lat="30.4151692986" lon="35.5080998316"><ele>1586.79</ele><time>2015-11-24T13:07:57Z</time></trkpt><trkpt lat="30.4151503555" lon="35.5080968980"><ele>1586.79</ele><time>2015-11-24T13:07:58Z</time></trkpt><trkpt lat="30.4148129839" lon="35.5080191139"><ele>1587.27</ele><time>2015-11-24T13:08:12Z</time></trkpt><trkpt lat="30.4144397378" lon="35.5079932138"><ele>1588.72</ele><time>2015-11-24T13:08:27Z</time></trkpt><trkpt lat="30.4139292799" lon="35.5079995841"><ele>1589.68</ele><time>2015-11-24T13:08:45Z</time></trkpt><trkpt lat="30.4135455564" lon="35.5080119055"><ele>1591.60</ele><time>2015-11-24T13:08:59Z</time></trkpt><trkpt lat="30.4132013116" lon="35.5080253165"><ele>1592.56</ele><time>2015-11-24T13:09:11Z</time></trkpt><trkpt lat="30.4126755986" lon="35.5079775397"><ele>1594.00</ele><time>2015-11-24T13:09:30Z</time></trkpt><trkpt lat="30.4122254066" lon="35.5078549962"><ele>1594.96</ele><time>2015-11-24T13:09:46Z</time></trkpt><trkpt lat="30.4117670842" lon="35.5076166987"><ele>1598.33</ele><time>2015-11-24T13:10:03Z</time></trkpt><trkpt lat="30.4113318119" lon="35.5073916446"><ele>1599.29</ele><time>2015-11-24T13:10:19Z</time></trkpt><trkpt lat="30.4110521916" lon="35.5072358251"><ele>1599.29</ele><time>2015-11-24T13:10:32Z</time></trkpt><trkpt lat="30.4106683005" lon="35.5070178956"><ele>1602.17</ele><time>2015-11-24T13:10:49Z</time></trkpt><trkpt lat="30.4102124926" lon="35.5067032389"><ele>1604.58</ele><time>2015-11-24T13:11:10Z</time></trkpt><trkpt lat="30.4100513086" lon="35.5065816175"><ele>1605.54</ele><time>2015-11-24T13:11:18Z</time></trkpt><trkpt lat="30.4096700996" lon="35.5062672123"><ele>1608.42</ele><time>2015-11-24T13:11:36Z</time></trkpt><trkpt lat="30.4092558660" lon="35.5059598479"><ele>1610.35</ele><time>2015-11-24T13:11:55Z</time></trkpt><trkpt lat="30.4089201707" lon="35.5056963209"><ele>1612.75</ele><time>2015-11-24T13:12:12Z</time></trkpt><trkpt lat="30.4086454120" lon="35.5054706801"><ele>1613.71</ele><time>2015-11-24T13:12:27Z</time></trkpt><trkpt lat="30.4083253071" lon="35.5052116793"><ele>1617.07</ele><time>2015-11-24T13:12:43Z</time></trkpt><trkpt lat="30.4080616124" lon="35.5050139502"><ele>1617.56</ele><time>2015-11-24T13:12:58Z</time></trkpt><trkpt lat="30.4078194592" lon="35.5048235133"><ele>1618.04</ele><time>2015-11-24T13:13:12Z</time></trkpt><trkpt lat="30.4074883740" lon="35.5045908317"><ele>1620.44</ele><time>2015-11-24T13:13:29Z</time></trkpt><trkpt lat="30.4071416985" lon="35.5044008140"><ele>1621.40</ele><time>2015-11-24T13:13:46Z</time></trkpt><trkpt lat="30.4067904130" lon="35.5042525381"><ele>1623.32</ele><time>2015-11-24T13:14:02Z</time></trkpt><trkpt lat="30.4063531291" lon="35.5041455012"><ele>1626.21</ele><time>2015-11-24T13:14:20Z</time></trkpt><trkpt lat="30.4059523065" lon="35.5040544737"><ele>1627.17</ele><time>2015-11-24T13:14:36Z</time></trkpt><trkpt lat="30.4055528250" lon="35.5039624404"><ele>1629.09</ele><time>2015-11-24T13:14:51Z</time></trkpt><trkpt lat="30.4052939918" lon="35.5039098021"><ele>1631.01</ele><time>2015-11-24T13:15:03Z</time></trkpt><trkpt lat="30.4048466496" lon="35.5038119853"><ele>1631.98</ele><time>2015-11-24T13:15:20Z</time></trkpt><trkpt lat="30.4042282328" lon="35.5036956444"><ele>1634.38</ele><time>2015-11-24T13:15:41Z</time></trkpt><trkpt lat="30.4037821479" lon="35.5036251526"><ele>1637.26</ele><time>2015-11-24T13:15:57Z</time></trkpt><trkpt lat="30.4033893719" lon="35.5035715923"><ele>1636.30</ele><time>2015-11-24T13:16:11Z</time></trkpt><trkpt lat="30.4030628968" lon="35.5035374779"><ele>1635.82</ele><time>2015-11-24T13:16:24Z</time></trkpt><trkpt lat="30.4026854597" lon="35.5035190377"><ele>1635.34</ele><time>2015-11-24T13:16:38Z</time></trkpt><trkpt lat="30.4024428036" lon="35.5035039503"><ele>1635.34</ele><time>2015-11-24T13:16:44Z</time></trkpt><trkpt lat="30.4023625050" lon="35.5034958199"><ele>1636.30</ele><time>2015-11-24T13:16:46Z</time></trkpt><trkpt lat="30.4017218761" lon="35.5034510605"><ele>1632.94</ele><time>2015-11-24T13:16:59Z</time></trkpt><trkpt lat="30.4014027771" lon="35.5034265853"><ele>1631.01</ele><time>2015-11-24T13:17:04Z</time></trkpt><trkpt lat="30.4008856975" lon="35.5033990927"><ele>1627.17</ele><time>2015-11-24T13:17:11Z</time></trkpt><trkpt lat="30.4008028004" lon="35.5033961590"><ele>1627.17</ele><time>2015-11-24T13:17:12Z</time></trkpt><trkpt lat="30.4005445540" lon="35.5033828318"><ele>1625.25</ele><time>2015-11-24T13:17:15Z</time></trkpt><trkpt lat="30.4001885746" lon="35.5033622123"><ele>1622.84</ele><time>2015-11-24T13:17:19Z</time></trkpt><trkpt lat="30.3995584231" lon="35.5033203028"><ele>1619.48</ele><time>2015-11-24T13:17:26Z</time></trkpt><trkpt lat="30.3994673118" lon="35.5033156089"><ele>1619.00</ele><time>2015-11-24T13:17:27Z</time></trkpt><trkpt lat="30.3992844187" lon="35.5033032876"><ele>1617.07</ele><time>2015-11-24T13:17:29Z</time></trkpt><trkpt lat="30.3984221723" lon="35.5032593664"><ele>1613.71</ele><time>2015-11-24T13:17:38Z</time></trkpt><trkpt lat="30.3982251976" lon="35.5032472126"><ele>1611.79</ele><time>2015-11-24T13:17:40Z</time></trkpt><trkpt lat="30.3978200164" lon="35.5032215640"><ele>1608.90</ele><time>2015-11-24T13:17:44Z</time></trkpt><trkpt lat="30.3976128157" lon="35.5032092426"><ele>1608.42</ele><time>2015-11-24T13:17:46Z</time></trkpt><trkpt lat="30.3968628030" lon="35.5031888746"><ele>1605.06</ele><time>2015-11-24T13:17:53Z</time></trkpt><trkpt lat="30.3961874731" lon="35.5033654813"><ele>1601.21</ele><time>2015-11-24T13:18:00Z</time></trkpt><trkpt lat="30.3961058334" lon="35.5034027807"><ele>1600.73</ele><time>2015-11-24T13:18:01Z</time></trkpt><trkpt lat="30.3953856602" lon="35.5039007496"><ele>1597.37</ele><time>2015-11-24T13:18:12Z</time></trkpt><trkpt lat="30.3953334410" lon="35.5039379653"><ele>1597.37</ele><time>2015-11-24T13:18:13Z</time></trkpt><trkpt lat="30.3945643175" lon="35.5045096111"><ele>1595.45</ele><time>2015-11-24T13:18:28Z</time></trkpt><trkpt lat="30.3938789293" lon="35.5050103460"><ele>1593.04</ele><time>2015-11-24T13:18:43Z</time></trkpt><trkpt lat="30.3937683720" lon="35.5051016249"><ele>1593.04</ele><time>2015-11-24T13:18:46Z</time></trkpt><trkpt lat="30.3936427273" lon="35.5052271020"><ele>1593.52</ele><time>2015-11-24T13:18:50Z</time></trkpt><trkpt lat="30.3936100379" lon="35.5052578636"><ele>1593.04</ele><time>2015-11-24T13:18:51Z</time></trkpt><trkpt lat="30.3935448267" lon="35.5053240806"><ele>1593.04</ele><time>2015-11-24T13:18:53Z</time></trkpt><trkpt lat="30.3931953851" lon="35.5058360472"><ele>1592.56</ele><time>2015-11-24T13:19:08Z</time></trkpt><trkpt lat="30.3929704987" lon="35.5064009875"><ele>1590.64</ele><time>2015-11-24T13:19:23Z</time></trkpt><trkpt lat="30.3928142600" lon="35.5069873016"><ele>1589.20</ele><time>2015-11-24T13:19:37Z</time></trkpt><trkpt lat="30.3926256672" lon="35.5077671539"><ele>1586.79</ele><time>2015-11-24T13:19:54Z</time></trkpt><trkpt lat="30.3924296144" lon="35.5085312482"><ele>1584.39</ele><time>2015-11-24T13:20:12Z</time></trkpt><trkpt lat="30.3922748845" lon="35.5091591366"><ele>1581.99</ele><time>2015-11-24T13:20:28Z</time></trkpt><trkpt lat="30.3921312187" lon="35.5097625498"><ele>1581.03</ele><time>2015-11-24T13:20:44Z</time></trkpt><trkpt lat="30.3919746447" lon="35.5103559047"><ele>1579.10</ele><time>2015-11-24T13:21:01Z</time></trkpt><trkpt lat="30.3917225171" lon="35.5109772552"><ele>1577.18</ele><time>2015-11-24T13:21:18Z</time></trkpt><trkpt lat="30.3913006559" lon="35.5116556864"><ele>1575.26</ele><time>2015-11-24T13:21:36Z</time></trkpt><trkpt lat="30.3909457661" lon="35.5122018512"><ele>1570.93</ele><time>2015-11-24T13:21:52Z</time></trkpt><trkpt lat="30.3905800637" lon="35.5127587449"><ele>1569.49</ele><time>2015-11-24T13:22:09Z</time></trkpt><trkpt lat="30.3903539199" lon="35.5131097790"><ele>1567.57</ele><time>2015-11-24T13:22:19Z</time></trkpt><trkpt lat="30.3898567054" lon="35.5136469752"><ele>1564.68</ele><time>2015-11-24T13:22:37Z</time></trkpt><trkpt lat="30.3895945195" lon="35.5138635635"><ele>1563.72</ele><time>2015-11-24T13:22:46Z</time></trkpt><trkpt lat="30.3893256281" lon="35.5140626337"><ele>1563.24</ele><time>2015-11-24T13:22:54Z</time></trkpt><trkpt lat="30.3892873228" lon="35.5140842590"><ele>1563.24</ele><time>2015-11-24T13:22:55Z</time></trkpt><trkpt lat="30.3892513644" lon="35.5141056329"><ele>1562.76</ele><time>2015-11-24T13:22:56Z</time></trkpt><trkpt lat="30.3892164957" lon="35.5141317844"><ele>1563.24</ele><time>2015-11-24T13:22:57Z</time></trkpt><trkpt lat="30.3891825490" lon="35.5141603667"><ele>1563.24</ele><time>2015-11-24T13:22:58Z</time></trkpt><trkpt lat="30.3885797225" lon="35.5146036856"><ele>1561.32</ele><time>2015-11-24T13:23:14Z</time></trkpt><trkpt lat="30.3883552551" lon="35.5147602595"><ele>1560.36</ele><time>2015-11-24T13:23:20Z</time></trkpt><trkpt lat="30.3880335577" lon="35.5149777699"><ele>1559.40</ele><time>2015-11-24T13:23:29Z</time></trkpt><trkpt lat="30.3874624986" lon="35.5153278820"><ele>1557.47</ele><time>2015-11-24T13:23:44Z</time></trkpt><trkpt lat="30.3869472630" lon="35.5154865514"><ele>1554.11</ele><time>2015-11-24T13:23:55Z</time></trkpt><trkpt lat="30.3866089694" lon="35.5154984538"><ele>1553.15</ele><time>2015-11-24T13:24:01Z</time></trkpt><trkpt lat="30.3857287019" lon="35.5152563844"><ele>1550.26</ele><time>2015-11-24T13:24:13Z</time></trkpt><trkpt lat="30.3846707381" lon="35.5150770117"><ele>1549.78</ele><time>2015-11-24T13:24:26Z</time></trkpt><trkpt lat="30.3843722586" lon="35.5151426420"><ele>1550.26</ele><time>2015-11-24T13:24:32Z</time></trkpt><trkpt lat="30.3839130979" lon="35.5152775906"><ele>1550.74</ele><time>2015-11-24T13:24:46Z</time></trkpt><trkpt lat="30.3834577091" lon="35.5154200830"><ele>1551.71</ele><time>2015-11-24T13:25:03Z</time></trkpt><trkpt lat="30.3830165695" lon="35.5155540258"><ele>1553.63</ele><time>2015-11-24T13:25:19Z</time></trkpt><trkpt lat="30.3823610209" lon="35.5157145392"><ele>1553.15</ele><time>2015-11-24T13:25:38Z</time></trkpt><trkpt lat="30.3821416665" lon="35.5157430377"><ele>1552.19</ele><time>2015-11-24T13:25:43Z</time></trkpt><trkpt lat="30.3820959851" lon="35.5157444626"><ele>1552.67</ele><time>2015-11-24T13:25:44Z</time></trkpt><trkpt lat="30.3820519801" lon="35.5157453008"><ele>1552.19</ele><time>2015-11-24T13:25:45Z</time></trkpt><trkpt lat="30.3818192147" lon="35.5157410260"><ele>1551.22</ele><time>2015-11-24T13:25:50Z</time></trkpt><trkpt lat="30.3817694262" lon="35.5157380924"><ele>1551.22</ele><time>2015-11-24T13:25:51Z</time></trkpt><trkpt lat="30.3815623932" lon="35.5157313868"><ele>1549.78</ele><time>2015-11-24T13:25:55Z</time></trkpt><trkpt lat="30.3806633502" lon="35.5155900680"><ele>1546.90</ele><time>2015-11-24T13:26:09Z</time></trkpt><trkpt lat="30.3798243217" lon="35.5154591426"><ele>1544.01</ele><time>2015-11-24T13:26:18Z</time></trkpt><trkpt lat="30.3793551028" lon="35.5153884832"><ele>1540.65</ele><time>2015-11-24T13:26:23Z</time></trkpt><trkpt lat="30.3783538844" lon="35.5152075179"><ele>1543.53</ele><time>2015-11-24T13:26:35Z</time></trkpt><trkpt lat="30.3775749542" lon="35.5150074419"><ele>1544.98</ele><time>2015-11-24T13:26:48Z</time></trkpt><trkpt lat="30.3772270214" lon="35.5148077849"><ele>1547.86</ele><time>2015-11-24T13:26:56Z</time></trkpt><trkpt lat="30.3769212496" lon="35.5145165138"><ele>1549.78</ele><time>2015-11-24T13:27:05Z</time></trkpt><trkpt lat="30.3764909226" lon="35.5140334647"><ele>1552.67</ele><time>2015-11-24T13:27:23Z</time></trkpt><trkpt lat="30.3761465102" lon="35.5136338994"><ele>1555.07</ele><time>2015-11-24T13:27:40Z</time></trkpt><trkpt lat="30.3757357970" lon="35.5131641775"><ele>1556.03</ele><time>2015-11-24T13:28:00Z</time></trkpt><trkpt lat="30.3754685819" lon="35.5128244590"><ele>1557.95</ele><time>2015-11-24T13:28:17Z</time></trkpt><trkpt lat="30.3754579369" lon="35.5128316674"><ele>1557.47</ele><time>2015-11-24T13:28:27Z</time></trkpt><trkpt lat="30.3754614573" lon="35.5128462519"><ele>1556.99</ele><time>2015-11-24T13:29:13Z</time></trkpt><trkpt lat="30.3754805680" lon="35.5128377024"><ele>1557.47</ele><time>2015-11-24T13:29:38Z</time></trkpt><trkpt lat="30.3755031154" lon="35.5128179211"><ele>1556.03</ele><time>2015-11-24T13:29:42Z</time></trkpt><trkpt lat="30.3755090665" lon="35.5128154065"><ele>1557.95</ele><time>2015-11-24T13:29:46Z</time></trkpt><trkpt lat="30.3755227290" lon="35.5128149036"><ele>1558.43</ele><time>2015-11-24T13:30:03Z</time></trkpt><trkpt lat="30.3755234834" lon="35.5128119700"><ele>1558.43</ele><time>2015-11-24T13:30:28Z</time></trkpt><trkpt lat="30.3755651414" lon="35.5127869081"><ele>1559.88</ele><time>2015-11-24T13:30:44Z</time></trkpt><trkpt lat="30.3755757865" lon="35.5127821304"><ele>1556.03</ele><time>2015-11-24T13:30:53Z</time></trkpt><trkpt lat="30.3755740263" lon="35.5127798673"><ele>1560.84</ele><time>2015-11-24T13:30:57Z</time></trkpt><trkpt lat="30.3755704220" lon="35.5127986427"><ele>1557.95</ele><time>2015-11-24T13:31:26Z</time></trkpt><trkpt lat="30.3755725175" lon="35.5128071923"><ele>1558.92</ele><time>2015-11-24T13:31:55Z</time></trkpt><trkpt lat="30.3755560890" lon="35.5128119700"><ele>1558.92</ele><time>2015-11-24T13:32:28Z</time></trkpt><trkpt lat="30.3755565081" lon="35.5128186755"><ele>1558.92</ele><time>2015-11-24T13:33:00Z</time></trkpt><trkpt lat="30.3755648062" lon="35.5128140654"><ele>1558.43</ele><time>2015-11-24T13:33:27Z</time></trkpt><trkpt lat="30.3755625430" lon="35.5127822142"><ele>1558.43</ele><time>2015-11-24T13:33:55Z</time></trkpt><trkpt lat="30.3755839169" lon="35.5127886683"><ele>1558.43</ele><time>2015-11-24T13:34:28Z</time></trkpt><trkpt lat="30.3755445220" lon="35.5127849802"><ele>1558.92</ele><time>2015-11-24T13:35:06Z</time></trkpt><trkpt lat="30.3755438514" lon="35.5127809569"><ele>1557.95</ele><time>2015-11-24T13:35:41Z</time></trkpt><trkpt lat="30.3755332064" lon="35.5127755925"><ele>1557.95</ele><time>2015-11-24T13:36:22Z</time></trkpt><trkpt lat="30.3755389061" lon="35.5127707310"><ele>1557.95</ele><time>2015-11-24T13:36:58Z</time></trkpt><trkpt lat="30.3755223937" lon="35.5127895903"><ele>1558.43</ele><time>2015-11-24T13:37:33Z</time></trkpt><trkpt lat="30.3755156882" lon="35.5127874948"><ele>1558.43</ele><time>2015-11-24T13:38:08Z</time></trkpt><trkpt lat="30.3755317815" lon="35.5127816275"><ele>1557.47</ele><time>2015-11-24T13:38:38Z</time></trkpt><trkpt lat="30.3755643871" lon="35.5127840582"><ele>1558.43</ele><time>2015-11-24T13:39:15Z</time></trkpt><trkpt lat="30.3755727690" lon="35.5127859022"><ele>1558.43</ele><time>2015-11-24T13:39:48Z</time></trkpt><trkpt lat="30.3755773790" lon="35.5128138140"><ele>1558.43</ele><time>2015-11-24T13:40:20Z</time></trkpt><trkpt lat="30.3755750321" lon="35.5127925240"><ele>1557.95</ele><time>2015-11-24T13:40:56Z</time></trkpt><trkpt lat="30.3755478747" lon="35.5127961282"><ele>1553.15</ele><time>2015-11-24T13:41:24Z</time></trkpt><trkpt lat="30.3755461983" lon="35.5127924401"><ele>1559.88</ele><time>2015-11-24T13:41:25Z</time></trkpt><trkpt lat="30.3755441867" lon="35.5127924401"><ele>1563.24</ele><time>2015-11-24T13:41:26Z</time></trkpt><trkpt lat="30.3755538259" lon="35.5127850641"><ele>1558.43</ele><time>2015-11-24T13:41:27Z</time></trkpt><trkpt lat="30.3755596932" lon="35.5127830524"><ele>1557.95</ele><time>2015-11-24T13:41:28Z</time></trkpt><trkpt lat="30.3755397443" lon="35.5127792805"><ele>1558.92</ele><time>2015-11-24T13:41:40Z</time></trkpt><trkpt lat="30.3754810710" lon="35.5128249619"><ele>1556.99</ele><time>2015-11-24T13:41:57Z</time></trkpt><trkpt lat="30.3754550032" lon="35.5128537957"><ele>1556.03</ele><time>2015-11-24T13:42:10Z</time></trkpt><trkpt lat="30.3754534945" lon="35.5128535442"><ele>1557.47</ele><time>2015-11-24T13:42:12Z</time></trkpt><trkpt lat="30.3754183743" lon="35.5128378700"><ele>1556.51</ele><time>2015-11-24T13:42:28Z</time></trkpt><trkpt lat="30.3754115850" lon="35.5128340144"><ele>1556.99</ele><time>2015-11-24T13:42:30Z</time></trkpt><trkpt lat="30.3753943183" lon="35.5128256325"><ele>1556.99</ele><time>2015-11-24T13:42:32Z</time></trkpt><trkpt lat="30.3753818292" lon="35.5128185079"><ele>1556.51</ele><time>2015-11-24T13:42:33Z</time></trkpt><trkpt lat="30.3753716033" lon="35.5128079467"><ele>1556.51</ele><time>2015-11-24T13:42:34Z</time></trkpt><trkpt lat="30.3753603715" lon="35.5127932783"><ele>1556.51</ele><time>2015-11-24T13:42:35Z</time></trkpt><trkpt lat="30.3753494751" lon="35.5127795320"><ele>1556.51</ele><time>2015-11-24T13:42:36Z</time></trkpt><trkpt lat="30.3753405064" lon="35.5127680488"><ele>1556.51</ele><time>2015-11-24T13:42:37Z</time></trkpt><trkpt lat="30.3751732875" lon="35.5125840660"><ele>1553.63</ele><time>2015-11-24T13:42:50Z</time></trkpt><trkpt lat="30.3751602955" lon="35.5125709902"><ele>1558.43</ele><time>2015-11-24T13:42:51Z</time></trkpt><trkpt lat="30.3751363233" lon="35.5125390552"><ele>1554.59</ele><time>2015-11-24T13:42:53Z</time></trkpt><trkpt lat="30.3751272708" lon="35.5125217047"><ele>1558.43</ele><time>2015-11-24T13:42:54Z</time></trkpt><trkpt lat="30.3750763088" lon="35.5124356225"><ele>1558.43</ele><time>2015-11-24T13:43:00Z</time></trkpt><trkpt lat="30.3750657476" lon="35.5124201160"><ele>1558.43</ele><time>2015-11-24T13:43:01Z</time></trkpt><trkpt lat="30.3750547674" lon="35.5124018434"><ele>1558.43</ele><time>2015-11-24T13:43:02Z</time></trkpt><trkpt lat="30.3750406019" lon="35.5123865046"><ele>1558.43</ele><time>2015-11-24T13:43:03Z</time></trkpt><trkpt lat="30.3750268556" lon="35.5123722553"><ele>1558.43</ele><time>2015-11-24T13:43:04Z</time></trkpt><trkpt lat="30.3750127740" lon="35.5123590119"><ele>1558.92</ele><time>2015-11-24T13:43:05Z</time></trkpt><trkpt lat="30.3750002850" lon="35.5123457685"><ele>1558.92</ele><time>2015-11-24T13:43:06Z</time></trkpt><trkpt lat="30.3749876283" lon="35.5123337824"><ele>1558.92</ele><time>2015-11-24T13:43:07Z</time></trkpt><trkpt lat="30.3749752231" lon="35.5123217124"><ele>1558.92</ele><time>2015-11-24T13:43:08Z</time></trkpt><trkpt lat="30.3749618959" lon="35.5123051163"><ele>1558.92</ele><time>2015-11-24T13:43:09Z</time></trkpt><trkpt lat="30.3749473114" lon="35.5122888554"><ele>1558.92</ele><time>2015-11-24T13:43:10Z</time></trkpt><trkpt lat="30.3749235068" lon="35.5122617818"><ele>1559.40</ele><time>2015-11-24T13:43:12Z</time></trkpt><trkpt lat="30.3749145381" lon="35.5122504663"><ele>1559.40</ele><time>2015-11-24T13:43:13Z</time></trkpt><trkpt lat="30.3749017976" lon="35.5122382287"><ele>1559.40</ele><time>2015-11-24T13:43:14Z</time></trkpt><trkpt lat="30.3748897277" lon="35.5122214649"><ele>1559.40</ele><time>2015-11-24T13:43:15Z</time></trkpt><trkpt lat="30.3748769872" lon="35.5121983308"><ele>1559.88</ele><time>2015-11-24T13:43:16Z</time></trkpt><trkpt lat="30.3748614807" lon="35.5121788848"><ele>1559.88</ele><time>2015-11-24T13:43:17Z</time></trkpt><trkpt lat="30.3748463932" lon="35.5121628754"><ele>1559.88</ele><time>2015-11-24T13:43:18Z</time></trkpt><trkpt lat="30.3745954391" lon="35.5119047128"><ele>1561.80</ele><time>2015-11-24T13:43:35Z</time></trkpt><trkpt lat="30.3743399587" lon="35.5117008649"><ele>1561.80</ele><time>2015-11-24T13:43:50Z</time></trkpt><trkpt lat="30.3740286548" lon="35.5115389265"><ele>1564.20</ele><time>2015-11-24T13:44:06Z</time></trkpt><trkpt lat="30.3737013415" lon="35.5114246812"><ele>1565.16</ele><time>2015-11-24T13:44:23Z</time></trkpt><trkpt lat="30.3732978366" lon="35.5113673490"><ele>1565.64</ele><time>2015-11-24T13:44:41Z</time></trkpt><trkpt lat="30.3729754686" lon="35.5114011280"><ele>1564.68</ele><time>2015-11-24T13:44:56Z</time></trkpt><trkpt lat="30.3726296313" lon="35.5114614777"><ele>1566.12</ele><time>2015-11-24T13:45:12Z</time></trkpt><trkpt lat="30.3722325806" lon="35.5115301255"><ele>1569.01</ele><time>2015-11-24T13:45:30Z</time></trkpt><trkpt lat="30.3717310075" lon="35.5116124358"><ele>1571.89</ele><time>2015-11-24T13:45:54Z</time></trkpt><trkpt lat="30.3712269198" lon="35.5115795787"><ele>1574.30</ele><time>2015-11-24T13:46:15Z</time></trkpt><trkpt lat="30.3707818408" lon="35.5114277825"><ele>1577.18</ele><time>2015-11-24T13:46:34Z</time></trkpt><trkpt lat="30.3705104347" lon="35.5112964381"><ele>1580.06</ele><time>2015-11-24T13:46:47Z</time></trkpt><trkpt lat="30.3703431319" lon="35.5112211686"><ele>1582.47</ele><time>2015-11-24T13:46:55Z</time></trkpt><trkpt lat="30.3698674589" lon="35.5109856371"><ele>1583.91</ele><time>2015-11-24T13:47:17Z</time></trkpt><trkpt lat="30.3694053646" lon="35.5107611697"><ele>1586.31</ele><time>2015-11-24T13:47:38Z</time></trkpt><trkpt lat="30.3689980879" lon="35.5105451681"><ele>1587.75</ele><time>2015-11-24T13:47:54Z</time></trkpt><trkpt lat="30.3689420968" lon="35.5105166696"><ele>1588.72</ele><time>2015-11-24T13:47:56Z</time></trkpt><trkpt lat="30.3684096783" lon="35.5102256499"><ele>1587.27</ele><time>2015-11-24T13:48:14Z</time></trkpt><trkpt lat="30.3678295668" lon="35.5097624660"><ele>1584.87</ele><time>2015-11-24T13:48:28Z</time></trkpt><trkpt lat="30.3674951289" lon="35.5093789939"><ele>1581.03</ele><time>2015-11-24T13:48:34Z</time></trkpt><trkpt lat="30.3671078011" lon="35.5088912509"><ele>1577.66</ele><time>2015-11-24T13:48:40Z</time></trkpt><trkpt lat="30.3670380637" lon="35.5088034086"><ele>1577.18</ele><time>2015-11-24T13:48:41Z</time></trkpt><trkpt lat="30.3666279372" lon="35.5083781108"><ele>1574.78</ele><time>2015-11-24T13:48:46Z</time></trkpt><trkpt lat="30.3659446444" lon="35.5080145039"><ele>1570.93</ele><time>2015-11-24T13:48:53Z</time></trkpt><trkpt lat="30.3653098829" lon="35.5079316907"><ele>1567.57</ele><time>2015-11-24T13:49:01Z</time></trkpt><trkpt lat="30.3650854155" lon="35.5079106521"><ele>1566.61</ele><time>2015-11-24T13:49:04Z</time></trkpt><trkpt lat="30.3644314595" lon="35.5078750290"><ele>1563.24</ele><time>2015-11-24T13:49:12Z</time></trkpt><trkpt lat="30.3642552719" lon="35.5078668147"><ele>1562.28</ele><time>2015-11-24T13:49:14Z</time></trkpt><trkpt lat="30.3640795033" lon="35.5078548286"><ele>1558.92</ele><time>2015-11-24T13:49:16Z</time></trkpt><trkpt lat="30.3636371903" lon="35.5078109074"><ele>1556.03</ele><time>2015-11-24T13:49:21Z</time></trkpt><trkpt lat="30.3629043605" lon="35.5077475403"><ele>1551.71</ele><time>2015-11-24T13:49:29Z</time></trkpt><trkpt lat="30.3626157716" lon="35.5077276751"><ele>1550.26</ele><time>2015-11-24T13:49:32Z</time></trkpt><trkpt lat="30.3622222412" lon="35.5076957401"><ele>1547.86</ele><time>2015-11-24T13:49:36Z</time></trkpt><trkpt lat="30.3612438217" lon="35.5076384917"><ele>1544.50</ele><time>2015-11-24T13:49:45Z</time></trkpt><trkpt lat="30.3611321747" lon="35.5076344684"><ele>1544.50</ele><time>2015-11-24T13:49:46Z</time></trkpt><trkpt lat="30.3608069569" lon="35.5076309480"><ele>1541.61</ele><time>2015-11-24T13:49:49Z</time></trkpt><trkpt lat="30.3601140250" lon="35.5076859333"><ele>1538.73</ele><time>2015-11-24T13:49:57Z</time></trkpt><trkpt lat="30.3599556070" lon="35.5077134259"><ele>1537.29</ele><time>2015-11-24T13:49:59Z</time></trkpt><trkpt lat="30.3596606478" lon="35.5077841692"><ele>1533.92</ele><time>2015-11-24T13:50:03Z</time></trkpt><trkpt lat="30.3591485973" lon="35.5079285055"><ele>1530.08</ele><time>2015-11-24T13:50:10Z</time></trkpt><trkpt lat="30.3589366190" lon="35.5079891905"><ele>1526.71</ele><time>2015-11-24T13:50:13Z</time></trkpt><trkpt lat="30.3588649537" lon="35.5080115702"><ele>1527.19</ele><time>2015-11-24T13:50:14Z</time></trkpt><trkpt lat="30.3582468722" lon="35.5081830639"><ele>1524.31</ele><time>2015-11-24T13:50:22Z</time></trkpt><trkpt lat="30.3577820119" lon="35.5083253887"><ele>1520.46</ele><time>2015-11-24T13:50:28Z</time></trkpt><trkpt lat="30.3576325625" lon="35.5083802901"><ele>1519.98</ele><time>2015-11-24T13:50:30Z</time></trkpt><trkpt lat="30.3574821074" lon="35.5084418971"><ele>1519.02</ele><time>2015-11-24T13:50:32Z</time></trkpt><trkpt lat="30.3571816161" lon="35.5085807852"><ele>1514.69</ele><time>2015-11-24T13:50:36Z</time></trkpt><trkpt lat="30.3567215335" lon="35.5088436417"><ele>1509.89</ele><time>2015-11-24T13:50:42Z</time></trkpt><trkpt lat="30.3565643728" lon="35.5089477450"><ele>1508.93</ele><time>2015-11-24T13:50:44Z</time></trkpt><trkpt lat="30.3561581019" lon="35.5092275329"><ele>1504.12</ele><time>2015-11-24T13:50:49Z</time></trkpt><trkpt lat="30.3559900448" lon="35.5093411077"><ele>1502.68</ele><time>2015-11-24T13:50:51Z</time></trkpt><trkpt lat="30.3557229973" lon="35.5095153674"><ele>1500.27</ele><time>2015-11-24T13:50:54Z</time></trkpt><trkpt lat="30.3554385994" lon="35.5096762162"><ele>1497.87</ele><time>2015-11-24T13:50:57Z</time></trkpt><trkpt lat="30.3551332466" lon="35.5098072253"><ele>1494.51</ele><time>2015-11-24T13:51:00Z</time></trkpt><trkpt lat="30.3549186699" lon="35.5098783877"><ele>1493.06</ele><time>2015-11-24T13:51:02Z</time></trkpt><trkpt lat="30.3545899317" lon="35.5099606141"><ele>1489.70</ele><time>2015-11-24T13:51:05Z</time></trkpt><trkpt lat="30.3541651368" lon="35.5100361351"><ele>1486.82</ele><time>2015-11-24T13:51:09Z</time></trkpt><trkpt lat="30.3540619556" lon="35.5100539047"><ele>1486.34</ele><time>2015-11-24T13:51:10Z</time></trkpt><trkpt lat="30.3529174905" lon="35.5102682300"><ele>1484.41</ele><time>2015-11-24T13:51:23Z</time></trkpt><trkpt lat="30.3515498154" lon="35.5105086230"><ele>1483.45</ele><time>2015-11-24T13:51:42Z</time></trkpt><trkpt lat="30.3504098766" lon="35.5107333418"><ele>1482.01</ele><time>2015-11-24T13:52:00Z</time></trkpt><trkpt lat="30.3494887892" lon="35.5107295699"><ele>1482.49</ele><time>2015-11-24T13:52:15Z</time></trkpt><trkpt lat="30.3487536963" lon="35.5105092935"><ele>1482.49</ele><time>2015-11-24T13:52:27Z</time></trkpt><trkpt lat="30.3483498562" lon="35.5103533063"><ele>1481.05</ele><time>2015-11-24T13:52:34Z</time></trkpt><trkpt lat="30.3482937813" lon="35.5103346985"><ele>1480.57</ele><time>2015-11-24T13:52:35Z</time></trkpt><trkpt lat="30.3473229054" lon="35.5099726841"><ele>1478.16</ele><time>2015-11-24T13:52:52Z</time></trkpt><trkpt lat="30.3463333379" lon="35.5097183771"><ele>1475.76</ele><time>2015-11-24T13:53:08Z</time></trkpt><trkpt lat="30.3459532186" lon="35.5098109134"><ele>1475.28</ele><time>2015-11-24T13:53:14Z</time></trkpt><trkpt lat="30.3458963893" lon="35.5098415073"><ele>1475.28</ele><time>2015-11-24T13:53:15Z</time></trkpt><trkpt lat="30.3456992470" lon="35.5099814013"><ele>1473.84</ele><time>2015-11-24T13:53:19Z</time></trkpt><trkpt lat="30.3456580080" lon="35.5100205448"><ele>1473.84</ele><time>2015-11-24T13:53:20Z</time></trkpt><trkpt lat="30.3452655673" lon="35.5106051825"><ele>1473.36</ele><time>2015-11-24T13:53:33Z</time></trkpt><trkpt lat="30.3449044749" lon="35.5111891497"><ele>1474.80</ele><time>2015-11-24T13:53:50Z</time></trkpt><trkpt lat="30.3445502557" lon="35.5114775710"><ele>1475.76</ele><time>2015-11-24T13:54:06Z</time></trkpt><trkpt lat="30.3442579787" lon="35.5115799140"><ele>1478.65</ele><time>2015-11-24T13:54:19Z</time></trkpt><trkpt lat="30.3439027537" lon="35.5115807522"><ele>1482.01</ele><time>2015-11-24T13:54:38Z</time></trkpt><trkpt lat="30.3435760271" lon="35.5115400162"><ele>1483.45</ele><time>2015-11-24T13:54:57Z</time></trkpt><trkpt lat="30.3432479594" lon="35.5115157086"><ele>1484.41</ele><time>2015-11-24T13:55:15Z</time></trkpt><trkpt lat="30.3429050557" lon="35.5115065724"><ele>1487.30</ele><time>2015-11-24T13:55:30Z</time></trkpt><trkpt lat="30.3424403630" lon="35.5115392618"><ele>1487.78</ele><time>2015-11-24T13:55:48Z</time></trkpt><trkpt lat="30.3419089504" lon="35.5116089154"><ele>1487.78</ele><time>2015-11-24T13:56:05Z</time></trkpt><trkpt lat="30.3415349498" lon="35.5116510764"><ele>1490.66</ele><time>2015-11-24T13:56:16Z</time></trkpt><trkpt lat="30.3414359596" lon="35.5116572790"><ele>1489.22</ele><time>2015-11-24T13:56:19Z</time></trkpt><trkpt lat="30.3407778125" lon="35.5117307045"><ele>1489.22</ele><time>2015-11-24T13:56:37Z</time></trkpt><trkpt lat="30.3399855550" lon="35.5117585324"><ele>1490.18</ele><time>2015-11-24T13:56:57Z</time></trkpt><trkpt lat="30.3395125642" lon="35.5116114300"><ele>1493.55</ele><time>2015-11-24T13:57:12Z</time></trkpt><trkpt lat="30.3391839936" lon="35.5114042293"><ele>1496.91</ele><time>2015-11-24T13:57:26Z</time></trkpt><trkpt lat="30.3388559259" lon="35.5111606512"><ele>1499.31</ele><time>2015-11-24T13:57:41Z</time></trkpt><trkpt lat="30.3384559415" lon="35.5109639280"><ele>1500.76</ele><time>2015-11-24T13:57:59Z</time></trkpt><trkpt lat="30.3380090185" lon="35.5110437237"><ele>1502.68</ele><time>2015-11-24T13:58:16Z</time></trkpt><trkpt lat="30.3376437351" lon="35.5112504214"><ele>1503.16</ele><time>2015-11-24T13:58:29Z</time></trkpt><trkpt lat="30.3372233827" lon="35.5113572069"><ele>1502.20</ele><time>2015-11-24T13:58:43Z</time></trkpt><trkpt lat="30.3367312811" lon="35.5110609066"><ele>1501.24</ele><time>2015-11-24T13:58:58Z</time></trkpt><trkpt lat="30.3366575204" lon="35.5109968688"><ele>1500.27</ele><time>2015-11-24T13:59:00Z</time></trkpt><trkpt lat="30.3365783114" lon="35.5109335855"><ele>1499.31</ele><time>2015-11-24T13:59:02Z</time></trkpt><trkpt lat="30.3365355637" lon="35.5109063443"><ele>1499.31</ele><time>2015-11-24T13:59:03Z</time></trkpt><trkpt lat="30.3364916425" lon="35.5108804442"><ele>1499.31</ele><time>2015-11-24T13:59:04Z</time></trkpt><trkpt lat="30.3363449592" lon="35.5108201783"><ele>1498.83</ele><time>2015-11-24T13:59:07Z</time></trkpt><trkpt lat="30.3361621499" lon="35.5107927695"><ele>1500.27</ele><time>2015-11-24T13:59:10Z</time></trkpt><trkpt lat="30.3360927477" lon="35.5107964575"><ele>1500.27</ele><time>2015-11-24T13:59:11Z</time></trkpt><trkpt lat="30.3360202443" lon="35.5108073540"><ele>1499.31</ele><time>2015-11-24T13:59:12Z</time></trkpt><trkpt lat="30.3359473217" lon="35.5108241178"><ele>1498.83</ele><time>2015-11-24T13:59:13Z</time></trkpt><trkpt lat="30.3358733095" lon="35.5108459108"><ele>1498.35</ele><time>2015-11-24T13:59:14Z</time></trkpt><trkpt lat="30.3356376942" lon="35.5109173246"><ele>1494.99</ele><time>2015-11-24T13:59:17Z</time></trkpt><trkpt lat="30.3355523665" lon="35.5109433085"><ele>1495.47</ele><time>2015-11-24T13:59:18Z</time></trkpt><trkpt lat="30.3351735044" lon="35.5110406224"><ele>1493.55</ele><time>2015-11-24T13:59:22Z</time></trkpt><trkpt lat="30.3350732569" lon="35.5110386945"><ele>1492.58</ele><time>2015-11-24T13:59:23Z</time></trkpt><trkpt lat="30.3349706624" lon="35.5110197514"><ele>1491.62</ele><time>2015-11-24T13:59:24Z</time></trkpt><trkpt lat="30.3348688222" lon="35.5109825358"><ele>1490.18</ele><time>2015-11-24T13:59:25Z</time></trkpt><trkpt lat="30.3347715922" lon="35.5109255388"><ele>1489.70</ele><time>2015-11-24T13:59:26Z</time></trkpt><trkpt lat="30.3346788883" lon="35.5108524486"><ele>1488.74</ele><time>2015-11-24T13:59:27Z</time></trkpt><trkpt lat="30.3345877770" lon="35.5107694678"><ele>1487.78</ele><time>2015-11-24T13:59:28Z</time></trkpt><trkpt lat="30.3342352342" lon="35.5104715750"><ele>1483.93</ele><time>2015-11-24T13:59:32Z</time></trkpt><trkpt lat="30.3341463860" lon="35.5104249716"><ele>1482.97</ele><time>2015-11-24T13:59:33Z</time></trkpt><trkpt lat="30.3340527602" lon="35.5103875883"><ele>1482.49</ele><time>2015-11-24T13:59:34Z</time></trkpt><trkpt lat="30.3339524288" lon="35.5103586707"><ele>1482.49</ele><time>2015-11-24T13:59:35Z</time></trkpt><trkpt lat="30.3338473197" lon="35.5103401467"><ele>1482.49</ele><time>2015-11-24T13:59:36Z</time></trkpt><trkpt lat="30.3337397799" lon="35.5103320163"><ele>1481.53</ele><time>2015-11-24T13:59:37Z</time></trkpt><trkpt lat="30.3336303961" lon="35.5103403982"><ele>1480.57</ele><time>2015-11-24T13:59:38Z</time></trkpt><trkpt lat="30.3335198388" lon="35.5103580840"><ele>1480.09</ele><time>2015-11-24T13:59:39Z</time></trkpt><trkpt lat="30.3326648008" lon="35.5105268117"><ele>1476.72</ele><time>2015-11-24T13:59:47Z</time></trkpt><trkpt lat="30.3321707714" lon="35.5104343593"><ele>1474.80</ele><time>2015-11-24T13:59:52Z</time></trkpt><trkpt lat="30.3313391190" lon="35.5101275817"><ele>1475.76</ele><time>2015-11-24T14:00:03Z</time></trkpt><trkpt lat="30.3304970730" lon="35.5097526591"><ele>1474.32</ele><time>2015-11-24T14:00:18Z</time></trkpt><trkpt lat="30.3303618729" lon="35.5096731987"><ele>1475.28</ele><time>2015-11-24T14:00:21Z</time></trkpt><trkpt lat="30.3298947494" lon="35.5093194824"><ele>1473.36</ele><time>2015-11-24T14:00:32Z</time></trkpt><trkpt lat="30.3291127179" lon="35.5088687036"><ele>1470.47</ele><time>2015-11-24T14:00:45Z</time></trkpt><trkpt lat="30.3288423177" lon="35.5087684561"><ele>1468.55</ele><time>2015-11-24T14:00:48Z</time></trkpt><trkpt lat="30.3284533974" lon="35.5086107086"><ele>1464.23</ele><time>2015-11-24T14:00:52Z</time></trkpt><trkpt lat="30.3283614479" lon="35.5085568968"><ele>1462.30</ele><time>2015-11-24T14:00:53Z</time></trkpt><trkpt lat="30.3282795567" lon="35.5084925238"><ele>1460.86</ele><time>2015-11-24T14:00:54Z</time></trkpt><trkpt lat="30.3282062151" lon="35.5084141530"><ele>1459.42</ele><time>2015-11-24T14:00:55Z</time></trkpt><trkpt lat="30.3281417582" lon="35.5083165038"><ele>1458.46</ele><time>2015-11-24T14:00:56Z</time></trkpt><trkpt lat="30.3280871920" lon="35.5082015041"><ele>1457.50</ele><time>2015-11-24T14:00:57Z</time></trkpt><trkpt lat="30.3280444443" lon="35.5080729257"><ele>1456.53</ele><time>2015-11-24T14:00:58Z</time></trkpt><trkpt lat="30.3280207235" lon="35.5079326127"><ele>1456.05</ele><time>2015-11-24T14:00:59Z</time></trkpt><trkpt lat="30.3280166164" lon="35.5077819899"><ele>1454.61</ele><time>2015-11-24T14:01:00Z</time></trkpt><trkpt lat="30.3280246630" lon="35.5076255836"><ele>1453.17</ele><time>2015-11-24T14:01:01Z</time></trkpt><trkpt lat="30.3280495573" lon="35.5072949175"><ele>1450.29</ele><time>2015-11-24T14:01:03Z</time></trkpt><trkpt lat="30.3280898742" lon="35.5067639239"><ele>1446.44</ele><time>2015-11-24T14:01:06Z</time></trkpt><trkpt lat="30.3281238209" lon="35.5062530469"><ele>1442.11</ele><time>2015-11-24T14:01:09Z</time></trkpt><trkpt lat="30.3281097393" lon="35.5059923697"><ele>1439.23</ele><time>2015-11-24T14:01:11Z</time></trkpt><trkpt lat="30.3280830011" lon="35.5058709159"><ele>1438.75</ele><time>2015-11-24T14:01:12Z</time></trkpt><trkpt lat="30.3280445281" lon="35.5057470314"><ele>1437.79</ele><time>2015-11-24T14:01:13Z</time></trkpt><trkpt lat="30.3279988468" lon="35.5056243204"><ele>1436.35</ele><time>2015-11-24T14:01:14Z</time></trkpt><trkpt lat="30.3279445320" lon="35.5055063032"><ele>1434.91</ele><time>2015-11-24T14:01:15Z</time></trkpt><trkpt lat="30.3278801590" lon="35.5053934827"><ele>1434.91</ele><time>2015-11-24T14:01:16Z</time></trkpt><trkpt lat="30.3278058115" lon="35.5052883737"><ele>1432.98</ele><time>2015-11-24T14:01:17Z</time></trkpt><trkpt lat="30.3277236689" lon="35.5051910598"><ele>1432.50</ele><time>2015-11-24T14:01:18Z</time></trkpt><trkpt lat="30.3276359942" lon="35.5051030498"><ele>1430.58</ele><time>2015-11-24T14:01:19Z</time></trkpt><trkpt lat="30.3275446314" lon="35.5050242599"><ele>1428.66</ele><time>2015-11-24T14:01:20Z</time></trkpt><trkpt lat="30.3274493292" lon="35.5049562827"><ele>1427.21</ele><time>2015-11-24T14:01:21Z</time></trkpt><trkpt lat="30.3273459803" lon="35.5048954301"><ele>1426.25</ele><time>2015-11-24T14:01:22Z</time></trkpt><trkpt lat="30.3272351716" lon="35.5048373435"><ele>1423.85</ele><time>2015-11-24T14:01:23Z</time></trkpt><trkpt lat="30.3271190822" lon="35.5047799274"><ele>1423.85</ele><time>2015-11-24T14:01:24Z</time></trkpt><trkpt lat="30.3268745821" lon="35.5046614911"><ele>1419.52</ele><time>2015-11-24T14:01:26Z</time></trkpt><trkpt lat="30.3264809679" lon="35.5044685397"><ele>1414.24</ele><time>2015-11-24T14:01:29Z</time></trkpt><trkpt lat="30.3261043690" lon="35.5042306613"><ele>1410.87</ele><time>2015-11-24T14:01:32Z</time></trkpt><trkpt lat="30.3259959910" lon="35.5041304976"><ele>1409.43</ele><time>2015-11-24T14:01:33Z</time></trkpt><trkpt lat="30.3258949053" lon="35.5040210299"><ele>1407.99</ele><time>2015-11-24T14:01:34Z</time></trkpt><trkpt lat="30.3256277740" lon="35.5036855023"><ele>1403.18</ele><time>2015-11-24T14:01:37Z</time></trkpt><trkpt lat="30.3254775703" lon="35.5034929700"><ele>1399.34</ele><time>2015-11-24T14:01:39Z</time></trkpt><trkpt lat="30.3253260255" lon="35.5033254158"><ele>1395.01</ele><time>2015-11-24T14:01:41Z</time></trkpt><trkpt lat="30.3252395242" lon="35.5032472964"><ele>1394.53</ele><time>2015-11-24T14:01:42Z</time></trkpt><trkpt lat="30.3251471557" lon="35.5031798221"><ele>1393.09</ele><time>2015-11-24T14:01:43Z</time></trkpt><trkpt lat="30.3250453994" lon="35.5031244177"><ele>1392.61</ele><time>2015-11-24T14:01:44Z</time></trkpt><trkpt lat="30.3249319084" lon="35.5030769762"><ele>1391.17</ele><time>2015-11-24T14:01:45Z</time></trkpt><trkpt lat="30.3248117119" lon="35.5030364916"><ele>1390.20</ele><time>2015-11-24T14:01:46Z</time></trkpt><trkpt lat="30.3246879950" lon="35.5030063167"><ele>1388.28</ele><time>2015-11-24T14:01:47Z</time></trkpt><trkpt lat="30.3245605063" lon="35.5029845238"><ele>1387.32</ele><time>2015-11-24T14:01:48Z</time></trkpt><trkpt lat="30.3244290780" lon="35.5029629823"><ele>1386.36</ele><time>2015-11-24T14:01:49Z</time></trkpt><trkpt lat="30.3241750225" lon="35.5029048119"><ele>1382.99</ele><time>2015-11-24T14:01:51Z</time></trkpt><trkpt lat="30.3240606934" lon="35.5028575379"><ele>1381.55</ele><time>2015-11-24T14:01:52Z</time></trkpt><trkpt lat="30.3239559196" lon="35.5027881358"><ele>1380.11</ele><time>2015-11-24T14:01:53Z</time></trkpt><trkpt lat="30.3238593601" lon="35.5026972760"><ele>1379.15</ele><time>2015-11-24T14:01:54Z</time></trkpt><trkpt lat="30.3237681650" lon="35.5025874730"><ele>1377.71</ele><time>2015-11-24T14:01:55Z</time></trkpt><trkpt lat="30.3236812446" lon="35.5024689529"><ele>1376.26</ele><time>2015-11-24T14:01:56Z</time></trkpt><trkpt lat="30.3236024547" lon="35.5023471639"><ele>1374.34</ele><time>2015-11-24T14:01:57Z</time></trkpt><trkpt lat="30.3235312086" lon="35.5022230279"><ele>1373.86</ele><time>2015-11-24T14:01:58Z</time></trkpt><trkpt lat="30.3234706074" lon="35.5020940304"><ele>1371.94</ele><time>2015-11-24T14:01:59Z</time></trkpt><trkpt lat="30.3234276082" lon="35.5019580759"><ele>1370.50</ele><time>2015-11-24T14:02:00Z</time></trkpt><trkpt lat="30.3234038875" lon="35.5018138234"><ele>1369.05</ele><time>2015-11-24T14:02:01Z</time></trkpt><trkpt lat="30.3233996127" lon="35.5016605183"><ele>1367.61</ele><time>2015-11-24T14:02:02Z</time></trkpt><trkpt lat="30.3234074917" lon="35.5014994182"><ele>1366.17</ele><time>2015-11-24T14:02:03Z</time></trkpt><trkpt lat="30.3234239202" lon="35.5013328698"><ele>1364.73</ele><time>2015-11-24T14:02:04Z</time></trkpt><trkpt lat="30.3234627284" lon="35.5010153633"><ele>1360.88</ele><time>2015-11-24T14:02:06Z</time></trkpt><trkpt lat="30.3234895505" lon="35.5007451307"><ele>1358.00</ele><time>2015-11-24T14:02:08Z</time></trkpt><trkpt lat="30.3234933224" lon="35.5006296281"><ele>1356.56</ele><time>2015-11-24T14:02:09Z</time></trkpt><trkpt lat="30.3234895505" lon="35.5005241837"><ele>1355.60</ele><time>2015-11-24T14:02:10Z</time></trkpt><trkpt lat="30.3234799113" lon="35.5004218407"><ele>1354.15</ele><time>2015-11-24T14:02:11Z</time></trkpt><trkpt lat="30.3234211542" lon="35.5001076031"><ele>1351.75</ele><time>2015-11-24T14:02:14Z</time></trkpt><trkpt lat="30.3233553562" lon="35.4999036714"><ele>1347.43</ele><time>2015-11-24T14:02:16Z</time></trkpt><trkpt lat="30.3233185597" lon="35.4998039268"><ele>1346.94</ele><time>2015-11-24T14:02:17Z</time></trkpt><trkpt lat="30.3232142050" lon="35.4995212890"><ele>1344.06</ele><time>2015-11-24T14:02:21Z</time></trkpt><trkpt lat="30.3231379297" lon="35.4993356299"><ele>1341.18</ele><time>2015-11-24T14:02:24Z</time></trkpt><trkpt lat="30.3230528533" lon="35.4989861045"><ele>1338.29</ele><time>2015-11-24T14:02:28Z</time></trkpt><trkpt lat="30.3230443876" lon="35.4988759663"><ele>1337.33</ele><time>2015-11-24T14:02:29Z</time></trkpt><trkpt lat="30.3230472375" lon="35.4987701867"><ele>1335.89</ele><time>2015-11-24T14:02:30Z</time></trkpt><trkpt lat="30.3230620734" lon="35.4986725375"><ele>1335.41</ele><time>2015-11-24T14:02:31Z</time></trkpt><trkpt lat="30.3230892308" lon="35.4985822644"><ele>1334.45</ele><time>2015-11-24T14:02:32Z</time></trkpt><trkpt lat="30.3231249377" lon="35.4985033069"><ele>1333.01</ele><time>2015-11-24T14:02:33Z</time></trkpt><trkpt lat="30.3231686912" lon="35.4984317254"><ele>1331.56</ele><time>2015-11-24T14:02:34Z</time></trkpt><trkpt lat="30.3232204914" lon="35.4983645026"><ele>1330.60</ele><time>2015-11-24T14:02:35Z</time></trkpt><trkpt lat="30.3232754767" lon="35.4983080924"><ele>1329.64</ele><time>2015-11-24T14:02:36Z</time></trkpt><trkpt lat="30.3233288694" lon="35.4982606508"><ele>1328.68</ele><time>2015-11-24T14:02:37Z</time></trkpt><trkpt lat="30.3235101700" lon="35.4981214274"><ele>1325.31</ele><time>2015-11-24T14:02:41Z</time></trkpt><trkpt lat="30.3235624731" lon="35.4980955273"><ele>1324.35</ele><time>2015-11-24T14:02:42Z</time></trkpt><trkpt lat="30.3237535805" lon="35.4980170727"><ele>1322.43</ele><time>2015-11-24T14:02:46Z</time></trkpt><trkpt lat="30.3240540717" lon="35.4978729878"><ele>1319.55</ele><time>2015-11-24T14:02:56Z</time></trkpt><trkpt lat="30.3243119828" lon="35.4976877477"><ele>1317.14</ele><time>2015-11-24T14:03:07Z</time></trkpt><trkpt lat="30.3245068621" lon="35.4976528790"><ele>1316.18</ele><time>2015-11-24T14:03:16Z</time></trkpt><trkpt lat="30.3244993184" lon="35.4976510350"><ele>1315.70</ele><time>2015-11-24T14:03:45Z</time></trkpt></trkseg></trk></gpx>